<?xml version="1.0" encoding="UTF-8" standalone="no" ?>
<gpx xmlns="http://www.topografix.com/GPX/1/1" xmlns:xsi="http://www.w3.org/2001/XMLSchema-instance" xsi:schemaLocation="http://www.topografix.com/GPX/1/1 http://www.topografix.com/GPX/1/1/gpx.xsd" version="1.1" creator="VisuGPX - https://www.visugpx.com">
  <metadata>
    <name>Rando VTT Parthenay 2023</name>
    <desc><![CDATA[Très bof]]></desc>
  </metadata>
  <trk>
    <name><![CDATA[Rando VTT Parthenay 2023_1]]></name>
    <trkseg>
      <trkpt lat="46.65017" lon="-0.23563">
        <ele>158.4</ele>
        <time>2023-02-12T07:37:47Z</time>
      </trkpt>
      <trkpt lat="46.65018" lon="-0.23562">
        <ele>158.4</ele>
        <time>2023-02-12T07:37:58Z</time>
      </trkpt>
      <trkpt lat="46.65019" lon="-0.23555">
        <ele>158.4</ele>
        <time>2023-02-12T07:38:04Z</time>
      </trkpt>
      <trkpt lat="46.6502" lon="-0.2354">
        <ele>158.4</ele>
        <time>2023-02-12T07:38:09Z</time>
      </trkpt>
      <trkpt lat="46.65015" lon="-0.23521">
        <ele>157.8</ele>
        <time>2023-02-12T07:38:14Z</time>
      </trkpt>
      <trkpt lat="46.65003" lon="-0.23513">
        <ele>157.8</ele>
        <time>2023-02-12T07:38:18Z</time>
      </trkpt>
      <trkpt lat="46.64985" lon="-0.23517">
        <ele>158</ele>
        <time>2023-02-12T07:38:23Z</time>
      </trkpt>
      <trkpt lat="46.64974" lon="-0.23514">
        <ele>158.2</ele>
        <time>2023-02-12T07:38:27Z</time>
      </trkpt>
      <trkpt lat="46.64958" lon="-0.23503">
        <ele>157.6</ele>
        <time>2023-02-12T07:38:33Z</time>
      </trkpt>
      <trkpt lat="46.64948" lon="-0.23502">
        <ele>157.4</ele>
        <time>2023-02-12T07:38:36Z</time>
      </trkpt>
      <trkpt lat="46.64938" lon="-0.23495">
        <ele>157.2</ele>
        <time>2023-02-12T07:38:39Z</time>
      </trkpt>
      <trkpt lat="46.64912" lon="-0.23477">
        <ele>156</ele>
        <time>2023-02-12T07:38:45Z</time>
      </trkpt>
      <trkpt lat="46.64906" lon="-0.23466">
        <ele>155.6</ele>
        <time>2023-02-12T07:38:47Z</time>
      </trkpt>
      <trkpt lat="46.64902" lon="-0.23453">
        <ele>155.4</ele>
        <time>2023-02-12T07:38:49Z</time>
      </trkpt>
      <trkpt lat="46.64901" lon="-0.2344">
        <ele>155.2</ele>
        <time>2023-02-12T07:38:51Z</time>
      </trkpt>
      <trkpt lat="46.64903" lon="-0.23433">
        <ele>155.2</ele>
        <time>2023-02-12T07:38:52Z</time>
      </trkpt>
      <trkpt lat="46.64905" lon="-0.23426">
        <ele>155.2</ele>
        <time>2023-02-12T07:38:53Z</time>
      </trkpt>
      <trkpt lat="46.64909" lon="-0.23419">
        <ele>154.6</ele>
        <time>2023-02-12T07:38:54Z</time>
      </trkpt>
      <trkpt lat="46.64911" lon="-0.23412">
        <ele>154.2</ele>
        <time>2023-02-12T07:38:55Z</time>
      </trkpt>
      <trkpt lat="46.64913" lon="-0.23404">
        <ele>153.6</ele>
        <time>2023-02-12T07:38:56Z</time>
      </trkpt>
      <trkpt lat="46.64915" lon="-0.23396">
        <ele>153.2</ele>
        <time>2023-02-12T07:38:57Z</time>
      </trkpt>
      <trkpt lat="46.64917" lon="-0.23388">
        <ele>152.8</ele>
        <time>2023-02-12T07:38:58Z</time>
      </trkpt>
      <trkpt lat="46.64923" lon="-0.23374">
        <ele>152.4</ele>
        <time>2023-02-12T07:39:00Z</time>
      </trkpt>
      <trkpt lat="46.64926" lon="-0.23368">
        <ele>152.2</ele>
        <time>2023-02-12T07:39:01Z</time>
      </trkpt>
      <trkpt lat="46.64932" lon="-0.23359">
        <ele>152.4</ele>
        <time>2023-02-12T07:39:03Z</time>
      </trkpt>
      <trkpt lat="46.6494" lon="-0.23354">
        <ele>152.8</ele>
        <time>2023-02-12T07:39:05Z</time>
      </trkpt>
      <trkpt lat="46.64944" lon="-0.23347">
        <ele>152.8</ele>
        <time>2023-02-12T07:39:07Z</time>
      </trkpt>
      <trkpt lat="46.64946" lon="-0.23339">
        <ele>152.8</ele>
        <time>2023-02-12T07:39:09Z</time>
      </trkpt>
      <trkpt lat="46.64946" lon="-0.23335">
        <ele>153</ele>
        <time>2023-02-12T07:39:10Z</time>
      </trkpt>
      <trkpt lat="46.64943" lon="-0.23319">
        <ele>153.4</ele>
        <time>2023-02-12T07:39:15Z</time>
      </trkpt>
      <trkpt lat="46.64942" lon="-0.23306">
        <ele>154.2</ele>
        <time>2023-02-12T07:39:22Z</time>
      </trkpt>
      <trkpt lat="46.64941" lon="-0.23304">
        <ele>154.4</ele>
        <time>2023-02-12T07:39:23Z</time>
      </trkpt>
      <trkpt lat="46.6494" lon="-0.23299">
        <ele>154.8</ele>
        <time>2023-02-12T07:39:28Z</time>
      </trkpt>
      <trkpt lat="46.6494" lon="-0.23298">
        <ele>154.8</ele>
        <time>2023-02-12T07:39:30Z</time>
      </trkpt>
      <trkpt lat="46.64941" lon="-0.23297">
        <ele>154.6</ele>
        <time>2023-02-12T07:39:48Z</time>
      </trkpt>
      <trkpt lat="46.64941" lon="-0.23294">
        <ele>154.4</ele>
        <time>2023-02-12T07:40:03Z</time>
      </trkpt>
      <trkpt lat="46.64941" lon="-0.23292">
        <ele>154.6</ele>
        <time>2023-02-12T07:40:21Z</time>
      </trkpt>
      <trkpt lat="46.64938" lon="-0.23282">
        <ele>154.4</ele>
        <time>2023-02-12T07:40:29Z</time>
      </trkpt>
      <trkpt lat="46.64936" lon="-0.23274">
        <ele>155.4</ele>
        <time>2023-02-12T07:40:32Z</time>
      </trkpt>
      <trkpt lat="46.64934" lon="-0.23261">
        <ele>156.8</ele>
        <time>2023-02-12T07:40:36Z</time>
      </trkpt>
      <trkpt lat="46.64925" lon="-0.23236">
        <ele>158.2</ele>
        <time>2023-02-12T07:40:42Z</time>
      </trkpt>
      <trkpt lat="46.64919" lon="-0.23218">
        <ele>159</ele>
        <time>2023-02-12T07:40:45Z</time>
      </trkpt>
      <trkpt lat="46.64918" lon="-0.23212">
        <ele>159.2</ele>
        <time>2023-02-12T07:40:46Z</time>
      </trkpt>
      <trkpt lat="46.64917" lon="-0.23203">
        <ele>159.4</ele>
        <time>2023-02-12T07:40:47Z</time>
      </trkpt>
      <trkpt lat="46.64926" lon="-0.23184">
        <ele>159.8</ele>
        <time>2023-02-12T07:40:52Z</time>
      </trkpt>
      <trkpt lat="46.64935" lon="-0.2317">
        <ele>160.4</ele>
        <time>2023-02-12T07:40:58Z</time>
      </trkpt>
      <trkpt lat="46.64928" lon="-0.23157">
        <ele>161.4</ele>
        <time>2023-02-12T07:41:02Z</time>
      </trkpt>
      <trkpt lat="46.64925" lon="-0.23149">
        <ele>161.6</ele>
        <time>2023-02-12T07:41:04Z</time>
      </trkpt>
      <trkpt lat="46.64911" lon="-0.23127">
        <ele>161.2</ele>
        <time>2023-02-12T07:41:10Z</time>
      </trkpt>
      <trkpt lat="46.64894" lon="-0.23097">
        <ele>161.8</ele>
        <time>2023-02-12T07:41:17Z</time>
      </trkpt>
      <trkpt lat="46.64882" lon="-0.23074">
        <ele>162.6</ele>
        <time>2023-02-12T07:41:22Z</time>
      </trkpt>
      <trkpt lat="46.64877" lon="-0.23066">
        <ele>162.6</ele>
        <time>2023-02-12T07:41:24Z</time>
      </trkpt>
      <trkpt lat="46.64865" lon="-0.23047">
        <ele>163.4</ele>
        <time>2023-02-12T07:41:29Z</time>
      </trkpt>
      <trkpt lat="46.6486" lon="-0.23039">
        <ele>163.6</ele>
        <time>2023-02-12T07:41:31Z</time>
      </trkpt>
      <trkpt lat="46.64844" lon="-0.23011">
        <ele>163.6</ele>
        <time>2023-02-12T07:41:37Z</time>
      </trkpt>
      <trkpt lat="46.64842" lon="-0.23">
        <ele>163.8</ele>
        <time>2023-02-12T07:41:39Z</time>
      </trkpt>
      <trkpt lat="46.64841" lon="-0.22988">
        <ele>163.8</ele>
        <time>2023-02-12T07:41:41Z</time>
      </trkpt>
      <trkpt lat="46.64846" lon="-0.2296">
        <ele>164.4</ele>
        <time>2023-02-12T07:41:47Z</time>
      </trkpt>
      <trkpt lat="46.64861" lon="-0.22947">
        <ele>164.6</ele>
        <time>2023-02-12T07:41:51Z</time>
      </trkpt>
      <trkpt lat="46.64866" lon="-0.22944">
        <ele>164.6</ele>
        <time>2023-02-12T07:41:52Z</time>
      </trkpt>
      <trkpt lat="46.64878" lon="-0.22932">
        <ele>164.8</ele>
        <time>2023-02-12T07:41:55Z</time>
      </trkpt>
      <trkpt lat="46.64889" lon="-0.22917">
        <ele>164.8</ele>
        <time>2023-02-12T07:41:58Z</time>
      </trkpt>
      <trkpt lat="46.64911" lon="-0.22877">
        <ele>164.6</ele>
        <time>2023-02-12T07:42:05Z</time>
      </trkpt>
      <trkpt lat="46.64938" lon="-0.22846">
        <ele>164.8</ele>
        <time>2023-02-12T07:42:12Z</time>
      </trkpt>
      <trkpt lat="46.64966" lon="-0.22833">
        <ele>164.8</ele>
        <time>2023-02-12T07:42:18Z</time>
      </trkpt>
      <trkpt lat="46.65008" lon="-0.22822">
        <ele>165.4</ele>
        <time>2023-02-12T07:42:27Z</time>
      </trkpt>
      <trkpt lat="46.65028" lon="-0.22818">
        <ele>165.6</ele>
        <time>2023-02-12T07:42:32Z</time>
      </trkpt>
      <trkpt lat="46.6503" lon="-0.22816">
        <ele>165.6</ele>
        <time>2023-02-12T07:42:33Z</time>
      </trkpt>
      <trkpt lat="46.6503" lon="-0.22798">
        <ele>165.2</ele>
        <time>2023-02-12T07:42:37Z</time>
      </trkpt>
      <trkpt lat="46.65028" lon="-0.22774">
        <ele>164.6</ele>
        <time>2023-02-12T07:42:40Z</time>
      </trkpt>
      <trkpt lat="46.65025" lon="-0.22759">
        <ele>163.6</ele>
        <time>2023-02-12T07:42:42Z</time>
      </trkpt>
      <trkpt lat="46.65023" lon="-0.22753">
        <ele>163</ele>
        <time>2023-02-12T07:42:43Z</time>
      </trkpt>
      <trkpt lat="46.65019" lon="-0.22748">
        <ele>162.6</ele>
        <time>2023-02-12T07:42:44Z</time>
      </trkpt>
      <trkpt lat="46.65015" lon="-0.22746">
        <ele>162.2</ele>
        <time>2023-02-12T07:42:45Z</time>
      </trkpt>
      <trkpt lat="46.6501" lon="-0.22745">
        <ele>162</ele>
        <time>2023-02-12T07:42:46Z</time>
      </trkpt>
      <trkpt lat="46.65005" lon="-0.22745">
        <ele>161.8</ele>
        <time>2023-02-12T07:42:47Z</time>
      </trkpt>
      <trkpt lat="46.65" lon="-0.22746">
        <ele>161.8</ele>
        <time>2023-02-12T07:42:48Z</time>
      </trkpt>
      <trkpt lat="46.64995" lon="-0.22748">
        <ele>161.8</ele>
        <time>2023-02-12T07:42:49Z</time>
      </trkpt>
      <trkpt lat="46.64972" lon="-0.22757">
        <ele>161.6</ele>
        <time>2023-02-12T07:42:53Z</time>
      </trkpt>
      <trkpt lat="46.64966" lon="-0.22758">
        <ele>161.6</ele>
        <time>2023-02-12T07:42:54Z</time>
      </trkpt>
      <trkpt lat="46.6496" lon="-0.22758">
        <ele>161.6</ele>
        <time>2023-02-12T07:42:55Z</time>
      </trkpt>
      <trkpt lat="46.64949" lon="-0.22753">
        <ele>161.4</ele>
        <time>2023-02-12T07:42:57Z</time>
      </trkpt>
      <trkpt lat="46.64942" lon="-0.22737">
        <ele>161.2</ele>
        <time>2023-02-12T07:42:59Z</time>
      </trkpt>
      <trkpt lat="46.64941" lon="-0.22727">
        <ele>161</ele>
        <time>2023-02-12T07:43:00Z</time>
      </trkpt>
      <trkpt lat="46.6494" lon="-0.22716">
        <ele>160.8</ele>
        <time>2023-02-12T07:43:01Z</time>
      </trkpt>
      <trkpt lat="46.64943" lon="-0.22694">
        <ele>159.8</ele>
        <time>2023-02-12T07:43:03Z</time>
      </trkpt>
      <trkpt lat="46.64947" lon="-0.22672">
        <ele>158.8</ele>
        <time>2023-02-12T07:43:04Z</time>
      </trkpt>
      <trkpt lat="46.64954" lon="-0.2265">
        <ele>157.6</ele>
        <time>2023-02-12T07:43:07Z</time>
      </trkpt>
      <trkpt lat="46.64958" lon="-0.2264">
        <ele>157.4</ele>
        <time>2023-02-12T07:43:08Z</time>
      </trkpt>
      <trkpt lat="46.64966" lon="-0.22621">
        <ele>156.6</ele>
        <time>2023-02-12T07:43:10Z</time>
      </trkpt>
      <trkpt lat="46.64972" lon="-0.22607">
        <ele>155.2</ele>
        <time>2023-02-12T07:43:12Z</time>
      </trkpt>
      <trkpt lat="46.64978" lon="-0.226">
        <ele>154.6</ele>
        <time>2023-02-12T07:43:14Z</time>
      </trkpt>
      <trkpt lat="46.64981" lon="-0.22598">
        <ele>154.4</ele>
        <time>2023-02-12T07:43:15Z</time>
      </trkpt>
      <trkpt lat="46.64983" lon="-0.22597">
        <ele>154.2</ele>
        <time>2023-02-12T07:43:16Z</time>
      </trkpt>
      <trkpt lat="46.64988" lon="-0.22594">
        <ele>154</ele>
        <time>2023-02-12T07:43:19Z</time>
      </trkpt>
      <trkpt lat="46.65006" lon="-0.22589">
        <ele>153.6</ele>
        <time>2023-02-12T07:43:24Z</time>
      </trkpt>
      <trkpt lat="46.65019" lon="-0.22585">
        <ele>153.4</ele>
        <time>2023-02-12T07:43:27Z</time>
      </trkpt>
      <trkpt lat="46.65026" lon="-0.2258">
        <ele>153.4</ele>
        <time>2023-02-12T07:43:29Z</time>
      </trkpt>
      <trkpt lat="46.6503" lon="-0.22577">
        <ele>153</ele>
        <time>2023-02-12T07:43:30Z</time>
      </trkpt>
      <trkpt lat="46.65035" lon="-0.22575">
        <ele>152.8</ele>
        <time>2023-02-12T07:43:31Z</time>
      </trkpt>
      <trkpt lat="46.65051" lon="-0.22573">
        <ele>152.2</ele>
        <time>2023-02-12T07:43:34Z</time>
      </trkpt>
      <trkpt lat="46.65077" lon="-0.22571">
        <ele>152</ele>
        <time>2023-02-12T07:43:39Z</time>
      </trkpt>
      <trkpt lat="46.65081" lon="-0.22571">
        <ele>152</ele>
        <time>2023-02-12T07:43:40Z</time>
      </trkpt>
      <trkpt lat="46.65085" lon="-0.2257">
        <ele>152</ele>
        <time>2023-02-12T07:43:41Z</time>
      </trkpt>
      <trkpt lat="46.65092" lon="-0.22562">
        <ele>151.8</ele>
        <time>2023-02-12T07:43:43Z</time>
      </trkpt>
      <trkpt lat="46.65094" lon="-0.22552">
        <ele>151.6</ele>
        <time>2023-02-12T07:43:45Z</time>
      </trkpt>
      <trkpt lat="46.65094" lon="-0.22546">
        <ele>151.4</ele>
        <time>2023-02-12T07:43:46Z</time>
      </trkpt>
      <trkpt lat="46.65092" lon="-0.22525">
        <ele>151</ele>
        <time>2023-02-12T07:43:49Z</time>
      </trkpt>
      <trkpt lat="46.65085" lon="-0.22499">
        <ele>150</ele>
        <time>2023-02-12T07:43:53Z</time>
      </trkpt>
      <trkpt lat="46.65082" lon="-0.22492">
        <ele>150</ele>
        <time>2023-02-12T07:43:54Z</time>
      </trkpt>
      <trkpt lat="46.65067" lon="-0.22452">
        <ele>150</ele>
        <time>2023-02-12T07:44:00Z</time>
      </trkpt>
      <trkpt lat="46.65051" lon="-0.22416">
        <ele>151</ele>
        <time>2023-02-12T07:44:06Z</time>
      </trkpt>
      <trkpt lat="46.65043" lon="-0.22397">
        <ele>151.8</ele>
        <time>2023-02-12T07:44:09Z</time>
      </trkpt>
      <trkpt lat="46.6504" lon="-0.22391">
        <ele>152</ele>
        <time>2023-02-12T07:44:10Z</time>
      </trkpt>
      <trkpt lat="46.65016" lon="-0.22345">
        <ele>153.4</ele>
        <time>2023-02-12T07:44:18Z</time>
      </trkpt>
      <trkpt lat="46.65013" lon="-0.22339">
        <ele>153.6</ele>
        <time>2023-02-12T07:44:19Z</time>
      </trkpt>
      <trkpt lat="46.64986" lon="-0.22287">
        <ele>154.2</ele>
        <time>2023-02-12T07:44:28Z</time>
      </trkpt>
      <trkpt lat="46.64977" lon="-0.22279">
        <ele>154.4</ele>
        <time>2023-02-12T07:44:30Z</time>
      </trkpt>
      <trkpt lat="46.64973" lon="-0.22274">
        <ele>154.4</ele>
        <time>2023-02-12T07:44:31Z</time>
      </trkpt>
      <trkpt lat="46.6497" lon="-0.22269">
        <ele>154.6</ele>
        <time>2023-02-12T07:44:32Z</time>
      </trkpt>
      <trkpt lat="46.64967" lon="-0.22263">
        <ele>154.6</ele>
        <time>2023-02-12T07:44:33Z</time>
      </trkpt>
      <trkpt lat="46.64967" lon="-0.2225">
        <ele>154.8</ele>
        <time>2023-02-12T07:44:35Z</time>
      </trkpt>
      <trkpt lat="46.64972" lon="-0.22238">
        <ele>155</ele>
        <time>2023-02-12T07:44:37Z</time>
      </trkpt>
      <trkpt lat="46.64976" lon="-0.22235">
        <ele>155.2</ele>
        <time>2023-02-12T07:44:38Z</time>
      </trkpt>
      <trkpt lat="46.6498" lon="-0.22234">
        <ele>155.2</ele>
        <time>2023-02-12T07:44:39Z</time>
      </trkpt>
      <trkpt lat="46.64989" lon="-0.22239">
        <ele>155.2</ele>
        <time>2023-02-12T07:44:41Z</time>
      </trkpt>
      <trkpt lat="46.64996" lon="-0.22249">
        <ele>155</ele>
        <time>2023-02-12T07:44:43Z</time>
      </trkpt>
      <trkpt lat="46.65002" lon="-0.2226">
        <ele>155</ele>
        <time>2023-02-12T07:44:45Z</time>
      </trkpt>
      <trkpt lat="46.65008" lon="-0.22271">
        <ele>154.8</ele>
        <time>2023-02-12T07:44:47Z</time>
      </trkpt>
      <trkpt lat="46.65021" lon="-0.22296">
        <ele>154.6</ele>
        <time>2023-02-12T07:44:51Z</time>
      </trkpt>
      <trkpt lat="46.65041" lon="-0.22345">
        <ele>154.4</ele>
        <time>2023-02-12T07:44:58Z</time>
      </trkpt>
      <trkpt lat="46.6506" lon="-0.22388">
        <ele>153.2</ele>
        <time>2023-02-12T07:45:04Z</time>
      </trkpt>
      <trkpt lat="46.65063" lon="-0.22395">
        <ele>153</ele>
        <time>2023-02-12T07:45:05Z</time>
      </trkpt>
      <trkpt lat="46.65082" lon="-0.22438">
        <ele>152</ele>
        <time>2023-02-12T07:45:10Z</time>
      </trkpt>
      <trkpt lat="46.65085" lon="-0.22449">
        <ele>151.8</ele>
        <time>2023-02-12T07:45:11Z</time>
      </trkpt>
      <trkpt lat="46.65102" lon="-0.22489">
        <ele>151</ele>
        <time>2023-02-12T07:45:15Z</time>
      </trkpt>
      <trkpt lat="46.65111" lon="-0.22509">
        <ele>150.6</ele>
        <time>2023-02-12T07:45:17Z</time>
      </trkpt>
      <trkpt lat="46.65134" lon="-0.22562">
        <ele>150.2</ele>
        <time>2023-02-12T07:45:23Z</time>
      </trkpt>
      <trkpt lat="46.65154" lon="-0.22607">
        <ele>150.4</ele>
        <time>2023-02-12T07:45:29Z</time>
      </trkpt>
      <trkpt lat="46.65173" lon="-0.22654">
        <ele>151.2</ele>
        <time>2023-02-12T07:45:36Z</time>
      </trkpt>
      <trkpt lat="46.65178" lon="-0.22667">
        <ele>151.4</ele>
        <time>2023-02-12T07:45:38Z</time>
      </trkpt>
      <trkpt lat="46.6519" lon="-0.2269">
        <ele>152</ele>
        <time>2023-02-12T07:45:42Z</time>
      </trkpt>
      <trkpt lat="46.65196" lon="-0.22701">
        <ele>152.4</ele>
        <time>2023-02-12T07:45:44Z</time>
      </trkpt>
      <trkpt lat="46.65211" lon="-0.22734">
        <ele>153.4</ele>
        <time>2023-02-12T07:45:50Z</time>
      </trkpt>
      <trkpt lat="46.65214" lon="-0.2274">
        <ele>153.6</ele>
        <time>2023-02-12T07:45:51Z</time>
      </trkpt>
      <trkpt lat="46.65224" lon="-0.22762">
        <ele>154.6</ele>
        <time>2023-02-12T07:45:55Z</time>
      </trkpt>
      <trkpt lat="46.65229" lon="-0.22772">
        <ele>155</ele>
        <time>2023-02-12T07:45:57Z</time>
      </trkpt>
      <trkpt lat="46.65237" lon="-0.22778">
        <ele>155.8</ele>
        <time>2023-02-12T07:45:59Z</time>
      </trkpt>
      <trkpt lat="46.65245" lon="-0.22775">
        <ele>156.2</ele>
        <time>2023-02-12T07:46:01Z</time>
      </trkpt>
      <trkpt lat="46.65249" lon="-0.22772">
        <ele>156.2</ele>
        <time>2023-02-12T07:46:02Z</time>
      </trkpt>
      <trkpt lat="46.65275" lon="-0.22748">
        <ele>156.6</ele>
        <time>2023-02-12T07:46:08Z</time>
      </trkpt>
      <trkpt lat="46.65292" lon="-0.22731">
        <ele>156.2</ele>
        <time>2023-02-12T07:46:13Z</time>
      </trkpt>
      <trkpt lat="46.65302" lon="-0.22722">
        <ele>155.8</ele>
        <time>2023-02-12T07:46:18Z</time>
      </trkpt>
      <trkpt lat="46.65319" lon="-0.22707">
        <ele>155</ele>
        <time>2023-02-12T07:46:25Z</time>
      </trkpt>
      <trkpt lat="46.65326" lon="-0.22707">
        <ele>154.8</ele>
        <time>2023-02-12T07:46:28Z</time>
      </trkpt>
      <trkpt lat="46.65331" lon="-0.2271">
        <ele>154.6</ele>
        <time>2023-02-12T07:46:30Z</time>
      </trkpt>
      <trkpt lat="46.65337" lon="-0.22716">
        <ele>154.4</ele>
        <time>2023-02-12T07:46:36Z</time>
      </trkpt>
      <trkpt lat="46.65339" lon="-0.22721">
        <ele>154.4</ele>
        <time>2023-02-12T07:46:40Z</time>
      </trkpt>
      <trkpt lat="46.6534" lon="-0.22724">
        <ele>154.4</ele>
        <time>2023-02-12T07:46:42Z</time>
      </trkpt>
      <trkpt lat="46.65345" lon="-0.2274">
        <ele>154.4</ele>
        <time>2023-02-12T07:46:50Z</time>
      </trkpt>
      <trkpt lat="46.65349" lon="-0.22751">
        <ele>154.4</ele>
        <time>2023-02-12T07:46:56Z</time>
      </trkpt>
      <trkpt lat="46.6535" lon="-0.22756">
        <ele>154.4</ele>
        <time>2023-02-12T07:46:59Z</time>
      </trkpt>
      <trkpt lat="46.65348" lon="-0.22758">
        <ele>154.4</ele>
        <time>2023-02-12T07:47:01Z</time>
      </trkpt>
      <trkpt lat="46.65347" lon="-0.22755">
        <ele>154.6</ele>
        <time>2023-02-12T07:47:03Z</time>
      </trkpt>
      <trkpt lat="46.65346" lon="-0.2275">
        <ele>154.6</ele>
        <time>2023-02-12T07:47:05Z</time>
      </trkpt>
      <trkpt lat="46.65339" lon="-0.22735">
        <ele>154.6</ele>
        <time>2023-02-12T07:47:11Z</time>
      </trkpt>
      <trkpt lat="46.65334" lon="-0.22716">
        <ele>154.4</ele>
        <time>2023-02-12T07:47:18Z</time>
      </trkpt>
      <trkpt lat="46.65338" lon="-0.22717">
        <ele>154.4</ele>
        <time>2023-02-12T07:47:21Z</time>
      </trkpt>
      <trkpt lat="46.65347" lon="-0.22735">
        <ele>154.6</ele>
        <time>2023-02-12T07:47:27Z</time>
      </trkpt>
      <trkpt lat="46.65352" lon="-0.22747">
        <ele>154.8</ele>
        <time>2023-02-12T07:47:33Z</time>
      </trkpt>
      <trkpt lat="46.65353" lon="-0.22746">
        <ele>155</ele>
        <time>2023-02-12T07:47:47Z</time>
      </trkpt>
      <trkpt lat="46.65355" lon="-0.22738">
        <ele>155</ele>
        <time>2023-02-12T07:48:29Z</time>
      </trkpt>
      <trkpt lat="46.65361" lon="-0.2271">
        <ele>155</ele>
        <time>2023-02-12T07:48:34Z</time>
      </trkpt>
      <trkpt lat="46.65364" lon="-0.22702">
        <ele>155</ele>
        <time>2023-02-12T07:48:36Z</time>
      </trkpt>
      <trkpt lat="46.65364" lon="-0.227">
        <ele>154.8</ele>
        <time>2023-02-12T07:48:37Z</time>
      </trkpt>
      <trkpt lat="46.65363" lon="-0.22698">
        <ele>154.6</ele>
        <time>2023-02-12T07:48:38Z</time>
      </trkpt>
      <trkpt lat="46.65361" lon="-0.22699">
        <ele>154.6</ele>
        <time>2023-02-12T07:48:40Z</time>
      </trkpt>
      <trkpt lat="46.65361" lon="-0.22701">
        <ele>154.6</ele>
        <time>2023-02-12T07:48:41Z</time>
      </trkpt>
      <trkpt lat="46.65364" lon="-0.22703">
        <ele>154.6</ele>
        <time>2023-02-12T07:48:43Z</time>
      </trkpt>
      <trkpt lat="46.65376" lon="-0.22699">
        <ele>154.6</ele>
        <time>2023-02-12T07:48:46Z</time>
      </trkpt>
      <trkpt lat="46.6538" lon="-0.22698">
        <ele>154.6</ele>
        <time>2023-02-12T07:48:47Z</time>
      </trkpt>
      <trkpt lat="46.65396" lon="-0.22696">
        <ele>154.4</ele>
        <time>2023-02-12T07:48:50Z</time>
      </trkpt>
      <trkpt lat="46.65402" lon="-0.22685">
        <ele>154.4</ele>
        <time>2023-02-12T07:48:52Z</time>
      </trkpt>
      <trkpt lat="46.65404" lon="-0.22678">
        <ele>154.2</ele>
        <time>2023-02-12T07:48:53Z</time>
      </trkpt>
      <trkpt lat="46.65404" lon="-0.22671">
        <ele>154.2</ele>
        <time>2023-02-12T07:48:54Z</time>
      </trkpt>
      <trkpt lat="46.65406" lon="-0.22647">
        <ele>154.2</ele>
        <time>2023-02-12T07:48:57Z</time>
      </trkpt>
      <trkpt lat="46.65409" lon="-0.22617">
        <ele>153.6</ele>
        <time>2023-02-12T07:49:01Z</time>
      </trkpt>
      <trkpt lat="46.6541" lon="-0.22609">
        <ele>153.2</ele>
        <time>2023-02-12T07:49:02Z</time>
      </trkpt>
      <trkpt lat="46.65412" lon="-0.22604">
        <ele>153</ele>
        <time>2023-02-12T07:49:03Z</time>
      </trkpt>
      <trkpt lat="46.65415" lon="-0.22601">
        <ele>152.8</ele>
        <time>2023-02-12T07:49:04Z</time>
      </trkpt>
      <trkpt lat="46.65423" lon="-0.22601">
        <ele>152.4</ele>
        <time>2023-02-12T07:49:06Z</time>
      </trkpt>
      <trkpt lat="46.6543" lon="-0.22599">
        <ele>152.2</ele>
        <time>2023-02-12T07:49:08Z</time>
      </trkpt>
      <trkpt lat="46.65433" lon="-0.22593">
        <ele>152</ele>
        <time>2023-02-12T07:49:09Z</time>
      </trkpt>
      <trkpt lat="46.6544" lon="-0.2257">
        <ele>151</ele>
        <time>2023-02-12T07:49:12Z</time>
      </trkpt>
      <trkpt lat="46.65443" lon="-0.22561">
        <ele>150.6</ele>
        <time>2023-02-12T07:49:13Z</time>
      </trkpt>
      <trkpt lat="46.65447" lon="-0.22553">
        <ele>150.4</ele>
        <time>2023-02-12T07:49:14Z</time>
      </trkpt>
      <trkpt lat="46.65455" lon="-0.22536">
        <ele>149.8</ele>
        <time>2023-02-12T07:49:16Z</time>
      </trkpt>
      <trkpt lat="46.65459" lon="-0.22529">
        <ele>149.6</ele>
        <time>2023-02-12T07:49:17Z</time>
      </trkpt>
      <trkpt lat="46.6546" lon="-0.22517">
        <ele>148.6</ele>
        <time>2023-02-12T07:49:19Z</time>
      </trkpt>
      <trkpt lat="46.65458" lon="-0.2251">
        <ele>147</ele>
        <time>2023-02-12T07:49:21Z</time>
      </trkpt>
      <trkpt lat="46.65455" lon="-0.22506">
        <ele>145.8</ele>
        <time>2023-02-12T07:49:23Z</time>
      </trkpt>
      <trkpt lat="46.65455" lon="-0.22504">
        <ele>145.4</ele>
        <time>2023-02-12T07:49:24Z</time>
      </trkpt>
      <trkpt lat="46.65452" lon="-0.22497">
        <ele>144</ele>
        <time>2023-02-12T07:49:27Z</time>
      </trkpt>
      <trkpt lat="46.65452" lon="-0.22494">
        <ele>143.2</ele>
        <time>2023-02-12T07:49:28Z</time>
      </trkpt>
      <trkpt lat="46.65452" lon="-0.22492">
        <ele>142.4</ele>
        <time>2023-02-12T07:49:29Z</time>
      </trkpt>
      <trkpt lat="46.65453" lon="-0.22486">
        <ele>140.4</ele>
        <time>2023-02-12T07:49:31Z</time>
      </trkpt>
      <trkpt lat="46.65452" lon="-0.22483">
        <ele>139.2</ele>
        <time>2023-02-12T07:49:32Z</time>
      </trkpt>
      <trkpt lat="46.65452" lon="-0.22479">
        <ele>138.2</ele>
        <time>2023-02-12T07:49:33Z</time>
      </trkpt>
      <trkpt lat="46.65453" lon="-0.2247">
        <ele>135.8</ele>
        <time>2023-02-12T07:49:35Z</time>
      </trkpt>
      <trkpt lat="46.65455" lon="-0.22465">
        <ele>134.2</ele>
        <time>2023-02-12T07:49:37Z</time>
      </trkpt>
      <trkpt lat="46.65462" lon="-0.22463">
        <ele>133</ele>
        <time>2023-02-12T07:49:39Z</time>
      </trkpt>
      <trkpt lat="46.6547" lon="-0.22463">
        <ele>131.8</ele>
        <time>2023-02-12T07:49:41Z</time>
      </trkpt>
      <trkpt lat="46.65475" lon="-0.22463">
        <ele>130.2</ele>
        <time>2023-02-12T07:49:42Z</time>
      </trkpt>
      <trkpt lat="46.65483" lon="-0.22461">
        <ele>126.2</ele>
        <time>2023-02-12T07:49:43Z</time>
      </trkpt>
      <trkpt lat="46.65483" lon="-0.22461">
        <ele>126.2</ele>
        <time>2023-02-12T07:49:44Z</time>
      </trkpt>
      <trkpt lat="46.65486" lon="-0.22461">
        <ele>125.2</ele>
        <time>2023-02-12T07:49:45Z</time>
      </trkpt>
      <trkpt lat="46.65489" lon="-0.22462">
        <ele>123.8</ele>
        <time>2023-02-12T07:49:46Z</time>
      </trkpt>
      <trkpt lat="46.65495" lon="-0.22465">
        <ele>122.2</ele>
        <time>2023-02-12T07:49:48Z</time>
      </trkpt>
      <trkpt lat="46.655" lon="-0.22469">
        <ele>121</ele>
        <time>2023-02-12T07:49:50Z</time>
      </trkpt>
      <trkpt lat="46.65503" lon="-0.2247">
        <ele>120</ele>
        <time>2023-02-12T07:49:52Z</time>
      </trkpt>
      <trkpt lat="46.65506" lon="-0.22469">
        <ele>119.6</ele>
        <time>2023-02-12T07:49:53Z</time>
      </trkpt>
      <trkpt lat="46.65508" lon="-0.22469">
        <ele>119</ele>
        <time>2023-02-12T07:49:55Z</time>
      </trkpt>
      <trkpt lat="46.65512" lon="-0.22468">
        <ele>118.6</ele>
        <time>2023-02-12T07:49:57Z</time>
      </trkpt>
      <trkpt lat="46.65514" lon="-0.22469">
        <ele>118.6</ele>
        <time>2023-02-12T07:49:58Z</time>
      </trkpt>
      <trkpt lat="46.65516" lon="-0.2247">
        <ele>118.4</ele>
        <time>2023-02-12T07:50:00Z</time>
      </trkpt>
      <trkpt lat="46.65523" lon="-0.22473">
        <ele>118</ele>
        <time>2023-02-12T07:50:05Z</time>
      </trkpt>
      <trkpt lat="46.65524" lon="-0.22472">
        <ele>117.4</ele>
        <time>2023-02-12T07:50:06Z</time>
      </trkpt>
      <trkpt lat="46.65527" lon="-0.22469">
        <ele>116.4</ele>
        <time>2023-02-12T07:50:08Z</time>
      </trkpt>
      <trkpt lat="46.65529" lon="-0.22462">
        <ele>115.8</ele>
        <time>2023-02-12T07:50:11Z</time>
      </trkpt>
      <trkpt lat="46.6553" lon="-0.22458">
        <ele>115.6</ele>
        <time>2023-02-12T07:50:13Z</time>
      </trkpt>
      <trkpt lat="46.6553" lon="-0.22454">
        <ele>115.2</ele>
        <time>2023-02-12T07:50:15Z</time>
      </trkpt>
      <trkpt lat="46.65529" lon="-0.22452">
        <ele>115.2</ele>
        <time>2023-02-12T07:50:16Z</time>
      </trkpt>
      <trkpt lat="46.65528" lon="-0.22442">
        <ele>115.4</ele>
        <time>2023-02-12T07:50:20Z</time>
      </trkpt>
      <trkpt lat="46.65528" lon="-0.22439">
        <ele>115.6</ele>
        <time>2023-02-12T07:50:21Z</time>
      </trkpt>
      <trkpt lat="46.65532" lon="-0.22413">
        <ele>115.6</ele>
        <time>2023-02-12T07:50:26Z</time>
      </trkpt>
      <trkpt lat="46.65535" lon="-0.224">
        <ele>115</ele>
        <time>2023-02-12T07:50:30Z</time>
      </trkpt>
      <trkpt lat="46.65535" lon="-0.2238">
        <ele>114.8</ele>
        <time>2023-02-12T07:50:36Z</time>
      </trkpt>
      <trkpt lat="46.65531" lon="-0.22366">
        <ele>114.6</ele>
        <time>2023-02-12T07:50:40Z</time>
      </trkpt>
      <trkpt lat="46.65529" lon="-0.22365">
        <ele>114.8</ele>
        <time>2023-02-12T07:50:41Z</time>
      </trkpt>
      <trkpt lat="46.65527" lon="-0.22372">
        <ele>115</ele>
        <time>2023-02-12T07:50:44Z</time>
      </trkpt>
      <trkpt lat="46.65528" lon="-0.22399">
        <ele>116.6</ele>
        <time>2023-02-12T07:50:51Z</time>
      </trkpt>
      <trkpt lat="46.65528" lon="-0.22402">
        <ele>116.6</ele>
        <time>2023-02-12T07:50:52Z</time>
      </trkpt>
      <trkpt lat="46.65528" lon="-0.22413">
        <ele>117.6</ele>
        <time>2023-02-12T07:50:55Z</time>
      </trkpt>
      <trkpt lat="46.65525" lon="-0.22423">
        <ele>118.6</ele>
        <time>2023-02-12T07:50:58Z</time>
      </trkpt>
      <trkpt lat="46.65524" lon="-0.22425">
        <ele>119</ele>
        <time>2023-02-12T07:50:59Z</time>
      </trkpt>
      <trkpt lat="46.65515" lon="-0.22433">
        <ele>119.8</ele>
        <time>2023-02-12T07:51:03Z</time>
      </trkpt>
      <trkpt lat="46.65509" lon="-0.22436">
        <ele>120.8</ele>
        <time>2023-02-12T07:51:06Z</time>
      </trkpt>
      <trkpt lat="46.65503" lon="-0.22438">
        <ele>121.8</ele>
        <time>2023-02-12T07:51:09Z</time>
      </trkpt>
      <trkpt lat="46.65502" lon="-0.22438">
        <ele>122.2</ele>
        <time>2023-02-12T07:51:10Z</time>
      </trkpt>
      <trkpt lat="46.65498" lon="-0.22437">
        <ele>123.4</ele>
        <time>2023-02-12T07:51:12Z</time>
      </trkpt>
      <trkpt lat="46.65491" lon="-0.22437">
        <ele>124.6</ele>
        <time>2023-02-12T07:51:16Z</time>
      </trkpt>
      <trkpt lat="46.65486" lon="-0.22436">
        <ele>125.6</ele>
        <time>2023-02-12T07:51:19Z</time>
      </trkpt>
      <trkpt lat="46.65479" lon="-0.22435">
        <ele>126.8</ele>
        <time>2023-02-12T07:51:23Z</time>
      </trkpt>
      <trkpt lat="46.65476" lon="-0.22435">
        <ele>127.4</ele>
        <time>2023-02-12T07:51:25Z</time>
      </trkpt>
      <trkpt lat="46.65473" lon="-0.22435">
        <ele>128</ele>
        <time>2023-02-12T07:51:27Z</time>
      </trkpt>
      <trkpt lat="46.65464" lon="-0.22431">
        <ele>129.2</ele>
        <time>2023-02-12T07:51:32Z</time>
      </trkpt>
      <trkpt lat="46.65458" lon="-0.22429">
        <ele>130.4</ele>
        <time>2023-02-12T07:51:36Z</time>
      </trkpt>
      <trkpt lat="46.65457" lon="-0.22428">
        <ele>130.6</ele>
        <time>2023-02-12T07:51:37Z</time>
      </trkpt>
      <trkpt lat="46.65454" lon="-0.22428">
        <ele>131</ele>
        <time>2023-02-12T07:51:39Z</time>
      </trkpt>
      <trkpt lat="46.65453" lon="-0.22428">
        <ele>131.6</ele>
        <time>2023-02-12T07:51:40Z</time>
      </trkpt>
      <trkpt lat="46.65445" lon="-0.22425">
        <ele>133</ele>
        <time>2023-02-12T07:51:45Z</time>
      </trkpt>
      <trkpt lat="46.65442" lon="-0.22424">
        <ele>133.4</ele>
        <time>2023-02-12T07:51:47Z</time>
      </trkpt>
      <trkpt lat="46.65435" lon="-0.22423">
        <ele>134</ele>
        <time>2023-02-12T07:51:50Z</time>
      </trkpt>
      <trkpt lat="46.65425" lon="-0.2242">
        <ele>135.2</ele>
        <time>2023-02-12T07:51:55Z</time>
      </trkpt>
      <trkpt lat="46.65417" lon="-0.22419">
        <ele>136.4</ele>
        <time>2023-02-12T07:52:00Z</time>
      </trkpt>
      <trkpt lat="46.65413" lon="-0.22418">
        <ele>136.8</ele>
        <time>2023-02-12T07:52:02Z</time>
      </trkpt>
      <trkpt lat="46.65408" lon="-0.22416">
        <ele>137.4</ele>
        <time>2023-02-12T07:52:05Z</time>
      </trkpt>
      <trkpt lat="46.65402" lon="-0.22415">
        <ele>137.8</ele>
        <time>2023-02-12T07:52:09Z</time>
      </trkpt>
      <trkpt lat="46.65397" lon="-0.22414">
        <ele>138.4</ele>
        <time>2023-02-12T07:52:12Z</time>
      </trkpt>
      <trkpt lat="46.65389" lon="-0.22413">
        <ele>139</ele>
        <time>2023-02-12T07:52:16Z</time>
      </trkpt>
      <trkpt lat="46.65385" lon="-0.22413">
        <ele>139.6</ele>
        <time>2023-02-12T07:52:18Z</time>
      </trkpt>
      <trkpt lat="46.65372" lon="-0.22412">
        <ele>141</ele>
        <time>2023-02-12T07:52:24Z</time>
      </trkpt>
      <trkpt lat="46.65351" lon="-0.22408">
        <ele>141.6</ele>
        <time>2023-02-12T07:52:32Z</time>
      </trkpt>
      <trkpt lat="46.65348" lon="-0.22408">
        <ele>142</ele>
        <time>2023-02-12T07:52:33Z</time>
      </trkpt>
      <trkpt lat="46.65334" lon="-0.22407">
        <ele>142.8</ele>
        <time>2023-02-12T07:52:38Z</time>
      </trkpt>
      <trkpt lat="46.65329" lon="-0.22405">
        <ele>143</ele>
        <time>2023-02-12T07:52:40Z</time>
      </trkpt>
      <trkpt lat="46.65326" lon="-0.22404">
        <ele>143.2</ele>
        <time>2023-02-12T07:52:41Z</time>
      </trkpt>
      <trkpt lat="46.65306" lon="-0.22401">
        <ele>144</ele>
        <time>2023-02-12T07:52:49Z</time>
      </trkpt>
      <trkpt lat="46.65304" lon="-0.22401">
        <ele>144.2</ele>
        <time>2023-02-12T07:52:50Z</time>
      </trkpt>
      <trkpt lat="46.65287" lon="-0.22397">
        <ele>145.2</ele>
        <time>2023-02-12T07:52:56Z</time>
      </trkpt>
      <trkpt lat="46.65281" lon="-0.22395">
        <ele>145.4</ele>
        <time>2023-02-12T07:52:58Z</time>
      </trkpt>
      <trkpt lat="46.65273" lon="-0.22389">
        <ele>145.8</ele>
        <time>2023-02-12T07:53:01Z</time>
      </trkpt>
      <trkpt lat="46.65261" lon="-0.22385">
        <ele>146.4</ele>
        <time>2023-02-12T07:53:05Z</time>
      </trkpt>
      <trkpt lat="46.65258" lon="-0.22385">
        <ele>146.6</ele>
        <time>2023-02-12T07:53:06Z</time>
      </trkpt>
      <trkpt lat="46.6524" lon="-0.22382">
        <ele>146.6</ele>
        <time>2023-02-12T07:53:11Z</time>
      </trkpt>
      <trkpt lat="46.6522" lon="-0.22374">
        <ele>147.2</ele>
        <time>2023-02-12T07:53:17Z</time>
      </trkpt>
      <trkpt lat="46.65218" lon="-0.22371">
        <ele>147.4</ele>
        <time>2023-02-12T07:53:18Z</time>
      </trkpt>
      <trkpt lat="46.65216" lon="-0.22367">
        <ele>147.8</ele>
        <time>2023-02-12T07:53:19Z</time>
      </trkpt>
      <trkpt lat="46.65213" lon="-0.22359">
        <ele>148</ele>
        <time>2023-02-12T07:53:21Z</time>
      </trkpt>
      <trkpt lat="46.65211" lon="-0.22352">
        <ele>148.2</ele>
        <time>2023-02-12T07:53:23Z</time>
      </trkpt>
      <trkpt lat="46.65207" lon="-0.22353">
        <ele>148.4</ele>
        <time>2023-02-12T07:53:25Z</time>
      </trkpt>
      <trkpt lat="46.65207" lon="-0.22356">
        <ele>148.4</ele>
        <time>2023-02-12T07:53:26Z</time>
      </trkpt>
      <trkpt lat="46.65208" lon="-0.22365">
        <ele>148.6</ele>
        <time>2023-02-12T07:53:28Z</time>
      </trkpt>
      <trkpt lat="46.65215" lon="-0.22398">
        <ele>148.6</ele>
        <time>2023-02-12T07:53:34Z</time>
      </trkpt>
      <trkpt lat="46.65221" lon="-0.22424">
        <ele>148.8</ele>
        <time>2023-02-12T07:53:38Z</time>
      </trkpt>
      <trkpt lat="46.65226" lon="-0.22443">
        <ele>149</ele>
        <time>2023-02-12T07:53:41Z</time>
      </trkpt>
      <trkpt lat="46.65234" lon="-0.22476">
        <ele>150</ele>
        <time>2023-02-12T07:53:46Z</time>
      </trkpt>
      <trkpt lat="46.65237" lon="-0.22488">
        <ele>150.2</ele>
        <time>2023-02-12T07:53:48Z</time>
      </trkpt>
      <trkpt lat="46.65246" lon="-0.22516">
        <ele>151</ele>
        <time>2023-02-12T07:53:53Z</time>
      </trkpt>
      <trkpt lat="46.65251" lon="-0.22532">
        <ele>151.6</ele>
        <time>2023-02-12T07:53:56Z</time>
      </trkpt>
      <trkpt lat="46.65253" lon="-0.22536">
        <ele>152</ele>
        <time>2023-02-12T07:53:57Z</time>
      </trkpt>
      <trkpt lat="46.65261" lon="-0.22556">
        <ele>153.2</ele>
        <time>2023-02-12T07:54:01Z</time>
      </trkpt>
      <trkpt lat="46.65269" lon="-0.22574">
        <ele>153.8</ele>
        <time>2023-02-12T07:54:05Z</time>
      </trkpt>
      <trkpt lat="46.65275" lon="-0.22586">
        <ele>154.4</ele>
        <time>2023-02-12T07:54:08Z</time>
      </trkpt>
      <trkpt lat="46.65285" lon="-0.22608">
        <ele>155.4</ele>
        <time>2023-02-12T07:54:13Z</time>
      </trkpt>
      <trkpt lat="46.65287" lon="-0.22612">
        <ele>155.6</ele>
        <time>2023-02-12T07:54:14Z</time>
      </trkpt>
      <trkpt lat="46.65307" lon="-0.2265">
        <ele>156.4</ele>
        <time>2023-02-12T07:54:22Z</time>
      </trkpt>
      <trkpt lat="46.6533" lon="-0.22699">
        <ele>156.4</ele>
        <time>2023-02-12T07:54:31Z</time>
      </trkpt>
      <trkpt lat="46.65336" lon="-0.2271">
        <ele>156.4</ele>
        <time>2023-02-12T07:54:33Z</time>
      </trkpt>
      <trkpt lat="46.65348" lon="-0.22739">
        <ele>156.4</ele>
        <time>2023-02-12T07:54:38Z</time>
      </trkpt>
      <trkpt lat="46.65367" lon="-0.22789">
        <ele>156.2</ele>
        <time>2023-02-12T07:54:47Z</time>
      </trkpt>
      <trkpt lat="46.65373" lon="-0.22805">
        <ele>156.2</ele>
        <time>2023-02-12T07:54:50Z</time>
      </trkpt>
      <trkpt lat="46.6538" lon="-0.2282">
        <ele>156.2</ele>
        <time>2023-02-12T07:54:53Z</time>
      </trkpt>
      <trkpt lat="46.65381" lon="-0.22825">
        <ele>156</ele>
        <time>2023-02-12T07:54:54Z</time>
      </trkpt>
      <trkpt lat="46.65384" lon="-0.22829">
        <ele>156</ele>
        <time>2023-02-12T07:54:55Z</time>
      </trkpt>
      <trkpt lat="46.65392" lon="-0.22833">
        <ele>155.8</ele>
        <time>2023-02-12T07:54:57Z</time>
      </trkpt>
      <trkpt lat="46.6542" lon="-0.22833">
        <ele>154.6</ele>
        <time>2023-02-12T07:55:02Z</time>
      </trkpt>
      <trkpt lat="46.65426" lon="-0.22834">
        <ele>154.2</ele>
        <time>2023-02-12T07:55:03Z</time>
      </trkpt>
      <trkpt lat="46.65437" lon="-0.22843">
        <ele>153.4</ele>
        <time>2023-02-12T07:55:05Z</time>
      </trkpt>
      <trkpt lat="46.65441" lon="-0.22851">
        <ele>153.2</ele>
        <time>2023-02-12T07:55:06Z</time>
      </trkpt>
      <trkpt lat="46.65444" lon="-0.22861">
        <ele>152.8</ele>
        <time>2023-02-12T07:55:07Z</time>
      </trkpt>
      <trkpt lat="46.65447" lon="-0.22872">
        <ele>152.4</ele>
        <time>2023-02-12T07:55:08Z</time>
      </trkpt>
      <trkpt lat="46.65449" lon="-0.22883">
        <ele>151.8</ele>
        <time>2023-02-12T07:55:09Z</time>
      </trkpt>
      <trkpt lat="46.65455" lon="-0.22905">
        <ele>150.8</ele>
        <time>2023-02-12T07:55:11Z</time>
      </trkpt>
      <trkpt lat="46.65463" lon="-0.22925">
        <ele>150</ele>
        <time>2023-02-12T07:55:13Z</time>
      </trkpt>
      <trkpt lat="46.65468" lon="-0.22931">
        <ele>149.6</ele>
        <time>2023-02-12T07:55:14Z</time>
      </trkpt>
      <trkpt lat="46.65473" lon="-0.22934">
        <ele>149.2</ele>
        <time>2023-02-12T07:55:15Z</time>
      </trkpt>
      <trkpt lat="46.65478" lon="-0.22934">
        <ele>149</ele>
        <time>2023-02-12T07:55:16Z</time>
      </trkpt>
      <trkpt lat="46.65482" lon="-0.22933">
        <ele>149</ele>
        <time>2023-02-12T07:55:17Z</time>
      </trkpt>
      <trkpt lat="46.65496" lon="-0.22922">
        <ele>149.2</ele>
        <time>2023-02-12T07:55:20Z</time>
      </trkpt>
      <trkpt lat="46.65514" lon="-0.22909">
        <ele>149.2</ele>
        <time>2023-02-12T07:55:24Z</time>
      </trkpt>
      <trkpt lat="46.65519" lon="-0.22909">
        <ele>149.2</ele>
        <time>2023-02-12T07:55:25Z</time>
      </trkpt>
      <trkpt lat="46.65524" lon="-0.22911">
        <ele>149.2</ele>
        <time>2023-02-12T07:55:26Z</time>
      </trkpt>
      <trkpt lat="46.65533" lon="-0.22917">
        <ele>149.2</ele>
        <time>2023-02-12T07:55:28Z</time>
      </trkpt>
      <trkpt lat="46.65536" lon="-0.22922">
        <ele>149.4</ele>
        <time>2023-02-12T07:55:29Z</time>
      </trkpt>
      <trkpt lat="46.65539" lon="-0.22928">
        <ele>149.6</ele>
        <time>2023-02-12T07:55:30Z</time>
      </trkpt>
      <trkpt lat="46.65542" lon="-0.2294">
        <ele>150</ele>
        <time>2023-02-12T07:55:32Z</time>
      </trkpt>
      <trkpt lat="46.65543" lon="-0.22946">
        <ele>150.4</ele>
        <time>2023-02-12T07:55:33Z</time>
      </trkpt>
      <trkpt lat="46.65544" lon="-0.22953">
        <ele>150.8</ele>
        <time>2023-02-12T07:55:34Z</time>
      </trkpt>
      <trkpt lat="46.65548" lon="-0.2298">
        <ele>151</ele>
        <time>2023-02-12T07:55:38Z</time>
      </trkpt>
      <trkpt lat="46.65552" lon="-0.23">
        <ele>151</ele>
        <time>2023-02-12T07:55:41Z</time>
      </trkpt>
      <trkpt lat="46.6556" lon="-0.23044">
        <ele>149.4</ele>
        <time>2023-02-12T07:55:46Z</time>
      </trkpt>
      <trkpt lat="46.65561" lon="-0.23054">
        <ele>149.2</ele>
        <time>2023-02-12T07:55:47Z</time>
      </trkpt>
      <trkpt lat="46.65559" lon="-0.23073">
        <ele>149</ele>
        <time>2023-02-12T07:55:49Z</time>
      </trkpt>
      <trkpt lat="46.65551" lon="-0.23087">
        <ele>148.8</ele>
        <time>2023-02-12T07:55:51Z</time>
      </trkpt>
      <trkpt lat="46.65546" lon="-0.23093">
        <ele>148.6</ele>
        <time>2023-02-12T07:55:52Z</time>
      </trkpt>
      <trkpt lat="46.65523" lon="-0.23128">
        <ele>149.6</ele>
        <time>2023-02-12T07:55:58Z</time>
      </trkpt>
      <trkpt lat="46.65498" lon="-0.23172">
        <ele>148.6</ele>
        <time>2023-02-12T07:56:05Z</time>
      </trkpt>
      <trkpt lat="46.65491" lon="-0.23187">
        <ele>148.4</ele>
        <time>2023-02-12T07:56:07Z</time>
      </trkpt>
      <trkpt lat="46.6547" lon="-0.23228">
        <ele>147.6</ele>
        <time>2023-02-12T07:56:12Z</time>
      </trkpt>
      <trkpt lat="46.65466" lon="-0.23236">
        <ele>147.4</ele>
        <time>2023-02-12T07:56:13Z</time>
      </trkpt>
      <trkpt lat="46.65456" lon="-0.2326">
        <ele>146.4</ele>
        <time>2023-02-12T07:56:16Z</time>
      </trkpt>
      <trkpt lat="46.65449" lon="-0.23277">
        <ele>145.6</ele>
        <time>2023-02-12T07:56:18Z</time>
      </trkpt>
      <trkpt lat="46.65444" lon="-0.23293">
        <ele>145.2</ele>
        <time>2023-02-12T07:56:20Z</time>
      </trkpt>
      <trkpt lat="46.65429" lon="-0.23328">
        <ele>145</ele>
        <time>2023-02-12T07:56:24Z</time>
      </trkpt>
      <trkpt lat="46.65402" lon="-0.23374">
        <ele>145.2</ele>
        <time>2023-02-12T07:56:30Z</time>
      </trkpt>
      <trkpt lat="46.65394" lon="-0.23387">
        <ele>144.8</ele>
        <time>2023-02-12T07:56:32Z</time>
      </trkpt>
      <trkpt lat="46.65394" lon="-0.23403">
        <ele>144.4</ele>
        <time>2023-02-12T07:56:34Z</time>
      </trkpt>
      <trkpt lat="46.654" lon="-0.23437">
        <ele>145.2</ele>
        <time>2023-02-12T07:56:38Z</time>
      </trkpt>
      <trkpt lat="46.65403" lon="-0.23455">
        <ele>146.8</ele>
        <time>2023-02-12T07:56:41Z</time>
      </trkpt>
      <trkpt lat="46.65404" lon="-0.23463">
        <ele>147.8</ele>
        <time>2023-02-12T07:56:43Z</time>
      </trkpt>
      <trkpt lat="46.65405" lon="-0.23466">
        <ele>148</ele>
        <time>2023-02-12T07:56:44Z</time>
      </trkpt>
      <trkpt lat="46.65412" lon="-0.23468">
        <ele>148.4</ele>
        <time>2023-02-12T07:56:47Z</time>
      </trkpt>
      <trkpt lat="46.65422" lon="-0.23471">
        <ele>149</ele>
        <time>2023-02-12T07:56:50Z</time>
      </trkpt>
      <trkpt lat="46.65427" lon="-0.2347">
        <ele>149.2</ele>
        <time>2023-02-12T07:56:51Z</time>
      </trkpt>
      <trkpt lat="46.65434" lon="-0.23467">
        <ele>149.8</ele>
        <time>2023-02-12T07:56:53Z</time>
      </trkpt>
      <trkpt lat="46.65436" lon="-0.23465">
        <ele>150</ele>
        <time>2023-02-12T07:56:54Z</time>
      </trkpt>
      <trkpt lat="46.65437" lon="-0.23461">
        <ele>150.2</ele>
        <time>2023-02-12T07:56:55Z</time>
      </trkpt>
      <trkpt lat="46.65438" lon="-0.23438">
        <ele>150.2</ele>
        <time>2023-02-12T07:56:59Z</time>
      </trkpt>
      <trkpt lat="46.65444" lon="-0.23426">
        <ele>149.6</ele>
        <time>2023-02-12T07:57:02Z</time>
      </trkpt>
      <trkpt lat="46.65446" lon="-0.23422">
        <ele>149.6</ele>
        <time>2023-02-12T07:57:03Z</time>
      </trkpt>
      <trkpt lat="46.65453" lon="-0.23407">
        <ele>148.8</ele>
        <time>2023-02-12T07:57:06Z</time>
      </trkpt>
      <trkpt lat="46.65455" lon="-0.23403">
        <ele>148.6</ele>
        <time>2023-02-12T07:57:07Z</time>
      </trkpt>
      <trkpt lat="46.65463" lon="-0.23399">
        <ele>148.4</ele>
        <time>2023-02-12T07:57:09Z</time>
      </trkpt>
      <trkpt lat="46.65468" lon="-0.23398">
        <ele>148.6</ele>
        <time>2023-02-12T07:57:11Z</time>
      </trkpt>
      <trkpt lat="46.65471" lon="-0.23396">
        <ele>149.8</ele>
        <time>2023-02-12T07:57:13Z</time>
      </trkpt>
      <trkpt lat="46.65473" lon="-0.23393">
        <ele>150.4</ele>
        <time>2023-02-12T07:57:14Z</time>
      </trkpt>
      <trkpt lat="46.65478" lon="-0.23379">
        <ele>151</ele>
        <time>2023-02-12T07:57:17Z</time>
      </trkpt>
      <trkpt lat="46.6548" lon="-0.23373">
        <ele>151.2</ele>
        <time>2023-02-12T07:57:18Z</time>
      </trkpt>
      <trkpt lat="46.65485" lon="-0.23367">
        <ele>151</ele>
        <time>2023-02-12T07:57:20Z</time>
      </trkpt>
      <trkpt lat="46.65492" lon="-0.23369">
        <ele>151.2</ele>
        <time>2023-02-12T07:57:23Z</time>
      </trkpt>
      <trkpt lat="46.65495" lon="-0.23367">
        <ele>151.4</ele>
        <time>2023-02-12T07:57:24Z</time>
      </trkpt>
      <trkpt lat="46.65504" lon="-0.23354">
        <ele>152.4</ele>
        <time>2023-02-12T07:57:28Z</time>
      </trkpt>
      <trkpt lat="46.65518" lon="-0.23332">
        <ele>152.8</ele>
        <time>2023-02-12T07:57:33Z</time>
      </trkpt>
      <trkpt lat="46.65522" lon="-0.23327">
        <ele>152.8</ele>
        <time>2023-02-12T07:57:34Z</time>
      </trkpt>
      <trkpt lat="46.65529" lon="-0.23321">
        <ele>152.8</ele>
        <time>2023-02-12T07:57:36Z</time>
      </trkpt>
      <trkpt lat="46.65533" lon="-0.23319">
        <ele>152.8</ele>
        <time>2023-02-12T07:57:37Z</time>
      </trkpt>
      <trkpt lat="46.65548" lon="-0.23316">
        <ele>153.2</ele>
        <time>2023-02-12T07:57:41Z</time>
      </trkpt>
      <trkpt lat="46.65561" lon="-0.23307">
        <ele>153.6</ele>
        <time>2023-02-12T07:57:44Z</time>
      </trkpt>
      <trkpt lat="46.65565" lon="-0.23304">
        <ele>153.8</ele>
        <time>2023-02-12T07:57:45Z</time>
      </trkpt>
      <trkpt lat="46.65575" lon="-0.23302">
        <ele>154</ele>
        <time>2023-02-12T07:57:47Z</time>
      </trkpt>
      <trkpt lat="46.65586" lon="-0.23304">
        <ele>154.2</ele>
        <time>2023-02-12T07:57:49Z</time>
      </trkpt>
      <trkpt lat="46.65595" lon="-0.23305">
        <ele>154.2</ele>
        <time>2023-02-12T07:57:51Z</time>
      </trkpt>
      <trkpt lat="46.65604" lon="-0.23303">
        <ele>154.4</ele>
        <time>2023-02-12T07:57:53Z</time>
      </trkpt>
      <trkpt lat="46.65609" lon="-0.23301">
        <ele>154.4</ele>
        <time>2023-02-12T07:57:54Z</time>
      </trkpt>
      <trkpt lat="46.65639" lon="-0.23289">
        <ele>154.4</ele>
        <time>2023-02-12T07:58:00Z</time>
      </trkpt>
      <trkpt lat="46.65643" lon="-0.23288">
        <ele>154.2</ele>
        <time>2023-02-12T07:58:01Z</time>
      </trkpt>
      <trkpt lat="46.65647" lon="-0.23294">
        <ele>153.6</ele>
        <time>2023-02-12T07:58:03Z</time>
      </trkpt>
      <trkpt lat="46.6565" lon="-0.23304">
        <ele>153.2</ele>
        <time>2023-02-12T07:58:05Z</time>
      </trkpt>
      <trkpt lat="46.65653" lon="-0.23316">
        <ele>153.2</ele>
        <time>2023-02-12T07:58:07Z</time>
      </trkpt>
      <trkpt lat="46.65656" lon="-0.23334">
        <ele>153.6</ele>
        <time>2023-02-12T07:58:10Z</time>
      </trkpt>
      <trkpt lat="46.65658" lon="-0.23344">
        <ele>153.8</ele>
        <time>2023-02-12T07:58:12Z</time>
      </trkpt>
      <trkpt lat="46.6566" lon="-0.23349">
        <ele>153.8</ele>
        <time>2023-02-12T07:58:13Z</time>
      </trkpt>
      <trkpt lat="46.65662" lon="-0.23355">
        <ele>153.8</ele>
        <time>2023-02-12T07:58:14Z</time>
      </trkpt>
      <trkpt lat="46.65662" lon="-0.23369">
        <ele>153.4</ele>
        <time>2023-02-12T07:58:16Z</time>
      </trkpt>
      <trkpt lat="46.65662" lon="-0.23381">
        <ele>152.8</ele>
        <time>2023-02-12T07:58:18Z</time>
      </trkpt>
      <trkpt lat="46.65664" lon="-0.23385">
        <ele>152.4</ele>
        <time>2023-02-12T07:58:19Z</time>
      </trkpt>
      <trkpt lat="46.65666" lon="-0.23388">
        <ele>152.2</ele>
        <time>2023-02-12T07:58:20Z</time>
      </trkpt>
      <trkpt lat="46.6567" lon="-0.23396">
        <ele>151.8</ele>
        <time>2023-02-12T07:58:23Z</time>
      </trkpt>
      <trkpt lat="46.65669" lon="-0.23401">
        <ele>151</ele>
        <time>2023-02-12T07:58:25Z</time>
      </trkpt>
      <trkpt lat="46.6567" lon="-0.23403">
        <ele>150.6</ele>
        <time>2023-02-12T07:58:26Z</time>
      </trkpt>
      <trkpt lat="46.65673" lon="-0.23413">
        <ele>150.2</ele>
        <time>2023-02-12T07:58:28Z</time>
      </trkpt>
      <trkpt lat="46.65676" lon="-0.23419">
        <ele>149.4</ele>
        <time>2023-02-12T07:58:29Z</time>
      </trkpt>
      <trkpt lat="46.65678" lon="-0.23425">
        <ele>148.4</ele>
        <time>2023-02-12T07:58:30Z</time>
      </trkpt>
      <trkpt lat="46.65682" lon="-0.23431">
        <ele>147.6</ele>
        <time>2023-02-12T07:58:31Z</time>
      </trkpt>
      <trkpt lat="46.65685" lon="-0.23437">
        <ele>146</ele>
        <time>2023-02-12T07:58:32Z</time>
      </trkpt>
      <trkpt lat="46.65688" lon="-0.23444">
        <ele>144.4</ele>
        <time>2023-02-12T07:58:33Z</time>
      </trkpt>
      <trkpt lat="46.65693" lon="-0.23458">
        <ele>143</ele>
        <time>2023-02-12T07:58:35Z</time>
      </trkpt>
      <trkpt lat="46.657" lon="-0.2347">
        <ele>142.8</ele>
        <time>2023-02-12T07:58:37Z</time>
      </trkpt>
      <trkpt lat="46.65705" lon="-0.23478">
        <ele>143</ele>
        <time>2023-02-12T07:58:39Z</time>
      </trkpt>
      <trkpt lat="46.6571" lon="-0.23494">
        <ele>143.6</ele>
        <time>2023-02-12T07:58:42Z</time>
      </trkpt>
      <trkpt lat="46.65711" lon="-0.23499">
        <ele>143.6</ele>
        <time>2023-02-12T07:58:43Z</time>
      </trkpt>
      <trkpt lat="46.65713" lon="-0.23509">
        <ele>144</ele>
        <time>2023-02-12T07:58:45Z</time>
      </trkpt>
      <trkpt lat="46.65714" lon="-0.2352">
        <ele>144</ele>
        <time>2023-02-12T07:58:47Z</time>
      </trkpt>
      <trkpt lat="46.65713" lon="-0.23546">
        <ele>143.6</ele>
        <time>2023-02-12T07:58:51Z</time>
      </trkpt>
      <trkpt lat="46.65714" lon="-0.23554">
        <ele>143.4</ele>
        <time>2023-02-12T07:58:52Z</time>
      </trkpt>
      <trkpt lat="46.65715" lon="-0.23562">
        <ele>142.4</ele>
        <time>2023-02-12T07:58:53Z</time>
      </trkpt>
      <trkpt lat="46.65714" lon="-0.23575">
        <ele>141.6</ele>
        <time>2023-02-12T07:58:55Z</time>
      </trkpt>
      <trkpt lat="46.65713" lon="-0.2358">
        <ele>141.2</ele>
        <time>2023-02-12T07:58:56Z</time>
      </trkpt>
      <trkpt lat="46.65711" lon="-0.23595">
        <ele>141</ele>
        <time>2023-02-12T07:59:00Z</time>
      </trkpt>
      <trkpt lat="46.65709" lon="-0.23606">
        <ele>142.6</ele>
        <time>2023-02-12T07:59:04Z</time>
      </trkpt>
      <trkpt lat="46.65708" lon="-0.2361">
        <ele>144</ele>
        <time>2023-02-12T07:59:06Z</time>
      </trkpt>
      <trkpt lat="46.65706" lon="-0.23616">
        <ele>145.2</ele>
        <time>2023-02-12T07:59:09Z</time>
      </trkpt>
      <trkpt lat="46.65705" lon="-0.23623">
        <ele>146.2</ele>
        <time>2023-02-12T07:59:12Z</time>
      </trkpt>
      <trkpt lat="46.65705" lon="-0.23625">
        <ele>146.4</ele>
        <time>2023-02-12T07:59:13Z</time>
      </trkpt>
      <trkpt lat="46.65703" lon="-0.23634">
        <ele>147.4</ele>
        <time>2023-02-12T07:59:16Z</time>
      </trkpt>
      <trkpt lat="46.65702" lon="-0.23645">
        <ele>148.4</ele>
        <time>2023-02-12T07:59:20Z</time>
      </trkpt>
      <trkpt lat="46.65701" lon="-0.23648">
        <ele>148.8</ele>
        <time>2023-02-12T07:59:21Z</time>
      </trkpt>
      <trkpt lat="46.657" lon="-0.23656">
        <ele>149.6</ele>
        <time>2023-02-12T07:59:24Z</time>
      </trkpt>
      <trkpt lat="46.65699" lon="-0.23667">
        <ele>150</ele>
        <time>2023-02-12T07:59:28Z</time>
      </trkpt>
      <trkpt lat="46.65696" lon="-0.23683">
        <ele>150.6</ele>
        <time>2023-02-12T07:59:33Z</time>
      </trkpt>
      <trkpt lat="46.65695" lon="-0.23688">
        <ele>150.8</ele>
        <time>2023-02-12T07:59:34Z</time>
      </trkpt>
      <trkpt lat="46.6569" lon="-0.23714">
        <ele>150</ele>
        <time>2023-02-12T07:59:39Z</time>
      </trkpt>
      <trkpt lat="46.65689" lon="-0.23721">
        <ele>149.4</ele>
        <time>2023-02-12T07:59:40Z</time>
      </trkpt>
      <trkpt lat="46.65685" lon="-0.23738">
        <ele>148.8</ele>
        <time>2023-02-12T07:59:42Z</time>
      </trkpt>
      <trkpt lat="46.65682" lon="-0.23746">
        <ele>148.2</ele>
        <time>2023-02-12T07:59:43Z</time>
      </trkpt>
      <trkpt lat="46.65679" lon="-0.23764">
        <ele>146.8</ele>
        <time>2023-02-12T07:59:45Z</time>
      </trkpt>
      <trkpt lat="46.65678" lon="-0.23771">
        <ele>145.8</ele>
        <time>2023-02-12T07:59:46Z</time>
      </trkpt>
      <trkpt lat="46.65678" lon="-0.23778">
        <ele>144.2</ele>
        <time>2023-02-12T07:59:47Z</time>
      </trkpt>
      <trkpt lat="46.65678" lon="-0.23784">
        <ele>143.2</ele>
        <time>2023-02-12T07:59:48Z</time>
      </trkpt>
      <trkpt lat="46.6568" lon="-0.23796">
        <ele>140.6</ele>
        <time>2023-02-12T07:59:50Z</time>
      </trkpt>
      <trkpt lat="46.6568" lon="-0.23802">
        <ele>139.6</ele>
        <time>2023-02-12T07:59:51Z</time>
      </trkpt>
      <trkpt lat="46.6568" lon="-0.23808">
        <ele>137.8</ele>
        <time>2023-02-12T07:59:52Z</time>
      </trkpt>
      <trkpt lat="46.65681" lon="-0.23816">
        <ele>136.4</ele>
        <time>2023-02-12T07:59:53Z</time>
      </trkpt>
      <trkpt lat="46.65681" lon="-0.23826">
        <ele>135.2</ele>
        <time>2023-02-12T07:59:54Z</time>
      </trkpt>
      <trkpt lat="46.65682" lon="-0.23836">
        <ele>133.8</ele>
        <time>2023-02-12T07:59:55Z</time>
      </trkpt>
      <trkpt lat="46.65683" lon="-0.23848">
        <ele>131.8</ele>
        <time>2023-02-12T07:59:56Z</time>
      </trkpt>
      <trkpt lat="46.65684" lon="-0.23859">
        <ele>130.2</ele>
        <time>2023-02-12T07:59:57Z</time>
      </trkpt>
      <trkpt lat="46.65684" lon="-0.2387">
        <ele>127.8</ele>
        <time>2023-02-12T07:59:58Z</time>
      </trkpt>
      <trkpt lat="46.65685" lon="-0.2388">
        <ele>126.4</ele>
        <time>2023-02-12T07:59:59Z</time>
      </trkpt>
      <trkpt lat="46.65685" lon="-0.2389">
        <ele>125.4</ele>
        <time>2023-02-12T08:00:00Z</time>
      </trkpt>
      <trkpt lat="46.65684" lon="-0.23916">
        <ele>125.2</ele>
        <time>2023-02-12T08:00:03Z</time>
      </trkpt>
      <trkpt lat="46.65685" lon="-0.23922">
        <ele>125.2</ele>
        <time>2023-02-12T08:00:04Z</time>
      </trkpt>
      <trkpt lat="46.65685" lon="-0.23934">
        <ele>125.2</ele>
        <time>2023-02-12T08:00:06Z</time>
      </trkpt>
      <trkpt lat="46.65685" lon="-0.23939">
        <ele>125.2</ele>
        <time>2023-02-12T08:00:07Z</time>
      </trkpt>
      <trkpt lat="46.65686" lon="-0.23943">
        <ele>125.2</ele>
        <time>2023-02-12T08:00:08Z</time>
      </trkpt>
      <trkpt lat="46.65688" lon="-0.23948">
        <ele>125.2</ele>
        <time>2023-02-12T08:00:11Z</time>
      </trkpt>
      <trkpt lat="46.65692" lon="-0.23951">
        <ele>125</ele>
        <time>2023-02-12T08:00:16Z</time>
      </trkpt>
      <trkpt lat="46.65693" lon="-0.23952">
        <ele>125.2</ele>
        <time>2023-02-12T08:00:17Z</time>
      </trkpt>
      <trkpt lat="46.65702" lon="-0.23963">
        <ele>125.8</ele>
        <time>2023-02-12T08:00:23Z</time>
      </trkpt>
      <trkpt lat="46.65726" lon="-0.23964">
        <ele>126</ele>
        <time>2023-02-12T08:00:31Z</time>
      </trkpt>
      <trkpt lat="46.65752" lon="-0.23965">
        <ele>126.4</ele>
        <time>2023-02-12T08:00:39Z</time>
      </trkpt>
      <trkpt lat="46.65763" lon="-0.2396">
        <ele>126.6</ele>
        <time>2023-02-12T08:00:44Z</time>
      </trkpt>
      <trkpt lat="46.65775" lon="-0.23953">
        <ele>127.8</ele>
        <time>2023-02-12T08:00:49Z</time>
      </trkpt>
      <trkpt lat="46.65777" lon="-0.23951">
        <ele>128</ele>
        <time>2023-02-12T08:00:50Z</time>
      </trkpt>
      <trkpt lat="46.65779" lon="-0.23947">
        <ele>128</ele>
        <time>2023-02-12T08:00:51Z</time>
      </trkpt>
      <trkpt lat="46.65785" lon="-0.23931">
        <ele>128.2</ele>
        <time>2023-02-12T08:00:54Z</time>
      </trkpt>
      <trkpt lat="46.65788" lon="-0.23927">
        <ele>128.4</ele>
        <time>2023-02-12T08:00:55Z</time>
      </trkpt>
      <trkpt lat="46.6579" lon="-0.23924">
        <ele>128.4</ele>
        <time>2023-02-12T08:00:56Z</time>
      </trkpt>
      <trkpt lat="46.65796" lon="-0.2392">
        <ele>128.8</ele>
        <time>2023-02-12T08:00:58Z</time>
      </trkpt>
      <trkpt lat="46.65798" lon="-0.23919">
        <ele>129</ele>
        <time>2023-02-12T08:00:59Z</time>
      </trkpt>
      <trkpt lat="46.65807" lon="-0.23921">
        <ele>129.8</ele>
        <time>2023-02-12T08:01:02Z</time>
      </trkpt>
      <trkpt lat="46.65817" lon="-0.23922">
        <ele>130.8</ele>
        <time>2023-02-12T08:01:05Z</time>
      </trkpt>
      <trkpt lat="46.6582" lon="-0.23923">
        <ele>131.4</ele>
        <time>2023-02-12T08:01:06Z</time>
      </trkpt>
      <trkpt lat="46.65828" lon="-0.23923">
        <ele>132.6</ele>
        <time>2023-02-12T08:01:09Z</time>
      </trkpt>
      <trkpt lat="46.65836" lon="-0.23923">
        <ele>133.8</ele>
        <time>2023-02-12T08:01:12Z</time>
      </trkpt>
      <trkpt lat="46.65839" lon="-0.23923">
        <ele>134.2</ele>
        <time>2023-02-12T08:01:13Z</time>
      </trkpt>
      <trkpt lat="46.65844" lon="-0.23921">
        <ele>134.8</ele>
        <time>2023-02-12T08:01:15Z</time>
      </trkpt>
      <trkpt lat="46.65849" lon="-0.23915">
        <ele>136</ele>
        <time>2023-02-12T08:01:18Z</time>
      </trkpt>
      <trkpt lat="46.6585" lon="-0.23912">
        <ele>136.2</ele>
        <time>2023-02-12T08:01:19Z</time>
      </trkpt>
      <trkpt lat="46.65851" lon="-0.23891">
        <ele>136.8</ele>
        <time>2023-02-12T08:01:24Z</time>
      </trkpt>
      <trkpt lat="46.6585" lon="-0.23882">
        <ele>137</ele>
        <time>2023-02-12T08:01:26Z</time>
      </trkpt>
      <trkpt lat="46.65849" lon="-0.2385">
        <ele>137.8</ele>
        <time>2023-02-12T08:01:33Z</time>
      </trkpt>
      <trkpt lat="46.65849" lon="-0.23846">
        <ele>138</ele>
        <time>2023-02-12T08:01:34Z</time>
      </trkpt>
      <trkpt lat="46.65854" lon="-0.23821">
        <ele>138.8</ele>
        <time>2023-02-12T08:01:40Z</time>
      </trkpt>
      <trkpt lat="46.65861" lon="-0.2381">
        <ele>139</ele>
        <time>2023-02-12T08:01:43Z</time>
      </trkpt>
      <trkpt lat="46.65864" lon="-0.23809">
        <ele>139</ele>
        <time>2023-02-12T08:01:44Z</time>
      </trkpt>
      <trkpt lat="46.65882" lon="-0.23811">
        <ele>138.8</ele>
        <time>2023-02-12T08:01:48Z</time>
      </trkpt>
      <trkpt lat="46.65892" lon="-0.23812">
        <ele>138.4</ele>
        <time>2023-02-12T08:01:50Z</time>
      </trkpt>
      <trkpt lat="46.65902" lon="-0.23814">
        <ele>138</ele>
        <time>2023-02-12T08:01:52Z</time>
      </trkpt>
      <trkpt lat="46.65907" lon="-0.23817">
        <ele>137.8</ele>
        <time>2023-02-12T08:01:53Z</time>
      </trkpt>
      <trkpt lat="46.65924" lon="-0.23827">
        <ele>136.6</ele>
        <time>2023-02-12T08:01:56Z</time>
      </trkpt>
      <trkpt lat="46.65931" lon="-0.2383">
        <ele>136.4</ele>
        <time>2023-02-12T08:01:57Z</time>
      </trkpt>
      <trkpt lat="46.6594" lon="-0.23833">
        <ele>135.2</ele>
        <time>2023-02-12T08:01:58Z</time>
      </trkpt>
      <trkpt lat="46.65949" lon="-0.23835">
        <ele>134.4</ele>
        <time>2023-02-12T08:01:59Z</time>
      </trkpt>
      <trkpt lat="46.65959" lon="-0.23836">
        <ele>133.6</ele>
        <time>2023-02-12T08:02:00Z</time>
      </trkpt>
      <trkpt lat="46.65968" lon="-0.23834">
        <ele>133</ele>
        <time>2023-02-12T08:02:01Z</time>
      </trkpt>
      <trkpt lat="46.65976" lon="-0.23829">
        <ele>132.6</ele>
        <time>2023-02-12T08:02:02Z</time>
      </trkpt>
      <trkpt lat="46.66" lon="-0.23819">
        <ele>131.4</ele>
        <time>2023-02-12T08:02:05Z</time>
      </trkpt>
      <trkpt lat="46.66042" lon="-0.23812">
        <ele>131.4</ele>
        <time>2023-02-12T08:02:11Z</time>
      </trkpt>
      <trkpt lat="46.66057" lon="-0.23808">
        <ele>132.6</ele>
        <time>2023-02-12T08:02:14Z</time>
      </trkpt>
      <trkpt lat="46.66062" lon="-0.23807">
        <ele>133</ele>
        <time>2023-02-12T08:02:15Z</time>
      </trkpt>
      <trkpt lat="46.66075" lon="-0.23803">
        <ele>133.8</ele>
        <time>2023-02-12T08:02:18Z</time>
      </trkpt>
      <trkpt lat="46.66086" lon="-0.238">
        <ele>135.4</ele>
        <time>2023-02-12T08:02:21Z</time>
      </trkpt>
      <trkpt lat="46.66095" lon="-0.23798">
        <ele>136.2</ele>
        <time>2023-02-12T08:02:24Z</time>
      </trkpt>
      <trkpt lat="46.66098" lon="-0.238">
        <ele>136.4</ele>
        <time>2023-02-12T08:02:25Z</time>
      </trkpt>
      <trkpt lat="46.661" lon="-0.23804">
        <ele>136.4</ele>
        <time>2023-02-12T08:02:26Z</time>
      </trkpt>
      <trkpt lat="46.66102" lon="-0.23828">
        <ele>135</ele>
        <time>2023-02-12T08:02:29Z</time>
      </trkpt>
      <trkpt lat="46.66108" lon="-0.23847">
        <ele>133.6</ele>
        <time>2023-02-12T08:02:31Z</time>
      </trkpt>
      <trkpt lat="46.66119" lon="-0.23853">
        <ele>133</ele>
        <time>2023-02-12T08:02:33Z</time>
      </trkpt>
      <trkpt lat="46.66124" lon="-0.23853">
        <ele>133</ele>
        <time>2023-02-12T08:02:34Z</time>
      </trkpt>
      <trkpt lat="46.66129" lon="-0.23853">
        <ele>133</ele>
        <time>2023-02-12T08:02:35Z</time>
      </trkpt>
      <trkpt lat="46.66138" lon="-0.23853">
        <ele>133.2</ele>
        <time>2023-02-12T08:02:37Z</time>
      </trkpt>
      <trkpt lat="46.66147" lon="-0.23857">
        <ele>134</ele>
        <time>2023-02-12T08:02:39Z</time>
      </trkpt>
      <trkpt lat="46.66155" lon="-0.23863">
        <ele>134.4</ele>
        <time>2023-02-12T08:02:41Z</time>
      </trkpt>
      <trkpt lat="46.66159" lon="-0.23864">
        <ele>134.6</ele>
        <time>2023-02-12T08:02:42Z</time>
      </trkpt>
      <trkpt lat="46.66163" lon="-0.23864">
        <ele>134.8</ele>
        <time>2023-02-12T08:02:43Z</time>
      </trkpt>
      <trkpt lat="46.66174" lon="-0.23861">
        <ele>135.4</ele>
        <time>2023-02-12T08:02:46Z</time>
      </trkpt>
      <trkpt lat="46.66181" lon="-0.23856">
        <ele>135.6</ele>
        <time>2023-02-12T08:02:48Z</time>
      </trkpt>
      <trkpt lat="46.66183" lon="-0.23852">
        <ele>135.8</ele>
        <time>2023-02-12T08:02:49Z</time>
      </trkpt>
      <trkpt lat="46.66184" lon="-0.23847">
        <ele>135.8</ele>
        <time>2023-02-12T08:02:50Z</time>
      </trkpt>
      <trkpt lat="46.66183" lon="-0.23844">
        <ele>136</ele>
        <time>2023-02-12T08:02:51Z</time>
      </trkpt>
      <trkpt lat="46.66173" lon="-0.23834">
        <ele>136.2</ele>
        <time>2023-02-12T08:02:54Z</time>
      </trkpt>
      <trkpt lat="46.66161" lon="-0.23818">
        <ele>136.8</ele>
        <time>2023-02-12T08:02:59Z</time>
      </trkpt>
      <trkpt lat="46.66161" lon="-0.23814">
        <ele>137.2</ele>
        <time>2023-02-12T08:03:00Z</time>
      </trkpt>
      <trkpt lat="46.66165" lon="-0.23808">
        <ele>138</ele>
        <time>2023-02-12T08:03:03Z</time>
      </trkpt>
      <trkpt lat="46.66173" lon="-0.23808">
        <ele>139.4</ele>
        <time>2023-02-12T08:03:07Z</time>
      </trkpt>
      <trkpt lat="46.66178" lon="-0.23808">
        <ele>140.6</ele>
        <time>2023-02-12T08:03:10Z</time>
      </trkpt>
      <trkpt lat="46.66182" lon="-0.23807">
        <ele>141.6</ele>
        <time>2023-02-12T08:03:13Z</time>
      </trkpt>
      <trkpt lat="46.66185" lon="-0.23806">
        <ele>142.2</ele>
        <time>2023-02-12T08:03:16Z</time>
      </trkpt>
      <trkpt lat="46.66186" lon="-0.23805">
        <ele>142.2</ele>
        <time>2023-02-12T08:03:19Z</time>
      </trkpt>
      <trkpt lat="46.66187" lon="-0.23805">
        <ele>142.2</ele>
        <time>2023-02-12T08:03:23Z</time>
      </trkpt>
      <trkpt lat="46.66187" lon="-0.23805">
        <ele>142</ele>
        <time>2023-02-12T08:03:38Z</time>
      </trkpt>
      <trkpt lat="46.66188" lon="-0.23806">
        <ele>141.8</ele>
        <time>2023-02-12T08:03:53Z</time>
      </trkpt>
      <trkpt lat="46.66188" lon="-0.23806">
        <ele>141.6</ele>
        <time>2023-02-12T08:04:14Z</time>
      </trkpt>
      <trkpt lat="46.66188" lon="-0.23806">
        <ele>141.4</ele>
        <time>2023-02-12T08:04:35Z</time>
      </trkpt>
      <trkpt lat="46.66188" lon="-0.23802">
        <ele>141.4</ele>
        <time>2023-02-12T08:04:47Z</time>
      </trkpt>
      <trkpt lat="46.66186" lon="-0.238">
        <ele>141.4</ele>
        <time>2023-02-12T08:04:59Z</time>
      </trkpt>
      <trkpt lat="46.66176" lon="-0.23794">
        <ele>141.6</ele>
        <time>2023-02-12T08:05:07Z</time>
      </trkpt>
      <trkpt lat="46.66164" lon="-0.23785">
        <ele>141.8</ele>
        <time>2023-02-12T08:05:14Z</time>
      </trkpt>
      <trkpt lat="46.66149" lon="-0.23772">
        <ele>142.2</ele>
        <time>2023-02-12T08:05:20Z</time>
      </trkpt>
      <trkpt lat="46.66137" lon="-0.23758">
        <ele>142.8</ele>
        <time>2023-02-12T08:05:25Z</time>
      </trkpt>
      <trkpt lat="46.66133" lon="-0.23751">
        <ele>143.2</ele>
        <time>2023-02-12T08:05:27Z</time>
      </trkpt>
      <trkpt lat="46.66127" lon="-0.2374">
        <ele>144</ele>
        <time>2023-02-12T08:05:30Z</time>
      </trkpt>
      <trkpt lat="46.66122" lon="-0.23728">
        <ele>145</ele>
        <time>2023-02-12T08:05:33Z</time>
      </trkpt>
      <trkpt lat="46.66121" lon="-0.23723">
        <ele>145.2</ele>
        <time>2023-02-12T08:05:34Z</time>
      </trkpt>
      <trkpt lat="46.66116" lon="-0.23694">
        <ele>146.2</ele>
        <time>2023-02-12T08:05:40Z</time>
      </trkpt>
      <trkpt lat="46.66117" lon="-0.23689">
        <ele>146.2</ele>
        <time>2023-02-12T08:05:41Z</time>
      </trkpt>
      <trkpt lat="46.66121" lon="-0.23674">
        <ele>146.6</ele>
        <time>2023-02-12T08:05:44Z</time>
      </trkpt>
      <trkpt lat="46.66138" lon="-0.2364">
        <ele>147.2</ele>
        <time>2023-02-12T08:05:51Z</time>
      </trkpt>
      <trkpt lat="46.66143" lon="-0.23631">
        <ele>147.4</ele>
        <time>2023-02-12T08:05:53Z</time>
      </trkpt>
      <trkpt lat="46.66162" lon="-0.23597">
        <ele>148.4</ele>
        <time>2023-02-12T08:06:00Z</time>
      </trkpt>
      <trkpt lat="46.66165" lon="-0.23592">
        <ele>148.4</ele>
        <time>2023-02-12T08:06:01Z</time>
      </trkpt>
      <trkpt lat="46.66187" lon="-0.23554">
        <ele>149.2</ele>
        <time>2023-02-12T08:06:08Z</time>
      </trkpt>
      <trkpt lat="46.6619" lon="-0.23549">
        <ele>149.6</ele>
        <time>2023-02-12T08:06:09Z</time>
      </trkpt>
      <trkpt lat="46.66224" lon="-0.23496">
        <ele>150.6</ele>
        <time>2023-02-12T08:06:19Z</time>
      </trkpt>
      <trkpt lat="46.66251" lon="-0.23471">
        <ele>151</ele>
        <time>2023-02-12T08:06:25Z</time>
      </trkpt>
      <trkpt lat="46.66261" lon="-0.23466">
        <ele>151</ele>
        <time>2023-02-12T08:06:27Z</time>
      </trkpt>
      <trkpt lat="46.66276" lon="-0.23461">
        <ele>151</ele>
        <time>2023-02-12T08:06:30Z</time>
      </trkpt>
      <trkpt lat="46.66282" lon="-0.23461">
        <ele>151</ele>
        <time>2023-02-12T08:06:31Z</time>
      </trkpt>
      <trkpt lat="46.66305" lon="-0.23464">
        <ele>151</ele>
        <time>2023-02-12T08:06:35Z</time>
      </trkpt>
      <trkpt lat="46.6634" lon="-0.23478">
        <ele>150.4</ele>
        <time>2023-02-12T08:06:41Z</time>
      </trkpt>
      <trkpt lat="46.66373" lon="-0.235">
        <ele>149.8</ele>
        <time>2023-02-12T08:06:47Z</time>
      </trkpt>
      <trkpt lat="46.66379" lon="-0.23502">
        <ele>149.8</ele>
        <time>2023-02-12T08:06:48Z</time>
      </trkpt>
      <trkpt lat="46.66384" lon="-0.23503">
        <ele>149.6</ele>
        <time>2023-02-12T08:06:49Z</time>
      </trkpt>
      <trkpt lat="46.66395" lon="-0.23501">
        <ele>149.6</ele>
        <time>2023-02-12T08:06:51Z</time>
      </trkpt>
      <trkpt lat="46.664" lon="-0.23497">
        <ele>149.8</ele>
        <time>2023-02-12T08:06:52Z</time>
      </trkpt>
      <trkpt lat="46.66404" lon="-0.23492">
        <ele>150</ele>
        <time>2023-02-12T08:06:53Z</time>
      </trkpt>
      <trkpt lat="46.66412" lon="-0.23479">
        <ele>150.2</ele>
        <time>2023-02-12T08:06:55Z</time>
      </trkpt>
      <trkpt lat="46.66416" lon="-0.23471">
        <ele>150.2</ele>
        <time>2023-02-12T08:06:56Z</time>
      </trkpt>
      <trkpt lat="46.66432" lon="-0.23411">
        <ele>150.6</ele>
        <time>2023-02-12T08:07:03Z</time>
      </trkpt>
      <trkpt lat="46.6645" lon="-0.23334">
        <ele>151.2</ele>
        <time>2023-02-12T08:07:12Z</time>
      </trkpt>
      <trkpt lat="46.6646" lon="-0.23295">
        <ele>151.6</ele>
        <time>2023-02-12T08:07:17Z</time>
      </trkpt>
      <trkpt lat="46.66464" lon="-0.2328">
        <ele>152.2</ele>
        <time>2023-02-12T08:07:19Z</time>
      </trkpt>
      <trkpt lat="46.66471" lon="-0.23257">
        <ele>152.8</ele>
        <time>2023-02-12T08:07:22Z</time>
      </trkpt>
      <trkpt lat="46.6648" lon="-0.23223">
        <ele>153.4</ele>
        <time>2023-02-12T08:07:27Z</time>
      </trkpt>
      <trkpt lat="46.66483" lon="-0.23209">
        <ele>154</ele>
        <time>2023-02-12T08:07:29Z</time>
      </trkpt>
      <trkpt lat="46.6649" lon="-0.23183">
        <ele>154.8</ele>
        <time>2023-02-12T08:07:33Z</time>
      </trkpt>
      <trkpt lat="46.66494" lon="-0.2317">
        <ele>155</ele>
        <time>2023-02-12T08:07:35Z</time>
      </trkpt>
      <trkpt lat="46.66497" lon="-0.23157">
        <ele>155.4</ele>
        <time>2023-02-12T08:07:37Z</time>
      </trkpt>
      <trkpt lat="46.66504" lon="-0.23131">
        <ele>156.2</ele>
        <time>2023-02-12T08:07:41Z</time>
      </trkpt>
      <trkpt lat="46.66513" lon="-0.23099">
        <ele>157.2</ele>
        <time>2023-02-12T08:07:46Z</time>
      </trkpt>
      <trkpt lat="46.66514" lon="-0.23092">
        <ele>157.4</ele>
        <time>2023-02-12T08:07:47Z</time>
      </trkpt>
      <trkpt lat="46.66523" lon="-0.23059">
        <ele>158.4</ele>
        <time>2023-02-12T08:07:52Z</time>
      </trkpt>
      <trkpt lat="46.66528" lon="-0.23039">
        <ele>158.8</ele>
        <time>2023-02-12T08:07:55Z</time>
      </trkpt>
      <trkpt lat="46.66537" lon="-0.23006">
        <ele>159.6</ele>
        <time>2023-02-12T08:08:00Z</time>
      </trkpt>
      <trkpt lat="46.66545" lon="-0.22976">
        <ele>160</ele>
        <time>2023-02-12T08:08:05Z</time>
      </trkpt>
      <trkpt lat="46.66552" lon="-0.22952">
        <ele>160.6</ele>
        <time>2023-02-12T08:08:09Z</time>
      </trkpt>
      <trkpt lat="46.66559" lon="-0.22934">
        <ele>161</ele>
        <time>2023-02-12T08:08:12Z</time>
      </trkpt>
      <trkpt lat="46.66562" lon="-0.22929">
        <ele>161.2</ele>
        <time>2023-02-12T08:08:13Z</time>
      </trkpt>
      <trkpt lat="46.66577" lon="-0.22908">
        <ele>161.2</ele>
        <time>2023-02-12T08:08:17Z</time>
      </trkpt>
      <trkpt lat="46.66606" lon="-0.2287">
        <ele>161.2</ele>
        <time>2023-02-12T08:08:24Z</time>
      </trkpt>
      <trkpt lat="46.66638" lon="-0.22823">
        <ele>160.6</ele>
        <time>2023-02-12T08:08:31Z</time>
      </trkpt>
      <trkpt lat="46.66671" lon="-0.22768">
        <ele>159.4</ele>
        <time>2023-02-12T08:08:38Z</time>
      </trkpt>
      <trkpt lat="46.66697" lon="-0.2272">
        <ele>158.8</ele>
        <time>2023-02-12T08:08:44Z</time>
      </trkpt>
      <trkpt lat="46.66711" lon="-0.22697">
        <ele>158.4</ele>
        <time>2023-02-12T08:08:47Z</time>
      </trkpt>
      <trkpt lat="46.66731" lon="-0.22667">
        <ele>158</ele>
        <time>2023-02-12T08:08:51Z</time>
      </trkpt>
      <trkpt lat="46.66745" lon="-0.22646">
        <ele>157.6</ele>
        <time>2023-02-12T08:08:54Z</time>
      </trkpt>
      <trkpt lat="46.66752" lon="-0.22632">
        <ele>157.6</ele>
        <time>2023-02-12T08:08:56Z</time>
      </trkpt>
      <trkpt lat="46.66755" lon="-0.22626">
        <ele>157.2</ele>
        <time>2023-02-12T08:08:57Z</time>
      </trkpt>
      <trkpt lat="46.6676" lon="-0.22614">
        <ele>156.6</ele>
        <time>2023-02-12T08:08:59Z</time>
      </trkpt>
      <trkpt lat="46.66766" lon="-0.22605">
        <ele>156.4</ele>
        <time>2023-02-12T08:09:01Z</time>
      </trkpt>
      <trkpt lat="46.6677" lon="-0.226">
        <ele>156.4</ele>
        <time>2023-02-12T08:09:02Z</time>
      </trkpt>
      <trkpt lat="46.66779" lon="-0.2258">
        <ele>156.4</ele>
        <time>2023-02-12T08:09:05Z</time>
      </trkpt>
      <trkpt lat="46.66796" lon="-0.22534">
        <ele>156.4</ele>
        <time>2023-02-12T08:09:11Z</time>
      </trkpt>
      <trkpt lat="46.66811" lon="-0.22486">
        <ele>156.8</ele>
        <time>2023-02-12T08:09:17Z</time>
      </trkpt>
      <trkpt lat="46.66826" lon="-0.22457">
        <ele>157</ele>
        <time>2023-02-12T08:09:21Z</time>
      </trkpt>
      <trkpt lat="46.6683" lon="-0.22451">
        <ele>157</ele>
        <time>2023-02-12T08:09:22Z</time>
      </trkpt>
      <trkpt lat="46.66849" lon="-0.22427">
        <ele>157.4</ele>
        <time>2023-02-12T08:09:26Z</time>
      </trkpt>
      <trkpt lat="46.66864" lon="-0.22411">
        <ele>157.4</ele>
        <time>2023-02-12T08:09:29Z</time>
      </trkpt>
      <trkpt lat="46.66899" lon="-0.22371">
        <ele>157.4</ele>
        <time>2023-02-12T08:09:36Z</time>
      </trkpt>
      <trkpt lat="46.66914" lon="-0.22352">
        <ele>157.2</ele>
        <time>2023-02-12T08:09:39Z</time>
      </trkpt>
      <trkpt lat="46.66918" lon="-0.22344">
        <ele>157.2</ele>
        <time>2023-02-12T08:09:40Z</time>
      </trkpt>
      <trkpt lat="46.66932" lon="-0.22301">
        <ele>156.8</ele>
        <time>2023-02-12T08:09:45Z</time>
      </trkpt>
      <trkpt lat="46.66948" lon="-0.22253">
        <ele>157.2</ele>
        <time>2023-02-12T08:09:51Z</time>
      </trkpt>
      <trkpt lat="46.66965" lon="-0.22195">
        <ele>156.6</ele>
        <time>2023-02-12T08:09:58Z</time>
      </trkpt>
      <trkpt lat="46.6698" lon="-0.22148">
        <ele>156.6</ele>
        <time>2023-02-12T08:10:04Z</time>
      </trkpt>
      <trkpt lat="46.66989" lon="-0.22113">
        <ele>157</ele>
        <time>2023-02-12T08:10:09Z</time>
      </trkpt>
      <trkpt lat="46.66991" lon="-0.22105">
        <ele>157.2</ele>
        <time>2023-02-12T08:10:10Z</time>
      </trkpt>
      <trkpt lat="46.67001" lon="-0.22049">
        <ele>157.8</ele>
        <time>2023-02-12T08:10:17Z</time>
      </trkpt>
      <trkpt lat="46.67002" lon="-0.21999">
        <ele>158</ele>
        <time>2023-02-12T08:10:23Z</time>
      </trkpt>
      <trkpt lat="46.67005" lon="-0.21957">
        <ele>158</ele>
        <time>2023-02-12T08:10:28Z</time>
      </trkpt>
      <trkpt lat="46.67014" lon="-0.21902">
        <ele>157.6</ele>
        <time>2023-02-12T08:10:34Z</time>
      </trkpt>
      <trkpt lat="46.67021" lon="-0.2184">
        <ele>156.4</ele>
        <time>2023-02-12T08:10:40Z</time>
      </trkpt>
      <trkpt lat="46.67023" lon="-0.21829">
        <ele>156</ele>
        <time>2023-02-12T08:10:41Z</time>
      </trkpt>
      <trkpt lat="46.67028" lon="-0.21794">
        <ele>154.8</ele>
        <time>2023-02-12T08:10:44Z</time>
      </trkpt>
      <trkpt lat="46.67032" lon="-0.21771">
        <ele>153.4</ele>
        <time>2023-02-12T08:10:46Z</time>
      </trkpt>
      <trkpt lat="46.67035" lon="-0.21759">
        <ele>153</ele>
        <time>2023-02-12T08:10:47Z</time>
      </trkpt>
      <trkpt lat="46.67045" lon="-0.21727">
        <ele>152.2</ele>
        <time>2023-02-12T08:10:50Z</time>
      </trkpt>
      <trkpt lat="46.67049" lon="-0.21716">
        <ele>151.8</ele>
        <time>2023-02-12T08:10:51Z</time>
      </trkpt>
      <trkpt lat="46.67067" lon="-0.21676">
        <ele>150.8</ele>
        <time>2023-02-12T08:10:55Z</time>
      </trkpt>
      <trkpt lat="46.67081" lon="-0.21645">
        <ele>149.8</ele>
        <time>2023-02-12T08:10:58Z</time>
      </trkpt>
      <trkpt lat="46.67085" lon="-0.21635">
        <ele>149.4</ele>
        <time>2023-02-12T08:10:59Z</time>
      </trkpt>
      <trkpt lat="46.67103" lon="-0.21595">
        <ele>148.6</ele>
        <time>2023-02-12T08:11:03Z</time>
      </trkpt>
      <trkpt lat="46.67117" lon="-0.21565">
        <ele>147.8</ele>
        <time>2023-02-12T08:11:06Z</time>
      </trkpt>
      <trkpt lat="46.67121" lon="-0.21556">
        <ele>147.6</ele>
        <time>2023-02-12T08:11:07Z</time>
      </trkpt>
      <trkpt lat="46.67135" lon="-0.21526">
        <ele>146.6</ele>
        <time>2023-02-12T08:11:10Z</time>
      </trkpt>
      <trkpt lat="46.67147" lon="-0.21496">
        <ele>145</ele>
        <time>2023-02-12T08:11:13Z</time>
      </trkpt>
      <trkpt lat="46.67152" lon="-0.21487">
        <ele>144.8</ele>
        <time>2023-02-12T08:11:14Z</time>
      </trkpt>
      <trkpt lat="46.67169" lon="-0.21464">
        <ele>144.4</ele>
        <time>2023-02-12T08:11:17Z</time>
      </trkpt>
      <trkpt lat="46.67196" lon="-0.21438">
        <ele>144.4</ele>
        <time>2023-02-12T08:11:21Z</time>
      </trkpt>
      <trkpt lat="46.67203" lon="-0.21434">
        <ele>144.2</ele>
        <time>2023-02-12T08:11:22Z</time>
      </trkpt>
      <trkpt lat="46.6721" lon="-0.2143">
        <ele>144</ele>
        <time>2023-02-12T08:11:23Z</time>
      </trkpt>
      <trkpt lat="46.67237" lon="-0.21411">
        <ele>142.8</ele>
        <time>2023-02-12T08:11:27Z</time>
      </trkpt>
      <trkpt lat="46.67243" lon="-0.21405">
        <ele>142.6</ele>
        <time>2023-02-12T08:11:28Z</time>
      </trkpt>
      <trkpt lat="46.67248" lon="-0.21397">
        <ele>142.4</ele>
        <time>2023-02-12T08:11:29Z</time>
      </trkpt>
      <trkpt lat="46.67256" lon="-0.2138">
        <ele>141.8</ele>
        <time>2023-02-12T08:11:31Z</time>
      </trkpt>
      <trkpt lat="46.6726" lon="-0.2137">
        <ele>141.6</ele>
        <time>2023-02-12T08:11:32Z</time>
      </trkpt>
      <trkpt lat="46.67287" lon="-0.21305">
        <ele>140.6</ele>
        <time>2023-02-12T08:11:39Z</time>
      </trkpt>
      <trkpt lat="46.6731" lon="-0.2125">
        <ele>139.6</ele>
        <time>2023-02-12T08:11:45Z</time>
      </trkpt>
      <trkpt lat="46.67313" lon="-0.21242">
        <ele>139.6</ele>
        <time>2023-02-12T08:11:46Z</time>
      </trkpt>
      <trkpt lat="46.67336" lon="-0.21192">
        <ele>139.4</ele>
        <time>2023-02-12T08:11:52Z</time>
      </trkpt>
      <trkpt lat="46.67356" lon="-0.21152">
        <ele>138.4</ele>
        <time>2023-02-12T08:11:57Z</time>
      </trkpt>
      <trkpt lat="46.67365" lon="-0.21138">
        <ele>138</ele>
        <time>2023-02-12T08:11:59Z</time>
      </trkpt>
      <trkpt lat="46.67388" lon="-0.21102">
        <ele>138</ele>
        <time>2023-02-12T08:12:04Z</time>
      </trkpt>
      <trkpt lat="46.67395" lon="-0.21087">
        <ele>138</ele>
        <time>2023-02-12T08:12:06Z</time>
      </trkpt>
      <trkpt lat="46.674" lon="-0.21079">
        <ele>137.8</ele>
        <time>2023-02-12T08:12:07Z</time>
      </trkpt>
      <trkpt lat="46.67425" lon="-0.21039">
        <ele>137.6</ele>
        <time>2023-02-12T08:12:13Z</time>
      </trkpt>
      <trkpt lat="46.67429" lon="-0.21033">
        <ele>137.8</ele>
        <time>2023-02-12T08:12:14Z</time>
      </trkpt>
      <trkpt lat="46.67459" lon="-0.2098">
        <ele>138</ele>
        <time>2023-02-12T08:12:22Z</time>
      </trkpt>
      <trkpt lat="46.67488" lon="-0.20918">
        <ele>137.4</ele>
        <time>2023-02-12T08:12:30Z</time>
      </trkpt>
      <trkpt lat="46.67492" lon="-0.20909">
        <ele>137</ele>
        <time>2023-02-12T08:12:31Z</time>
      </trkpt>
      <trkpt lat="46.6751" lon="-0.20868">
        <ele>136.2</ele>
        <time>2023-02-12T08:12:36Z</time>
      </trkpt>
      <trkpt lat="46.67517" lon="-0.20852">
        <ele>135.8</ele>
        <time>2023-02-12T08:12:38Z</time>
      </trkpt>
      <trkpt lat="46.67525" lon="-0.20836">
        <ele>135.6</ele>
        <time>2023-02-12T08:12:40Z</time>
      </trkpt>
      <trkpt lat="46.67533" lon="-0.20827">
        <ele>135.4</ele>
        <time>2023-02-12T08:12:42Z</time>
      </trkpt>
      <trkpt lat="46.67541" lon="-0.20829">
        <ele>135.4</ele>
        <time>2023-02-12T08:12:44Z</time>
      </trkpt>
      <trkpt lat="46.67544" lon="-0.20833">
        <ele>135.4</ele>
        <time>2023-02-12T08:12:45Z</time>
      </trkpt>
      <trkpt lat="46.67547" lon="-0.20839">
        <ele>135.6</ele>
        <time>2023-02-12T08:12:46Z</time>
      </trkpt>
      <trkpt lat="46.67557" lon="-0.20864">
        <ele>136.2</ele>
        <time>2023-02-12T08:12:50Z</time>
      </trkpt>
      <trkpt lat="46.67567" lon="-0.20889">
        <ele>137.4</ele>
        <time>2023-02-12T08:12:54Z</time>
      </trkpt>
      <trkpt lat="46.67576" lon="-0.20913">
        <ele>137.8</ele>
        <time>2023-02-12T08:12:58Z</time>
      </trkpt>
      <trkpt lat="46.67578" lon="-0.20919">
        <ele>138</ele>
        <time>2023-02-12T08:12:59Z</time>
      </trkpt>
      <trkpt lat="46.67587" lon="-0.20933">
        <ele>138.4</ele>
        <time>2023-02-12T08:13:03Z</time>
      </trkpt>
      <trkpt lat="46.67596" lon="-0.20944">
        <ele>139.2</ele>
        <time>2023-02-12T08:13:06Z</time>
      </trkpt>
      <trkpt lat="46.67603" lon="-0.20951">
        <ele>139.6</ele>
        <time>2023-02-12T08:13:08Z</time>
      </trkpt>
      <trkpt lat="46.67627" lon="-0.2097">
        <ele>140.6</ele>
        <time>2023-02-12T08:13:14Z</time>
      </trkpt>
      <trkpt lat="46.67656" lon="-0.20996">
        <ele>140.8</ele>
        <time>2023-02-12T08:13:21Z</time>
      </trkpt>
      <trkpt lat="46.67691" lon="-0.2103">
        <ele>140.4</ele>
        <time>2023-02-12T08:13:29Z</time>
      </trkpt>
      <trkpt lat="46.677" lon="-0.21042">
        <ele>140</ele>
        <time>2023-02-12T08:13:31Z</time>
      </trkpt>
      <trkpt lat="46.67716" lon="-0.21071">
        <ele>139.6</ele>
        <time>2023-02-12T08:13:35Z</time>
      </trkpt>
      <trkpt lat="46.67723" lon="-0.21088">
        <ele>139.6</ele>
        <time>2023-02-12T08:13:37Z</time>
      </trkpt>
      <trkpt lat="46.6773" lon="-0.21114">
        <ele>139.6</ele>
        <time>2023-02-12T08:13:40Z</time>
      </trkpt>
      <trkpt lat="46.67739" lon="-0.21158">
        <ele>139.6</ele>
        <time>2023-02-12T08:13:45Z</time>
      </trkpt>
      <trkpt lat="46.67741" lon="-0.21166">
        <ele>139.6</ele>
        <time>2023-02-12T08:13:46Z</time>
      </trkpt>
      <trkpt lat="46.67744" lon="-0.21174">
        <ele>139.4</ele>
        <time>2023-02-12T08:13:47Z</time>
      </trkpt>
      <trkpt lat="46.67754" lon="-0.21195">
        <ele>139.2</ele>
        <time>2023-02-12T08:13:50Z</time>
      </trkpt>
      <trkpt lat="46.67756" lon="-0.21209">
        <ele>139</ele>
        <time>2023-02-12T08:13:52Z</time>
      </trkpt>
      <trkpt lat="46.67752" lon="-0.2122">
        <ele>139.2</ele>
        <time>2023-02-12T08:13:53Z</time>
      </trkpt>
      <trkpt lat="46.67734" lon="-0.21259">
        <ele>140.2</ele>
        <time>2023-02-12T08:14:01Z</time>
      </trkpt>
      <trkpt lat="46.67729" lon="-0.21271">
        <ele>140.6</ele>
        <time>2023-02-12T08:14:03Z</time>
      </trkpt>
      <trkpt lat="46.67719" lon="-0.21293">
        <ele>141</ele>
        <time>2023-02-12T08:14:07Z</time>
      </trkpt>
      <trkpt lat="46.67705" lon="-0.21321">
        <ele>141.6</ele>
        <time>2023-02-12T08:14:12Z</time>
      </trkpt>
      <trkpt lat="46.67698" lon="-0.21339">
        <ele>142</ele>
        <time>2023-02-12T08:14:15Z</time>
      </trkpt>
      <trkpt lat="46.67681" lon="-0.21377">
        <ele>142.8</ele>
        <time>2023-02-12T08:14:22Z</time>
      </trkpt>
      <trkpt lat="46.67676" lon="-0.21388">
        <ele>143.2</ele>
        <time>2023-02-12T08:14:24Z</time>
      </trkpt>
      <trkpt lat="46.67665" lon="-0.21418">
        <ele>143.8</ele>
        <time>2023-02-12T08:14:29Z</time>
      </trkpt>
      <trkpt lat="46.67658" lon="-0.21435">
        <ele>144.6</ele>
        <time>2023-02-12T08:14:32Z</time>
      </trkpt>
      <trkpt lat="46.67648" lon="-0.21458">
        <ele>145</ele>
        <time>2023-02-12T08:14:36Z</time>
      </trkpt>
      <trkpt lat="46.67633" lon="-0.21493">
        <ele>146.2</ele>
        <time>2023-02-12T08:14:42Z</time>
      </trkpt>
      <trkpt lat="46.67616" lon="-0.21531">
        <ele>147</ele>
        <time>2023-02-12T08:14:49Z</time>
      </trkpt>
      <trkpt lat="46.67614" lon="-0.21536">
        <ele>147.2</ele>
        <time>2023-02-12T08:14:50Z</time>
      </trkpt>
      <trkpt lat="46.67611" lon="-0.2154">
        <ele>147.2</ele>
        <time>2023-02-12T08:14:51Z</time>
      </trkpt>
      <trkpt lat="46.67606" lon="-0.2155">
        <ele>147.2</ele>
        <time>2023-02-12T08:14:53Z</time>
      </trkpt>
      <trkpt lat="46.67601" lon="-0.21566">
        <ele>147.6</ele>
        <time>2023-02-12T08:14:56Z</time>
      </trkpt>
      <trkpt lat="46.67589" lon="-0.21596">
        <ele>147.8</ele>
        <time>2023-02-12T08:15:02Z</time>
      </trkpt>
      <trkpt lat="46.67586" lon="-0.21601">
        <ele>147.8</ele>
        <time>2023-02-12T08:15:03Z</time>
      </trkpt>
      <trkpt lat="46.6758" lon="-0.21616">
        <ele>148.4</ele>
        <time>2023-02-12T08:15:06Z</time>
      </trkpt>
      <trkpt lat="46.67578" lon="-0.21621">
        <ele>148.4</ele>
        <time>2023-02-12T08:15:07Z</time>
      </trkpt>
      <trkpt lat="46.67573" lon="-0.21629">
        <ele>148.6</ele>
        <time>2023-02-12T08:15:09Z</time>
      </trkpt>
      <trkpt lat="46.67571" lon="-0.21638">
        <ele>148.8</ele>
        <time>2023-02-12T08:15:11Z</time>
      </trkpt>
      <trkpt lat="46.67568" lon="-0.21653">
        <ele>148.8</ele>
        <time>2023-02-12T08:15:14Z</time>
      </trkpt>
      <trkpt lat="46.67567" lon="-0.21658">
        <ele>149</ele>
        <time>2023-02-12T08:15:15Z</time>
      </trkpt>
      <trkpt lat="46.67566" lon="-0.21676">
        <ele>149</ele>
        <time>2023-02-12T08:15:19Z</time>
      </trkpt>
      <trkpt lat="46.67565" lon="-0.21685">
        <ele>149.4</ele>
        <time>2023-02-12T08:15:21Z</time>
      </trkpt>
      <trkpt lat="46.67565" lon="-0.2169">
        <ele>149.6</ele>
        <time>2023-02-12T08:15:22Z</time>
      </trkpt>
      <trkpt lat="46.67565" lon="-0.21695">
        <ele>149.6</ele>
        <time>2023-02-12T08:15:23Z</time>
      </trkpt>
      <trkpt lat="46.67561" lon="-0.21714">
        <ele>149.6</ele>
        <time>2023-02-12T08:15:27Z</time>
      </trkpt>
      <trkpt lat="46.67555" lon="-0.21755">
        <ele>150</ele>
        <time>2023-02-12T08:15:34Z</time>
      </trkpt>
      <trkpt lat="46.67553" lon="-0.21767">
        <ele>150</ele>
        <time>2023-02-12T08:15:36Z</time>
      </trkpt>
      <trkpt lat="46.67549" lon="-0.21777">
        <ele>150.2</ele>
        <time>2023-02-12T08:15:38Z</time>
      </trkpt>
      <trkpt lat="46.6754" lon="-0.21799">
        <ele>150.2</ele>
        <time>2023-02-12T08:15:42Z</time>
      </trkpt>
      <trkpt lat="46.67539" lon="-0.21805">
        <ele>150.2</ele>
        <time>2023-02-12T08:15:43Z</time>
      </trkpt>
      <trkpt lat="46.67526" lon="-0.2184">
        <ele>149.2</ele>
        <time>2023-02-12T08:15:49Z</time>
      </trkpt>
      <trkpt lat="46.67523" lon="-0.21846">
        <ele>149</ele>
        <time>2023-02-12T08:15:50Z</time>
      </trkpt>
      <trkpt lat="46.67518" lon="-0.21855">
        <ele>148.8</ele>
        <time>2023-02-12T08:15:52Z</time>
      </trkpt>
      <trkpt lat="46.67516" lon="-0.21861">
        <ele>148.8</ele>
        <time>2023-02-12T08:15:53Z</time>
      </trkpt>
      <trkpt lat="46.67506" lon="-0.2188">
        <ele>148.8</ele>
        <time>2023-02-12T08:15:58Z</time>
      </trkpt>
      <trkpt lat="46.67497" lon="-0.21896">
        <ele>149</ele>
        <time>2023-02-12T08:16:01Z</time>
      </trkpt>
      <trkpt lat="46.67494" lon="-0.21901">
        <ele>149</ele>
        <time>2023-02-12T08:16:02Z</time>
      </trkpt>
      <trkpt lat="46.67489" lon="-0.21911">
        <ele>149</ele>
        <time>2023-02-12T08:16:04Z</time>
      </trkpt>
      <trkpt lat="46.67479" lon="-0.21925">
        <ele>148.8</ele>
        <time>2023-02-12T08:16:07Z</time>
      </trkpt>
      <trkpt lat="46.67468" lon="-0.21948">
        <ele>148.4</ele>
        <time>2023-02-12T08:16:12Z</time>
      </trkpt>
      <trkpt lat="46.67453" lon="-0.21984">
        <ele>148.4</ele>
        <time>2023-02-12T08:16:18Z</time>
      </trkpt>
      <trkpt lat="46.67448" lon="-0.21995">
        <ele>148.4</ele>
        <time>2023-02-12T08:16:20Z</time>
      </trkpt>
      <trkpt lat="46.67439" lon="-0.22013">
        <ele>148.6</ele>
        <time>2023-02-12T08:16:23Z</time>
      </trkpt>
      <trkpt lat="46.67429" lon="-0.22036">
        <ele>148.8</ele>
        <time>2023-02-12T08:16:27Z</time>
      </trkpt>
      <trkpt lat="46.67423" lon="-0.22048">
        <ele>148.8</ele>
        <time>2023-02-12T08:16:29Z</time>
      </trkpt>
      <trkpt lat="46.67409" lon="-0.22089">
        <ele>149</ele>
        <time>2023-02-12T08:16:35Z</time>
      </trkpt>
      <trkpt lat="46.67397" lon="-0.22131">
        <ele>149.4</ele>
        <time>2023-02-12T08:16:41Z</time>
      </trkpt>
      <trkpt lat="46.67394" lon="-0.22137">
        <ele>149.4</ele>
        <time>2023-02-12T08:16:42Z</time>
      </trkpt>
      <trkpt lat="46.67383" lon="-0.22169">
        <ele>149.6</ele>
        <time>2023-02-12T08:16:47Z</time>
      </trkpt>
      <trkpt lat="46.67379" lon="-0.22183">
        <ele>149.6</ele>
        <time>2023-02-12T08:16:49Z</time>
      </trkpt>
      <trkpt lat="46.67376" lon="-0.22189">
        <ele>149.6</ele>
        <time>2023-02-12T08:16:50Z</time>
      </trkpt>
      <trkpt lat="46.67366" lon="-0.22214">
        <ele>150</ele>
        <time>2023-02-12T08:16:54Z</time>
      </trkpt>
      <trkpt lat="46.67357" lon="-0.22238">
        <ele>150.4</ele>
        <time>2023-02-12T08:16:58Z</time>
      </trkpt>
      <trkpt lat="46.67348" lon="-0.22263">
        <ele>151</ele>
        <time>2023-02-12T08:17:02Z</time>
      </trkpt>
      <trkpt lat="46.6734" lon="-0.22282">
        <ele>151.6</ele>
        <time>2023-02-12T08:17:05Z</time>
      </trkpt>
      <trkpt lat="46.67324" lon="-0.2231">
        <ele>152.2</ele>
        <time>2023-02-12T08:17:10Z</time>
      </trkpt>
      <trkpt lat="46.6732" lon="-0.22314">
        <ele>152.4</ele>
        <time>2023-02-12T08:17:11Z</time>
      </trkpt>
      <trkpt lat="46.67311" lon="-0.22328">
        <ele>152.6</ele>
        <time>2023-02-12T08:17:14Z</time>
      </trkpt>
      <trkpt lat="46.67308" lon="-0.22333">
        <ele>152.6</ele>
        <time>2023-02-12T08:17:15Z</time>
      </trkpt>
      <trkpt lat="46.67303" lon="-0.22343">
        <ele>153.2</ele>
        <time>2023-02-12T08:17:17Z</time>
      </trkpt>
      <trkpt lat="46.67293" lon="-0.22358">
        <ele>153.6</ele>
        <time>2023-02-12T08:17:20Z</time>
      </trkpt>
      <trkpt lat="46.67271" lon="-0.22387">
        <ele>154.4</ele>
        <time>2023-02-12T08:17:26Z</time>
      </trkpt>
      <trkpt lat="46.67268" lon="-0.22391">
        <ele>154.6</ele>
        <time>2023-02-12T08:17:27Z</time>
      </trkpt>
      <trkpt lat="46.67242" lon="-0.22428">
        <ele>155.6</ele>
        <time>2023-02-12T08:17:35Z</time>
      </trkpt>
      <trkpt lat="46.67219" lon="-0.22459">
        <ele>156.8</ele>
        <time>2023-02-12T08:17:43Z</time>
      </trkpt>
      <trkpt lat="46.67196" lon="-0.2249">
        <ele>157.6</ele>
        <time>2023-02-12T08:17:51Z</time>
      </trkpt>
      <trkpt lat="46.67193" lon="-0.22494">
        <ele>157.8</ele>
        <time>2023-02-12T08:17:52Z</time>
      </trkpt>
      <trkpt lat="46.6717" lon="-0.22526">
        <ele>158.2</ele>
        <time>2023-02-12T08:18:00Z</time>
      </trkpt>
      <trkpt lat="46.67146" lon="-0.22558">
        <ele>159</ele>
        <time>2023-02-12T08:18:08Z</time>
      </trkpt>
      <trkpt lat="46.6714" lon="-0.22566">
        <ele>159.2</ele>
        <time>2023-02-12T08:18:10Z</time>
      </trkpt>
      <trkpt lat="46.67119" lon="-0.22594">
        <ele>160</ele>
        <time>2023-02-12T08:18:17Z</time>
      </trkpt>
      <trkpt lat="46.67115" lon="-0.22599">
        <ele>160.2</ele>
        <time>2023-02-12T08:18:18Z</time>
      </trkpt>
      <trkpt lat="46.67086" lon="-0.2263">
        <ele>160.4</ele>
        <time>2023-02-12T08:18:26Z</time>
      </trkpt>
      <trkpt lat="46.67082" lon="-0.22634">
        <ele>160.4</ele>
        <time>2023-02-12T08:18:27Z</time>
      </trkpt>
      <trkpt lat="46.67049" lon="-0.22674">
        <ele>160.4</ele>
        <time>2023-02-12T08:18:35Z</time>
      </trkpt>
      <trkpt lat="46.67013" lon="-0.22713">
        <ele>160.4</ele>
        <time>2023-02-12T08:18:43Z</time>
      </trkpt>
      <trkpt lat="46.66987" lon="-0.22736">
        <ele>160</ele>
        <time>2023-02-12T08:18:48Z</time>
      </trkpt>
      <trkpt lat="46.66949" lon="-0.22767">
        <ele>159.4</ele>
        <time>2023-02-12T08:18:55Z</time>
      </trkpt>
      <trkpt lat="46.66899" lon="-0.22809">
        <ele>159</ele>
        <time>2023-02-12T08:19:04Z</time>
      </trkpt>
      <trkpt lat="46.66893" lon="-0.22814">
        <ele>158.8</ele>
        <time>2023-02-12T08:19:05Z</time>
      </trkpt>
      <trkpt lat="46.66841" lon="-0.22858">
        <ele>158.4</ele>
        <time>2023-02-12T08:19:14Z</time>
      </trkpt>
      <trkpt lat="46.66801" lon="-0.22896">
        <ele>158</ele>
        <time>2023-02-12T08:19:21Z</time>
      </trkpt>
      <trkpt lat="46.6679" lon="-0.22909">
        <ele>157.8</ele>
        <time>2023-02-12T08:19:23Z</time>
      </trkpt>
      <trkpt lat="46.66761" lon="-0.22951">
        <ele>157.4</ele>
        <time>2023-02-12T08:19:29Z</time>
      </trkpt>
      <trkpt lat="46.66726" lon="-0.2301">
        <ele>157.2</ele>
        <time>2023-02-12T08:19:37Z</time>
      </trkpt>
      <trkpt lat="46.66708" lon="-0.23039">
        <ele>156.8</ele>
        <time>2023-02-12T08:19:41Z</time>
      </trkpt>
      <trkpt lat="46.66684" lon="-0.23075">
        <ele>156.4</ele>
        <time>2023-02-12T08:19:46Z</time>
      </trkpt>
      <trkpt lat="46.66647" lon="-0.23128">
        <ele>155.8</ele>
        <time>2023-02-12T08:19:53Z</time>
      </trkpt>
      <trkpt lat="46.66619" lon="-0.23167">
        <ele>154.6</ele>
        <time>2023-02-12T08:19:58Z</time>
      </trkpt>
      <trkpt lat="46.66603" lon="-0.23192">
        <ele>154.2</ele>
        <time>2023-02-12T08:20:01Z</time>
      </trkpt>
      <trkpt lat="46.66599" lon="-0.23202">
        <ele>154</ele>
        <time>2023-02-12T08:20:02Z</time>
      </trkpt>
      <trkpt lat="46.66596" lon="-0.23213">
        <ele>154</ele>
        <time>2023-02-12T08:20:03Z</time>
      </trkpt>
      <trkpt lat="46.66591" lon="-0.23247">
        <ele>153.8</ele>
        <time>2023-02-12T08:20:06Z</time>
      </trkpt>
      <trkpt lat="46.66582" lon="-0.23318">
        <ele>153.4</ele>
        <time>2023-02-12T08:20:13Z</time>
      </trkpt>
      <trkpt lat="46.66581" lon="-0.23328">
        <ele>153.6</ele>
        <time>2023-02-12T08:20:14Z</time>
      </trkpt>
      <trkpt lat="46.6658" lon="-0.23337">
        <ele>153.6</ele>
        <time>2023-02-12T08:20:15Z</time>
      </trkpt>
      <trkpt lat="46.6657" lon="-0.2342">
        <ele>153.6</ele>
        <time>2023-02-12T08:20:24Z</time>
      </trkpt>
      <trkpt lat="46.66563" lon="-0.2348">
        <ele>153.8</ele>
        <time>2023-02-12T08:20:31Z</time>
      </trkpt>
      <trkpt lat="46.66555" lon="-0.23551">
        <ele>154</ele>
        <time>2023-02-12T08:20:40Z</time>
      </trkpt>
      <trkpt lat="46.66545" lon="-0.23613">
        <ele>154.4</ele>
        <time>2023-02-12T08:20:48Z</time>
      </trkpt>
      <trkpt lat="46.66541" lon="-0.23628">
        <ele>154.4</ele>
        <time>2023-02-12T08:20:50Z</time>
      </trkpt>
      <trkpt lat="46.66538" lon="-0.23634">
        <ele>154.4</ele>
        <time>2023-02-12T08:20:51Z</time>
      </trkpt>
      <trkpt lat="46.66536" lon="-0.23641">
        <ele>154.6</ele>
        <time>2023-02-12T08:20:52Z</time>
      </trkpt>
      <trkpt lat="46.66535" lon="-0.23648">
        <ele>154.6</ele>
        <time>2023-02-12T08:20:53Z</time>
      </trkpt>
      <trkpt lat="46.66532" lon="-0.23677">
        <ele>154.8</ele>
        <time>2023-02-12T08:20:57Z</time>
      </trkpt>
      <trkpt lat="46.66529" lon="-0.23684">
        <ele>154.8</ele>
        <time>2023-02-12T08:20:58Z</time>
      </trkpt>
      <trkpt lat="46.66526" lon="-0.23689">
        <ele>154.6</ele>
        <time>2023-02-12T08:20:59Z</time>
      </trkpt>
      <trkpt lat="46.66518" lon="-0.23695">
        <ele>154.6</ele>
        <time>2023-02-12T08:21:01Z</time>
      </trkpt>
      <trkpt lat="46.66503" lon="-0.237">
        <ele>153.6</ele>
        <time>2023-02-12T08:21:04Z</time>
      </trkpt>
      <trkpt lat="46.66497" lon="-0.23702">
        <ele>153.2</ele>
        <time>2023-02-12T08:21:05Z</time>
      </trkpt>
      <trkpt lat="46.66492" lon="-0.23705">
        <ele>153.2</ele>
        <time>2023-02-12T08:21:06Z</time>
      </trkpt>
      <trkpt lat="46.6647" lon="-0.23721">
        <ele>152.2</ele>
        <time>2023-02-12T08:21:10Z</time>
      </trkpt>
      <trkpt lat="46.66457" lon="-0.2373">
        <ele>151.8</ele>
        <time>2023-02-12T08:21:12Z</time>
      </trkpt>
      <trkpt lat="46.66444" lon="-0.2374">
        <ele>151.2</ele>
        <time>2023-02-12T08:21:14Z</time>
      </trkpt>
      <trkpt lat="46.66425" lon="-0.23754">
        <ele>150.2</ele>
        <time>2023-02-12T08:21:17Z</time>
      </trkpt>
      <trkpt lat="46.66398" lon="-0.23774">
        <ele>149.2</ele>
        <time>2023-02-12T08:21:21Z</time>
      </trkpt>
      <trkpt lat="46.66391" lon="-0.23779">
        <ele>149</ele>
        <time>2023-02-12T08:21:22Z</time>
      </trkpt>
      <trkpt lat="46.66369" lon="-0.23793">
        <ele>147.8</ele>
        <time>2023-02-12T08:21:25Z</time>
      </trkpt>
      <trkpt lat="46.66346" lon="-0.23809">
        <ele>146.2</ele>
        <time>2023-02-12T08:21:28Z</time>
      </trkpt>
      <trkpt lat="46.6633" lon="-0.23819">
        <ele>145</ele>
        <time>2023-02-12T08:21:30Z</time>
      </trkpt>
      <trkpt lat="46.66307" lon="-0.23836">
        <ele>143.6</ele>
        <time>2023-02-12T08:21:33Z</time>
      </trkpt>
      <trkpt lat="46.66293" lon="-0.23849">
        <ele>142.8</ele>
        <time>2023-02-12T08:21:35Z</time>
      </trkpt>
      <trkpt lat="46.66286" lon="-0.23857">
        <ele>142.4</ele>
        <time>2023-02-12T08:21:36Z</time>
      </trkpt>
      <trkpt lat="46.66274" lon="-0.23875">
        <ele>141.2</ele>
        <time>2023-02-12T08:21:38Z</time>
      </trkpt>
      <trkpt lat="46.66264" lon="-0.23894">
        <ele>140.6</ele>
        <time>2023-02-12T08:21:40Z</time>
      </trkpt>
      <trkpt lat="46.66252" lon="-0.23926">
        <ele>140</ele>
        <time>2023-02-12T08:21:43Z</time>
      </trkpt>
      <trkpt lat="46.66244" lon="-0.23947">
        <ele>139.8</ele>
        <time>2023-02-12T08:21:45Z</time>
      </trkpt>
      <trkpt lat="46.66231" lon="-0.23987">
        <ele>138.8</ele>
        <time>2023-02-12T08:21:49Z</time>
      </trkpt>
      <trkpt lat="46.66221" lon="-0.24015">
        <ele>138.4</ele>
        <time>2023-02-12T08:21:52Z</time>
      </trkpt>
      <trkpt lat="46.66193" lon="-0.24069">
        <ele>138.6</ele>
        <time>2023-02-12T08:21:59Z</time>
      </trkpt>
      <trkpt lat="46.66178" lon="-0.24103">
        <ele>138.8</ele>
        <time>2023-02-12T08:22:04Z</time>
      </trkpt>
      <trkpt lat="46.66169" lon="-0.2411">
        <ele>138.8</ele>
        <time>2023-02-12T08:22:06Z</time>
      </trkpt>
      <trkpt lat="46.66164" lon="-0.24111">
        <ele>139.2</ele>
        <time>2023-02-12T08:22:07Z</time>
      </trkpt>
      <trkpt lat="46.66154" lon="-0.24115">
        <ele>139.2</ele>
        <time>2023-02-12T08:22:09Z</time>
      </trkpt>
      <trkpt lat="46.66146" lon="-0.24123">
        <ele>139.6</ele>
        <time>2023-02-12T08:22:11Z</time>
      </trkpt>
      <trkpt lat="46.66142" lon="-0.24128">
        <ele>139.6</ele>
        <time>2023-02-12T08:22:12Z</time>
      </trkpt>
      <trkpt lat="46.66138" lon="-0.24132">
        <ele>140</ele>
        <time>2023-02-12T08:22:13Z</time>
      </trkpt>
      <trkpt lat="46.6611" lon="-0.24165">
        <ele>140.6</ele>
        <time>2023-02-12T08:22:20Z</time>
      </trkpt>
      <trkpt lat="46.66102" lon="-0.24174">
        <ele>140.8</ele>
        <time>2023-02-12T08:22:22Z</time>
      </trkpt>
      <trkpt lat="46.66098" lon="-0.24179">
        <ele>141</ele>
        <time>2023-02-12T08:22:23Z</time>
      </trkpt>
      <trkpt lat="46.66087" lon="-0.24193">
        <ele>141.4</ele>
        <time>2023-02-12T08:22:26Z</time>
      </trkpt>
      <trkpt lat="46.66069" lon="-0.24216">
        <ele>142.2</ele>
        <time>2023-02-12T08:22:31Z</time>
      </trkpt>
      <trkpt lat="46.66051" lon="-0.24241">
        <ele>143.2</ele>
        <time>2023-02-12T08:22:36Z</time>
      </trkpt>
      <trkpt lat="46.66031" lon="-0.24265">
        <ele>144.4</ele>
        <time>2023-02-12T08:22:41Z</time>
      </trkpt>
      <trkpt lat="46.6602" lon="-0.24278">
        <ele>145</ele>
        <time>2023-02-12T08:22:44Z</time>
      </trkpt>
      <trkpt lat="46.66009" lon="-0.24291">
        <ele>145.4</ele>
        <time>2023-02-12T08:22:47Z</time>
      </trkpt>
      <trkpt lat="46.65996" lon="-0.24307">
        <ele>145.8</ele>
        <time>2023-02-12T08:22:51Z</time>
      </trkpt>
      <trkpt lat="46.65985" lon="-0.24318">
        <ele>146.2</ele>
        <time>2023-02-12T08:22:54Z</time>
      </trkpt>
      <trkpt lat="46.65982" lon="-0.24323">
        <ele>146.4</ele>
        <time>2023-02-12T08:22:55Z</time>
      </trkpt>
      <trkpt lat="46.65976" lon="-0.2433">
        <ele>146.8</ele>
        <time>2023-02-12T08:22:57Z</time>
      </trkpt>
      <trkpt lat="46.65952" lon="-0.24361">
        <ele>147.4</ele>
        <time>2023-02-12T08:23:04Z</time>
      </trkpt>
      <trkpt lat="46.65949" lon="-0.24365">
        <ele>147.6</ele>
        <time>2023-02-12T08:23:05Z</time>
      </trkpt>
      <trkpt lat="46.65937" lon="-0.24378">
        <ele>147.6</ele>
        <time>2023-02-12T08:23:08Z</time>
      </trkpt>
      <trkpt lat="46.6593" lon="-0.24389">
        <ele>147.6</ele>
        <time>2023-02-12T08:23:10Z</time>
      </trkpt>
      <trkpt lat="46.65917" lon="-0.24405">
        <ele>147.4</ele>
        <time>2023-02-12T08:23:13Z</time>
      </trkpt>
      <trkpt lat="46.65914" lon="-0.24407">
        <ele>147</ele>
        <time>2023-02-12T08:23:14Z</time>
      </trkpt>
      <trkpt lat="46.65912" lon="-0.24406">
        <ele>146.8</ele>
        <time>2023-02-12T08:23:15Z</time>
      </trkpt>
      <trkpt lat="46.65912" lon="-0.24403">
        <ele>146.6</ele>
        <time>2023-02-12T08:23:16Z</time>
      </trkpt>
      <trkpt lat="46.65913" lon="-0.24399">
        <ele>146.4</ele>
        <time>2023-02-12T08:23:17Z</time>
      </trkpt>
      <trkpt lat="46.65912" lon="-0.24382">
        <ele>146.2</ele>
        <time>2023-02-12T08:23:21Z</time>
      </trkpt>
      <trkpt lat="46.6591" lon="-0.24357">
        <ele>146.4</ele>
        <time>2023-02-12T08:23:25Z</time>
      </trkpt>
      <trkpt lat="46.65908" lon="-0.24351">
        <ele>146.6</ele>
        <time>2023-02-12T08:23:26Z</time>
      </trkpt>
      <trkpt lat="46.65906" lon="-0.24346">
        <ele>146.6</ele>
        <time>2023-02-12T08:23:27Z</time>
      </trkpt>
      <trkpt lat="46.65897" lon="-0.24338">
        <ele>146.6</ele>
        <time>2023-02-12T08:23:29Z</time>
      </trkpt>
      <trkpt lat="46.65865" lon="-0.24321">
        <ele>146.6</ele>
        <time>2023-02-12T08:23:35Z</time>
      </trkpt>
      <trkpt lat="46.65837" lon="-0.24307">
        <ele>145.8</ele>
        <time>2023-02-12T08:23:40Z</time>
      </trkpt>
      <trkpt lat="46.65833" lon="-0.24302">
        <ele>145.4</ele>
        <time>2023-02-12T08:23:41Z</time>
      </trkpt>
      <trkpt lat="46.6583" lon="-0.24295">
        <ele>145.2</ele>
        <time>2023-02-12T08:23:42Z</time>
      </trkpt>
      <trkpt lat="46.65827" lon="-0.24268">
        <ele>145</ele>
        <time>2023-02-12T08:23:45Z</time>
      </trkpt>
      <trkpt lat="46.65827" lon="-0.24247">
        <ele>144.8</ele>
        <time>2023-02-12T08:23:47Z</time>
      </trkpt>
      <trkpt lat="46.65829" lon="-0.24214">
        <ele>143.8</ele>
        <time>2023-02-12T08:23:50Z</time>
      </trkpt>
      <trkpt lat="46.6583" lon="-0.2418">
        <ele>142.4</ele>
        <time>2023-02-12T08:23:53Z</time>
      </trkpt>
      <trkpt lat="46.65831" lon="-0.24157">
        <ele>140.8</ele>
        <time>2023-02-12T08:23:55Z</time>
      </trkpt>
      <trkpt lat="46.65829" lon="-0.24146">
        <ele>140.2</ele>
        <time>2023-02-12T08:23:56Z</time>
      </trkpt>
      <trkpt lat="46.65826" lon="-0.24135">
        <ele>139.6</ele>
        <time>2023-02-12T08:23:57Z</time>
      </trkpt>
      <trkpt lat="46.65814" lon="-0.24121">
        <ele>138.6</ele>
        <time>2023-02-12T08:23:59Z</time>
      </trkpt>
      <trkpt lat="46.65797" lon="-0.24116">
        <ele>137.2</ele>
        <time>2023-02-12T08:24:01Z</time>
      </trkpt>
      <trkpt lat="46.65789" lon="-0.24115">
        <ele>136.4</ele>
        <time>2023-02-12T08:24:02Z</time>
      </trkpt>
      <trkpt lat="46.65782" lon="-0.24115">
        <ele>136</ele>
        <time>2023-02-12T08:24:03Z</time>
      </trkpt>
      <trkpt lat="46.65771" lon="-0.24126">
        <ele>135</ele>
        <time>2023-02-12T08:24:05Z</time>
      </trkpt>
      <trkpt lat="46.65767" lon="-0.24134">
        <ele>134.6</ele>
        <time>2023-02-12T08:24:06Z</time>
      </trkpt>
      <trkpt lat="46.65765" lon="-0.24143">
        <ele>134.4</ele>
        <time>2023-02-12T08:24:07Z</time>
      </trkpt>
      <trkpt lat="46.65764" lon="-0.24152">
        <ele>134.2</ele>
        <time>2023-02-12T08:24:08Z</time>
      </trkpt>
      <trkpt lat="46.65761" lon="-0.24176">
        <ele>134.2</ele>
        <time>2023-02-12T08:24:11Z</time>
      </trkpt>
      <trkpt lat="46.6576" lon="-0.2418">
        <ele>134.2</ele>
        <time>2023-02-12T08:24:12Z</time>
      </trkpt>
      <trkpt lat="46.65759" lon="-0.24183">
        <ele>134.2</ele>
        <time>2023-02-12T08:24:13Z</time>
      </trkpt>
      <trkpt lat="46.65754" lon="-0.2419">
        <ele>134.4</ele>
        <time>2023-02-12T08:24:16Z</time>
      </trkpt>
      <trkpt lat="46.65749" lon="-0.24205">
        <ele>133.4</ele>
        <time>2023-02-12T08:24:19Z</time>
      </trkpt>
      <trkpt lat="46.65748" lon="-0.24212">
        <ele>132.8</ele>
        <time>2023-02-12T08:24:20Z</time>
      </trkpt>
      <trkpt lat="46.65749" lon="-0.24219">
        <ele>131.8</ele>
        <time>2023-02-12T08:24:21Z</time>
      </trkpt>
      <trkpt lat="46.65752" lon="-0.24231">
        <ele>130.2</ele>
        <time>2023-02-12T08:24:23Z</time>
      </trkpt>
      <trkpt lat="46.65753" lon="-0.24237">
        <ele>129.8</ele>
        <time>2023-02-12T08:24:24Z</time>
      </trkpt>
      <trkpt lat="46.6575" lon="-0.24248">
        <ele>129</ele>
        <time>2023-02-12T08:24:26Z</time>
      </trkpt>
      <trkpt lat="46.65749" lon="-0.24254">
        <ele>128.4</ele>
        <time>2023-02-12T08:24:27Z</time>
      </trkpt>
      <trkpt lat="46.65748" lon="-0.2426">
        <ele>127.6</ele>
        <time>2023-02-12T08:24:28Z</time>
      </trkpt>
      <trkpt lat="46.65746" lon="-0.24276">
        <ele>126.2</ele>
        <time>2023-02-12T08:24:30Z</time>
      </trkpt>
      <trkpt lat="46.65742" lon="-0.24294">
        <ele>125.4</ele>
        <time>2023-02-12T08:24:32Z</time>
      </trkpt>
      <trkpt lat="46.65739" lon="-0.24304">
        <ele>124.6</ele>
        <time>2023-02-12T08:24:33Z</time>
      </trkpt>
      <trkpt lat="46.65735" lon="-0.24312">
        <ele>124</ele>
        <time>2023-02-12T08:24:34Z</time>
      </trkpt>
      <trkpt lat="46.65727" lon="-0.24329">
        <ele>123</ele>
        <time>2023-02-12T08:24:36Z</time>
      </trkpt>
      <trkpt lat="46.65724" lon="-0.24338">
        <ele>121.8</ele>
        <time>2023-02-12T08:24:37Z</time>
      </trkpt>
      <trkpt lat="46.6572" lon="-0.24347">
        <ele>120.8</ele>
        <time>2023-02-12T08:24:38Z</time>
      </trkpt>
      <trkpt lat="46.65708" lon="-0.24372">
        <ele>119.8</ele>
        <time>2023-02-12T08:24:41Z</time>
      </trkpt>
      <trkpt lat="46.65705" lon="-0.24379">
        <ele>119.6</ele>
        <time>2023-02-12T08:24:42Z</time>
      </trkpt>
      <trkpt lat="46.65694" lon="-0.24403">
        <ele>118.8</ele>
        <time>2023-02-12T08:24:46Z</time>
      </trkpt>
      <trkpt lat="46.65692" lon="-0.24407">
        <ele>118.8</ele>
        <time>2023-02-12T08:24:47Z</time>
      </trkpt>
      <trkpt lat="46.65691" lon="-0.24412">
        <ele>119</ele>
        <time>2023-02-12T08:24:49Z</time>
      </trkpt>
      <trkpt lat="46.65692" lon="-0.24413">
        <ele>119.8</ele>
        <time>2023-02-12T08:24:51Z</time>
      </trkpt>
      <trkpt lat="46.65694" lon="-0.24411">
        <ele>120.6</ele>
        <time>2023-02-12T08:24:53Z</time>
      </trkpt>
      <trkpt lat="46.65695" lon="-0.24411">
        <ele>120.8</ele>
        <time>2023-02-12T08:24:54Z</time>
      </trkpt>
      <trkpt lat="46.65697" lon="-0.24411">
        <ele>121.2</ele>
        <time>2023-02-12T08:24:55Z</time>
      </trkpt>
      <trkpt lat="46.65699" lon="-0.24414">
        <ele>121.6</ele>
        <time>2023-02-12T08:24:57Z</time>
      </trkpt>
      <trkpt lat="46.657" lon="-0.24416">
        <ele>121.8</ele>
        <time>2023-02-12T08:24:58Z</time>
      </trkpt>
      <trkpt lat="46.657" lon="-0.2442">
        <ele>122.8</ele>
        <time>2023-02-12T08:25:00Z</time>
      </trkpt>
      <trkpt lat="46.65698" lon="-0.24426">
        <ele>124</ele>
        <time>2023-02-12T08:25:03Z</time>
      </trkpt>
      <trkpt lat="46.65694" lon="-0.24434">
        <ele>125.2</ele>
        <time>2023-02-12T08:25:07Z</time>
      </trkpt>
      <trkpt lat="46.65692" lon="-0.2444">
        <ele>125.6</ele>
        <time>2023-02-12T08:25:10Z</time>
      </trkpt>
      <trkpt lat="46.65691" lon="-0.24445">
        <ele>126.4</ele>
        <time>2023-02-12T08:25:12Z</time>
      </trkpt>
      <trkpt lat="46.65691" lon="-0.24455">
        <ele>127.4</ele>
        <time>2023-02-12T08:25:16Z</time>
      </trkpt>
      <trkpt lat="46.65692" lon="-0.24466">
        <ele>128.8</ele>
        <time>2023-02-12T08:25:21Z</time>
      </trkpt>
      <trkpt lat="46.65693" lon="-0.24468">
        <ele>129</ele>
        <time>2023-02-12T08:25:22Z</time>
      </trkpt>
      <trkpt lat="46.65693" lon="-0.24477">
        <ele>129.8</ele>
        <time>2023-02-12T08:25:26Z</time>
      </trkpt>
      <trkpt lat="46.65694" lon="-0.24481">
        <ele>130</ele>
        <time>2023-02-12T08:25:29Z</time>
      </trkpt>
      <trkpt lat="46.65696" lon="-0.24485">
        <ele>130.8</ele>
        <time>2023-02-12T08:25:32Z</time>
      </trkpt>
      <trkpt lat="46.657" lon="-0.24493">
        <ele>132</ele>
        <time>2023-02-12T08:25:37Z</time>
      </trkpt>
      <trkpt lat="46.65705" lon="-0.245">
        <ele>133.2</ele>
        <time>2023-02-12T08:25:42Z</time>
      </trkpt>
      <trkpt lat="46.65709" lon="-0.24502">
        <ele>134.2</ele>
        <time>2023-02-12T08:25:45Z</time>
      </trkpt>
      <trkpt lat="46.6571" lon="-0.24503">
        <ele>134.4</ele>
        <time>2023-02-12T08:25:46Z</time>
      </trkpt>
      <trkpt lat="46.65714" lon="-0.24506">
        <ele>135.2</ele>
        <time>2023-02-12T08:25:49Z</time>
      </trkpt>
      <trkpt lat="46.65719" lon="-0.24509">
        <ele>136.4</ele>
        <time>2023-02-12T08:25:53Z</time>
      </trkpt>
      <trkpt lat="46.65725" lon="-0.24511">
        <ele>137.4</ele>
        <time>2023-02-12T08:25:57Z</time>
      </trkpt>
      <trkpt lat="46.65727" lon="-0.24519">
        <ele>138.2</ele>
        <time>2023-02-12T08:26:02Z</time>
      </trkpt>
      <trkpt lat="46.65726" lon="-0.24521">
        <ele>138.2</ele>
        <time>2023-02-12T08:26:03Z</time>
      </trkpt>
      <trkpt lat="46.65717" lon="-0.2453">
        <ele>138.2</ele>
        <time>2023-02-12T08:26:08Z</time>
      </trkpt>
      <trkpt lat="46.65705" lon="-0.24541">
        <ele>138.4</ele>
        <time>2023-02-12T08:26:15Z</time>
      </trkpt>
      <trkpt lat="46.65699" lon="-0.24548">
        <ele>138.6</ele>
        <time>2023-02-12T08:26:18Z</time>
      </trkpt>
      <trkpt lat="46.65693" lon="-0.24559">
        <ele>139.8</ele>
        <time>2023-02-12T08:26:22Z</time>
      </trkpt>
      <trkpt lat="46.65691" lon="-0.24561">
        <ele>140</ele>
        <time>2023-02-12T08:26:23Z</time>
      </trkpt>
      <trkpt lat="46.65685" lon="-0.24574">
        <ele>141</ele>
        <time>2023-02-12T08:26:28Z</time>
      </trkpt>
      <trkpt lat="46.65681" lon="-0.24584">
        <ele>141.4</ele>
        <time>2023-02-12T08:26:31Z</time>
      </trkpt>
      <trkpt lat="46.65677" lon="-0.24594">
        <ele>142</ele>
        <time>2023-02-12T08:26:34Z</time>
      </trkpt>
      <trkpt lat="46.65671" lon="-0.2461">
        <ele>142.4</ele>
        <time>2023-02-12T08:26:38Z</time>
      </trkpt>
      <trkpt lat="46.65664" lon="-0.24632">
        <ele>142.8</ele>
        <time>2023-02-12T08:26:44Z</time>
      </trkpt>
      <trkpt lat="46.65661" lon="-0.24641">
        <ele>142.8</ele>
        <time>2023-02-12T08:26:46Z</time>
      </trkpt>
      <trkpt lat="46.65659" lon="-0.24646">
        <ele>142.8</ele>
        <time>2023-02-12T08:26:47Z</time>
      </trkpt>
      <trkpt lat="46.65647" lon="-0.24679">
        <ele>142.6</ele>
        <time>2023-02-12T08:26:52Z</time>
      </trkpt>
      <trkpt lat="46.65629" lon="-0.24728">
        <ele>141.6</ele>
        <time>2023-02-12T08:26:58Z</time>
      </trkpt>
      <trkpt lat="46.65623" lon="-0.24747">
        <ele>140.8</ele>
        <time>2023-02-12T08:27:00Z</time>
      </trkpt>
      <trkpt lat="46.65612" lon="-0.24778">
        <ele>139.4</ele>
        <time>2023-02-12T08:27:03Z</time>
      </trkpt>
      <trkpt lat="46.656" lon="-0.2481">
        <ele>138.2</ele>
        <time>2023-02-12T08:27:06Z</time>
      </trkpt>
      <trkpt lat="46.65593" lon="-0.24831">
        <ele>136.8</ele>
        <time>2023-02-12T08:27:08Z</time>
      </trkpt>
      <trkpt lat="46.65591" lon="-0.2484">
        <ele>136.4</ele>
        <time>2023-02-12T08:27:09Z</time>
      </trkpt>
      <trkpt lat="46.65591" lon="-0.24848">
        <ele>135.6</ele>
        <time>2023-02-12T08:27:10Z</time>
      </trkpt>
      <trkpt lat="46.65591" lon="-0.24862">
        <ele>134.8</ele>
        <time>2023-02-12T08:27:12Z</time>
      </trkpt>
      <trkpt lat="46.65589" lon="-0.24868">
        <ele>134.6</ele>
        <time>2023-02-12T08:27:13Z</time>
      </trkpt>
      <trkpt lat="46.65586" lon="-0.24871">
        <ele>134.4</ele>
        <time>2023-02-12T08:27:14Z</time>
      </trkpt>
      <trkpt lat="46.65566" lon="-0.24872">
        <ele>134</ele>
        <time>2023-02-12T08:27:18Z</time>
      </trkpt>
      <trkpt lat="46.65548" lon="-0.24871">
        <ele>133.6</ele>
        <time>2023-02-12T08:27:21Z</time>
      </trkpt>
      <trkpt lat="46.65525" lon="-0.24867">
        <ele>132.8</ele>
        <time>2023-02-12T08:27:25Z</time>
      </trkpt>
      <trkpt lat="46.65508" lon="-0.24863">
        <ele>132.4</ele>
        <time>2023-02-12T08:27:28Z</time>
      </trkpt>
      <trkpt lat="46.65502" lon="-0.24861">
        <ele>132.2</ele>
        <time>2023-02-12T08:27:29Z</time>
      </trkpt>
      <trkpt lat="46.65485" lon="-0.2485">
        <ele>132</ele>
        <time>2023-02-12T08:27:32Z</time>
      </trkpt>
      <trkpt lat="46.65474" lon="-0.24841">
        <ele>131.4</ele>
        <time>2023-02-12T08:27:34Z</time>
      </trkpt>
      <trkpt lat="46.65459" lon="-0.24828">
        <ele>131</ele>
        <time>2023-02-12T08:27:37Z</time>
      </trkpt>
      <trkpt lat="46.65453" lon="-0.2483">
        <ele>130.2</ele>
        <time>2023-02-12T08:27:39Z</time>
      </trkpt>
      <trkpt lat="46.65451" lon="-0.24833">
        <ele>130</ele>
        <time>2023-02-12T08:27:40Z</time>
      </trkpt>
      <trkpt lat="46.65438" lon="-0.24854">
        <ele>130.4</ele>
        <time>2023-02-12T08:27:46Z</time>
      </trkpt>
      <trkpt lat="46.65433" lon="-0.24861">
        <ele>130.8</ele>
        <time>2023-02-12T08:27:48Z</time>
      </trkpt>
      <trkpt lat="46.6543" lon="-0.24864">
        <ele>131.2</ele>
        <time>2023-02-12T08:27:49Z</time>
      </trkpt>
      <trkpt lat="46.65425" lon="-0.24872">
        <ele>131.8</ele>
        <time>2023-02-12T08:27:51Z</time>
      </trkpt>
      <trkpt lat="46.65422" lon="-0.24876">
        <ele>132</ele>
        <time>2023-02-12T08:27:52Z</time>
      </trkpt>
      <trkpt lat="46.6542" lon="-0.2488">
        <ele>132.4</ele>
        <time>2023-02-12T08:27:53Z</time>
      </trkpt>
      <trkpt lat="46.65408" lon="-0.24897">
        <ele>133.4</ele>
        <time>2023-02-12T08:27:57Z</time>
      </trkpt>
      <trkpt lat="46.65405" lon="-0.24901">
        <ele>133.8</ele>
        <time>2023-02-12T08:27:58Z</time>
      </trkpt>
      <trkpt lat="46.65395" lon="-0.24915">
        <ele>134.8</ele>
        <time>2023-02-12T08:28:01Z</time>
      </trkpt>
      <trkpt lat="46.6538" lon="-0.24939">
        <ele>135.6</ele>
        <time>2023-02-12T08:28:06Z</time>
      </trkpt>
      <trkpt lat="46.65368" lon="-0.24962">
        <ele>135.2</ele>
        <time>2023-02-12T08:28:10Z</time>
      </trkpt>
      <trkpt lat="46.65367" lon="-0.2497">
        <ele>135</ele>
        <time>2023-02-12T08:28:11Z</time>
      </trkpt>
      <trkpt lat="46.65364" lon="-0.24985">
        <ele>135</ele>
        <time>2023-02-12T08:28:13Z</time>
      </trkpt>
      <trkpt lat="46.65358" lon="-0.25006">
        <ele>135.2</ele>
        <time>2023-02-12T08:28:16Z</time>
      </trkpt>
      <trkpt lat="46.65355" lon="-0.25019">
        <ele>135.8</ele>
        <time>2023-02-12T08:28:18Z</time>
      </trkpt>
      <trkpt lat="46.6535" lon="-0.25036">
        <ele>136.6</ele>
        <time>2023-02-12T08:28:21Z</time>
      </trkpt>
      <trkpt lat="46.65349" lon="-0.25042">
        <ele>137</ele>
        <time>2023-02-12T08:28:22Z</time>
      </trkpt>
      <trkpt lat="46.65349" lon="-0.25048">
        <ele>137.4</ele>
        <time>2023-02-12T08:28:23Z</time>
      </trkpt>
      <trkpt lat="46.6535" lon="-0.25062">
        <ele>137.8</ele>
        <time>2023-02-12T08:28:25Z</time>
      </trkpt>
      <trkpt lat="46.65355" lon="-0.25073">
        <ele>138</ele>
        <time>2023-02-12T08:28:27Z</time>
      </trkpt>
      <trkpt lat="46.65364" lon="-0.25086">
        <ele>138</ele>
        <time>2023-02-12T08:28:30Z</time>
      </trkpt>
      <trkpt lat="46.65382" lon="-0.25106">
        <ele>138</ele>
        <time>2023-02-12T08:28:36Z</time>
      </trkpt>
      <trkpt lat="46.6539" lon="-0.25111">
        <ele>137.6</ele>
        <time>2023-02-12T08:28:38Z</time>
      </trkpt>
      <trkpt lat="46.65398" lon="-0.25122">
        <ele>137.2</ele>
        <time>2023-02-12T08:28:40Z</time>
      </trkpt>
      <trkpt lat="46.65407" lon="-0.25139">
        <ele>136.6</ele>
        <time>2023-02-12T08:28:42Z</time>
      </trkpt>
      <trkpt lat="46.65416" lon="-0.25157">
        <ele>135.6</ele>
        <time>2023-02-12T08:28:44Z</time>
      </trkpt>
      <trkpt lat="46.65423" lon="-0.25179">
        <ele>134</ele>
        <time>2023-02-12T08:28:46Z</time>
      </trkpt>
      <trkpt lat="46.65432" lon="-0.25202">
        <ele>132.8</ele>
        <time>2023-02-12T08:28:48Z</time>
      </trkpt>
      <trkpt lat="46.65437" lon="-0.25215">
        <ele>132.2</ele>
        <time>2023-02-12T08:28:49Z</time>
      </trkpt>
      <trkpt lat="46.65442" lon="-0.25228">
        <ele>131</ele>
        <time>2023-02-12T08:28:50Z</time>
      </trkpt>
      <trkpt lat="46.65451" lon="-0.25254">
        <ele>129.4</ele>
        <time>2023-02-12T08:28:52Z</time>
      </trkpt>
      <trkpt lat="46.65455" lon="-0.25267">
        <ele>128.4</ele>
        <time>2023-02-12T08:28:53Z</time>
      </trkpt>
      <trkpt lat="46.65457" lon="-0.25281">
        <ele>127.2</ele>
        <time>2023-02-12T08:28:54Z</time>
      </trkpt>
      <trkpt lat="46.6546" lon="-0.25307">
        <ele>125.6</ele>
        <time>2023-02-12T08:28:56Z</time>
      </trkpt>
      <trkpt lat="46.6546" lon="-0.25331">
        <ele>125.2</ele>
        <time>2023-02-12T08:28:58Z</time>
      </trkpt>
      <trkpt lat="46.65455" lon="-0.25348">
        <ele>125</ele>
        <time>2023-02-12T08:29:00Z</time>
      </trkpt>
      <trkpt lat="46.65451" lon="-0.25354">
        <ele>125</ele>
        <time>2023-02-12T08:29:01Z</time>
      </trkpt>
      <trkpt lat="46.65432" lon="-0.25378">
        <ele>126.8</ele>
        <time>2023-02-12T08:29:06Z</time>
      </trkpt>
      <trkpt lat="46.65426" lon="-0.25393">
        <ele>127.8</ele>
        <time>2023-02-12T08:29:09Z</time>
      </trkpt>
      <trkpt lat="46.6542" lon="-0.25405">
        <ele>128.6</ele>
        <time>2023-02-12T08:29:12Z</time>
      </trkpt>
      <trkpt lat="46.65415" lon="-0.25412">
        <ele>129</ele>
        <time>2023-02-12T08:29:14Z</time>
      </trkpt>
      <trkpt lat="46.65404" lon="-0.25429">
        <ele>130.2</ele>
        <time>2023-02-12T08:29:18Z</time>
      </trkpt>
      <trkpt lat="46.65401" lon="-0.25432">
        <ele>130.2</ele>
        <time>2023-02-12T08:29:19Z</time>
      </trkpt>
      <trkpt lat="46.65394" lon="-0.25441">
        <ele>131.2</ele>
        <time>2023-02-12T08:29:22Z</time>
      </trkpt>
      <trkpt lat="46.65388" lon="-0.25448">
        <ele>132</ele>
        <time>2023-02-12T08:29:25Z</time>
      </trkpt>
      <trkpt lat="46.65385" lon="-0.25451">
        <ele>132.2</ele>
        <time>2023-02-12T08:29:26Z</time>
      </trkpt>
      <trkpt lat="46.65372" lon="-0.25463">
        <ele>132.4</ele>
        <time>2023-02-12T08:29:31Z</time>
      </trkpt>
      <trkpt lat="46.65353" lon="-0.2548">
        <ele>132.6</ele>
        <time>2023-02-12T08:29:37Z</time>
      </trkpt>
      <trkpt lat="46.65333" lon="-0.25495">
        <ele>132.2</ele>
        <time>2023-02-12T08:29:44Z</time>
      </trkpt>
      <trkpt lat="46.65321" lon="-0.25511">
        <ele>132.2</ele>
        <time>2023-02-12T08:29:48Z</time>
      </trkpt>
      <trkpt lat="46.65318" lon="-0.25516">
        <ele>132</ele>
        <time>2023-02-12T08:29:49Z</time>
      </trkpt>
      <trkpt lat="46.65313" lon="-0.25527">
        <ele>131.8</ele>
        <time>2023-02-12T08:29:51Z</time>
      </trkpt>
      <trkpt lat="46.65306" lon="-0.2554">
        <ele>131.4</ele>
        <time>2023-02-12T08:29:53Z</time>
      </trkpt>
      <trkpt lat="46.65302" lon="-0.25546">
        <ele>131.2</ele>
        <time>2023-02-12T08:29:54Z</time>
      </trkpt>
      <trkpt lat="46.65296" lon="-0.25552">
        <ele>131</ele>
        <time>2023-02-12T08:29:55Z</time>
      </trkpt>
      <trkpt lat="46.65287" lon="-0.25557">
        <ele>130.6</ele>
        <time>2023-02-12T08:29:57Z</time>
      </trkpt>
      <trkpt lat="46.65283" lon="-0.2556">
        <ele>130.2</ele>
        <time>2023-02-12T08:29:59Z</time>
      </trkpt>
      <trkpt lat="46.65283" lon="-0.25562">
        <ele>130</ele>
        <time>2023-02-12T08:30:00Z</time>
      </trkpt>
      <trkpt lat="46.65282" lon="-0.25568">
        <ele>130</ele>
        <time>2023-02-12T08:30:05Z</time>
      </trkpt>
      <trkpt lat="46.65281" lon="-0.25569">
        <ele>130.2</ele>
        <time>2023-02-12T08:30:06Z</time>
      </trkpt>
      <trkpt lat="46.65281" lon="-0.2557">
        <ele>130.4</ele>
        <time>2023-02-12T08:30:07Z</time>
      </trkpt>
      <trkpt lat="46.65278" lon="-0.25576">
        <ele>131</ele>
        <time>2023-02-12T08:30:11Z</time>
      </trkpt>
      <trkpt lat="46.65273" lon="-0.25585">
        <ele>131.2</ele>
        <time>2023-02-12T08:30:15Z</time>
      </trkpt>
      <trkpt lat="46.65272" lon="-0.25588">
        <ele>131.2</ele>
        <time>2023-02-12T08:30:16Z</time>
      </trkpt>
      <trkpt lat="46.65265" lon="-0.25602">
        <ele>130.4</ele>
        <time>2023-02-12T08:30:21Z</time>
      </trkpt>
      <trkpt lat="46.65262" lon="-0.25604">
        <ele>130.2</ele>
        <time>2023-02-12T08:30:22Z</time>
      </trkpt>
      <trkpt lat="46.65255" lon="-0.25608">
        <ele>130</ele>
        <time>2023-02-12T08:30:25Z</time>
      </trkpt>
      <trkpt lat="46.65234" lon="-0.25606">
        <ele>130</ele>
        <time>2023-02-12T08:30:31Z</time>
      </trkpt>
      <trkpt lat="46.6522" lon="-0.256">
        <ele>130.6</ele>
        <time>2023-02-12T08:30:35Z</time>
      </trkpt>
      <trkpt lat="46.65204" lon="-0.25605">
        <ele>131.4</ele>
        <time>2023-02-12T08:30:39Z</time>
      </trkpt>
      <trkpt lat="46.65196" lon="-0.25608">
        <ele>132</ele>
        <time>2023-02-12T08:30:41Z</time>
      </trkpt>
      <trkpt lat="46.65176" lon="-0.25611">
        <ele>132.6</ele>
        <time>2023-02-12T08:30:46Z</time>
      </trkpt>
      <trkpt lat="46.65172" lon="-0.25611">
        <ele>132.6</ele>
        <time>2023-02-12T08:30:47Z</time>
      </trkpt>
      <trkpt lat="46.6516" lon="-0.2561">
        <ele>133.6</ele>
        <time>2023-02-12T08:30:51Z</time>
      </trkpt>
      <trkpt lat="46.65158" lon="-0.2561">
        <ele>133.8</ele>
        <time>2023-02-12T08:30:52Z</time>
      </trkpt>
      <trkpt lat="46.65147" lon="-0.25608">
        <ele>134.6</ele>
        <time>2023-02-12T08:30:56Z</time>
      </trkpt>
      <trkpt lat="46.6514" lon="-0.25606">
        <ele>135.2</ele>
        <time>2023-02-12T08:30:58Z</time>
      </trkpt>
      <trkpt lat="46.65129" lon="-0.25604">
        <ele>135.8</ele>
        <time>2023-02-12T08:31:01Z</time>
      </trkpt>
      <trkpt lat="46.65114" lon="-0.25599">
        <ele>136.4</ele>
        <time>2023-02-12T08:31:05Z</time>
      </trkpt>
      <trkpt lat="46.65085" lon="-0.25599">
        <ele>136.6</ele>
        <time>2023-02-12T08:31:12Z</time>
      </trkpt>
      <trkpt lat="46.65077" lon="-0.25601">
        <ele>137</ele>
        <time>2023-02-12T08:31:14Z</time>
      </trkpt>
      <trkpt lat="46.65064" lon="-0.25607">
        <ele>137.6</ele>
        <time>2023-02-12T08:31:18Z</time>
      </trkpt>
      <trkpt lat="46.65052" lon="-0.25615">
        <ele>137.8</ele>
        <time>2023-02-12T08:31:21Z</time>
      </trkpt>
      <trkpt lat="46.65045" lon="-0.25619">
        <ele>138.2</ele>
        <time>2023-02-12T08:31:23Z</time>
      </trkpt>
      <trkpt lat="46.65037" lon="-0.25621">
        <ele>138.6</ele>
        <time>2023-02-12T08:31:25Z</time>
      </trkpt>
      <trkpt lat="46.65028" lon="-0.25622">
        <ele>138.8</ele>
        <time>2023-02-12T08:31:27Z</time>
      </trkpt>
      <trkpt lat="46.65015" lon="-0.25628">
        <ele>138.4</ele>
        <time>2023-02-12T08:31:30Z</time>
      </trkpt>
      <trkpt lat="46.64995" lon="-0.25638">
        <ele>138</ele>
        <time>2023-02-12T08:31:34Z</time>
      </trkpt>
      <trkpt lat="46.64986" lon="-0.25642">
        <ele>137.8</ele>
        <time>2023-02-12T08:31:36Z</time>
      </trkpt>
      <trkpt lat="46.64977" lon="-0.2564">
        <ele>137</ele>
        <time>2023-02-12T08:31:38Z</time>
      </trkpt>
      <trkpt lat="46.64971" lon="-0.25636">
        <ele>136.6</ele>
        <time>2023-02-12T08:31:39Z</time>
      </trkpt>
      <trkpt lat="46.6495" lon="-0.25619">
        <ele>135.8</ele>
        <time>2023-02-12T08:31:43Z</time>
      </trkpt>
      <trkpt lat="46.6493" lon="-0.25602">
        <ele>135</ele>
        <time>2023-02-12T08:31:47Z</time>
      </trkpt>
      <trkpt lat="46.64914" lon="-0.25588">
        <ele>134.6</ele>
        <time>2023-02-12T08:31:50Z</time>
      </trkpt>
      <trkpt lat="46.64881" lon="-0.25561">
        <ele>133.6</ele>
        <time>2023-02-12T08:31:56Z</time>
      </trkpt>
      <trkpt lat="46.64875" lon="-0.25558">
        <ele>133.4</ele>
        <time>2023-02-12T08:31:57Z</time>
      </trkpt>
      <trkpt lat="46.64864" lon="-0.25551">
        <ele>133.2</ele>
        <time>2023-02-12T08:31:59Z</time>
      </trkpt>
      <trkpt lat="46.64854" lon="-0.25539">
        <ele>132.8</ele>
        <time>2023-02-12T08:32:01Z</time>
      </trkpt>
      <trkpt lat="46.64851" lon="-0.25531">
        <ele>132.4</ele>
        <time>2023-02-12T08:32:02Z</time>
      </trkpt>
      <trkpt lat="46.64849" lon="-0.25522">
        <ele>132.2</ele>
        <time>2023-02-12T08:32:03Z</time>
      </trkpt>
      <trkpt lat="46.64847" lon="-0.25513">
        <ele>131.8</ele>
        <time>2023-02-12T08:32:04Z</time>
      </trkpt>
      <trkpt lat="46.64843" lon="-0.25481">
        <ele>131.2</ele>
        <time>2023-02-12T08:32:07Z</time>
      </trkpt>
      <trkpt lat="46.64836" lon="-0.25439">
        <ele>130</ele>
        <time>2023-02-12T08:32:11Z</time>
      </trkpt>
      <trkpt lat="46.64831" lon="-0.25422">
        <ele>129</ele>
        <time>2023-02-12T08:32:13Z</time>
      </trkpt>
      <trkpt lat="46.64827" lon="-0.25414">
        <ele>128.4</ele>
        <time>2023-02-12T08:32:14Z</time>
      </trkpt>
      <trkpt lat="46.64822" lon="-0.25407">
        <ele>128</ele>
        <time>2023-02-12T08:32:15Z</time>
      </trkpt>
      <trkpt lat="46.6481" lon="-0.25395">
        <ele>127.2</ele>
        <time>2023-02-12T08:32:17Z</time>
      </trkpt>
      <trkpt lat="46.64797" lon="-0.25385">
        <ele>126.8</ele>
        <time>2023-02-12T08:32:19Z</time>
      </trkpt>
      <trkpt lat="46.64776" lon="-0.2537">
        <ele>126</ele>
        <time>2023-02-12T08:32:23Z</time>
      </trkpt>
      <trkpt lat="46.64766" lon="-0.25363">
        <ele>125.6</ele>
        <time>2023-02-12T08:32:25Z</time>
      </trkpt>
      <trkpt lat="46.64755" lon="-0.2536">
        <ele>125.4</ele>
        <time>2023-02-12T08:32:27Z</time>
      </trkpt>
      <trkpt lat="46.64745" lon="-0.2536">
        <ele>125.4</ele>
        <time>2023-02-12T08:32:29Z</time>
      </trkpt>
      <trkpt lat="46.64735" lon="-0.25361">
        <ele>125.6</ele>
        <time>2023-02-12T08:32:31Z</time>
      </trkpt>
      <trkpt lat="46.64725" lon="-0.25366">
        <ele>126</ele>
        <time>2023-02-12T08:32:33Z</time>
      </trkpt>
      <trkpt lat="46.64716" lon="-0.25374">
        <ele>126.4</ele>
        <time>2023-02-12T08:32:35Z</time>
      </trkpt>
      <trkpt lat="46.64707" lon="-0.25389">
        <ele>127</ele>
        <time>2023-02-12T08:32:38Z</time>
      </trkpt>
      <trkpt lat="46.64696" lon="-0.2541">
        <ele>128.2</ele>
        <time>2023-02-12T08:32:42Z</time>
      </trkpt>
      <trkpt lat="46.64689" lon="-0.25426">
        <ele>128.8</ele>
        <time>2023-02-12T08:32:45Z</time>
      </trkpt>
      <trkpt lat="46.64684" lon="-0.25436">
        <ele>129.4</ele>
        <time>2023-02-12T08:32:47Z</time>
      </trkpt>
      <trkpt lat="46.64667" lon="-0.25473">
        <ele>130.4</ele>
        <time>2023-02-12T08:32:54Z</time>
      </trkpt>
      <trkpt lat="46.64656" lon="-0.25492">
        <ele>131.4</ele>
        <time>2023-02-12T08:32:58Z</time>
      </trkpt>
      <trkpt lat="46.64647" lon="-0.25511">
        <ele>132.2</ele>
        <time>2023-02-12T08:33:02Z</time>
      </trkpt>
      <trkpt lat="46.64641" lon="-0.25523">
        <ele>132.8</ele>
        <time>2023-02-12T08:33:05Z</time>
      </trkpt>
      <trkpt lat="46.64633" lon="-0.25541">
        <ele>133.6</ele>
        <time>2023-02-12T08:33:09Z</time>
      </trkpt>
      <trkpt lat="46.64631" lon="-0.25546">
        <ele>133.8</ele>
        <time>2023-02-12T08:33:10Z</time>
      </trkpt>
      <trkpt lat="46.64625" lon="-0.25561">
        <ele>134</ele>
        <time>2023-02-12T08:33:13Z</time>
      </trkpt>
      <trkpt lat="46.64617" lon="-0.25575">
        <ele>134</ele>
        <time>2023-02-12T08:33:15Z</time>
      </trkpt>
      <trkpt lat="46.64614" lon="-0.25582">
        <ele>133.8</ele>
        <time>2023-02-12T08:33:16Z</time>
      </trkpt>
      <trkpt lat="46.64605" lon="-0.25609">
        <ele>132.8</ele>
        <time>2023-02-12T08:33:19Z</time>
      </trkpt>
      <trkpt lat="46.64601" lon="-0.25627">
        <ele>132.4</ele>
        <time>2023-02-12T08:33:21Z</time>
      </trkpt>
      <trkpt lat="46.64599" lon="-0.25655">
        <ele>131.6</ele>
        <time>2023-02-12T08:33:24Z</time>
      </trkpt>
      <trkpt lat="46.64593" lon="-0.25695">
        <ele>130.6</ele>
        <time>2023-02-12T08:33:28Z</time>
      </trkpt>
      <trkpt lat="46.6459" lon="-0.25713">
        <ele>130.4</ele>
        <time>2023-02-12T08:33:30Z</time>
      </trkpt>
      <trkpt lat="46.64586" lon="-0.25734">
        <ele>130.4</ele>
        <time>2023-02-12T08:33:33Z</time>
      </trkpt>
      <trkpt lat="46.64585" lon="-0.25746">
        <ele>131.2</ele>
        <time>2023-02-12T08:33:35Z</time>
      </trkpt>
      <trkpt lat="46.64585" lon="-0.25751">
        <ele>131.8</ele>
        <time>2023-02-12T08:33:36Z</time>
      </trkpt>
      <trkpt lat="46.64583" lon="-0.25761">
        <ele>132.8</ele>
        <time>2023-02-12T08:33:38Z</time>
      </trkpt>
      <trkpt lat="46.6458" lon="-0.25776">
        <ele>134</ele>
        <time>2023-02-12T08:33:41Z</time>
      </trkpt>
      <trkpt lat="46.64577" lon="-0.25785">
        <ele>135.6</ele>
        <time>2023-02-12T08:33:43Z</time>
      </trkpt>
      <trkpt lat="46.64576" lon="-0.25796">
        <ele>136.6</ele>
        <time>2023-02-12T08:33:45Z</time>
      </trkpt>
      <trkpt lat="46.64575" lon="-0.25801">
        <ele>137.2</ele>
        <time>2023-02-12T08:33:46Z</time>
      </trkpt>
      <trkpt lat="46.64574" lon="-0.25807">
        <ele>137.6</ele>
        <time>2023-02-12T08:33:47Z</time>
      </trkpt>
      <trkpt lat="46.64567" lon="-0.25843">
        <ele>138.4</ele>
        <time>2023-02-12T08:33:53Z</time>
      </trkpt>
      <trkpt lat="46.64557" lon="-0.25886">
        <ele>137.2</ele>
        <time>2023-02-12T08:33:58Z</time>
      </trkpt>
      <trkpt lat="46.64554" lon="-0.25907">
        <ele>136.4</ele>
        <time>2023-02-12T08:34:00Z</time>
      </trkpt>
      <trkpt lat="46.64554" lon="-0.25918">
        <ele>136</ele>
        <time>2023-02-12T08:34:01Z</time>
      </trkpt>
      <trkpt lat="46.64555" lon="-0.25939">
        <ele>135.2</ele>
        <time>2023-02-12T08:34:03Z</time>
      </trkpt>
      <trkpt lat="46.64564" lon="-0.25984">
        <ele>134.4</ele>
        <time>2023-02-12T08:34:08Z</time>
      </trkpt>
      <trkpt lat="46.64565" lon="-0.25994">
        <ele>134.2</ele>
        <time>2023-02-12T08:34:09Z</time>
      </trkpt>
      <trkpt lat="46.64567" lon="-0.26013">
        <ele>133.6</ele>
        <time>2023-02-12T08:34:11Z</time>
      </trkpt>
      <trkpt lat="46.64566" lon="-0.26024">
        <ele>133</ele>
        <time>2023-02-12T08:34:12Z</time>
      </trkpt>
      <trkpt lat="46.64565" lon="-0.26034">
        <ele>132.6</ele>
        <time>2023-02-12T08:34:13Z</time>
      </trkpt>
      <trkpt lat="46.64561" lon="-0.26053">
        <ele>131.8</ele>
        <time>2023-02-12T08:34:15Z</time>
      </trkpt>
      <trkpt lat="46.64555" lon="-0.26081">
        <ele>130.8</ele>
        <time>2023-02-12T08:34:18Z</time>
      </trkpt>
      <trkpt lat="46.64552" lon="-0.2609">
        <ele>130.4</ele>
        <time>2023-02-12T08:34:19Z</time>
      </trkpt>
      <trkpt lat="46.64548" lon="-0.26117">
        <ele>129.6</ele>
        <time>2023-02-12T08:34:22Z</time>
      </trkpt>
      <trkpt lat="46.64546" lon="-0.26146">
        <ele>128.4</ele>
        <time>2023-02-12T08:34:25Z</time>
      </trkpt>
      <trkpt lat="46.64545" lon="-0.26155">
        <ele>128.2</ele>
        <time>2023-02-12T08:34:26Z</time>
      </trkpt>
      <trkpt lat="46.64544" lon="-0.26165">
        <ele>128</ele>
        <time>2023-02-12T08:34:27Z</time>
      </trkpt>
      <trkpt lat="46.64541" lon="-0.2619">
        <ele>127.6</ele>
        <time>2023-02-12T08:34:30Z</time>
      </trkpt>
      <trkpt lat="46.64541" lon="-0.26218">
        <ele>127.4</ele>
        <time>2023-02-12T08:34:33Z</time>
      </trkpt>
      <trkpt lat="46.64542" lon="-0.26239">
        <ele>126.4</ele>
        <time>2023-02-12T08:34:35Z</time>
      </trkpt>
      <trkpt lat="46.64541" lon="-0.26248">
        <ele>125.8</ele>
        <time>2023-02-12T08:34:36Z</time>
      </trkpt>
      <trkpt lat="46.64538" lon="-0.26266">
        <ele>124.6</ele>
        <time>2023-02-12T08:34:38Z</time>
      </trkpt>
      <trkpt lat="46.64533" lon="-0.26282">
        <ele>124.2</ele>
        <time>2023-02-12T08:34:40Z</time>
      </trkpt>
      <trkpt lat="46.64524" lon="-0.26296">
        <ele>123.8</ele>
        <time>2023-02-12T08:34:42Z</time>
      </trkpt>
      <trkpt lat="46.64515" lon="-0.26304">
        <ele>123.8</ele>
        <time>2023-02-12T08:34:44Z</time>
      </trkpt>
      <trkpt lat="46.64505" lon="-0.2631">
        <ele>123.8</ele>
        <time>2023-02-12T08:34:46Z</time>
      </trkpt>
      <trkpt lat="46.64486" lon="-0.26322">
        <ele>124</ele>
        <time>2023-02-12T08:34:50Z</time>
      </trkpt>
      <trkpt lat="46.64476" lon="-0.26325">
        <ele>124</ele>
        <time>2023-02-12T08:34:52Z</time>
      </trkpt>
      <trkpt lat="46.64441" lon="-0.26325">
        <ele>123.8</ele>
        <time>2023-02-12T08:34:58Z</time>
      </trkpt>
      <trkpt lat="46.64424" lon="-0.26326">
        <ele>124</ele>
        <time>2023-02-12T08:35:01Z</time>
      </trkpt>
      <trkpt lat="46.64415" lon="-0.26333">
        <ele>124</ele>
        <time>2023-02-12T08:35:03Z</time>
      </trkpt>
      <trkpt lat="46.64395" lon="-0.26349">
        <ele>124</ele>
        <time>2023-02-12T08:35:08Z</time>
      </trkpt>
      <trkpt lat="46.64372" lon="-0.26368">
        <ele>124.2</ele>
        <time>2023-02-12T08:35:14Z</time>
      </trkpt>
      <trkpt lat="46.64368" lon="-0.26375">
        <ele>124.6</ele>
        <time>2023-02-12T08:35:16Z</time>
      </trkpt>
      <trkpt lat="46.64368" lon="-0.2638">
        <ele>124.6</ele>
        <time>2023-02-12T08:35:17Z</time>
      </trkpt>
      <trkpt lat="46.64369" lon="-0.264">
        <ele>125.8</ele>
        <time>2023-02-12T08:35:22Z</time>
      </trkpt>
      <trkpt lat="46.64369" lon="-0.26405">
        <ele>126</ele>
        <time>2023-02-12T08:35:23Z</time>
      </trkpt>
      <trkpt lat="46.64373" lon="-0.2643">
        <ele>126</ele>
        <time>2023-02-12T08:35:29Z</time>
      </trkpt>
      <trkpt lat="46.64378" lon="-0.2644">
        <ele>125.4</ele>
        <time>2023-02-12T08:35:31Z</time>
      </trkpt>
      <trkpt lat="46.64381" lon="-0.26444">
        <ele>125</ele>
        <time>2023-02-12T08:35:32Z</time>
      </trkpt>
      <trkpt lat="46.64385" lon="-0.26446">
        <ele>124.4</ele>
        <time>2023-02-12T08:35:33Z</time>
      </trkpt>
      <trkpt lat="46.64391" lon="-0.26446">
        <ele>123.4</ele>
        <time>2023-02-12T08:35:35Z</time>
      </trkpt>
      <trkpt lat="46.64402" lon="-0.2644">
        <ele>122.8</ele>
        <time>2023-02-12T08:35:38Z</time>
      </trkpt>
      <trkpt lat="46.64407" lon="-0.26439">
        <ele>123</ele>
        <time>2023-02-12T08:35:39Z</time>
      </trkpt>
      <trkpt lat="46.64412" lon="-0.2644">
        <ele>122.8</ele>
        <time>2023-02-12T08:35:40Z</time>
      </trkpt>
      <trkpt lat="46.64421" lon="-0.26444">
        <ele>123</ele>
        <time>2023-02-12T08:35:42Z</time>
      </trkpt>
      <trkpt lat="46.64425" lon="-0.26447">
        <ele>123.2</ele>
        <time>2023-02-12T08:35:43Z</time>
      </trkpt>
      <trkpt lat="46.64428" lon="-0.26451">
        <ele>123.2</ele>
        <time>2023-02-12T08:35:44Z</time>
      </trkpt>
      <trkpt lat="46.64432" lon="-0.26463">
        <ele>123.2</ele>
        <time>2023-02-12T08:35:46Z</time>
      </trkpt>
      <trkpt lat="46.64432" lon="-0.26474">
        <ele>123.2</ele>
        <time>2023-02-12T08:35:48Z</time>
      </trkpt>
      <trkpt lat="46.64432" lon="-0.26483">
        <ele>124</ele>
        <time>2023-02-12T08:35:50Z</time>
      </trkpt>
      <trkpt lat="46.64434" lon="-0.26492">
        <ele>124.8</ele>
        <time>2023-02-12T08:35:52Z</time>
      </trkpt>
      <trkpt lat="46.64438" lon="-0.26502">
        <ele>125.8</ele>
        <time>2023-02-12T08:35:55Z</time>
      </trkpt>
      <trkpt lat="46.6444" lon="-0.26505">
        <ele>126</ele>
        <time>2023-02-12T08:35:56Z</time>
      </trkpt>
      <trkpt lat="46.64448" lon="-0.26517">
        <ele>127.2</ele>
        <time>2023-02-12T08:36:00Z</time>
      </trkpt>
      <trkpt lat="46.64452" lon="-0.26523">
        <ele>128</ele>
        <time>2023-02-12T08:36:02Z</time>
      </trkpt>
      <trkpt lat="46.64453" lon="-0.26526">
        <ele>128.2</ele>
        <time>2023-02-12T08:36:03Z</time>
      </trkpt>
      <trkpt lat="46.64455" lon="-0.26538">
        <ele>129.2</ele>
        <time>2023-02-12T08:36:06Z</time>
      </trkpt>
      <trkpt lat="46.64454" lon="-0.26541">
        <ele>129.4</ele>
        <time>2023-02-12T08:36:07Z</time>
      </trkpt>
      <trkpt lat="46.64442" lon="-0.2656">
        <ele>130</ele>
        <time>2023-02-12T08:36:12Z</time>
      </trkpt>
      <trkpt lat="46.64424" lon="-0.26572">
        <ele>129.8</ele>
        <time>2023-02-12T08:36:16Z</time>
      </trkpt>
      <trkpt lat="46.64418" lon="-0.26574">
        <ele>129.8</ele>
        <time>2023-02-12T08:36:17Z</time>
      </trkpt>
      <trkpt lat="46.64406" lon="-0.26575">
        <ele>129.6</ele>
        <time>2023-02-12T08:36:19Z</time>
      </trkpt>
      <trkpt lat="46.64388" lon="-0.26573">
        <ele>128.8</ele>
        <time>2023-02-12T08:36:22Z</time>
      </trkpt>
      <trkpt lat="46.64375" lon="-0.26572">
        <ele>128.4</ele>
        <time>2023-02-12T08:36:24Z</time>
      </trkpt>
      <trkpt lat="46.64369" lon="-0.26573">
        <ele>128.2</ele>
        <time>2023-02-12T08:36:25Z</time>
      </trkpt>
      <trkpt lat="46.64364" lon="-0.26575">
        <ele>127.6</ele>
        <time>2023-02-12T08:36:26Z</time>
      </trkpt>
      <trkpt lat="46.64348" lon="-0.26583">
        <ele>127</ele>
        <time>2023-02-12T08:36:29Z</time>
      </trkpt>
      <trkpt lat="46.64339" lon="-0.26583">
        <ele>126.6</ele>
        <time>2023-02-12T08:36:31Z</time>
      </trkpt>
      <trkpt lat="46.64325" lon="-0.26583">
        <ele>126.2</ele>
        <time>2023-02-12T08:36:35Z</time>
      </trkpt>
      <trkpt lat="46.64323" lon="-0.26585">
        <ele>126.2</ele>
        <time>2023-02-12T08:36:36Z</time>
      </trkpt>
      <trkpt lat="46.64318" lon="-0.26589">
        <ele>126.2</ele>
        <time>2023-02-12T08:36:39Z</time>
      </trkpt>
      <trkpt lat="46.64316" lon="-0.26588">
        <ele>126.2</ele>
        <time>2023-02-12T08:36:40Z</time>
      </trkpt>
      <trkpt lat="46.64313" lon="-0.26587">
        <ele>126.2</ele>
        <time>2023-02-12T08:36:41Z</time>
      </trkpt>
      <trkpt lat="46.64311" lon="-0.26578">
        <ele>126.4</ele>
        <time>2023-02-12T08:36:43Z</time>
      </trkpt>
      <trkpt lat="46.64312" lon="-0.26573">
        <ele>126.2</ele>
        <time>2023-02-12T08:36:44Z</time>
      </trkpt>
      <trkpt lat="46.64315" lon="-0.2657">
        <ele>125.8</ele>
        <time>2023-02-12T08:36:45Z</time>
      </trkpt>
      <trkpt lat="46.64319" lon="-0.26568">
        <ele>125.6</ele>
        <time>2023-02-12T08:36:46Z</time>
      </trkpt>
      <trkpt lat="46.64326" lon="-0.26562">
        <ele>125.4</ele>
        <time>2023-02-12T08:36:48Z</time>
      </trkpt>
      <trkpt lat="46.64333" lon="-0.26555">
        <ele>125.2</ele>
        <time>2023-02-12T08:36:50Z</time>
      </trkpt>
      <trkpt lat="46.64336" lon="-0.26549">
        <ele>125.2</ele>
        <time>2023-02-12T08:36:51Z</time>
      </trkpt>
      <trkpt lat="46.64339" lon="-0.26543">
        <ele>125.2</ele>
        <time>2023-02-12T08:36:52Z</time>
      </trkpt>
      <trkpt lat="46.64338" lon="-0.26529">
        <ele>125.2</ele>
        <time>2023-02-12T08:36:54Z</time>
      </trkpt>
      <trkpt lat="46.64331" lon="-0.26518">
        <ele>124.6</ele>
        <time>2023-02-12T08:36:56Z</time>
      </trkpt>
      <trkpt lat="46.64326" lon="-0.26514">
        <ele>124.6</ele>
        <time>2023-02-12T08:36:57Z</time>
      </trkpt>
      <trkpt lat="46.64321" lon="-0.26511">
        <ele>124.4</ele>
        <time>2023-02-12T08:36:58Z</time>
      </trkpt>
      <trkpt lat="46.64309" lon="-0.26508">
        <ele>124.2</ele>
        <time>2023-02-12T08:37:00Z</time>
      </trkpt>
      <trkpt lat="46.64304" lon="-0.26508">
        <ele>124.2</ele>
        <time>2023-02-12T08:37:01Z</time>
      </trkpt>
      <trkpt lat="46.64298" lon="-0.26511">
        <ele>124.2</ele>
        <time>2023-02-12T08:37:02Z</time>
      </trkpt>
      <trkpt lat="46.64282" lon="-0.26525">
        <ele>124</ele>
        <time>2023-02-12T08:37:05Z</time>
      </trkpt>
      <trkpt lat="46.64262" lon="-0.26544">
        <ele>123.8</ele>
        <time>2023-02-12T08:37:09Z</time>
      </trkpt>
      <trkpt lat="46.64251" lon="-0.26549">
        <ele>123.8</ele>
        <time>2023-02-12T08:37:11Z</time>
      </trkpt>
      <trkpt lat="46.64246" lon="-0.26552">
        <ele>123.6</ele>
        <time>2023-02-12T08:37:12Z</time>
      </trkpt>
      <trkpt lat="46.6423" lon="-0.26565">
        <ele>123.2</ele>
        <time>2023-02-12T08:37:15Z</time>
      </trkpt>
      <trkpt lat="46.64218" lon="-0.2657">
        <ele>123</ele>
        <time>2023-02-12T08:37:17Z</time>
      </trkpt>
      <trkpt lat="46.64206" lon="-0.26572">
        <ele>123</ele>
        <time>2023-02-12T08:37:19Z</time>
      </trkpt>
      <trkpt lat="46.64194" lon="-0.26576">
        <ele>123.2</ele>
        <time>2023-02-12T08:37:21Z</time>
      </trkpt>
      <trkpt lat="46.64179" lon="-0.26585">
        <ele>123.4</ele>
        <time>2023-02-12T08:37:24Z</time>
      </trkpt>
      <trkpt lat="46.6416" lon="-0.266">
        <ele>123.4</ele>
        <time>2023-02-12T08:37:29Z</time>
      </trkpt>
      <trkpt lat="46.64146" lon="-0.26617">
        <ele>123.4</ele>
        <time>2023-02-12T08:37:33Z</time>
      </trkpt>
      <trkpt lat="46.64141" lon="-0.2662">
        <ele>123.4</ele>
        <time>2023-02-12T08:37:34Z</time>
      </trkpt>
      <trkpt lat="46.64136" lon="-0.26623">
        <ele>123.6</ele>
        <time>2023-02-12T08:37:35Z</time>
      </trkpt>
      <trkpt lat="46.64124" lon="-0.26627">
        <ele>123.6</ele>
        <time>2023-02-12T08:37:37Z</time>
      </trkpt>
      <trkpt lat="46.64118" lon="-0.26628">
        <ele>123.6</ele>
        <time>2023-02-12T08:37:38Z</time>
      </trkpt>
      <trkpt lat="46.64106" lon="-0.26627">
        <ele>123.6</ele>
        <time>2023-02-12T08:37:40Z</time>
      </trkpt>
      <trkpt lat="46.64083" lon="-0.26621">
        <ele>123.8</ele>
        <time>2023-02-12T08:37:44Z</time>
      </trkpt>
      <trkpt lat="46.64064" lon="-0.26618">
        <ele>123.8</ele>
        <time>2023-02-12T08:37:48Z</time>
      </trkpt>
      <trkpt lat="46.6406" lon="-0.26616">
        <ele>123.8</ele>
        <time>2023-02-12T08:37:49Z</time>
      </trkpt>
      <trkpt lat="46.64056" lon="-0.26613">
        <ele>123.8</ele>
        <time>2023-02-12T08:37:50Z</time>
      </trkpt>
      <trkpt lat="46.64044" lon="-0.26601">
        <ele>124</ele>
        <time>2023-02-12T08:37:53Z</time>
      </trkpt>
      <trkpt lat="46.64035" lon="-0.26593">
        <ele>124</ele>
        <time>2023-02-12T08:37:55Z</time>
      </trkpt>
      <trkpt lat="46.64021" lon="-0.26581">
        <ele>124.2</ele>
        <time>2023-02-12T08:37:58Z</time>
      </trkpt>
      <trkpt lat="46.63988" lon="-0.2655">
        <ele>124</ele>
        <time>2023-02-12T08:38:06Z</time>
      </trkpt>
      <trkpt lat="46.63982" lon="-0.26541">
        <ele>123.8</ele>
        <time>2023-02-12T08:38:09Z</time>
      </trkpt>
      <trkpt lat="46.63981" lon="-0.26538">
        <ele>123.8</ele>
        <time>2023-02-12T08:38:10Z</time>
      </trkpt>
      <trkpt lat="46.63982" lon="-0.26534">
        <ele>123.6</ele>
        <time>2023-02-12T08:38:12Z</time>
      </trkpt>
      <trkpt lat="46.63984" lon="-0.26534">
        <ele>123.6</ele>
        <time>2023-02-12T08:38:14Z</time>
      </trkpt>
      <trkpt lat="46.63984" lon="-0.26535">
        <ele>123.6</ele>
        <time>2023-02-12T08:38:15Z</time>
      </trkpt>
      <trkpt lat="46.63981" lon="-0.26543">
        <ele>123.8</ele>
        <time>2023-02-12T08:38:18Z</time>
      </trkpt>
      <trkpt lat="46.63971" lon="-0.26553">
        <ele>123</ele>
        <time>2023-02-12T08:38:24Z</time>
      </trkpt>
      <trkpt lat="46.63955" lon="-0.26556">
        <ele>123.6</ele>
        <time>2023-02-12T08:38:30Z</time>
      </trkpt>
      <trkpt lat="46.63934" lon="-0.26554">
        <ele>123.8</ele>
        <time>2023-02-12T08:38:36Z</time>
      </trkpt>
      <trkpt lat="46.63914" lon="-0.26557">
        <ele>124.4</ele>
        <time>2023-02-12T08:38:41Z</time>
      </trkpt>
      <trkpt lat="46.63906" lon="-0.26563">
        <ele>124.4</ele>
        <time>2023-02-12T08:38:44Z</time>
      </trkpt>
      <trkpt lat="46.63906" lon="-0.26565">
        <ele>124.4</ele>
        <time>2023-02-12T08:38:45Z</time>
      </trkpt>
      <trkpt lat="46.6391" lon="-0.26561">
        <ele>124.2</ele>
        <time>2023-02-12T08:38:48Z</time>
      </trkpt>
      <trkpt lat="46.63915" lon="-0.26557">
        <ele>124.2</ele>
        <time>2023-02-12T08:38:50Z</time>
      </trkpt>
      <trkpt lat="46.63919" lon="-0.26557">
        <ele>124.2</ele>
        <time>2023-02-12T08:38:51Z</time>
      </trkpt>
      <trkpt lat="46.63946" lon="-0.2656">
        <ele>123.8</ele>
        <time>2023-02-12T08:38:58Z</time>
      </trkpt>
      <trkpt lat="46.63962" lon="-0.26557">
        <ele>123.8</ele>
        <time>2023-02-12T08:39:02Z</time>
      </trkpt>
      <trkpt lat="46.63966" lon="-0.26555">
        <ele>123.8</ele>
        <time>2023-02-12T08:39:03Z</time>
      </trkpt>
      <trkpt lat="46.63972" lon="-0.26552">
        <ele>123.8</ele>
        <time>2023-02-12T08:39:05Z</time>
      </trkpt>
      <trkpt lat="46.63978" lon="-0.26552">
        <ele>123.8</ele>
        <time>2023-02-12T08:39:07Z</time>
      </trkpt>
      <trkpt lat="46.63988" lon="-0.26558">
        <ele>123.8</ele>
        <time>2023-02-12T08:39:11Z</time>
      </trkpt>
      <trkpt lat="46.6399" lon="-0.26574">
        <ele>123.8</ele>
        <time>2023-02-12T08:39:16Z</time>
      </trkpt>
      <trkpt lat="46.64003" lon="-0.26587">
        <ele>124.8</ele>
        <time>2023-02-12T08:39:20Z</time>
      </trkpt>
      <trkpt lat="46.64027" lon="-0.26611">
        <ele>124.8</ele>
        <time>2023-02-12T08:39:27Z</time>
      </trkpt>
      <trkpt lat="46.64049" lon="-0.26638">
        <ele>125.2</ele>
        <time>2023-02-12T08:39:34Z</time>
      </trkpt>
      <trkpt lat="46.6407" lon="-0.26665">
        <ele>125.6</ele>
        <time>2023-02-12T08:39:41Z</time>
      </trkpt>
      <trkpt lat="46.64073" lon="-0.26668">
        <ele>125.6</ele>
        <time>2023-02-12T08:39:42Z</time>
      </trkpt>
      <trkpt lat="46.64079" lon="-0.26676">
        <ele>126</ele>
        <time>2023-02-12T08:39:44Z</time>
      </trkpt>
      <trkpt lat="46.64091" lon="-0.26691">
        <ele>126.8</ele>
        <time>2023-02-12T08:39:48Z</time>
      </trkpt>
      <trkpt lat="46.64099" lon="-0.26702">
        <ele>127</ele>
        <time>2023-02-12T08:39:51Z</time>
      </trkpt>
      <trkpt lat="46.64108" lon="-0.26712">
        <ele>127.6</ele>
        <time>2023-02-12T08:39:54Z</time>
      </trkpt>
      <trkpt lat="46.64121" lon="-0.26724">
        <ele>128</ele>
        <time>2023-02-12T08:39:58Z</time>
      </trkpt>
      <trkpt lat="46.64133" lon="-0.26736">
        <ele>128.8</ele>
        <time>2023-02-12T08:40:02Z</time>
      </trkpt>
      <trkpt lat="46.64139" lon="-0.26742">
        <ele>129.2</ele>
        <time>2023-02-12T08:40:04Z</time>
      </trkpt>
      <trkpt lat="46.64163" lon="-0.2676">
        <ele>130.2</ele>
        <time>2023-02-12T08:40:11Z</time>
      </trkpt>
      <trkpt lat="46.64172" lon="-0.26767">
        <ele>130.4</ele>
        <time>2023-02-12T08:40:14Z</time>
      </trkpt>
      <trkpt lat="46.64188" lon="-0.26777">
        <ele>130.6</ele>
        <time>2023-02-12T08:40:18Z</time>
      </trkpt>
      <trkpt lat="46.64193" lon="-0.26779">
        <ele>130.4</ele>
        <time>2023-02-12T08:40:19Z</time>
      </trkpt>
      <trkpt lat="46.64212" lon="-0.26789">
        <ele>130.4</ele>
        <time>2023-02-12T08:40:23Z</time>
      </trkpt>
      <trkpt lat="46.64247" lon="-0.26817">
        <ele>130.6</ele>
        <time>2023-02-12T08:40:31Z</time>
      </trkpt>
      <trkpt lat="46.64275" lon="-0.26843">
        <ele>131</ele>
        <time>2023-02-12T08:40:38Z</time>
      </trkpt>
      <trkpt lat="46.64279" lon="-0.26846">
        <ele>131</ele>
        <time>2023-02-12T08:40:39Z</time>
      </trkpt>
      <trkpt lat="46.64292" lon="-0.26851">
        <ele>131.6</ele>
        <time>2023-02-12T08:40:42Z</time>
      </trkpt>
      <trkpt lat="46.643" lon="-0.26854">
        <ele>131.8</ele>
        <time>2023-02-12T08:40:44Z</time>
      </trkpt>
      <trkpt lat="46.64312" lon="-0.26856">
        <ele>132.6</ele>
        <time>2023-02-12T08:40:47Z</time>
      </trkpt>
      <trkpt lat="46.64328" lon="-0.26854">
        <ele>133.4</ele>
        <time>2023-02-12T08:40:51Z</time>
      </trkpt>
      <trkpt lat="46.64335" lon="-0.26852">
        <ele>133.6</ele>
        <time>2023-02-12T08:40:53Z</time>
      </trkpt>
      <trkpt lat="46.64355" lon="-0.26848">
        <ele>134.8</ele>
        <time>2023-02-12T08:40:59Z</time>
      </trkpt>
      <trkpt lat="46.64362" lon="-0.26847">
        <ele>135.2</ele>
        <time>2023-02-12T08:41:01Z</time>
      </trkpt>
      <trkpt lat="46.64374" lon="-0.26845">
        <ele>136</ele>
        <time>2023-02-12T08:41:05Z</time>
      </trkpt>
      <trkpt lat="46.6438" lon="-0.26845">
        <ele>136.2</ele>
        <time>2023-02-12T08:41:07Z</time>
      </trkpt>
      <trkpt lat="46.64386" lon="-0.26846">
        <ele>136.8</ele>
        <time>2023-02-12T08:41:09Z</time>
      </trkpt>
      <trkpt lat="46.6439" lon="-0.26846">
        <ele>137</ele>
        <time>2023-02-12T08:41:10Z</time>
      </trkpt>
      <trkpt lat="46.64412" lon="-0.26851">
        <ele>138.2</ele>
        <time>2023-02-12T08:41:17Z</time>
      </trkpt>
      <trkpt lat="46.64437" lon="-0.2686">
        <ele>139</ele>
        <time>2023-02-12T08:41:24Z</time>
      </trkpt>
      <trkpt lat="46.64441" lon="-0.26862">
        <ele>139.2</ele>
        <time>2023-02-12T08:41:25Z</time>
      </trkpt>
      <trkpt lat="46.64463" lon="-0.26872">
        <ele>139.4</ele>
        <time>2023-02-12T08:41:31Z</time>
      </trkpt>
      <trkpt lat="46.64491" lon="-0.26883">
        <ele>140.2</ele>
        <time>2023-02-12T08:41:38Z</time>
      </trkpt>
      <trkpt lat="46.645" lon="-0.26887">
        <ele>140.4</ele>
        <time>2023-02-12T08:41:40Z</time>
      </trkpt>
      <trkpt lat="46.64532" lon="-0.26899">
        <ele>140.8</ele>
        <time>2023-02-12T08:41:47Z</time>
      </trkpt>
      <trkpt lat="46.64563" lon="-0.26908">
        <ele>140.4</ele>
        <time>2023-02-12T08:41:53Z</time>
      </trkpt>
      <trkpt lat="46.64601" lon="-0.26913">
        <ele>139.4</ele>
        <time>2023-02-12T08:41:59Z</time>
      </trkpt>
      <trkpt lat="46.64623" lon="-0.26915">
        <ele>138.8</ele>
        <time>2023-02-12T08:42:02Z</time>
      </trkpt>
      <trkpt lat="46.64655" lon="-0.2692">
        <ele>137.6</ele>
        <time>2023-02-12T08:42:06Z</time>
      </trkpt>
      <trkpt lat="46.64685" lon="-0.26932">
        <ele>136.4</ele>
        <time>2023-02-12T08:42:10Z</time>
      </trkpt>
      <trkpt lat="46.64692" lon="-0.26936">
        <ele>135.8</ele>
        <time>2023-02-12T08:42:11Z</time>
      </trkpt>
      <trkpt lat="46.64705" lon="-0.26946">
        <ele>135.2</ele>
        <time>2023-02-12T08:42:13Z</time>
      </trkpt>
      <trkpt lat="46.64716" lon="-0.26954">
        <ele>134.2</ele>
        <time>2023-02-12T08:42:15Z</time>
      </trkpt>
      <trkpt lat="46.64719" lon="-0.2696">
        <ele>133.4</ele>
        <time>2023-02-12T08:42:16Z</time>
      </trkpt>
      <trkpt lat="46.6472" lon="-0.26966">
        <ele>133</ele>
        <time>2023-02-12T08:42:17Z</time>
      </trkpt>
      <trkpt lat="46.64718" lon="-0.26976">
        <ele>132.6</ele>
        <time>2023-02-12T08:42:19Z</time>
      </trkpt>
      <trkpt lat="46.64706" lon="-0.26994">
        <ele>132.4</ele>
        <time>2023-02-12T08:42:25Z</time>
      </trkpt>
      <trkpt lat="46.64691" lon="-0.27005">
        <ele>133.2</ele>
        <time>2023-02-12T08:42:30Z</time>
      </trkpt>
      <trkpt lat="46.64675" lon="-0.2701">
        <ele>133.8</ele>
        <time>2023-02-12T08:42:36Z</time>
      </trkpt>
      <trkpt lat="46.64672" lon="-0.27011">
        <ele>134</ele>
        <time>2023-02-12T08:42:37Z</time>
      </trkpt>
      <trkpt lat="46.64658" lon="-0.27018">
        <ele>135.2</ele>
        <time>2023-02-12T08:42:42Z</time>
      </trkpt>
      <trkpt lat="46.64657" lon="-0.27018">
        <ele>135.6</ele>
        <time>2023-02-12T08:42:43Z</time>
      </trkpt>
      <trkpt lat="46.6465" lon="-0.27021">
        <ele>136.4</ele>
        <time>2023-02-12T08:42:47Z</time>
      </trkpt>
      <trkpt lat="46.64644" lon="-0.27023">
        <ele>136.8</ele>
        <time>2023-02-12T08:42:50Z</time>
      </trkpt>
      <trkpt lat="46.64633" lon="-0.27028">
        <ele>137.6</ele>
        <time>2023-02-12T08:42:55Z</time>
      </trkpt>
      <trkpt lat="46.64628" lon="-0.27029">
        <ele>138</ele>
        <time>2023-02-12T08:42:57Z</time>
      </trkpt>
      <trkpt lat="46.64615" lon="-0.27035">
        <ele>138.8</ele>
        <time>2023-02-12T08:43:03Z</time>
      </trkpt>
      <trkpt lat="46.6461" lon="-0.27036">
        <ele>139.2</ele>
        <time>2023-02-12T08:43:05Z</time>
      </trkpt>
      <trkpt lat="46.64597" lon="-0.27045">
        <ele>139.4</ele>
        <time>2023-02-12T08:43:11Z</time>
      </trkpt>
      <trkpt lat="46.64593" lon="-0.27049">
        <ele>140</ele>
        <time>2023-02-12T08:43:13Z</time>
      </trkpt>
      <trkpt lat="46.64585" lon="-0.27062">
        <ele>140.4</ele>
        <time>2023-02-12T08:43:18Z</time>
      </trkpt>
      <trkpt lat="46.64572" lon="-0.27086">
        <ele>140.8</ele>
        <time>2023-02-12T08:43:25Z</time>
      </trkpt>
      <trkpt lat="46.64563" lon="-0.27102">
        <ele>141</ele>
        <time>2023-02-12T08:43:30Z</time>
      </trkpt>
      <trkpt lat="46.64559" lon="-0.27113">
        <ele>141.2</ele>
        <time>2023-02-12T08:43:33Z</time>
      </trkpt>
      <trkpt lat="46.64552" lon="-0.27131">
        <ele>140.8</ele>
        <time>2023-02-12T08:43:39Z</time>
      </trkpt>
      <trkpt lat="46.64546" lon="-0.27151">
        <ele>141</ele>
        <time>2023-02-12T08:43:44Z</time>
      </trkpt>
      <trkpt lat="46.64546" lon="-0.27154">
        <ele>141.2</ele>
        <time>2023-02-12T08:43:45Z</time>
      </trkpt>
      <trkpt lat="46.64549" lon="-0.27159">
        <ele>141</ele>
        <time>2023-02-12T08:43:48Z</time>
      </trkpt>
      <trkpt lat="46.64552" lon="-0.27157">
        <ele>140.8</ele>
        <time>2023-02-12T08:43:50Z</time>
      </trkpt>
      <trkpt lat="46.64553" lon="-0.27152">
        <ele>140.8</ele>
        <time>2023-02-12T08:43:52Z</time>
      </trkpt>
      <trkpt lat="46.64549" lon="-0.27136">
        <ele>140.8</ele>
        <time>2023-02-12T08:43:58Z</time>
      </trkpt>
      <trkpt lat="46.64547" lon="-0.27124">
        <ele>140.6</ele>
        <time>2023-02-12T08:44:04Z</time>
      </trkpt>
      <trkpt lat="46.64547" lon="-0.27122">
        <ele>140.6</ele>
        <time>2023-02-12T08:44:09Z</time>
      </trkpt>
      <trkpt lat="46.64547" lon="-0.27123">
        <ele>140.6</ele>
        <time>2023-02-12T08:44:10Z</time>
      </trkpt>
      <trkpt lat="46.64546" lon="-0.27125">
        <ele>140.6</ele>
        <time>2023-02-12T08:44:11Z</time>
      </trkpt>
      <trkpt lat="46.64545" lon="-0.27128">
        <ele>140.6</ele>
        <time>2023-02-12T08:44:13Z</time>
      </trkpt>
      <trkpt lat="46.64544" lon="-0.27134">
        <ele>140.6</ele>
        <time>2023-02-12T08:44:16Z</time>
      </trkpt>
      <trkpt lat="46.64538" lon="-0.27143">
        <ele>140.8</ele>
        <time>2023-02-12T08:44:22Z</time>
      </trkpt>
      <trkpt lat="46.64525" lon="-0.27162">
        <ele>141.2</ele>
        <time>2023-02-12T08:44:29Z</time>
      </trkpt>
      <trkpt lat="46.64516" lon="-0.27183">
        <ele>141.4</ele>
        <time>2023-02-12T08:44:37Z</time>
      </trkpt>
      <trkpt lat="46.64512" lon="-0.27184">
        <ele>141.2</ele>
        <time>2023-02-12T08:44:42Z</time>
      </trkpt>
      <trkpt lat="46.64508" lon="-0.27186">
        <ele>141.6</ele>
        <time>2023-02-12T08:44:47Z</time>
      </trkpt>
      <trkpt lat="46.64506" lon="-0.27188">
        <ele>141.6</ele>
        <time>2023-02-12T08:44:51Z</time>
      </trkpt>
      <trkpt lat="46.64506" lon="-0.27189">
        <ele>141.6</ele>
        <time>2023-02-12T08:44:53Z</time>
      </trkpt>
      <trkpt lat="46.64503" lon="-0.27202">
        <ele>141.8</ele>
        <time>2023-02-12T08:45:01Z</time>
      </trkpt>
      <trkpt lat="46.64502" lon="-0.2721">
        <ele>142</ele>
        <time>2023-02-12T08:45:03Z</time>
      </trkpt>
      <trkpt lat="46.64497" lon="-0.27227">
        <ele>142.4</ele>
        <time>2023-02-12T08:45:07Z</time>
      </trkpt>
      <trkpt lat="46.64491" lon="-0.27251">
        <ele>143</ele>
        <time>2023-02-12T08:45:12Z</time>
      </trkpt>
      <trkpt lat="46.6449" lon="-0.27256">
        <ele>143</ele>
        <time>2023-02-12T08:45:13Z</time>
      </trkpt>
      <trkpt lat="46.6448" lon="-0.27288">
        <ele>143.4</ele>
        <time>2023-02-12T08:45:19Z</time>
      </trkpt>
      <trkpt lat="46.64473" lon="-0.27304">
        <ele>143.4</ele>
        <time>2023-02-12T08:45:22Z</time>
      </trkpt>
      <trkpt lat="46.64464" lon="-0.27318">
        <ele>143.4</ele>
        <time>2023-02-12T08:45:25Z</time>
      </trkpt>
      <trkpt lat="46.64445" lon="-0.27348">
        <ele>143</ele>
        <time>2023-02-12T08:45:32Z</time>
      </trkpt>
      <trkpt lat="46.6442" lon="-0.27371">
        <ele>143.6</ele>
        <time>2023-02-12T08:45:39Z</time>
      </trkpt>
      <trkpt lat="46.64399" lon="-0.27385">
        <ele>143.4</ele>
        <time>2023-02-12T08:45:45Z</time>
      </trkpt>
      <trkpt lat="46.64377" lon="-0.27402">
        <ele>143.8</ele>
        <time>2023-02-12T08:45:51Z</time>
      </trkpt>
      <trkpt lat="46.64345" lon="-0.27427">
        <ele>143.8</ele>
        <time>2023-02-12T08:45:59Z</time>
      </trkpt>
      <trkpt lat="46.64333" lon="-0.27437">
        <ele>144</ele>
        <time>2023-02-12T08:46:02Z</time>
      </trkpt>
      <trkpt lat="46.64308" lon="-0.27457">
        <ele>144.4</ele>
        <time>2023-02-12T08:46:08Z</time>
      </trkpt>
      <trkpt lat="46.6429" lon="-0.27473">
        <ele>145.2</ele>
        <time>2023-02-12T08:46:13Z</time>
      </trkpt>
      <trkpt lat="46.6428" lon="-0.27482">
        <ele>145.4</ele>
        <time>2023-02-12T08:46:16Z</time>
      </trkpt>
      <trkpt lat="46.6425" lon="-0.27505">
        <ele>146</ele>
        <time>2023-02-12T08:46:24Z</time>
      </trkpt>
      <trkpt lat="46.64246" lon="-0.27507">
        <ele>146</ele>
        <time>2023-02-12T08:46:25Z</time>
      </trkpt>
      <trkpt lat="46.64238" lon="-0.27507">
        <ele>146.2</ele>
        <time>2023-02-12T08:46:27Z</time>
      </trkpt>
      <trkpt lat="46.64234" lon="-0.27505">
        <ele>146.2</ele>
        <time>2023-02-12T08:46:28Z</time>
      </trkpt>
      <trkpt lat="46.6423" lon="-0.27502">
        <ele>146.2</ele>
        <time>2023-02-12T08:46:29Z</time>
      </trkpt>
      <trkpt lat="46.64218" lon="-0.2749">
        <ele>146.6</ele>
        <time>2023-02-12T08:46:32Z</time>
      </trkpt>
      <trkpt lat="46.6421" lon="-0.27481">
        <ele>146.8</ele>
        <time>2023-02-12T08:46:34Z</time>
      </trkpt>
      <trkpt lat="46.64183" lon="-0.27445">
        <ele>146.6</ele>
        <time>2023-02-12T08:46:41Z</time>
      </trkpt>
      <trkpt lat="46.64161" lon="-0.27409">
        <ele>146.4</ele>
        <time>2023-02-12T08:46:47Z</time>
      </trkpt>
      <trkpt lat="46.64157" lon="-0.27402">
        <ele>146.4</ele>
        <time>2023-02-12T08:46:48Z</time>
      </trkpt>
      <trkpt lat="46.64127" lon="-0.27353">
        <ele>145.4</ele>
        <time>2023-02-12T08:46:55Z</time>
      </trkpt>
      <trkpt lat="46.64112" lon="-0.27333">
        <ele>145.2</ele>
        <time>2023-02-12T08:46:58Z</time>
      </trkpt>
      <trkpt lat="46.64101" lon="-0.27319">
        <ele>145.2</ele>
        <time>2023-02-12T08:47:00Z</time>
      </trkpt>
      <trkpt lat="46.64096" lon="-0.27312">
        <ele>145</ele>
        <time>2023-02-12T08:47:01Z</time>
      </trkpt>
      <trkpt lat="46.64059" lon="-0.27256">
        <ele>144.2</ele>
        <time>2023-02-12T08:47:09Z</time>
      </trkpt>
      <trkpt lat="46.64039" lon="-0.27222">
        <ele>144</ele>
        <time>2023-02-12T08:47:14Z</time>
      </trkpt>
      <trkpt lat="46.64033" lon="-0.27208">
        <ele>144.2</ele>
        <time>2023-02-12T08:47:16Z</time>
      </trkpt>
      <trkpt lat="46.64019" lon="-0.27176">
        <ele>144</ele>
        <time>2023-02-12T08:47:21Z</time>
      </trkpt>
      <trkpt lat="46.64016" lon="-0.2717">
        <ele>144</ele>
        <time>2023-02-12T08:47:22Z</time>
      </trkpt>
      <trkpt lat="46.63998" lon="-0.27126">
        <ele>143</ele>
        <time>2023-02-12T08:47:28Z</time>
      </trkpt>
      <trkpt lat="46.63991" lon="-0.27109">
        <ele>142.8</ele>
        <time>2023-02-12T08:47:30Z</time>
      </trkpt>
      <trkpt lat="46.63977" lon="-0.27083">
        <ele>142</ele>
        <time>2023-02-12T08:47:33Z</time>
      </trkpt>
      <trkpt lat="46.63972" lon="-0.27075">
        <ele>141.8</ele>
        <time>2023-02-12T08:47:34Z</time>
      </trkpt>
      <trkpt lat="46.63962" lon="-0.27058">
        <ele>140.4</ele>
        <time>2023-02-12T08:47:36Z</time>
      </trkpt>
      <trkpt lat="46.63953" lon="-0.27045">
        <ele>139.4</ele>
        <time>2023-02-12T08:47:38Z</time>
      </trkpt>
      <trkpt lat="46.63949" lon="-0.27041">
        <ele>138.8</ele>
        <time>2023-02-12T08:47:39Z</time>
      </trkpt>
      <trkpt lat="46.63941" lon="-0.27041">
        <ele>137.4</ele>
        <time>2023-02-12T08:47:41Z</time>
      </trkpt>
      <trkpt lat="46.63923" lon="-0.27054">
        <ele>136.2</ele>
        <time>2023-02-12T08:47:45Z</time>
      </trkpt>
      <trkpt lat="46.63918" lon="-0.27058">
        <ele>136</ele>
        <time>2023-02-12T08:47:46Z</time>
      </trkpt>
      <trkpt lat="46.63891" lon="-0.27068">
        <ele>135.8</ele>
        <time>2023-02-12T08:47:51Z</time>
      </trkpt>
      <trkpt lat="46.63876" lon="-0.27071">
        <ele>135.2</ele>
        <time>2023-02-12T08:47:54Z</time>
      </trkpt>
      <trkpt lat="46.63874" lon="-0.27072">
        <ele>134.6</ele>
        <time>2023-02-12T08:47:55Z</time>
      </trkpt>
      <trkpt lat="46.63872" lon="-0.27073">
        <ele>134</ele>
        <time>2023-02-12T08:47:58Z</time>
      </trkpt>
      <trkpt lat="46.63872" lon="-0.27075">
        <ele>133.8</ele>
        <time>2023-02-12T08:47:59Z</time>
      </trkpt>
      <trkpt lat="46.6387" lon="-0.27075">
        <ele>133.8</ele>
        <time>2023-02-12T08:48:00Z</time>
      </trkpt>
      <trkpt lat="46.63866" lon="-0.27063">
        <ele>133.8</ele>
        <time>2023-02-12T08:48:03Z</time>
      </trkpt>
      <trkpt lat="46.63864" lon="-0.27029">
        <ele>133.6</ele>
        <time>2023-02-12T08:48:08Z</time>
      </trkpt>
      <trkpt lat="46.63864" lon="-0.27021">
        <ele>133.6</ele>
        <time>2023-02-12T08:48:09Z</time>
      </trkpt>
      <trkpt lat="46.63862" lon="-0.26989">
        <ele>133</ele>
        <time>2023-02-12T08:48:13Z</time>
      </trkpt>
      <trkpt lat="46.63862" lon="-0.2698">
        <ele>132.8</ele>
        <time>2023-02-12T08:48:14Z</time>
      </trkpt>
      <trkpt lat="46.63863" lon="-0.26934">
        <ele>132.6</ele>
        <time>2023-02-12T08:48:19Z</time>
      </trkpt>
      <trkpt lat="46.63861" lon="-0.26926">
        <ele>132.4</ele>
        <time>2023-02-12T08:48:20Z</time>
      </trkpt>
      <trkpt lat="46.63858" lon="-0.26917">
        <ele>132.4</ele>
        <time>2023-02-12T08:48:21Z</time>
      </trkpt>
      <trkpt lat="46.63852" lon="-0.26901">
        <ele>131.8</ele>
        <time>2023-02-12T08:48:23Z</time>
      </trkpt>
      <trkpt lat="46.63846" lon="-0.26883">
        <ele>131.6</ele>
        <time>2023-02-12T08:48:25Z</time>
      </trkpt>
      <trkpt lat="46.63829" lon="-0.26821">
        <ele>132</ele>
        <time>2023-02-12T08:48:32Z</time>
      </trkpt>
      <trkpt lat="46.63829" lon="-0.26791">
        <ele>131.8</ele>
        <time>2023-02-12T08:48:35Z</time>
      </trkpt>
      <trkpt lat="46.63831" lon="-0.2678">
        <ele>131.8</ele>
        <time>2023-02-12T08:48:36Z</time>
      </trkpt>
      <trkpt lat="46.6384" lon="-0.26736">
        <ele>130.6</ele>
        <time>2023-02-12T08:48:40Z</time>
      </trkpt>
      <trkpt lat="46.63845" lon="-0.26713">
        <ele>129.6</ele>
        <time>2023-02-12T08:48:42Z</time>
      </trkpt>
      <trkpt lat="46.63847" lon="-0.26702">
        <ele>129.4</ele>
        <time>2023-02-12T08:48:43Z</time>
      </trkpt>
      <trkpt lat="46.63853" lon="-0.26667">
        <ele>127.8</ele>
        <time>2023-02-12T08:48:46Z</time>
      </trkpt>
      <trkpt lat="46.63856" lon="-0.26657">
        <ele>127.4</ele>
        <time>2023-02-12T08:48:47Z</time>
      </trkpt>
      <trkpt lat="46.63859" lon="-0.26646">
        <ele>127</ele>
        <time>2023-02-12T08:48:48Z</time>
      </trkpt>
      <trkpt lat="46.63864" lon="-0.26636">
        <ele>126.4</ele>
        <time>2023-02-12T08:48:49Z</time>
      </trkpt>
      <trkpt lat="46.63875" lon="-0.26607">
        <ele>125.6</ele>
        <time>2023-02-12T08:48:52Z</time>
      </trkpt>
      <trkpt lat="46.63878" lon="-0.26598">
        <ele>124.6</ele>
        <time>2023-02-12T08:48:53Z</time>
      </trkpt>
      <trkpt lat="46.63884" lon="-0.26579">
        <ele>124.2</ele>
        <time>2023-02-12T08:48:56Z</time>
      </trkpt>
      <trkpt lat="46.63884" lon="-0.26574">
        <ele>124.2</ele>
        <time>2023-02-12T08:48:57Z</time>
      </trkpt>
      <trkpt lat="46.63878" lon="-0.26554">
        <ele>124.2</ele>
        <time>2023-02-12T08:49:01Z</time>
      </trkpt>
      <trkpt lat="46.63857" lon="-0.26502">
        <ele>124.8</ele>
        <time>2023-02-12T08:49:10Z</time>
      </trkpt>
      <trkpt lat="46.63849" lon="-0.26486">
        <ele>124.8</ele>
        <time>2023-02-12T08:49:13Z</time>
      </trkpt>
      <trkpt lat="46.63842" lon="-0.26481">
        <ele>124.6</ele>
        <time>2023-02-12T08:49:15Z</time>
      </trkpt>
      <trkpt lat="46.63829" lon="-0.26488">
        <ele>124.8</ele>
        <time>2023-02-12T08:49:19Z</time>
      </trkpt>
      <trkpt lat="46.63816" lon="-0.26507">
        <ele>125.6</ele>
        <time>2023-02-12T08:49:24Z</time>
      </trkpt>
      <trkpt lat="46.63813" lon="-0.26511">
        <ele>125.8</ele>
        <time>2023-02-12T08:49:25Z</time>
      </trkpt>
      <trkpt lat="46.63799" lon="-0.26531">
        <ele>126.8</ele>
        <time>2023-02-12T08:49:30Z</time>
      </trkpt>
      <trkpt lat="46.63792" lon="-0.26544">
        <ele>127</ele>
        <time>2023-02-12T08:49:33Z</time>
      </trkpt>
      <trkpt lat="46.6378" lon="-0.26556">
        <ele>127.6</ele>
        <time>2023-02-12T08:49:37Z</time>
      </trkpt>
      <trkpt lat="46.63773" lon="-0.26562">
        <ele>127.8</ele>
        <time>2023-02-12T08:49:39Z</time>
      </trkpt>
      <trkpt lat="46.63761" lon="-0.26566">
        <ele>128.2</ele>
        <time>2023-02-12T08:49:42Z</time>
      </trkpt>
      <trkpt lat="46.63749" lon="-0.26567">
        <ele>128.2</ele>
        <time>2023-02-12T08:49:45Z</time>
      </trkpt>
      <trkpt lat="46.6374" lon="-0.26569">
        <ele>128.4</ele>
        <time>2023-02-12T08:49:47Z</time>
      </trkpt>
      <trkpt lat="46.63722" lon="-0.26576">
        <ele>128.8</ele>
        <time>2023-02-12T08:49:51Z</time>
      </trkpt>
      <trkpt lat="46.63715" lon="-0.26579">
        <ele>129.6</ele>
        <time>2023-02-12T08:49:53Z</time>
      </trkpt>
      <trkpt lat="46.63711" lon="-0.2658">
        <ele>130</ele>
        <time>2023-02-12T08:49:54Z</time>
      </trkpt>
      <trkpt lat="46.63705" lon="-0.26579">
        <ele>130.4</ele>
        <time>2023-02-12T08:49:56Z</time>
      </trkpt>
      <trkpt lat="46.63702" lon="-0.26576">
        <ele>130.6</ele>
        <time>2023-02-12T08:49:57Z</time>
      </trkpt>
      <trkpt lat="46.63697" lon="-0.26565">
        <ele>131.2</ele>
        <time>2023-02-12T08:50:00Z</time>
      </trkpt>
      <trkpt lat="46.63691" lon="-0.26554">
        <ele>132.2</ele>
        <time>2023-02-12T08:50:03Z</time>
      </trkpt>
      <trkpt lat="46.63688" lon="-0.26552">
        <ele>132.4</ele>
        <time>2023-02-12T08:50:04Z</time>
      </trkpt>
      <trkpt lat="46.63679" lon="-0.26551">
        <ele>133.6</ele>
        <time>2023-02-12T08:50:07Z</time>
      </trkpt>
      <trkpt lat="46.6367" lon="-0.26554">
        <ele>134.6</ele>
        <time>2023-02-12T08:50:10Z</time>
      </trkpt>
      <trkpt lat="46.63659" lon="-0.26557">
        <ele>135.8</ele>
        <time>2023-02-12T08:50:14Z</time>
      </trkpt>
      <trkpt lat="46.63656" lon="-0.26557">
        <ele>136</ele>
        <time>2023-02-12T08:50:15Z</time>
      </trkpt>
      <trkpt lat="46.63644" lon="-0.2656">
        <ele>136.8</ele>
        <time>2023-02-12T08:50:19Z</time>
      </trkpt>
      <trkpt lat="46.63638" lon="-0.2656">
        <ele>137.2</ele>
        <time>2023-02-12T08:50:21Z</time>
      </trkpt>
      <trkpt lat="46.63624" lon="-0.26556">
        <ele>137.8</ele>
        <time>2023-02-12T08:50:26Z</time>
      </trkpt>
      <trkpt lat="46.63621" lon="-0.26553">
        <ele>138</ele>
        <time>2023-02-12T08:50:27Z</time>
      </trkpt>
      <trkpt lat="46.63609" lon="-0.26533">
        <ele>138.8</ele>
        <time>2023-02-12T08:50:33Z</time>
      </trkpt>
      <trkpt lat="46.63608" lon="-0.26529">
        <ele>139.2</ele>
        <time>2023-02-12T08:50:34Z</time>
      </trkpt>
      <trkpt lat="46.636" lon="-0.2651">
        <ele>140.2</ele>
        <time>2023-02-12T08:50:39Z</time>
      </trkpt>
      <trkpt lat="46.63596" lon="-0.26503">
        <ele>140.8</ele>
        <time>2023-02-12T08:50:41Z</time>
      </trkpt>
      <trkpt lat="46.63588" lon="-0.26496">
        <ele>141.4</ele>
        <time>2023-02-12T08:50:44Z</time>
      </trkpt>
      <trkpt lat="46.63579" lon="-0.26488">
        <ele>142</ele>
        <time>2023-02-12T08:50:47Z</time>
      </trkpt>
      <trkpt lat="46.63574" lon="-0.26484">
        <ele>142.6</ele>
        <time>2023-02-12T08:50:49Z</time>
      </trkpt>
      <trkpt lat="46.63561" lon="-0.2648">
        <ele>143.2</ele>
        <time>2023-02-12T08:50:53Z</time>
      </trkpt>
      <trkpt lat="46.63554" lon="-0.26482">
        <ele>143.6</ele>
        <time>2023-02-12T08:50:56Z</time>
      </trkpt>
      <trkpt lat="46.63552" lon="-0.26484">
        <ele>143.6</ele>
        <time>2023-02-12T08:50:57Z</time>
      </trkpt>
      <trkpt lat="46.63552" lon="-0.26487">
        <ele>143.8</ele>
        <time>2023-02-12T08:50:58Z</time>
      </trkpt>
      <trkpt lat="46.63555" lon="-0.2651">
        <ele>143.6</ele>
        <time>2023-02-12T08:51:03Z</time>
      </trkpt>
      <trkpt lat="46.63558" lon="-0.26541">
        <ele>142.2</ele>
        <time>2023-02-12T08:51:08Z</time>
      </trkpt>
      <trkpt lat="46.63559" lon="-0.26546">
        <ele>142</ele>
        <time>2023-02-12T08:51:09Z</time>
      </trkpt>
      <trkpt lat="46.63561" lon="-0.26558">
        <ele>141.2</ele>
        <time>2023-02-12T08:51:14Z</time>
      </trkpt>
      <trkpt lat="46.63561" lon="-0.26563">
        <ele>141</ele>
        <time>2023-02-12T08:51:22Z</time>
      </trkpt>
      <trkpt lat="46.63562" lon="-0.26563">
        <ele>141</ele>
        <time>2023-02-12T08:51:37Z</time>
      </trkpt>
      <trkpt lat="46.63562" lon="-0.26563">
        <ele>141</ele>
        <time>2023-02-12T08:52:18Z</time>
      </trkpt>
      <trkpt lat="46.63562" lon="-0.26563">
        <ele>141</ele>
        <time>2023-02-12T08:52:34Z</time>
      </trkpt>
      <trkpt lat="46.63562" lon="-0.26563">
        <ele>141</ele>
        <time>2023-02-12T08:52:47Z</time>
      </trkpt>
      <trkpt lat="46.63562" lon="-0.26563">
        <ele>141</ele>
        <time>2023-02-12T08:53:15Z</time>
      </trkpt>
      <trkpt lat="46.63562" lon="-0.26563">
        <ele>138</ele>
        <time>2023-02-12T08:53:19Z</time>
      </trkpt>
      <trkpt lat="46.63562" lon="-0.26563">
        <ele>138.2</ele>
        <time>2023-02-12T08:53:40Z</time>
      </trkpt>
      <trkpt lat="46.63562" lon="-0.26563">
        <ele>138</ele>
        <time>2023-02-12T08:53:44Z</time>
      </trkpt>
      <trkpt lat="46.63562" lon="-0.26563">
        <ele>137.6</ele>
        <time>2023-02-12T08:54:05Z</time>
      </trkpt>
      <trkpt lat="46.63562" lon="-0.26563">
        <ele>137.2</ele>
        <time>2023-02-12T08:54:23Z</time>
      </trkpt>
      <trkpt lat="46.63562" lon="-0.26563">
        <ele>137.2</ele>
        <time>2023-02-12T08:54:29Z</time>
      </trkpt>
      <trkpt lat="46.63562" lon="-0.26563">
        <ele>137</ele>
        <time>2023-02-12T08:54:41Z</time>
      </trkpt>
      <trkpt lat="46.63562" lon="-0.26563">
        <ele>136.8</ele>
        <time>2023-02-12T08:54:53Z</time>
      </trkpt>
      <trkpt lat="46.63562" lon="-0.26563">
        <ele>136.6</ele>
        <time>2023-02-12T08:55:02Z</time>
      </trkpt>
      <trkpt lat="46.63563" lon="-0.26563">
        <ele>136.6</ele>
        <time>2023-02-12T08:55:18Z</time>
      </trkpt>
      <trkpt lat="46.63563" lon="-0.26564">
        <ele>136.8</ele>
        <time>2023-02-12T08:55:43Z</time>
      </trkpt>
      <trkpt lat="46.63563" lon="-0.26564">
        <ele>136.8</ele>
        <time>2023-02-12T08:56:08Z</time>
      </trkpt>
      <trkpt lat="46.63563" lon="-0.26564">
        <ele>136.8</ele>
        <time>2023-02-12T08:56:10Z</time>
      </trkpt>
      <trkpt lat="46.63563" lon="-0.26564">
        <ele>136.8</ele>
        <time>2023-02-12T08:56:34Z</time>
      </trkpt>
      <trkpt lat="46.63563" lon="-0.26564">
        <ele>136.8</ele>
        <time>2023-02-12T08:57:00Z</time>
      </trkpt>
      <trkpt lat="46.63563" lon="-0.26564">
        <ele>136.8</ele>
        <time>2023-02-12T08:57:04Z</time>
      </trkpt>
      <trkpt lat="46.63563" lon="-0.26564">
        <ele>136.8</ele>
        <time>2023-02-12T08:57:25Z</time>
      </trkpt>
      <trkpt lat="46.63563" lon="-0.26564">
        <ele>136.8</ele>
        <time>2023-02-12T08:57:46Z</time>
      </trkpt>
      <trkpt lat="46.63563" lon="-0.26564">
        <ele>136.8</ele>
        <time>2023-02-12T08:57:49Z</time>
      </trkpt>
      <trkpt lat="46.63563" lon="-0.26564">
        <ele>136.8</ele>
        <time>2023-02-12T08:58:23Z</time>
      </trkpt>
      <trkpt lat="46.63568" lon="-0.26561">
        <ele>136.8</ele>
        <time>2023-02-12T08:58:31Z</time>
      </trkpt>
      <trkpt lat="46.6357" lon="-0.26561">
        <ele>136.8</ele>
        <time>2023-02-12T08:58:32Z</time>
      </trkpt>
      <trkpt lat="46.63576" lon="-0.26565">
        <ele>136.8</ele>
        <time>2023-02-12T08:58:36Z</time>
      </trkpt>
      <trkpt lat="46.63582" lon="-0.26571">
        <ele>136.4</ele>
        <time>2023-02-12T08:58:40Z</time>
      </trkpt>
      <trkpt lat="46.63584" lon="-0.26574">
        <ele>136.4</ele>
        <time>2023-02-12T08:58:41Z</time>
      </trkpt>
      <trkpt lat="46.63585" lon="-0.26587">
        <ele>136</ele>
        <time>2023-02-12T08:58:44Z</time>
      </trkpt>
      <trkpt lat="46.63588" lon="-0.26595">
        <ele>135.6</ele>
        <time>2023-02-12T08:58:46Z</time>
      </trkpt>
      <trkpt lat="46.63596" lon="-0.26598">
        <ele>135</ele>
        <time>2023-02-12T08:58:49Z</time>
      </trkpt>
      <trkpt lat="46.63598" lon="-0.266">
        <ele>134.8</ele>
        <time>2023-02-12T08:58:50Z</time>
      </trkpt>
      <trkpt lat="46.636" lon="-0.26606">
        <ele>134.4</ele>
        <time>2023-02-12T08:58:52Z</time>
      </trkpt>
      <trkpt lat="46.63601" lon="-0.2661">
        <ele>134.2</ele>
        <time>2023-02-12T08:58:53Z</time>
      </trkpt>
      <trkpt lat="46.63596" lon="-0.26628">
        <ele>133.6</ele>
        <time>2023-02-12T08:58:57Z</time>
      </trkpt>
      <trkpt lat="46.6359" lon="-0.26637">
        <ele>132.8</ele>
        <time>2023-02-12T08:58:59Z</time>
      </trkpt>
      <trkpt lat="46.63589" lon="-0.26642">
        <ele>132.6</ele>
        <time>2023-02-12T08:59:00Z</time>
      </trkpt>
      <trkpt lat="46.63588" lon="-0.26647">
        <ele>132.4</ele>
        <time>2023-02-12T08:59:01Z</time>
      </trkpt>
      <trkpt lat="46.63595" lon="-0.26678">
        <ele>131.6</ele>
        <time>2023-02-12T08:59:05Z</time>
      </trkpt>
      <trkpt lat="46.63597" lon="-0.26687">
        <ele>131.6</ele>
        <time>2023-02-12T08:59:06Z</time>
      </trkpt>
      <trkpt lat="46.63606" lon="-0.26722">
        <ele>130.4</ele>
        <time>2023-02-12T08:59:10Z</time>
      </trkpt>
      <trkpt lat="46.63609" lon="-0.2673">
        <ele>130</ele>
        <time>2023-02-12T08:59:11Z</time>
      </trkpt>
      <trkpt lat="46.63619" lon="-0.26749">
        <ele>128.6</ele>
        <time>2023-02-12T08:59:14Z</time>
      </trkpt>
      <trkpt lat="46.6362" lon="-0.26753">
        <ele>128.2</ele>
        <time>2023-02-12T08:59:15Z</time>
      </trkpt>
      <trkpt lat="46.63621" lon="-0.26755">
        <ele>127.6</ele>
        <time>2023-02-12T08:59:16Z</time>
      </trkpt>
      <trkpt lat="46.6362" lon="-0.26759">
        <ele>126.8</ele>
        <time>2023-02-12T08:59:18Z</time>
      </trkpt>
      <trkpt lat="46.63619" lon="-0.26761">
        <ele>126.6</ele>
        <time>2023-02-12T08:59:19Z</time>
      </trkpt>
      <trkpt lat="46.63618" lon="-0.26763">
        <ele>126.4</ele>
        <time>2023-02-12T08:59:20Z</time>
      </trkpt>
      <trkpt lat="46.63618" lon="-0.26766">
        <ele>126.4</ele>
        <time>2023-02-12T08:59:21Z</time>
      </trkpt>
      <trkpt lat="46.63617" lon="-0.26776">
        <ele>126.4</ele>
        <time>2023-02-12T08:59:23Z</time>
      </trkpt>
      <trkpt lat="46.63609" lon="-0.26796">
        <ele>126.2</ele>
        <time>2023-02-12T08:59:27Z</time>
      </trkpt>
      <trkpt lat="46.63585" lon="-0.26829">
        <ele>125.8</ele>
        <time>2023-02-12T08:59:33Z</time>
      </trkpt>
      <trkpt lat="46.63575" lon="-0.26842">
        <ele>125.4</ele>
        <time>2023-02-12T08:59:35Z</time>
      </trkpt>
      <trkpt lat="46.63565" lon="-0.26857">
        <ele>125</ele>
        <time>2023-02-12T08:59:37Z</time>
      </trkpt>
      <trkpt lat="46.63555" lon="-0.26871">
        <ele>124.4</ele>
        <time>2023-02-12T08:59:39Z</time>
      </trkpt>
      <trkpt lat="46.63515" lon="-0.26929">
        <ele>123.8</ele>
        <time>2023-02-12T08:59:47Z</time>
      </trkpt>
      <trkpt lat="46.63495" lon="-0.26958">
        <ele>124.2</ele>
        <time>2023-02-12T08:59:52Z</time>
      </trkpt>
      <trkpt lat="46.63491" lon="-0.26964">
        <ele>124.2</ele>
        <time>2023-02-12T08:59:53Z</time>
      </trkpt>
      <trkpt lat="46.63489" lon="-0.26972">
        <ele>124.2</ele>
        <time>2023-02-12T08:59:54Z</time>
      </trkpt>
      <trkpt lat="46.63485" lon="-0.26988">
        <ele>124.2</ele>
        <time>2023-02-12T08:59:56Z</time>
      </trkpt>
      <trkpt lat="46.63484" lon="-0.26997">
        <ele>124.2</ele>
        <time>2023-02-12T08:59:57Z</time>
      </trkpt>
      <trkpt lat="46.63474" lon="-0.27056">
        <ele>124</ele>
        <time>2023-02-12T09:00:04Z</time>
      </trkpt>
      <trkpt lat="46.63472" lon="-0.27062">
        <ele>124.2</ele>
        <time>2023-02-12T09:00:05Z</time>
      </trkpt>
      <trkpt lat="46.63457" lon="-0.27103">
        <ele>125</ele>
        <time>2023-02-12T09:00:12Z</time>
      </trkpt>
      <trkpt lat="46.63447" lon="-0.27125">
        <ele>125.4</ele>
        <time>2023-02-12T09:00:16Z</time>
      </trkpt>
      <trkpt lat="46.63438" lon="-0.27146">
        <ele>126.4</ele>
        <time>2023-02-12T09:00:20Z</time>
      </trkpt>
      <trkpt lat="46.63436" lon="-0.27152">
        <ele>126.4</ele>
        <time>2023-02-12T09:00:21Z</time>
      </trkpt>
      <trkpt lat="46.63427" lon="-0.27171">
        <ele>127.6</ele>
        <time>2023-02-12T09:00:25Z</time>
      </trkpt>
      <trkpt lat="46.63419" lon="-0.27191">
        <ele>128.6</ele>
        <time>2023-02-12T09:00:29Z</time>
      </trkpt>
      <trkpt lat="46.63417" lon="-0.27196">
        <ele>128.8</ele>
        <time>2023-02-12T09:00:30Z</time>
      </trkpt>
      <trkpt lat="46.63407" lon="-0.27223">
        <ele>130</ele>
        <time>2023-02-12T09:00:36Z</time>
      </trkpt>
      <trkpt lat="46.63398" lon="-0.27243">
        <ele>131</ele>
        <time>2023-02-12T09:00:41Z</time>
      </trkpt>
      <trkpt lat="46.63391" lon="-0.27259">
        <ele>132</ele>
        <time>2023-02-12T09:00:45Z</time>
      </trkpt>
      <trkpt lat="46.63379" lon="-0.2728">
        <ele>133.2</ele>
        <time>2023-02-12T09:00:50Z</time>
      </trkpt>
      <trkpt lat="46.63372" lon="-0.27292">
        <ele>133.6</ele>
        <time>2023-02-12T09:00:53Z</time>
      </trkpt>
      <trkpt lat="46.6337" lon="-0.27296">
        <ele>133.8</ele>
        <time>2023-02-12T09:00:54Z</time>
      </trkpt>
      <trkpt lat="46.63367" lon="-0.27304">
        <ele>134.2</ele>
        <time>2023-02-12T09:00:56Z</time>
      </trkpt>
      <trkpt lat="46.63358" lon="-0.2732">
        <ele>135.2</ele>
        <time>2023-02-12T09:01:00Z</time>
      </trkpt>
      <trkpt lat="46.63351" lon="-0.27332">
        <ele>135.8</ele>
        <time>2023-02-12T09:01:03Z</time>
      </trkpt>
      <trkpt lat="46.63345" lon="-0.27344">
        <ele>136.4</ele>
        <time>2023-02-12T09:01:06Z</time>
      </trkpt>
      <trkpt lat="46.63333" lon="-0.2737">
        <ele>137.2</ele>
        <time>2023-02-12T09:01:12Z</time>
      </trkpt>
      <trkpt lat="46.63329" lon="-0.27379">
        <ele>137.4</ele>
        <time>2023-02-12T09:01:14Z</time>
      </trkpt>
      <trkpt lat="46.6332" lon="-0.27401">
        <ele>138.6</ele>
        <time>2023-02-12T09:01:19Z</time>
      </trkpt>
      <trkpt lat="46.63317" lon="-0.27409">
        <ele>139</ele>
        <time>2023-02-12T09:01:21Z</time>
      </trkpt>
      <trkpt lat="46.63307" lon="-0.27435">
        <ele>139.6</ele>
        <time>2023-02-12T09:01:27Z</time>
      </trkpt>
      <trkpt lat="46.63301" lon="-0.27453">
        <ele>140</ele>
        <time>2023-02-12T09:01:31Z</time>
      </trkpt>
      <trkpt lat="46.63295" lon="-0.27468">
        <ele>140.4</ele>
        <time>2023-02-12T09:01:34Z</time>
      </trkpt>
      <trkpt lat="46.63292" lon="-0.27478">
        <ele>140.8</ele>
        <time>2023-02-12T09:01:36Z</time>
      </trkpt>
      <trkpt lat="46.63286" lon="-0.27493">
        <ele>141</ele>
        <time>2023-02-12T09:01:39Z</time>
      </trkpt>
      <trkpt lat="46.63265" lon="-0.27547">
        <ele>141.4</ele>
        <time>2023-02-12T09:01:49Z</time>
      </trkpt>
      <trkpt lat="46.63243" lon="-0.27605">
        <ele>141.2</ele>
        <time>2023-02-12T09:01:58Z</time>
      </trkpt>
      <trkpt lat="46.63226" lon="-0.27648">
        <ele>141</ele>
        <time>2023-02-12T09:02:05Z</time>
      </trkpt>
      <trkpt lat="46.63224" lon="-0.27654">
        <ele>141</ele>
        <time>2023-02-12T09:02:06Z</time>
      </trkpt>
      <trkpt lat="46.63209" lon="-0.27703">
        <ele>141.6</ele>
        <time>2023-02-12T09:02:15Z</time>
      </trkpt>
      <trkpt lat="46.63208" lon="-0.27709">
        <ele>141.8</ele>
        <time>2023-02-12T09:02:16Z</time>
      </trkpt>
      <trkpt lat="46.63204" lon="-0.2772">
        <ele>142</ele>
        <time>2023-02-12T09:02:18Z</time>
      </trkpt>
      <trkpt lat="46.63195" lon="-0.27744">
        <ele>142.2</ele>
        <time>2023-02-12T09:02:22Z</time>
      </trkpt>
      <trkpt lat="46.63187" lon="-0.27769">
        <ele>142.8</ele>
        <time>2023-02-12T09:02:26Z</time>
      </trkpt>
      <trkpt lat="46.63182" lon="-0.27786">
        <ele>143.4</ele>
        <time>2023-02-12T09:02:29Z</time>
      </trkpt>
      <trkpt lat="46.63176" lon="-0.27802">
        <ele>143.8</ele>
        <time>2023-02-12T09:02:32Z</time>
      </trkpt>
      <trkpt lat="46.63175" lon="-0.27807">
        <ele>143.8</ele>
        <time>2023-02-12T09:02:33Z</time>
      </trkpt>
      <trkpt lat="46.63172" lon="-0.27818">
        <ele>144</ele>
        <time>2023-02-12T09:02:35Z</time>
      </trkpt>
      <trkpt lat="46.63166" lon="-0.27834">
        <ele>144.6</ele>
        <time>2023-02-12T09:02:38Z</time>
      </trkpt>
      <trkpt lat="46.63162" lon="-0.27845">
        <ele>145</ele>
        <time>2023-02-12T09:02:40Z</time>
      </trkpt>
      <trkpt lat="46.63156" lon="-0.27861">
        <ele>145.4</ele>
        <time>2023-02-12T09:02:43Z</time>
      </trkpt>
      <trkpt lat="46.63147" lon="-0.27884">
        <ele>146</ele>
        <time>2023-02-12T09:02:47Z</time>
      </trkpt>
      <trkpt lat="46.63139" lon="-0.279">
        <ele>146.2</ele>
        <time>2023-02-12T09:02:50Z</time>
      </trkpt>
      <trkpt lat="46.63124" lon="-0.27924">
        <ele>147</ele>
        <time>2023-02-12T09:02:55Z</time>
      </trkpt>
      <trkpt lat="46.63117" lon="-0.27932">
        <ele>147.6</ele>
        <time>2023-02-12T09:02:57Z</time>
      </trkpt>
      <trkpt lat="46.63107" lon="-0.27947">
        <ele>148</ele>
        <time>2023-02-12T09:03:00Z</time>
      </trkpt>
      <trkpt lat="46.63089" lon="-0.2797">
        <ele>148.4</ele>
        <time>2023-02-12T09:03:05Z</time>
      </trkpt>
      <trkpt lat="46.63061" lon="-0.28007">
        <ele>148.8</ele>
        <time>2023-02-12T09:03:12Z</time>
      </trkpt>
      <trkpt lat="46.63033" lon="-0.28043">
        <ele>148.8</ele>
        <time>2023-02-12T09:03:18Z</time>
      </trkpt>
      <trkpt lat="46.62995" lon="-0.28095">
        <ele>148.6</ele>
        <time>2023-02-12T09:03:26Z</time>
      </trkpt>
      <trkpt lat="46.62968" lon="-0.28138">
        <ele>149</ele>
        <time>2023-02-12T09:03:32Z</time>
      </trkpt>
      <trkpt lat="46.62952" lon="-0.2817">
        <ele>148.8</ele>
        <time>2023-02-12T09:03:36Z</time>
      </trkpt>
      <trkpt lat="46.62931" lon="-0.28212">
        <ele>149.2</ele>
        <time>2023-02-12T09:03:41Z</time>
      </trkpt>
      <trkpt lat="46.62897" lon="-0.28277">
        <ele>149.2</ele>
        <time>2023-02-12T09:03:49Z</time>
      </trkpt>
      <trkpt lat="46.62884" lon="-0.28301">
        <ele>149.2</ele>
        <time>2023-02-12T09:03:52Z</time>
      </trkpt>
      <trkpt lat="46.62852" lon="-0.28364">
        <ele>149</ele>
        <time>2023-02-12T09:04:00Z</time>
      </trkpt>
      <trkpt lat="46.62819" lon="-0.28428">
        <ele>149.6</ele>
        <time>2023-02-12T09:04:08Z</time>
      </trkpt>
      <trkpt lat="46.62798" lon="-0.28468">
        <ele>150.2</ele>
        <time>2023-02-12T09:04:13Z</time>
      </trkpt>
      <trkpt lat="46.62795" lon="-0.28475">
        <ele>150.2</ele>
        <time>2023-02-12T09:04:14Z</time>
      </trkpt>
      <trkpt lat="46.62764" lon="-0.2854">
        <ele>151</ele>
        <time>2023-02-12T09:04:22Z</time>
      </trkpt>
      <trkpt lat="46.62754" lon="-0.28566">
        <ele>151.2</ele>
        <time>2023-02-12T09:04:25Z</time>
      </trkpt>
      <trkpt lat="46.62735" lon="-0.28618">
        <ele>152</ele>
        <time>2023-02-12T09:04:31Z</time>
      </trkpt>
      <trkpt lat="46.62727" lon="-0.28645">
        <ele>152</ele>
        <time>2023-02-12T09:04:34Z</time>
      </trkpt>
      <trkpt lat="46.62725" lon="-0.28653">
        <ele>152.2</ele>
        <time>2023-02-12T09:04:35Z</time>
      </trkpt>
      <trkpt lat="46.62718" lon="-0.28691">
        <ele>152.6</ele>
        <time>2023-02-12T09:04:39Z</time>
      </trkpt>
      <trkpt lat="46.62706" lon="-0.28773">
        <ele>152.2</ele>
        <time>2023-02-12T09:04:47Z</time>
      </trkpt>
      <trkpt lat="46.62703" lon="-0.28793">
        <ele>152</ele>
        <time>2023-02-12T09:04:49Z</time>
      </trkpt>
      <trkpt lat="46.62692" lon="-0.28872">
        <ele>151.6</ele>
        <time>2023-02-12T09:04:57Z</time>
      </trkpt>
      <trkpt lat="46.6269" lon="-0.28882">
        <ele>151.6</ele>
        <time>2023-02-12T09:04:58Z</time>
      </trkpt>
      <trkpt lat="46.62678" lon="-0.28947">
        <ele>151.4</ele>
        <time>2023-02-12T09:05:05Z</time>
      </trkpt>
      <trkpt lat="46.62672" lon="-0.28963">
        <ele>151.2</ele>
        <time>2023-02-12T09:05:07Z</time>
      </trkpt>
      <trkpt lat="46.6266" lon="-0.28995">
        <ele>151</ele>
        <time>2023-02-12T09:05:11Z</time>
      </trkpt>
      <trkpt lat="46.62644" lon="-0.29049">
        <ele>150.2</ele>
        <time>2023-02-12T09:05:17Z</time>
      </trkpt>
      <trkpt lat="46.62642" lon="-0.29058">
        <ele>150</ele>
        <time>2023-02-12T09:05:18Z</time>
      </trkpt>
      <trkpt lat="46.62629" lon="-0.29129">
        <ele>149.6</ele>
        <time>2023-02-12T09:05:26Z</time>
      </trkpt>
      <trkpt lat="46.62633" lon="-0.29145">
        <ele>149.6</ele>
        <time>2023-02-12T09:05:28Z</time>
      </trkpt>
      <trkpt lat="46.62638" lon="-0.2915">
        <ele>149.8</ele>
        <time>2023-02-12T09:05:29Z</time>
      </trkpt>
      <trkpt lat="46.62643" lon="-0.29154">
        <ele>149.8</ele>
        <time>2023-02-12T09:05:30Z</time>
      </trkpt>
      <trkpt lat="46.62656" lon="-0.29161">
        <ele>149.4</ele>
        <time>2023-02-12T09:05:32Z</time>
      </trkpt>
      <trkpt lat="46.62682" lon="-0.29178">
        <ele>149</ele>
        <time>2023-02-12T09:05:36Z</time>
      </trkpt>
      <trkpt lat="46.62703" lon="-0.29191">
        <ele>148</ele>
        <time>2023-02-12T09:05:39Z</time>
      </trkpt>
      <trkpt lat="46.62718" lon="-0.29201">
        <ele>147</ele>
        <time>2023-02-12T09:05:41Z</time>
      </trkpt>
      <trkpt lat="46.62735" lon="-0.29212">
        <ele>146.2</ele>
        <time>2023-02-12T09:05:43Z</time>
      </trkpt>
      <trkpt lat="46.62743" lon="-0.29218">
        <ele>145.8</ele>
        <time>2023-02-12T09:05:44Z</time>
      </trkpt>
      <trkpt lat="46.62767" lon="-0.29241">
        <ele>144.8</ele>
        <time>2023-02-12T09:05:47Z</time>
      </trkpt>
      <trkpt lat="46.62783" lon="-0.29258">
        <ele>143.8</ele>
        <time>2023-02-12T09:05:49Z</time>
      </trkpt>
      <trkpt lat="46.62798" lon="-0.29277">
        <ele>142.2</ele>
        <time>2023-02-12T09:05:51Z</time>
      </trkpt>
      <trkpt lat="46.62814" lon="-0.29295">
        <ele>140.8</ele>
        <time>2023-02-12T09:05:53Z</time>
      </trkpt>
      <trkpt lat="46.62829" lon="-0.29313">
        <ele>139.4</ele>
        <time>2023-02-12T09:05:55Z</time>
      </trkpt>
      <trkpt lat="46.62844" lon="-0.29331">
        <ele>138.6</ele>
        <time>2023-02-12T09:05:57Z</time>
      </trkpt>
      <trkpt lat="46.62851" lon="-0.29338">
        <ele>138</ele>
        <time>2023-02-12T09:05:58Z</time>
      </trkpt>
      <trkpt lat="46.62866" lon="-0.29352">
        <ele>137</ele>
        <time>2023-02-12T09:06:00Z</time>
      </trkpt>
      <trkpt lat="46.62874" lon="-0.29357">
        <ele>136.6</ele>
        <time>2023-02-12T09:06:01Z</time>
      </trkpt>
      <trkpt lat="46.62883" lon="-0.29361">
        <ele>136.2</ele>
        <time>2023-02-12T09:06:02Z</time>
      </trkpt>
      <trkpt lat="46.62891" lon="-0.29364">
        <ele>135.8</ele>
        <time>2023-02-12T09:06:03Z</time>
      </trkpt>
      <trkpt lat="46.629" lon="-0.29365">
        <ele>135.8</ele>
        <time>2023-02-12T09:06:04Z</time>
      </trkpt>
      <trkpt lat="46.62908" lon="-0.29365">
        <ele>135.2</ele>
        <time>2023-02-12T09:06:05Z</time>
      </trkpt>
      <trkpt lat="46.62917" lon="-0.29364">
        <ele>134.4</ele>
        <time>2023-02-12T09:06:06Z</time>
      </trkpt>
      <trkpt lat="46.62934" lon="-0.29361">
        <ele>133.4</ele>
        <time>2023-02-12T09:06:08Z</time>
      </trkpt>
      <trkpt lat="46.62941" lon="-0.29359">
        <ele>132.8</ele>
        <time>2023-02-12T09:06:09Z</time>
      </trkpt>
      <trkpt lat="46.62954" lon="-0.29355">
        <ele>131.4</ele>
        <time>2023-02-12T09:06:11Z</time>
      </trkpt>
      <trkpt lat="46.62959" lon="-0.29354">
        <ele>130</ele>
        <time>2023-02-12T09:06:12Z</time>
      </trkpt>
      <trkpt lat="46.62964" lon="-0.29353">
        <ele>129</ele>
        <time>2023-02-12T09:06:13Z</time>
      </trkpt>
      <trkpt lat="46.62968" lon="-0.29352">
        <ele>128.2</ele>
        <time>2023-02-12T09:06:14Z</time>
      </trkpt>
      <trkpt lat="46.62971" lon="-0.29351">
        <ele>127.6</ele>
        <time>2023-02-12T09:06:15Z</time>
      </trkpt>
      <trkpt lat="46.62981" lon="-0.29351">
        <ele>126.8</ele>
        <time>2023-02-12T09:06:19Z</time>
      </trkpt>
      <trkpt lat="46.62987" lon="-0.29356">
        <ele>126.6</ele>
        <time>2023-02-12T09:06:21Z</time>
      </trkpt>
      <trkpt lat="46.62991" lon="-0.29359">
        <ele>126.4</ele>
        <time>2023-02-12T09:06:22Z</time>
      </trkpt>
      <trkpt lat="46.63018" lon="-0.29387">
        <ele>126.6</ele>
        <time>2023-02-12T09:06:29Z</time>
      </trkpt>
      <trkpt lat="46.63021" lon="-0.29394">
        <ele>126.6</ele>
        <time>2023-02-12T09:06:32Z</time>
      </trkpt>
      <trkpt lat="46.63021" lon="-0.29394">
        <ele>126.6</ele>
        <time>2023-02-12T09:06:33Z</time>
      </trkpt>
      <trkpt lat="46.63021" lon="-0.29394">
        <ele>126.6</ele>
        <time>2023-02-12T09:06:43Z</time>
      </trkpt>
      <trkpt lat="46.63022" lon="-0.29391">
        <ele>126.6</ele>
        <time>2023-02-12T09:06:49Z</time>
      </trkpt>
      <trkpt lat="46.63023" lon="-0.29393">
        <ele>126.6</ele>
        <time>2023-02-12T09:06:50Z</time>
      </trkpt>
      <trkpt lat="46.6303" lon="-0.29405">
        <ele>126.8</ele>
        <time>2023-02-12T09:06:55Z</time>
      </trkpt>
      <trkpt lat="46.63048" lon="-0.29427">
        <ele>127.6</ele>
        <time>2023-02-12T09:07:02Z</time>
      </trkpt>
      <trkpt lat="46.63063" lon="-0.29438">
        <ele>128.6</ele>
        <time>2023-02-12T09:07:07Z</time>
      </trkpt>
      <trkpt lat="46.63069" lon="-0.2944">
        <ele>129</ele>
        <time>2023-02-12T09:07:09Z</time>
      </trkpt>
      <trkpt lat="46.63092" lon="-0.29451">
        <ele>129.4</ele>
        <time>2023-02-12T09:07:15Z</time>
      </trkpt>
      <trkpt lat="46.63103" lon="-0.29469">
        <ele>129.6</ele>
        <time>2023-02-12T09:07:19Z</time>
      </trkpt>
      <trkpt lat="46.63104" lon="-0.29475">
        <ele>129.8</ele>
        <time>2023-02-12T09:07:20Z</time>
      </trkpt>
      <trkpt lat="46.63112" lon="-0.29506">
        <ele>130.8</ele>
        <time>2023-02-12T09:07:26Z</time>
      </trkpt>
      <trkpt lat="46.63114" lon="-0.29517">
        <ele>131.2</ele>
        <time>2023-02-12T09:07:28Z</time>
      </trkpt>
      <trkpt lat="46.63117" lon="-0.29538">
        <ele>132</ele>
        <time>2023-02-12T09:07:32Z</time>
      </trkpt>
      <trkpt lat="46.63115" lon="-0.29548">
        <ele>132.4</ele>
        <time>2023-02-12T09:07:34Z</time>
      </trkpt>
      <trkpt lat="46.63106" lon="-0.29567">
        <ele>132.4</ele>
        <time>2023-02-12T09:07:38Z</time>
      </trkpt>
      <trkpt lat="46.63093" lon="-0.29585">
        <ele>132.6</ele>
        <time>2023-02-12T09:07:42Z</time>
      </trkpt>
      <trkpt lat="46.63083" lon="-0.29597">
        <ele>133</ele>
        <time>2023-02-12T09:07:45Z</time>
      </trkpt>
      <trkpt lat="46.6308" lon="-0.29601">
        <ele>133.2</ele>
        <time>2023-02-12T09:07:46Z</time>
      </trkpt>
      <trkpt lat="46.6307" lon="-0.29618">
        <ele>134</ele>
        <time>2023-02-12T09:07:50Z</time>
      </trkpt>
      <trkpt lat="46.63068" lon="-0.29623">
        <ele>134.2</ele>
        <time>2023-02-12T09:07:51Z</time>
      </trkpt>
      <trkpt lat="46.63065" lon="-0.29627">
        <ele>134.4</ele>
        <time>2023-02-12T09:07:52Z</time>
      </trkpt>
      <trkpt lat="46.63061" lon="-0.29635">
        <ele>134.8</ele>
        <time>2023-02-12T09:07:54Z</time>
      </trkpt>
      <trkpt lat="46.63055" lon="-0.29645">
        <ele>135.2</ele>
        <time>2023-02-12T09:07:57Z</time>
      </trkpt>
      <trkpt lat="46.63054" lon="-0.29649">
        <ele>135.4</ele>
        <time>2023-02-12T09:07:58Z</time>
      </trkpt>
      <trkpt lat="46.63044" lon="-0.2966">
        <ele>136.6</ele>
        <time>2023-02-12T09:08:02Z</time>
      </trkpt>
      <trkpt lat="46.63025" lon="-0.29675">
        <ele>137.2</ele>
        <time>2023-02-12T09:08:07Z</time>
      </trkpt>
      <trkpt lat="46.63001" lon="-0.29699">
        <ele>137.6</ele>
        <time>2023-02-12T09:08:14Z</time>
      </trkpt>
      <trkpt lat="46.62987" lon="-0.2972">
        <ele>137.8</ele>
        <time>2023-02-12T09:08:19Z</time>
      </trkpt>
      <trkpt lat="46.62983" lon="-0.29722">
        <ele>137.6</ele>
        <time>2023-02-12T09:08:20Z</time>
      </trkpt>
      <trkpt lat="46.62952" lon="-0.2973">
        <ele>136.6</ele>
        <time>2023-02-12T09:08:26Z</time>
      </trkpt>
      <trkpt lat="46.62947" lon="-0.29731">
        <ele>136.4</ele>
        <time>2023-02-12T09:08:27Z</time>
      </trkpt>
      <trkpt lat="46.62914" lon="-0.29736">
        <ele>135.8</ele>
        <time>2023-02-12T09:08:32Z</time>
      </trkpt>
      <trkpt lat="46.62898" lon="-0.29738">
        <ele>135</ele>
        <time>2023-02-12T09:08:34Z</time>
      </trkpt>
      <trkpt lat="46.62875" lon="-0.29741">
        <ele>133.8</ele>
        <time>2023-02-12T09:08:37Z</time>
      </trkpt>
      <trkpt lat="46.62868" lon="-0.29742">
        <ele>133.6</ele>
        <time>2023-02-12T09:08:38Z</time>
      </trkpt>
      <trkpt lat="46.62856" lon="-0.29743">
        <ele>132.6</ele>
        <time>2023-02-12T09:08:40Z</time>
      </trkpt>
      <trkpt lat="46.62853" lon="-0.29741">
        <ele>132.4</ele>
        <time>2023-02-12T09:08:41Z</time>
      </trkpt>
      <trkpt lat="46.6285" lon="-0.29739">
        <ele>132.2</ele>
        <time>2023-02-12T09:08:42Z</time>
      </trkpt>
      <trkpt lat="46.62842" lon="-0.29736">
        <ele>132</ele>
        <time>2023-02-12T09:08:44Z</time>
      </trkpt>
      <trkpt lat="46.62833" lon="-0.29738">
        <ele>131.6</ele>
        <time>2023-02-12T09:08:46Z</time>
      </trkpt>
      <trkpt lat="46.62804" lon="-0.29751">
        <ele>130.6</ele>
        <time>2023-02-12T09:08:52Z</time>
      </trkpt>
      <trkpt lat="46.62799" lon="-0.29754">
        <ele>130.4</ele>
        <time>2023-02-12T09:08:53Z</time>
      </trkpt>
      <trkpt lat="46.62793" lon="-0.29757">
        <ele>130.4</ele>
        <time>2023-02-12T09:08:54Z</time>
      </trkpt>
      <trkpt lat="46.62782" lon="-0.29762">
        <ele>130</ele>
        <time>2023-02-12T09:08:56Z</time>
      </trkpt>
      <trkpt lat="46.62776" lon="-0.29765">
        <ele>129.8</ele>
        <time>2023-02-12T09:08:57Z</time>
      </trkpt>
      <trkpt lat="46.62749" lon="-0.2979">
        <ele>130</ele>
        <time>2023-02-12T09:09:02Z</time>
      </trkpt>
      <trkpt lat="46.62728" lon="-0.29812">
        <ele>130</ele>
        <time>2023-02-12T09:09:06Z</time>
      </trkpt>
      <trkpt lat="46.62724" lon="-0.29819">
        <ele>130</ele>
        <time>2023-02-12T09:09:07Z</time>
      </trkpt>
      <trkpt lat="46.62701" lon="-0.29855">
        <ele>130</ele>
        <time>2023-02-12T09:09:13Z</time>
      </trkpt>
      <trkpt lat="46.62698" lon="-0.29862">
        <ele>129.8</ele>
        <time>2023-02-12T09:09:14Z</time>
      </trkpt>
      <trkpt lat="46.62695" lon="-0.29868">
        <ele>129.8</ele>
        <time>2023-02-12T09:09:15Z</time>
      </trkpt>
      <trkpt lat="46.62686" lon="-0.29886">
        <ele>129.8</ele>
        <time>2023-02-12T09:09:18Z</time>
      </trkpt>
      <trkpt lat="46.62684" lon="-0.29892">
        <ele>129.8</ele>
        <time>2023-02-12T09:09:19Z</time>
      </trkpt>
      <trkpt lat="46.62684" lon="-0.29896">
        <ele>130</ele>
        <time>2023-02-12T09:09:20Z</time>
      </trkpt>
      <trkpt lat="46.62684" lon="-0.29908">
        <ele>130.6</ele>
        <time>2023-02-12T09:09:23Z</time>
      </trkpt>
      <trkpt lat="46.62683" lon="-0.29924">
        <ele>130.8</ele>
        <time>2023-02-12T09:09:26Z</time>
      </trkpt>
      <trkpt lat="46.62683" lon="-0.29935">
        <ele>131.2</ele>
        <time>2023-02-12T09:09:28Z</time>
      </trkpt>
      <trkpt lat="46.62682" lon="-0.29951">
        <ele>131.6</ele>
        <time>2023-02-12T09:09:31Z</time>
      </trkpt>
      <trkpt lat="46.62679" lon="-0.29972">
        <ele>132.8</ele>
        <time>2023-02-12T09:09:35Z</time>
      </trkpt>
      <trkpt lat="46.62678" lon="-0.29981">
        <ele>133.8</ele>
        <time>2023-02-12T09:09:37Z</time>
      </trkpt>
      <trkpt lat="46.62677" lon="-0.29985">
        <ele>134.2</ele>
        <time>2023-02-12T09:09:38Z</time>
      </trkpt>
      <trkpt lat="46.62673" lon="-0.30004">
        <ele>135.4</ele>
        <time>2023-02-12T09:09:43Z</time>
      </trkpt>
      <trkpt lat="46.62672" lon="-0.30007">
        <ele>135.6</ele>
        <time>2023-02-12T09:09:44Z</time>
      </trkpt>
      <trkpt lat="46.6267" lon="-0.30017">
        <ele>136.4</ele>
        <time>2023-02-12T09:09:48Z</time>
      </trkpt>
      <trkpt lat="46.62669" lon="-0.30019">
        <ele>136.4</ele>
        <time>2023-02-12T09:09:49Z</time>
      </trkpt>
      <trkpt lat="46.62661" lon="-0.30035">
        <ele>136</ele>
        <time>2023-02-12T09:09:53Z</time>
      </trkpt>
      <trkpt lat="46.62651" lon="-0.30057">
        <ele>135</ele>
        <time>2023-02-12T09:09:57Z</time>
      </trkpt>
      <trkpt lat="46.62645" lon="-0.30065">
        <ele>134.2</ele>
        <time>2023-02-12T09:09:58Z</time>
      </trkpt>
      <trkpt lat="46.62639" lon="-0.30073">
        <ele>133.8</ele>
        <time>2023-02-12T09:09:59Z</time>
      </trkpt>
      <trkpt lat="46.6262" lon="-0.30097">
        <ele>132.6</ele>
        <time>2023-02-12T09:10:02Z</time>
      </trkpt>
      <trkpt lat="46.62609" lon="-0.30113">
        <ele>132</ele>
        <time>2023-02-12T09:10:04Z</time>
      </trkpt>
      <trkpt lat="46.62598" lon="-0.30128">
        <ele>131.6</ele>
        <time>2023-02-12T09:10:06Z</time>
      </trkpt>
      <trkpt lat="46.62584" lon="-0.30146">
        <ele>131</ele>
        <time>2023-02-12T09:10:09Z</time>
      </trkpt>
      <trkpt lat="46.62556" lon="-0.30176">
        <ele>131.4</ele>
        <time>2023-02-12T09:10:16Z</time>
      </trkpt>
      <trkpt lat="46.62552" lon="-0.3018">
        <ele>131.4</ele>
        <time>2023-02-12T09:10:17Z</time>
      </trkpt>
      <trkpt lat="46.62536" lon="-0.30199">
        <ele>132.2</ele>
        <time>2023-02-12T09:10:21Z</time>
      </trkpt>
      <trkpt lat="46.62517" lon="-0.30231">
        <ele>131.4</ele>
        <time>2023-02-12T09:10:27Z</time>
      </trkpt>
      <trkpt lat="46.62515" lon="-0.30237">
        <ele>131.4</ele>
        <time>2023-02-12T09:10:28Z</time>
      </trkpt>
      <trkpt lat="46.62515" lon="-0.30245">
        <ele>132</ele>
        <time>2023-02-12T09:10:30Z</time>
      </trkpt>
      <trkpt lat="46.62516" lon="-0.30249">
        <ele>132.8</ele>
        <time>2023-02-12T09:10:32Z</time>
      </trkpt>
      <trkpt lat="46.62518" lon="-0.30257">
        <ele>133.6</ele>
        <time>2023-02-12T09:10:35Z</time>
      </trkpt>
      <trkpt lat="46.62518" lon="-0.3026">
        <ele>133.8</ele>
        <time>2023-02-12T09:10:36Z</time>
      </trkpt>
      <trkpt lat="46.62517" lon="-0.30267">
        <ele>135</ele>
        <time>2023-02-12T09:10:39Z</time>
      </trkpt>
      <trkpt lat="46.62516" lon="-0.30273">
        <ele>135.6</ele>
        <time>2023-02-12T09:10:41Z</time>
      </trkpt>
      <trkpt lat="46.62515" lon="-0.30277">
        <ele>136</ele>
        <time>2023-02-12T09:10:42Z</time>
      </trkpt>
      <trkpt lat="46.62511" lon="-0.30286">
        <ele>137</ele>
        <time>2023-02-12T09:10:45Z</time>
      </trkpt>
      <trkpt lat="46.62509" lon="-0.30288">
        <ele>137</ele>
        <time>2023-02-12T09:10:46Z</time>
      </trkpt>
      <trkpt lat="46.62491" lon="-0.30297">
        <ele>136.4</ele>
        <time>2023-02-12T09:10:50Z</time>
      </trkpt>
      <trkpt lat="46.62479" lon="-0.30305">
        <ele>135.8</ele>
        <time>2023-02-12T09:10:52Z</time>
      </trkpt>
      <trkpt lat="46.62474" lon="-0.3031">
        <ele>135.2</ele>
        <time>2023-02-12T09:10:53Z</time>
      </trkpt>
      <trkpt lat="46.62469" lon="-0.30315">
        <ele>134.6</ele>
        <time>2023-02-12T09:10:54Z</time>
      </trkpt>
      <trkpt lat="46.62464" lon="-0.3032">
        <ele>134.2</ele>
        <time>2023-02-12T09:10:55Z</time>
      </trkpt>
      <trkpt lat="46.62459" lon="-0.30327">
        <ele>132.8</ele>
        <time>2023-02-12T09:10:56Z</time>
      </trkpt>
      <trkpt lat="46.62451" lon="-0.30342">
        <ele>131</ele>
        <time>2023-02-12T09:10:58Z</time>
      </trkpt>
      <trkpt lat="46.62447" lon="-0.3035">
        <ele>130.4</ele>
        <time>2023-02-12T09:10:59Z</time>
      </trkpt>
      <trkpt lat="46.6244" lon="-0.30366">
        <ele>130</ele>
        <time>2023-02-12T09:11:01Z</time>
      </trkpt>
      <trkpt lat="46.62434" lon="-0.30389">
        <ele>129.8</ele>
        <time>2023-02-12T09:11:04Z</time>
      </trkpt>
      <trkpt lat="46.6243" lon="-0.30437">
        <ele>130.2</ele>
        <time>2023-02-12T09:11:10Z</time>
      </trkpt>
      <trkpt lat="46.62432" lon="-0.30493">
        <ele>130.8</ele>
        <time>2023-02-12T09:11:17Z</time>
      </trkpt>
      <trkpt lat="46.62434" lon="-0.305">
        <ele>131</ele>
        <time>2023-02-12T09:11:18Z</time>
      </trkpt>
      <trkpt lat="46.62436" lon="-0.30507">
        <ele>131</ele>
        <time>2023-02-12T09:11:19Z</time>
      </trkpt>
      <trkpt lat="46.62439" lon="-0.30513">
        <ele>131.2</ele>
        <time>2023-02-12T09:11:20Z</time>
      </trkpt>
      <trkpt lat="46.62443" lon="-0.30517">
        <ele>131.4</ele>
        <time>2023-02-12T09:11:21Z</time>
      </trkpt>
      <trkpt lat="46.62448" lon="-0.3052">
        <ele>131.6</ele>
        <time>2023-02-12T09:11:22Z</time>
      </trkpt>
      <trkpt lat="46.62457" lon="-0.30523">
        <ele>131.8</ele>
        <time>2023-02-12T09:11:24Z</time>
      </trkpt>
      <trkpt lat="46.6246" lon="-0.30526">
        <ele>131.8</ele>
        <time>2023-02-12T09:11:25Z</time>
      </trkpt>
      <trkpt lat="46.62462" lon="-0.3053">
        <ele>131.8</ele>
        <time>2023-02-12T09:11:26Z</time>
      </trkpt>
      <trkpt lat="46.62463" lon="-0.30538">
        <ele>131.6</ele>
        <time>2023-02-12T09:11:28Z</time>
      </trkpt>
      <trkpt lat="46.62465" lon="-0.3056">
        <ele>132</ele>
        <time>2023-02-12T09:11:33Z</time>
      </trkpt>
      <trkpt lat="46.62466" lon="-0.3057">
        <ele>132.6</ele>
        <time>2023-02-12T09:11:35Z</time>
      </trkpt>
      <trkpt lat="46.62465" lon="-0.30583">
        <ele>133.4</ele>
        <time>2023-02-12T09:11:37Z</time>
      </trkpt>
      <trkpt lat="46.62464" lon="-0.306">
        <ele>134</ele>
        <time>2023-02-12T09:11:40Z</time>
      </trkpt>
      <trkpt lat="46.62462" lon="-0.30621">
        <ele>134.6</ele>
        <time>2023-02-12T09:11:44Z</time>
      </trkpt>
      <trkpt lat="46.62461" lon="-0.30629">
        <ele>134.8</ele>
        <time>2023-02-12T09:11:46Z</time>
      </trkpt>
      <trkpt lat="46.6246" lon="-0.30646">
        <ele>135.6</ele>
        <time>2023-02-12T09:11:50Z</time>
      </trkpt>
      <trkpt lat="46.6246" lon="-0.30658">
        <ele>136.6</ele>
        <time>2023-02-12T09:11:53Z</time>
      </trkpt>
      <trkpt lat="46.62461" lon="-0.30662">
        <ele>136.8</ele>
        <time>2023-02-12T09:11:54Z</time>
      </trkpt>
      <trkpt lat="46.62469" lon="-0.30674">
        <ele>138</ele>
        <time>2023-02-12T09:11:58Z</time>
      </trkpt>
      <trkpt lat="46.62487" lon="-0.30682">
        <ele>138.8</ele>
        <time>2023-02-12T09:12:04Z</time>
      </trkpt>
      <trkpt lat="46.62503" lon="-0.30682">
        <ele>139</ele>
        <time>2023-02-12T09:12:08Z</time>
      </trkpt>
      <trkpt lat="46.62524" lon="-0.30683">
        <ele>139.4</ele>
        <time>2023-02-12T09:12:13Z</time>
      </trkpt>
      <trkpt lat="46.62559" lon="-0.30688">
        <ele>139.6</ele>
        <time>2023-02-12T09:12:21Z</time>
      </trkpt>
      <trkpt lat="46.62593" lon="-0.30703">
        <ele>140</ele>
        <time>2023-02-12T09:12:29Z</time>
      </trkpt>
      <trkpt lat="46.62631" lon="-0.30722">
        <ele>141.2</ele>
        <time>2023-02-12T09:12:38Z</time>
      </trkpt>
      <trkpt lat="46.62639" lon="-0.30727">
        <ele>141.4</ele>
        <time>2023-02-12T09:12:40Z</time>
      </trkpt>
      <trkpt lat="46.62657" lon="-0.30736">
        <ele>142.4</ele>
        <time>2023-02-12T09:12:45Z</time>
      </trkpt>
      <trkpt lat="46.62666" lon="-0.30741">
        <ele>142.8</ele>
        <time>2023-02-12T09:12:48Z</time>
      </trkpt>
      <trkpt lat="46.62679" lon="-0.30748">
        <ele>143.4</ele>
        <time>2023-02-12T09:12:52Z</time>
      </trkpt>
      <trkpt lat="46.62693" lon="-0.30756">
        <ele>144.2</ele>
        <time>2023-02-12T09:12:56Z</time>
      </trkpt>
      <trkpt lat="46.62714" lon="-0.30767">
        <ele>144.8</ele>
        <time>2023-02-12T09:13:01Z</time>
      </trkpt>
      <trkpt lat="46.62727" lon="-0.30772">
        <ele>145</ele>
        <time>2023-02-12T09:13:04Z</time>
      </trkpt>
      <trkpt lat="46.62755" lon="-0.30783">
        <ele>145.4</ele>
        <time>2023-02-12T09:13:11Z</time>
      </trkpt>
      <trkpt lat="46.62763" lon="-0.30786">
        <ele>145.8</ele>
        <time>2023-02-12T09:13:13Z</time>
      </trkpt>
      <trkpt lat="46.62789" lon="-0.30792">
        <ele>146.4</ele>
        <time>2023-02-12T09:13:20Z</time>
      </trkpt>
      <trkpt lat="46.62799" lon="-0.30793">
        <ele>146.8</ele>
        <time>2023-02-12T09:13:23Z</time>
      </trkpt>
      <trkpt lat="46.62808" lon="-0.30796">
        <ele>147</ele>
        <time>2023-02-12T09:13:26Z</time>
      </trkpt>
      <trkpt lat="46.62828" lon="-0.30801">
        <ele>148</ele>
        <time>2023-02-12T09:13:32Z</time>
      </trkpt>
      <trkpt lat="46.62831" lon="-0.30802">
        <ele>148</ele>
        <time>2023-02-12T09:13:33Z</time>
      </trkpt>
      <trkpt lat="46.62844" lon="-0.30802">
        <ele>149</ele>
        <time>2023-02-12T09:13:37Z</time>
      </trkpt>
      <trkpt lat="46.62853" lon="-0.30802">
        <ele>149.6</ele>
        <time>2023-02-12T09:13:40Z</time>
      </trkpt>
      <trkpt lat="46.62864" lon="-0.30802">
        <ele>150.2</ele>
        <time>2023-02-12T09:13:44Z</time>
      </trkpt>
      <trkpt lat="46.62875" lon="-0.30802">
        <ele>151</ele>
        <time>2023-02-12T09:13:48Z</time>
      </trkpt>
      <trkpt lat="46.62883" lon="-0.30802">
        <ele>151.4</ele>
        <time>2023-02-12T09:13:51Z</time>
      </trkpt>
      <trkpt lat="46.62899" lon="-0.30802">
        <ele>152.4</ele>
        <time>2023-02-12T09:13:57Z</time>
      </trkpt>
      <trkpt lat="46.62904" lon="-0.30801">
        <ele>152.8</ele>
        <time>2023-02-12T09:13:59Z</time>
      </trkpt>
      <trkpt lat="46.62923" lon="-0.30801">
        <ele>153.8</ele>
        <time>2023-02-12T09:14:06Z</time>
      </trkpt>
      <trkpt lat="46.62926" lon="-0.30801">
        <ele>154</ele>
        <time>2023-02-12T09:14:07Z</time>
      </trkpt>
      <trkpt lat="46.62934" lon="-0.30801">
        <ele>154.8</ele>
        <time>2023-02-12T09:14:10Z</time>
      </trkpt>
      <trkpt lat="46.62945" lon="-0.30802">
        <ele>155.8</ele>
        <time>2023-02-12T09:14:14Z</time>
      </trkpt>
      <trkpt lat="46.62956" lon="-0.30803">
        <ele>157</ele>
        <time>2023-02-12T09:14:18Z</time>
      </trkpt>
      <trkpt lat="46.62961" lon="-0.30804">
        <ele>157.2</ele>
        <time>2023-02-12T09:14:20Z</time>
      </trkpt>
      <trkpt lat="46.62972" lon="-0.30803">
        <ele>158</ele>
        <time>2023-02-12T09:14:25Z</time>
      </trkpt>
      <trkpt lat="46.62977" lon="-0.30802">
        <ele>158.8</ele>
        <time>2023-02-12T09:14:27Z</time>
      </trkpt>
      <trkpt lat="46.62983" lon="-0.30799">
        <ele>159</ele>
        <time>2023-02-12T09:14:30Z</time>
      </trkpt>
      <trkpt lat="46.62993" lon="-0.30797">
        <ele>159.6</ele>
        <time>2023-02-12T09:14:35Z</time>
      </trkpt>
      <trkpt lat="46.63" lon="-0.30795">
        <ele>160.2</ele>
        <time>2023-02-12T09:14:39Z</time>
      </trkpt>
      <trkpt lat="46.63004" lon="-0.30794">
        <ele>160.6</ele>
        <time>2023-02-12T09:14:41Z</time>
      </trkpt>
      <trkpt lat="46.63011" lon="-0.30792">
        <ele>161.2</ele>
        <time>2023-02-12T09:14:45Z</time>
      </trkpt>
      <trkpt lat="46.63017" lon="-0.30791">
        <ele>161.6</ele>
        <time>2023-02-12T09:14:48Z</time>
      </trkpt>
      <trkpt lat="46.6303" lon="-0.3079">
        <ele>162.2</ele>
        <time>2023-02-12T09:14:55Z</time>
      </trkpt>
      <trkpt lat="46.63033" lon="-0.3079">
        <ele>162.6</ele>
        <time>2023-02-12T09:14:57Z</time>
      </trkpt>
      <trkpt lat="46.63043" lon="-0.30789">
        <ele>163.4</ele>
        <time>2023-02-12T09:15:01Z</time>
      </trkpt>
      <trkpt lat="46.63045" lon="-0.30788">
        <ele>163.6</ele>
        <time>2023-02-12T09:15:03Z</time>
      </trkpt>
      <trkpt lat="46.63064" lon="-0.30789">
        <ele>164.4</ele>
        <time>2023-02-12T09:15:11Z</time>
      </trkpt>
      <trkpt lat="46.63066" lon="-0.3079">
        <ele>164.6</ele>
        <time>2023-02-12T09:15:12Z</time>
      </trkpt>
      <trkpt lat="46.63068" lon="-0.3079">
        <ele>164.8</ele>
        <time>2023-02-12T09:15:13Z</time>
      </trkpt>
      <trkpt lat="46.63078" lon="-0.30791">
        <ele>165.6</ele>
        <time>2023-02-12T09:15:17Z</time>
      </trkpt>
      <trkpt lat="46.63085" lon="-0.3079">
        <ele>166</ele>
        <time>2023-02-12T09:15:20Z</time>
      </trkpt>
      <trkpt lat="46.63094" lon="-0.30791">
        <ele>166.6</ele>
        <time>2023-02-12T09:15:24Z</time>
      </trkpt>
      <trkpt lat="46.63105" lon="-0.30791">
        <ele>167.2</ele>
        <time>2023-02-12T09:15:29Z</time>
      </trkpt>
      <trkpt lat="46.6312" lon="-0.30791">
        <ele>167.8</ele>
        <time>2023-02-12T09:15:35Z</time>
      </trkpt>
      <trkpt lat="46.63125" lon="-0.30791">
        <ele>168.2</ele>
        <time>2023-02-12T09:15:37Z</time>
      </trkpt>
      <trkpt lat="46.63131" lon="-0.30789">
        <ele>168.8</ele>
        <time>2023-02-12T09:15:40Z</time>
      </trkpt>
      <trkpt lat="46.63135" lon="-0.30792">
        <ele>169</ele>
        <time>2023-02-12T09:15:42Z</time>
      </trkpt>
      <trkpt lat="46.63142" lon="-0.30812">
        <ele>169.4</ele>
        <time>2023-02-12T09:15:47Z</time>
      </trkpt>
      <trkpt lat="46.6315" lon="-0.30842">
        <ele>169.8</ele>
        <time>2023-02-12T09:15:53Z</time>
      </trkpt>
      <trkpt lat="46.63151" lon="-0.30847">
        <ele>169.8</ele>
        <time>2023-02-12T09:15:54Z</time>
      </trkpt>
      <trkpt lat="46.63166" lon="-0.30884">
        <ele>170.8</ele>
        <time>2023-02-12T09:16:01Z</time>
      </trkpt>
      <trkpt lat="46.63181" lon="-0.30926">
        <ele>171.6</ele>
        <time>2023-02-12T09:16:09Z</time>
      </trkpt>
      <trkpt lat="46.63189" lon="-0.30945">
        <ele>172</ele>
        <time>2023-02-12T09:16:13Z</time>
      </trkpt>
      <trkpt lat="46.63196" lon="-0.30959">
        <ele>172.2</ele>
        <time>2023-02-12T09:16:16Z</time>
      </trkpt>
      <trkpt lat="46.63219" lon="-0.30995">
        <ele>172.8</ele>
        <time>2023-02-12T09:16:24Z</time>
      </trkpt>
      <trkpt lat="46.63229" lon="-0.31008">
        <ele>173</ele>
        <time>2023-02-12T09:16:27Z</time>
      </trkpt>
      <trkpt lat="46.63244" lon="-0.31028">
        <ele>173.4</ele>
        <time>2023-02-12T09:16:31Z</time>
      </trkpt>
      <trkpt lat="46.63252" lon="-0.31027">
        <ele>173.6</ele>
        <time>2023-02-12T09:16:33Z</time>
      </trkpt>
      <trkpt lat="46.63266" lon="-0.31007">
        <ele>173.4</ele>
        <time>2023-02-12T09:16:37Z</time>
      </trkpt>
      <trkpt lat="46.63276" lon="-0.31">
        <ele>172.8</ele>
        <time>2023-02-12T09:16:39Z</time>
      </trkpt>
      <trkpt lat="46.63282" lon="-0.31001">
        <ele>172.4</ele>
        <time>2023-02-12T09:16:40Z</time>
      </trkpt>
      <trkpt lat="46.63287" lon="-0.31003">
        <ele>172.2</ele>
        <time>2023-02-12T09:16:41Z</time>
      </trkpt>
      <trkpt lat="46.63296" lon="-0.31013">
        <ele>172</ele>
        <time>2023-02-12T09:16:43Z</time>
      </trkpt>
      <trkpt lat="46.63303" lon="-0.31024">
        <ele>171.8</ele>
        <time>2023-02-12T09:16:45Z</time>
      </trkpt>
      <trkpt lat="46.63313" lon="-0.31033">
        <ele>171.6</ele>
        <time>2023-02-12T09:16:47Z</time>
      </trkpt>
      <trkpt lat="46.63318" lon="-0.31036">
        <ele>171.6</ele>
        <time>2023-02-12T09:16:48Z</time>
      </trkpt>
      <trkpt lat="46.63346" lon="-0.31052">
        <ele>172.4</ele>
        <time>2023-02-12T09:16:54Z</time>
      </trkpt>
      <trkpt lat="46.63378" lon="-0.31069">
        <ele>172.4</ele>
        <time>2023-02-12T09:17:00Z</time>
      </trkpt>
      <trkpt lat="46.63393" lon="-0.3108">
        <ele>172</ele>
        <time>2023-02-12T09:17:03Z</time>
      </trkpt>
      <trkpt lat="46.634" lon="-0.3109">
        <ele>172</ele>
        <time>2023-02-12T09:17:05Z</time>
      </trkpt>
      <trkpt lat="46.63403" lon="-0.31095">
        <ele>172</ele>
        <time>2023-02-12T09:17:06Z</time>
      </trkpt>
      <trkpt lat="46.63414" lon="-0.3112">
        <ele>173.4</ele>
        <time>2023-02-12T09:17:11Z</time>
      </trkpt>
      <trkpt lat="46.63426" lon="-0.31141">
        <ele>174.4</ele>
        <time>2023-02-12T09:17:17Z</time>
      </trkpt>
      <trkpt lat="46.63427" lon="-0.31144">
        <ele>174.4</ele>
        <time>2023-02-12T09:17:18Z</time>
      </trkpt>
      <trkpt lat="46.63434" lon="-0.3116">
        <ele>175</ele>
        <time>2023-02-12T09:17:24Z</time>
      </trkpt>
      <trkpt lat="46.6344" lon="-0.31171">
        <ele>175.6</ele>
        <time>2023-02-12T09:17:29Z</time>
      </trkpt>
      <trkpt lat="46.63445" lon="-0.31183">
        <ele>176.2</ele>
        <time>2023-02-12T09:17:33Z</time>
      </trkpt>
      <trkpt lat="46.6345" lon="-0.31192">
        <ele>176.8</ele>
        <time>2023-02-12T09:17:36Z</time>
      </trkpt>
      <trkpt lat="46.63459" lon="-0.31208">
        <ele>177.4</ele>
        <time>2023-02-12T09:17:41Z</time>
      </trkpt>
      <trkpt lat="46.63465" lon="-0.31218">
        <ele>177.8</ele>
        <time>2023-02-12T09:17:44Z</time>
      </trkpt>
      <trkpt lat="46.63479" lon="-0.31235">
        <ele>178.6</ele>
        <time>2023-02-12T09:17:51Z</time>
      </trkpt>
      <trkpt lat="46.63483" lon="-0.31239">
        <ele>179</ele>
        <time>2023-02-12T09:17:53Z</time>
      </trkpt>
      <trkpt lat="46.63497" lon="-0.31251">
        <ele>179.8</ele>
        <time>2023-02-12T09:17:59Z</time>
      </trkpt>
      <trkpt lat="46.63503" lon="-0.31254">
        <ele>180</ele>
        <time>2023-02-12T09:18:01Z</time>
      </trkpt>
      <trkpt lat="46.63519" lon="-0.31266">
        <ele>181</ele>
        <time>2023-02-12T09:18:07Z</time>
      </trkpt>
      <trkpt lat="46.63522" lon="-0.31268">
        <ele>181.2</ele>
        <time>2023-02-12T09:18:08Z</time>
      </trkpt>
      <trkpt lat="46.63539" lon="-0.31284">
        <ele>181.2</ele>
        <time>2023-02-12T09:18:15Z</time>
      </trkpt>
      <trkpt lat="46.63538" lon="-0.31302">
        <ele>181.4</ele>
        <time>2023-02-12T09:18:19Z</time>
      </trkpt>
      <trkpt lat="46.63527" lon="-0.31329">
        <ele>181.2</ele>
        <time>2023-02-12T09:18:24Z</time>
      </trkpt>
      <trkpt lat="46.63507" lon="-0.31387">
        <ele>181</ele>
        <time>2023-02-12T09:18:33Z</time>
      </trkpt>
      <trkpt lat="46.63489" lon="-0.31447">
        <ele>180.2</ele>
        <time>2023-02-12T09:18:41Z</time>
      </trkpt>
      <trkpt lat="46.63479" lon="-0.31493">
        <ele>180.4</ele>
        <time>2023-02-12T09:18:47Z</time>
      </trkpt>
      <trkpt lat="46.63467" lon="-0.3156">
        <ele>180.6</ele>
        <time>2023-02-12T09:18:55Z</time>
      </trkpt>
      <trkpt lat="46.63453" lon="-0.31623">
        <ele>180.8</ele>
        <time>2023-02-12T09:19:03Z</time>
      </trkpt>
      <trkpt lat="46.63437" lon="-0.31669">
        <ele>181</ele>
        <time>2023-02-12T09:19:09Z</time>
      </trkpt>
      <trkpt lat="46.63435" lon="-0.31677">
        <ele>181</ele>
        <time>2023-02-12T09:19:10Z</time>
      </trkpt>
      <trkpt lat="46.63427" lon="-0.31729">
        <ele>181.6</ele>
        <time>2023-02-12T09:19:16Z</time>
      </trkpt>
      <trkpt lat="46.6342" lon="-0.31798">
        <ele>182</ele>
        <time>2023-02-12T09:19:24Z</time>
      </trkpt>
      <trkpt lat="46.63417" lon="-0.31822">
        <ele>182.2</ele>
        <time>2023-02-12T09:19:27Z</time>
      </trkpt>
      <trkpt lat="46.63411" lon="-0.31871">
        <ele>182</ele>
        <time>2023-02-12T09:19:33Z</time>
      </trkpt>
      <trkpt lat="46.63404" lon="-0.31935">
        <ele>181.4</ele>
        <time>2023-02-12T09:19:40Z</time>
      </trkpt>
      <trkpt lat="46.634" lon="-0.31995">
        <ele>181.4</ele>
        <time>2023-02-12T09:19:47Z</time>
      </trkpt>
      <trkpt lat="46.63397" lon="-0.32046">
        <ele>181.6</ele>
        <time>2023-02-12T09:19:53Z</time>
      </trkpt>
      <trkpt lat="46.63394" lon="-0.32113">
        <ele>181.6</ele>
        <time>2023-02-12T09:20:01Z</time>
      </trkpt>
      <trkpt lat="46.63394" lon="-0.32173">
        <ele>182</ele>
        <time>2023-02-12T09:20:09Z</time>
      </trkpt>
      <trkpt lat="46.63396" lon="-0.32214">
        <ele>183.2</ele>
        <time>2023-02-12T09:20:15Z</time>
      </trkpt>
      <trkpt lat="46.63397" lon="-0.32229">
        <ele>183.6</ele>
        <time>2023-02-12T09:20:17Z</time>
      </trkpt>
      <trkpt lat="46.63405" lon="-0.32291">
        <ele>183.8</ele>
        <time>2023-02-12T09:20:25Z</time>
      </trkpt>
      <trkpt lat="46.63412" lon="-0.32329">
        <ele>184.2</ele>
        <time>2023-02-12T09:20:30Z</time>
      </trkpt>
      <trkpt lat="46.63416" lon="-0.32359">
        <ele>184.8</ele>
        <time>2023-02-12T09:20:34Z</time>
      </trkpt>
      <trkpt lat="46.63417" lon="-0.32366">
        <ele>185</ele>
        <time>2023-02-12T09:20:35Z</time>
      </trkpt>
      <trkpt lat="46.63422" lon="-0.32401">
        <ele>185</ele>
        <time>2023-02-12T09:20:40Z</time>
      </trkpt>
      <trkpt lat="46.63425" lon="-0.3242">
        <ele>185.2</ele>
        <time>2023-02-12T09:20:43Z</time>
      </trkpt>
      <trkpt lat="46.63428" lon="-0.32437">
        <ele>185.4</ele>
        <time>2023-02-12T09:20:46Z</time>
      </trkpt>
      <trkpt lat="46.63428" lon="-0.32443">
        <ele>185.4</ele>
        <time>2023-02-12T09:20:47Z</time>
      </trkpt>
      <trkpt lat="46.63434" lon="-0.32486">
        <ele>186.6</ele>
        <time>2023-02-12T09:20:55Z</time>
      </trkpt>
      <trkpt lat="46.63439" lon="-0.32508">
        <ele>187.8</ele>
        <time>2023-02-12T09:21:00Z</time>
      </trkpt>
      <trkpt lat="46.63439" lon="-0.32513">
        <ele>188</ele>
        <time>2023-02-12T09:21:01Z</time>
      </trkpt>
      <trkpt lat="46.63442" lon="-0.32528">
        <ele>188.4</ele>
        <time>2023-02-12T09:21:04Z</time>
      </trkpt>
      <trkpt lat="46.63444" lon="-0.32546">
        <ele>188.6</ele>
        <time>2023-02-12T09:21:07Z</time>
      </trkpt>
      <trkpt lat="46.63446" lon="-0.32591">
        <ele>188.4</ele>
        <time>2023-02-12T09:21:13Z</time>
      </trkpt>
      <trkpt lat="46.63443" lon="-0.32663">
        <ele>187</ele>
        <time>2023-02-12T09:21:21Z</time>
      </trkpt>
      <trkpt lat="46.63443" lon="-0.32673">
        <ele>186.8</ele>
        <time>2023-02-12T09:21:22Z</time>
      </trkpt>
      <trkpt lat="46.63445" lon="-0.32694">
        <ele>186.4</ele>
        <time>2023-02-12T09:21:24Z</time>
      </trkpt>
      <trkpt lat="46.63448" lon="-0.32704">
        <ele>186</ele>
        <time>2023-02-12T09:21:25Z</time>
      </trkpt>
      <trkpt lat="46.63451" lon="-0.32715">
        <ele>185.6</ele>
        <time>2023-02-12T09:21:26Z</time>
      </trkpt>
      <trkpt lat="46.63462" lon="-0.32746">
        <ele>185</ele>
        <time>2023-02-12T09:21:29Z</time>
      </trkpt>
      <trkpt lat="46.63467" lon="-0.32755">
        <ele>184.8</ele>
        <time>2023-02-12T09:21:30Z</time>
      </trkpt>
      <trkpt lat="46.63472" lon="-0.32764">
        <ele>184.6</ele>
        <time>2023-02-12T09:21:31Z</time>
      </trkpt>
      <trkpt lat="46.63486" lon="-0.32793">
        <ele>184</ele>
        <time>2023-02-12T09:21:34Z</time>
      </trkpt>
      <trkpt lat="46.63493" lon="-0.32814">
        <ele>183.8</ele>
        <time>2023-02-12T09:21:36Z</time>
      </trkpt>
      <trkpt lat="46.63499" lon="-0.32835">
        <ele>183.2</ele>
        <time>2023-02-12T09:21:38Z</time>
      </trkpt>
      <trkpt lat="46.63502" lon="-0.32857">
        <ele>183</ele>
        <time>2023-02-12T09:21:40Z</time>
      </trkpt>
      <trkpt lat="46.63505" lon="-0.32917">
        <ele>182.6</ele>
        <time>2023-02-12T09:21:46Z</time>
      </trkpt>
      <trkpt lat="46.63506" lon="-0.32944">
        <ele>182.2</ele>
        <time>2023-02-12T09:21:49Z</time>
      </trkpt>
      <trkpt lat="46.63506" lon="-0.3297">
        <ele>182.2</ele>
        <time>2023-02-12T09:21:52Z</time>
      </trkpt>
      <trkpt lat="46.63506" lon="-0.33019">
        <ele>182.6</ele>
        <time>2023-02-12T09:21:58Z</time>
      </trkpt>
      <trkpt lat="46.63502" lon="-0.33071">
        <ele>182.4</ele>
        <time>2023-02-12T09:22:05Z</time>
      </trkpt>
      <trkpt lat="46.63501" lon="-0.33121">
        <ele>182.6</ele>
        <time>2023-02-12T09:22:12Z</time>
      </trkpt>
      <trkpt lat="46.635" lon="-0.33151">
        <ele>183.2</ele>
        <time>2023-02-12T09:22:16Z</time>
      </trkpt>
      <trkpt lat="46.635" lon="-0.3318">
        <ele>183.2</ele>
        <time>2023-02-12T09:22:20Z</time>
      </trkpt>
      <trkpt lat="46.63499" lon="-0.33202">
        <ele>183.2</ele>
        <time>2023-02-12T09:22:23Z</time>
      </trkpt>
      <trkpt lat="46.63496" lon="-0.3323">
        <ele>183.4</ele>
        <time>2023-02-12T09:22:27Z</time>
      </trkpt>
      <trkpt lat="46.63494" lon="-0.33274">
        <ele>184.2</ele>
        <time>2023-02-12T09:22:34Z</time>
      </trkpt>
      <trkpt lat="46.63495" lon="-0.33285">
        <ele>184.4</ele>
        <time>2023-02-12T09:22:36Z</time>
      </trkpt>
      <trkpt lat="46.63495" lon="-0.33312">
        <ele>184.6</ele>
        <time>2023-02-12T09:22:41Z</time>
      </trkpt>
      <trkpt lat="46.63495" lon="-0.33347">
        <ele>185.2</ele>
        <time>2023-02-12T09:22:48Z</time>
      </trkpt>
      <trkpt lat="46.63496" lon="-0.33378">
        <ele>185.6</ele>
        <time>2023-02-12T09:22:54Z</time>
      </trkpt>
      <trkpt lat="46.63495" lon="-0.33382">
        <ele>185.6</ele>
        <time>2023-02-12T09:22:55Z</time>
      </trkpt>
      <trkpt lat="46.63496" lon="-0.33404">
        <ele>186.4</ele>
        <time>2023-02-12T09:23:01Z</time>
      </trkpt>
      <trkpt lat="46.63497" lon="-0.33407">
        <ele>186.6</ele>
        <time>2023-02-12T09:23:02Z</time>
      </trkpt>
      <trkpt lat="46.63498" lon="-0.33424">
        <ele>187</ele>
        <time>2023-02-12T09:23:07Z</time>
      </trkpt>
      <trkpt lat="46.63501" lon="-0.33443">
        <ele>187.6</ele>
        <time>2023-02-12T09:23:13Z</time>
      </trkpt>
      <trkpt lat="46.63501" lon="-0.33446">
        <ele>187.6</ele>
        <time>2023-02-12T09:23:14Z</time>
      </trkpt>
      <trkpt lat="46.63503" lon="-0.33472">
        <ele>188.4</ele>
        <time>2023-02-12T09:23:22Z</time>
      </trkpt>
      <trkpt lat="46.63504" lon="-0.33479">
        <ele>188.8</ele>
        <time>2023-02-12T09:23:24Z</time>
      </trkpt>
      <trkpt lat="46.63506" lon="-0.33501">
        <ele>189.8</ele>
        <time>2023-02-12T09:23:30Z</time>
      </trkpt>
      <trkpt lat="46.63508" lon="-0.33519">
        <ele>191</ele>
        <time>2023-02-12T09:23:36Z</time>
      </trkpt>
      <trkpt lat="46.63508" lon="-0.33521">
        <ele>191.2</ele>
        <time>2023-02-12T09:23:37Z</time>
      </trkpt>
      <trkpt lat="46.63509" lon="-0.33537">
        <ele>192</ele>
        <time>2023-02-12T09:23:42Z</time>
      </trkpt>
      <trkpt lat="46.63509" lon="-0.33539">
        <ele>192.2</ele>
        <time>2023-02-12T09:23:43Z</time>
      </trkpt>
      <trkpt lat="46.63509" lon="-0.33549">
        <ele>193.2</ele>
        <time>2023-02-12T09:23:46Z</time>
      </trkpt>
      <trkpt lat="46.63509" lon="-0.33559">
        <ele>194</ele>
        <time>2023-02-12T09:23:49Z</time>
      </trkpt>
      <trkpt lat="46.63507" lon="-0.33589">
        <ele>193.8</ele>
        <time>2023-02-12T09:23:55Z</time>
      </trkpt>
      <trkpt lat="46.63504" lon="-0.33616">
        <ele>193.4</ele>
        <time>2023-02-12T09:23:59Z</time>
      </trkpt>
      <trkpt lat="46.63503" lon="-0.33631">
        <ele>193.4</ele>
        <time>2023-02-12T09:24:01Z</time>
      </trkpt>
      <trkpt lat="46.63499" lon="-0.3368">
        <ele>193.6</ele>
        <time>2023-02-12T09:24:08Z</time>
      </trkpt>
      <trkpt lat="46.635" lon="-0.33687">
        <ele>193.6</ele>
        <time>2023-02-12T09:24:09Z</time>
      </trkpt>
      <trkpt lat="46.635" lon="-0.33694">
        <ele>193.6</ele>
        <time>2023-02-12T09:24:10Z</time>
      </trkpt>
      <trkpt lat="46.63505" lon="-0.33728">
        <ele>193.8</ele>
        <time>2023-02-12T09:24:15Z</time>
      </trkpt>
      <trkpt lat="46.63517" lon="-0.33788">
        <ele>194.2</ele>
        <time>2023-02-12T09:24:24Z</time>
      </trkpt>
      <trkpt lat="46.63532" lon="-0.33836">
        <ele>194.2</ele>
        <time>2023-02-12T09:24:32Z</time>
      </trkpt>
      <trkpt lat="46.63536" lon="-0.33846">
        <ele>194.2</ele>
        <time>2023-02-12T09:24:34Z</time>
      </trkpt>
      <trkpt lat="46.63542" lon="-0.33863">
        <ele>194.2</ele>
        <time>2023-02-12T09:24:37Z</time>
      </trkpt>
      <trkpt lat="46.63544" lon="-0.33869">
        <ele>194.4</ele>
        <time>2023-02-12T09:24:38Z</time>
      </trkpt>
      <trkpt lat="46.63551" lon="-0.33891">
        <ele>194.6</ele>
        <time>2023-02-12T09:24:42Z</time>
      </trkpt>
      <trkpt lat="46.63551" lon="-0.33895">
        <ele>194.6</ele>
        <time>2023-02-12T09:24:43Z</time>
      </trkpt>
      <trkpt lat="46.63543" lon="-0.33898">
        <ele>194.8</ele>
        <time>2023-02-12T09:24:46Z</time>
      </trkpt>
      <trkpt lat="46.6353" lon="-0.33891">
        <ele>195.4</ele>
        <time>2023-02-12T09:24:50Z</time>
      </trkpt>
      <trkpt lat="46.63527" lon="-0.33888">
        <ele>195.6</ele>
        <time>2023-02-12T09:24:51Z</time>
      </trkpt>
      <trkpt lat="46.63512" lon="-0.33869">
        <ele>196.6</ele>
        <time>2023-02-12T09:24:57Z</time>
      </trkpt>
      <trkpt lat="46.63504" lon="-0.33858">
        <ele>197.8</ele>
        <time>2023-02-12T09:25:01Z</time>
      </trkpt>
      <trkpt lat="46.63501" lon="-0.33853">
        <ele>198.4</ele>
        <time>2023-02-12T09:25:03Z</time>
      </trkpt>
      <trkpt lat="46.63488" lon="-0.33837">
        <ele>198.8</ele>
        <time>2023-02-12T09:25:09Z</time>
      </trkpt>
      <trkpt lat="46.63474" lon="-0.33825">
        <ele>198.8</ele>
        <time>2023-02-12T09:25:14Z</time>
      </trkpt>
      <trkpt lat="46.6347" lon="-0.33822">
        <ele>199</ele>
        <time>2023-02-12T09:25:15Z</time>
      </trkpt>
      <trkpt lat="46.6346" lon="-0.33812">
        <ele>199</ele>
        <time>2023-02-12T09:25:18Z</time>
      </trkpt>
      <trkpt lat="46.63454" lon="-0.33804">
        <ele>199.2</ele>
        <time>2023-02-12T09:25:20Z</time>
      </trkpt>
      <trkpt lat="46.63451" lon="-0.33801">
        <ele>199.4</ele>
        <time>2023-02-12T09:25:21Z</time>
      </trkpt>
      <trkpt lat="46.63447" lon="-0.33795">
        <ele>199.8</ele>
        <time>2023-02-12T09:25:23Z</time>
      </trkpt>
      <trkpt lat="46.63438" lon="-0.33783">
        <ele>200</ele>
        <time>2023-02-12T09:25:26Z</time>
      </trkpt>
      <trkpt lat="46.63429" lon="-0.33771">
        <ele>200</ele>
        <time>2023-02-12T09:25:29Z</time>
      </trkpt>
      <trkpt lat="46.63424" lon="-0.33764">
        <ele>200</ele>
        <time>2023-02-12T09:25:31Z</time>
      </trkpt>
      <trkpt lat="46.63422" lon="-0.3376">
        <ele>200.2</ele>
        <time>2023-02-12T09:25:32Z</time>
      </trkpt>
      <trkpt lat="46.63404" lon="-0.33738">
        <ele>201</ele>
        <time>2023-02-12T09:25:38Z</time>
      </trkpt>
      <trkpt lat="46.63392" lon="-0.33724">
        <ele>202.2</ele>
        <time>2023-02-12T09:25:42Z</time>
      </trkpt>
      <trkpt lat="46.63384" lon="-0.33713">
        <ele>202.6</ele>
        <time>2023-02-12T09:25:45Z</time>
      </trkpt>
      <trkpt lat="46.63371" lon="-0.3369">
        <ele>203.2</ele>
        <time>2023-02-12T09:25:49Z</time>
      </trkpt>
      <trkpt lat="46.63365" lon="-0.33682">
        <ele>203.8</ele>
        <time>2023-02-12T09:25:51Z</time>
      </trkpt>
      <trkpt lat="46.63354" lon="-0.33672">
        <ele>204.4</ele>
        <time>2023-02-12T09:25:54Z</time>
      </trkpt>
      <trkpt lat="46.6335" lon="-0.33668">
        <ele>204.4</ele>
        <time>2023-02-12T09:25:55Z</time>
      </trkpt>
      <trkpt lat="46.63338" lon="-0.33656">
        <ele>204.4</ele>
        <time>2023-02-12T09:25:58Z</time>
      </trkpt>
      <trkpt lat="46.63325" lon="-0.33643">
        <ele>204.2</ele>
        <time>2023-02-12T09:26:01Z</time>
      </trkpt>
      <trkpt lat="46.63301" lon="-0.33616">
        <ele>203.6</ele>
        <time>2023-02-12T09:26:06Z</time>
      </trkpt>
      <trkpt lat="46.63275" lon="-0.33589">
        <ele>203.4</ele>
        <time>2023-02-12T09:26:11Z</time>
      </trkpt>
      <trkpt lat="46.63266" lon="-0.3358">
        <ele>203.2</ele>
        <time>2023-02-12T09:26:13Z</time>
      </trkpt>
      <trkpt lat="46.63249" lon="-0.33561">
        <ele>202.8</ele>
        <time>2023-02-12T09:26:17Z</time>
      </trkpt>
      <trkpt lat="46.63221" lon="-0.33531">
        <ele>202.6</ele>
        <time>2023-02-12T09:26:23Z</time>
      </trkpt>
      <trkpt lat="46.6321" lon="-0.33522">
        <ele>202.6</ele>
        <time>2023-02-12T09:26:25Z</time>
      </trkpt>
      <trkpt lat="46.63193" lon="-0.33511">
        <ele>202.6</ele>
        <time>2023-02-12T09:26:28Z</time>
      </trkpt>
      <trkpt lat="46.63187" lon="-0.33508">
        <ele>202.6</ele>
        <time>2023-02-12T09:26:29Z</time>
      </trkpt>
      <trkpt lat="46.63172" lon="-0.33502">
        <ele>202.4</ele>
        <time>2023-02-12T09:26:31Z</time>
      </trkpt>
      <trkpt lat="46.63164" lon="-0.335">
        <ele>201.6</ele>
        <time>2023-02-12T09:26:32Z</time>
      </trkpt>
      <trkpt lat="46.6315" lon="-0.33499">
        <ele>200.4</ele>
        <time>2023-02-12T09:26:34Z</time>
      </trkpt>
      <trkpt lat="46.63143" lon="-0.33497">
        <ele>200.2</ele>
        <time>2023-02-12T09:26:35Z</time>
      </trkpt>
      <trkpt lat="46.6313" lon="-0.33493">
        <ele>199.4</ele>
        <time>2023-02-12T09:26:37Z</time>
      </trkpt>
      <trkpt lat="46.63102" lon="-0.3349">
        <ele>198.2</ele>
        <time>2023-02-12T09:26:41Z</time>
      </trkpt>
      <trkpt lat="46.63086" lon="-0.33489">
        <ele>197.8</ele>
        <time>2023-02-12T09:26:43Z</time>
      </trkpt>
      <trkpt lat="46.63071" lon="-0.33489">
        <ele>196.6</ele>
        <time>2023-02-12T09:26:45Z</time>
      </trkpt>
      <trkpt lat="46.63055" lon="-0.33488">
        <ele>195.4</ele>
        <time>2023-02-12T09:26:47Z</time>
      </trkpt>
      <trkpt lat="46.63039" lon="-0.33488">
        <ele>195</ele>
        <time>2023-02-12T09:26:49Z</time>
      </trkpt>
      <trkpt lat="46.63031" lon="-0.33488">
        <ele>194.2</ele>
        <time>2023-02-12T09:26:50Z</time>
      </trkpt>
      <trkpt lat="46.63023" lon="-0.33487">
        <ele>193.8</ele>
        <time>2023-02-12T09:26:51Z</time>
      </trkpt>
      <trkpt lat="46.63007" lon="-0.33483">
        <ele>193.2</ele>
        <time>2023-02-12T09:26:53Z</time>
      </trkpt>
      <trkpt lat="46.62999" lon="-0.33481">
        <ele>193</ele>
        <time>2023-02-12T09:26:54Z</time>
      </trkpt>
      <trkpt lat="46.62983" lon="-0.33474">
        <ele>191.8</ele>
        <time>2023-02-12T09:26:56Z</time>
      </trkpt>
      <trkpt lat="46.62968" lon="-0.33463">
        <ele>191.2</ele>
        <time>2023-02-12T09:26:58Z</time>
      </trkpt>
      <trkpt lat="46.62954" lon="-0.33448">
        <ele>190.6</ele>
        <time>2023-02-12T09:27:00Z</time>
      </trkpt>
      <trkpt lat="46.62941" lon="-0.33433">
        <ele>190</ele>
        <time>2023-02-12T09:27:02Z</time>
      </trkpt>
      <trkpt lat="46.62935" lon="-0.33426">
        <ele>189.8</ele>
        <time>2023-02-12T09:27:03Z</time>
      </trkpt>
      <trkpt lat="46.62929" lon="-0.33419">
        <ele>189.4</ele>
        <time>2023-02-12T09:27:04Z</time>
      </trkpt>
      <trkpt lat="46.62912" lon="-0.33396">
        <ele>189</ele>
        <time>2023-02-12T09:27:07Z</time>
      </trkpt>
      <trkpt lat="46.6289" lon="-0.3337">
        <ele>188.8</ele>
        <time>2023-02-12T09:27:11Z</time>
      </trkpt>
      <trkpt lat="46.62878" lon="-0.3336">
        <ele>188.8</ele>
        <time>2023-02-12T09:27:13Z</time>
      </trkpt>
      <trkpt lat="46.62865" lon="-0.33352">
        <ele>188.8</ele>
        <time>2023-02-12T09:27:15Z</time>
      </trkpt>
      <trkpt lat="46.62851" lon="-0.33347">
        <ele>188.4</ele>
        <time>2023-02-12T09:27:17Z</time>
      </trkpt>
      <trkpt lat="46.62844" lon="-0.33345">
        <ele>187.6</ele>
        <time>2023-02-12T09:27:18Z</time>
      </trkpt>
      <trkpt lat="46.62821" lon="-0.33336">
        <ele>186.4</ele>
        <time>2023-02-12T09:27:21Z</time>
      </trkpt>
      <trkpt lat="46.62805" lon="-0.33329">
        <ele>185.4</ele>
        <time>2023-02-12T09:27:23Z</time>
      </trkpt>
      <trkpt lat="46.62797" lon="-0.33325">
        <ele>185</ele>
        <time>2023-02-12T09:27:24Z</time>
      </trkpt>
      <trkpt lat="46.6278" lon="-0.33313">
        <ele>183.2</ele>
        <time>2023-02-12T09:27:26Z</time>
      </trkpt>
      <trkpt lat="46.62772" lon="-0.33305">
        <ele>182.8</ele>
        <time>2023-02-12T09:27:27Z</time>
      </trkpt>
      <trkpt lat="46.62764" lon="-0.33295">
        <ele>182.6</ele>
        <time>2023-02-12T09:27:28Z</time>
      </trkpt>
      <trkpt lat="46.62751" lon="-0.33274">
        <ele>182</ele>
        <time>2023-02-12T09:27:30Z</time>
      </trkpt>
      <trkpt lat="46.62744" lon="-0.33263">
        <ele>181.4</ele>
        <time>2023-02-12T09:27:31Z</time>
      </trkpt>
      <trkpt lat="46.62738" lon="-0.33253">
        <ele>180.6</ele>
        <time>2023-02-12T09:27:32Z</time>
      </trkpt>
      <trkpt lat="46.62725" lon="-0.33234">
        <ele>178.6</ele>
        <time>2023-02-12T09:27:34Z</time>
      </trkpt>
      <trkpt lat="46.62712" lon="-0.33215">
        <ele>177.2</ele>
        <time>2023-02-12T09:27:36Z</time>
      </trkpt>
      <trkpt lat="46.62706" lon="-0.33205">
        <ele>176.6</ele>
        <time>2023-02-12T09:27:37Z</time>
      </trkpt>
      <trkpt lat="46.627" lon="-0.33195">
        <ele>176.2</ele>
        <time>2023-02-12T09:27:38Z</time>
      </trkpt>
      <trkpt lat="46.62689" lon="-0.33175">
        <ele>175.2</ele>
        <time>2023-02-12T09:27:40Z</time>
      </trkpt>
      <trkpt lat="46.6268" lon="-0.33153">
        <ele>173.4</ele>
        <time>2023-02-12T09:27:42Z</time>
      </trkpt>
      <trkpt lat="46.6267" lon="-0.3313">
        <ele>172.2</ele>
        <time>2023-02-12T09:27:44Z</time>
      </trkpt>
      <trkpt lat="46.62655" lon="-0.33098">
        <ele>170.4</ele>
        <time>2023-02-12T09:27:47Z</time>
      </trkpt>
      <trkpt lat="46.62649" lon="-0.33087">
        <ele>169.8</ele>
        <time>2023-02-12T09:27:48Z</time>
      </trkpt>
      <trkpt lat="46.62644" lon="-0.33077">
        <ele>169</ele>
        <time>2023-02-12T09:27:49Z</time>
      </trkpt>
      <trkpt lat="46.62627" lon="-0.33048">
        <ele>168</ele>
        <time>2023-02-12T09:27:52Z</time>
      </trkpt>
      <trkpt lat="46.62615" lon="-0.3303">
        <ele>166.6</ele>
        <time>2023-02-12T09:27:54Z</time>
      </trkpt>
      <trkpt lat="46.62601" lon="-0.33016">
        <ele>165.4</ele>
        <time>2023-02-12T09:27:56Z</time>
      </trkpt>
      <trkpt lat="46.62587" lon="-0.33005">
        <ele>164.6</ele>
        <time>2023-02-12T09:27:58Z</time>
      </trkpt>
      <trkpt lat="46.6258" lon="-0.33">
        <ele>164.2</ele>
        <time>2023-02-12T09:27:59Z</time>
      </trkpt>
      <trkpt lat="46.62563" lon="-0.32986">
        <ele>163.6</ele>
        <time>2023-02-12T09:28:02Z</time>
      </trkpt>
      <trkpt lat="46.62558" lon="-0.32983">
        <ele>163</ele>
        <time>2023-02-12T09:28:03Z</time>
      </trkpt>
      <trkpt lat="46.62555" lon="-0.3298">
        <ele>162.4</ele>
        <time>2023-02-12T09:28:04Z</time>
      </trkpt>
      <trkpt lat="46.62552" lon="-0.32976">
        <ele>162</ele>
        <time>2023-02-12T09:28:05Z</time>
      </trkpt>
      <trkpt lat="46.6255" lon="-0.32973">
        <ele>161.6</ele>
        <time>2023-02-12T09:28:06Z</time>
      </trkpt>
      <trkpt lat="46.62547" lon="-0.32957">
        <ele>161.2</ele>
        <time>2023-02-12T09:28:09Z</time>
      </trkpt>
      <trkpt lat="46.62548" lon="-0.32936">
        <ele>161.2</ele>
        <time>2023-02-12T09:28:12Z</time>
      </trkpt>
      <trkpt lat="46.6255" lon="-0.3292">
        <ele>161.4</ele>
        <time>2023-02-12T09:28:14Z</time>
      </trkpt>
      <trkpt lat="46.62556" lon="-0.32864">
        <ele>161.6</ele>
        <time>2023-02-12T09:28:21Z</time>
      </trkpt>
      <trkpt lat="46.62566" lon="-0.32807">
        <ele>161.6</ele>
        <time>2023-02-12T09:28:29Z</time>
      </trkpt>
      <trkpt lat="46.6257" lon="-0.32767">
        <ele>160.6</ele>
        <time>2023-02-12T09:28:34Z</time>
      </trkpt>
      <trkpt lat="46.6257" lon="-0.32758">
        <ele>160.4</ele>
        <time>2023-02-12T09:28:35Z</time>
      </trkpt>
      <trkpt lat="46.6257" lon="-0.32708">
        <ele>159.4</ele>
        <time>2023-02-12T09:28:40Z</time>
      </trkpt>
      <trkpt lat="46.62567" lon="-0.32655">
        <ele>158.2</ele>
        <time>2023-02-12T09:28:45Z</time>
      </trkpt>
      <trkpt lat="46.62567" lon="-0.32644">
        <ele>157.6</ele>
        <time>2023-02-12T09:28:46Z</time>
      </trkpt>
      <trkpt lat="46.62566" lon="-0.32633">
        <ele>157</ele>
        <time>2023-02-12T09:28:47Z</time>
      </trkpt>
      <trkpt lat="46.62564" lon="-0.3261">
        <ele>155.8</ele>
        <time>2023-02-12T09:28:49Z</time>
      </trkpt>
      <trkpt lat="46.62563" lon="-0.32588">
        <ele>154.4</ele>
        <time>2023-02-12T09:28:51Z</time>
      </trkpt>
      <trkpt lat="46.62562" lon="-0.32569">
        <ele>153.2</ele>
        <time>2023-02-12T09:28:53Z</time>
      </trkpt>
      <trkpt lat="46.62561" lon="-0.32557">
        <ele>152.2</ele>
        <time>2023-02-12T09:28:55Z</time>
      </trkpt>
      <trkpt lat="46.62558" lon="-0.32553">
        <ele>151.8</ele>
        <time>2023-02-12T09:28:56Z</time>
      </trkpt>
      <trkpt lat="46.62554" lon="-0.32551">
        <ele>151.4</ele>
        <time>2023-02-12T09:28:57Z</time>
      </trkpt>
      <trkpt lat="46.6255" lon="-0.32553">
        <ele>150.8</ele>
        <time>2023-02-12T09:28:58Z</time>
      </trkpt>
      <trkpt lat="46.62546" lon="-0.32555">
        <ele>150.6</ele>
        <time>2023-02-12T09:28:59Z</time>
      </trkpt>
      <trkpt lat="46.62543" lon="-0.32557">
        <ele>150.4</ele>
        <time>2023-02-12T09:29:00Z</time>
      </trkpt>
      <trkpt lat="46.6253" lon="-0.32574">
        <ele>150.8</ele>
        <time>2023-02-12T09:29:04Z</time>
      </trkpt>
      <trkpt lat="46.62511" lon="-0.326">
        <ele>151.4</ele>
        <time>2023-02-12T09:29:10Z</time>
      </trkpt>
      <trkpt lat="46.62507" lon="-0.32602">
        <ele>151.6</ele>
        <time>2023-02-12T09:29:11Z</time>
      </trkpt>
      <trkpt lat="46.62504" lon="-0.32601">
        <ele>151.8</ele>
        <time>2023-02-12T09:29:12Z</time>
      </trkpt>
      <trkpt lat="46.625" lon="-0.32595">
        <ele>151.4</ele>
        <time>2023-02-12T09:29:14Z</time>
      </trkpt>
      <trkpt lat="46.62488" lon="-0.32577">
        <ele>150.6</ele>
        <time>2023-02-12T09:29:18Z</time>
      </trkpt>
      <trkpt lat="46.62485" lon="-0.3257">
        <ele>150.2</ele>
        <time>2023-02-12T09:29:19Z</time>
      </trkpt>
      <trkpt lat="46.62482" lon="-0.32564">
        <ele>149.6</ele>
        <time>2023-02-12T09:29:20Z</time>
      </trkpt>
      <trkpt lat="46.62476" lon="-0.32549">
        <ele>148.6</ele>
        <time>2023-02-12T09:29:22Z</time>
      </trkpt>
      <trkpt lat="46.62466" lon="-0.3253">
        <ele>147</ele>
        <time>2023-02-12T09:29:25Z</time>
      </trkpt>
      <trkpt lat="46.62463" lon="-0.32524">
        <ele>146.8</ele>
        <time>2023-02-12T09:29:26Z</time>
      </trkpt>
      <trkpt lat="46.62455" lon="-0.32508">
        <ele>146.4</ele>
        <time>2023-02-12T09:29:30Z</time>
      </trkpt>
      <trkpt lat="46.62441" lon="-0.32495">
        <ele>146.6</ele>
        <time>2023-02-12T09:29:35Z</time>
      </trkpt>
      <trkpt lat="46.62421" lon="-0.32482">
        <ele>147</ele>
        <time>2023-02-12T09:29:41Z</time>
      </trkpt>
      <trkpt lat="46.62415" lon="-0.32471">
        <ele>148.4</ele>
        <time>2023-02-12T09:29:44Z</time>
      </trkpt>
      <trkpt lat="46.62414" lon="-0.32465">
        <ele>149.2</ele>
        <time>2023-02-12T09:29:46Z</time>
      </trkpt>
      <trkpt lat="46.62413" lon="-0.32462">
        <ele>149.8</ele>
        <time>2023-02-12T09:29:47Z</time>
      </trkpt>
      <trkpt lat="46.62413" lon="-0.3245">
        <ele>151</ele>
        <time>2023-02-12T09:29:50Z</time>
      </trkpt>
      <trkpt lat="46.62412" lon="-0.32438">
        <ele>151.8</ele>
        <time>2023-02-12T09:29:53Z</time>
      </trkpt>
      <trkpt lat="46.62412" lon="-0.32434">
        <ele>152.2</ele>
        <time>2023-02-12T09:29:54Z</time>
      </trkpt>
      <trkpt lat="46.62414" lon="-0.32416">
        <ele>153</ele>
        <time>2023-02-12T09:29:59Z</time>
      </trkpt>
      <trkpt lat="46.62415" lon="-0.32412">
        <ele>153.2</ele>
        <time>2023-02-12T09:30:00Z</time>
      </trkpt>
      <trkpt lat="46.62421" lon="-0.32392">
        <ele>154.2</ele>
        <time>2023-02-12T09:30:06Z</time>
      </trkpt>
      <trkpt lat="46.62422" lon="-0.3239">
        <ele>154.6</ele>
        <time>2023-02-12T09:30:07Z</time>
      </trkpt>
      <trkpt lat="46.62427" lon="-0.32383">
        <ele>155.2</ele>
        <time>2023-02-12T09:30:11Z</time>
      </trkpt>
      <trkpt lat="46.62428" lon="-0.32381">
        <ele>155.4</ele>
        <time>2023-02-12T09:30:12Z</time>
      </trkpt>
      <trkpt lat="46.62432" lon="-0.32378">
        <ele>155.8</ele>
        <time>2023-02-12T09:30:14Z</time>
      </trkpt>
      <trkpt lat="46.6244" lon="-0.32372">
        <ele>156.4</ele>
        <time>2023-02-12T09:30:18Z</time>
      </trkpt>
      <trkpt lat="46.62441" lon="-0.3237">
        <ele>156.4</ele>
        <time>2023-02-12T09:30:19Z</time>
      </trkpt>
      <trkpt lat="46.62441" lon="-0.32367">
        <ele>156.8</ele>
        <time>2023-02-12T09:30:20Z</time>
      </trkpt>
      <trkpt lat="46.62441" lon="-0.32364">
        <ele>156.6</ele>
        <time>2023-02-12T09:30:21Z</time>
      </trkpt>
      <trkpt lat="46.62438" lon="-0.32358">
        <ele>156.6</ele>
        <time>2023-02-12T09:30:23Z</time>
      </trkpt>
      <trkpt lat="46.62435" lon="-0.32357">
        <ele>156.6</ele>
        <time>2023-02-12T09:30:24Z</time>
      </trkpt>
      <trkpt lat="46.62415" lon="-0.32344">
        <ele>156.8</ele>
        <time>2023-02-12T09:30:30Z</time>
      </trkpt>
      <trkpt lat="46.62393" lon="-0.32329">
        <ele>157.2</ele>
        <time>2023-02-12T09:30:36Z</time>
      </trkpt>
      <trkpt lat="46.62367" lon="-0.32312">
        <ele>157.8</ele>
        <time>2023-02-12T09:30:43Z</time>
      </trkpt>
      <trkpt lat="46.62351" lon="-0.32301">
        <ele>157.8</ele>
        <time>2023-02-12T09:30:47Z</time>
      </trkpt>
      <trkpt lat="46.62337" lon="-0.32298">
        <ele>158</ele>
        <time>2023-02-12T09:30:50Z</time>
      </trkpt>
      <trkpt lat="46.62312" lon="-0.32295">
        <ele>158.6</ele>
        <time>2023-02-12T09:30:55Z</time>
      </trkpt>
      <trkpt lat="46.62308" lon="-0.32293">
        <ele>158.6</ele>
        <time>2023-02-12T09:30:56Z</time>
      </trkpt>
      <trkpt lat="46.62298" lon="-0.32286">
        <ele>158.6</ele>
        <time>2023-02-12T09:30:58Z</time>
      </trkpt>
      <trkpt lat="46.6229" lon="-0.32278">
        <ele>158.6</ele>
        <time>2023-02-12T09:31:00Z</time>
      </trkpt>
      <trkpt lat="46.62286" lon="-0.32273">
        <ele>158.6</ele>
        <time>2023-02-12T09:31:01Z</time>
      </trkpt>
      <trkpt lat="46.62278" lon="-0.32264">
        <ele>158.6</ele>
        <time>2023-02-12T09:31:03Z</time>
      </trkpt>
      <trkpt lat="46.62271" lon="-0.32253">
        <ele>158.6</ele>
        <time>2023-02-12T09:31:05Z</time>
      </trkpt>
      <trkpt lat="46.62266" lon="-0.32241">
        <ele>158.2</ele>
        <time>2023-02-12T09:31:07Z</time>
      </trkpt>
      <trkpt lat="46.62255" lon="-0.32219">
        <ele>157.6</ele>
        <time>2023-02-12T09:31:10Z</time>
      </trkpt>
      <trkpt lat="46.62249" lon="-0.32213">
        <ele>157.2</ele>
        <time>2023-02-12T09:31:11Z</time>
      </trkpt>
      <trkpt lat="46.62242" lon="-0.32209">
        <ele>156.8</ele>
        <time>2023-02-12T09:31:12Z</time>
      </trkpt>
      <trkpt lat="46.62224" lon="-0.32203">
        <ele>155.6</ele>
        <time>2023-02-12T09:31:14Z</time>
      </trkpt>
      <trkpt lat="46.62215" lon="-0.322">
        <ele>155.2</ele>
        <time>2023-02-12T09:31:15Z</time>
      </trkpt>
      <trkpt lat="46.62206" lon="-0.322">
        <ele>154.2</ele>
        <time>2023-02-12T09:31:16Z</time>
      </trkpt>
      <trkpt lat="46.62197" lon="-0.32203">
        <ele>152.8</ele>
        <time>2023-02-12T09:31:17Z</time>
      </trkpt>
      <trkpt lat="46.62179" lon="-0.3221">
        <ele>151.2</ele>
        <time>2023-02-12T09:31:19Z</time>
      </trkpt>
      <trkpt lat="46.62163" lon="-0.32217">
        <ele>150</ele>
        <time>2023-02-12T09:31:21Z</time>
      </trkpt>
      <trkpt lat="46.62148" lon="-0.32224">
        <ele>149.6</ele>
        <time>2023-02-12T09:31:23Z</time>
      </trkpt>
      <trkpt lat="46.62116" lon="-0.32241">
        <ele>149.8</ele>
        <time>2023-02-12T09:31:28Z</time>
      </trkpt>
      <trkpt lat="46.62087" lon="-0.32258">
        <ele>150</ele>
        <time>2023-02-12T09:31:34Z</time>
      </trkpt>
      <trkpt lat="46.62068" lon="-0.32274">
        <ele>151.2</ele>
        <time>2023-02-12T09:31:39Z</time>
      </trkpt>
      <trkpt lat="46.62065" lon="-0.32277">
        <ele>151.6</ele>
        <time>2023-02-12T09:31:40Z</time>
      </trkpt>
      <trkpt lat="46.62054" lon="-0.32288">
        <ele>152.4</ele>
        <time>2023-02-12T09:31:43Z</time>
      </trkpt>
      <trkpt lat="46.6204" lon="-0.32301">
        <ele>153.2</ele>
        <time>2023-02-12T09:31:47Z</time>
      </trkpt>
      <trkpt lat="46.62032" lon="-0.32308">
        <ele>153.8</ele>
        <time>2023-02-12T09:31:49Z</time>
      </trkpt>
      <trkpt lat="46.62015" lon="-0.32321">
        <ele>155</ele>
        <time>2023-02-12T09:31:53Z</time>
      </trkpt>
      <trkpt lat="46.62011" lon="-0.32323">
        <ele>155.4</ele>
        <time>2023-02-12T09:31:54Z</time>
      </trkpt>
      <trkpt lat="46.62001" lon="-0.32331">
        <ele>156.4</ele>
        <time>2023-02-12T09:31:57Z</time>
      </trkpt>
      <trkpt lat="46.6199" lon="-0.32339">
        <ele>157.2</ele>
        <time>2023-02-12T09:32:01Z</time>
      </trkpt>
      <trkpt lat="46.61987" lon="-0.3234">
        <ele>157.4</ele>
        <time>2023-02-12T09:32:02Z</time>
      </trkpt>
      <trkpt lat="46.61973" lon="-0.32349">
        <ele>158.6</ele>
        <time>2023-02-12T09:32:07Z</time>
      </trkpt>
      <trkpt lat="46.61959" lon="-0.32356">
        <ele>159.6</ele>
        <time>2023-02-12T09:32:12Z</time>
      </trkpt>
      <trkpt lat="46.61953" lon="-0.32359">
        <ele>159.8</ele>
        <time>2023-02-12T09:32:14Z</time>
      </trkpt>
      <trkpt lat="46.61936" lon="-0.32366">
        <ele>161.2</ele>
        <time>2023-02-12T09:32:20Z</time>
      </trkpt>
      <trkpt lat="46.61919" lon="-0.32372">
        <ele>162.4</ele>
        <time>2023-02-12T09:32:26Z</time>
      </trkpt>
      <trkpt lat="46.61913" lon="-0.32374">
        <ele>162.6</ele>
        <time>2023-02-12T09:32:28Z</time>
      </trkpt>
      <trkpt lat="46.61895" lon="-0.32372">
        <ele>163.6</ele>
        <time>2023-02-12T09:32:34Z</time>
      </trkpt>
      <trkpt lat="46.61892" lon="-0.32372">
        <ele>163.8</ele>
        <time>2023-02-12T09:32:35Z</time>
      </trkpt>
      <trkpt lat="46.61873" lon="-0.3236">
        <ele>164.2</ele>
        <time>2023-02-12T09:32:41Z</time>
      </trkpt>
      <trkpt lat="46.61857" lon="-0.32345">
        <ele>164.8</ele>
        <time>2023-02-12T09:32:46Z</time>
      </trkpt>
      <trkpt lat="46.61854" lon="-0.32342">
        <ele>165</ele>
        <time>2023-02-12T09:32:47Z</time>
      </trkpt>
      <trkpt lat="46.61829" lon="-0.32313">
        <ele>165.2</ele>
        <time>2023-02-12T09:32:55Z</time>
      </trkpt>
      <trkpt lat="46.61816" lon="-0.32299">
        <ele>165.8</ele>
        <time>2023-02-12T09:32:59Z</time>
      </trkpt>
      <trkpt lat="46.61798" lon="-0.32285">
        <ele>166.4</ele>
        <time>2023-02-12T09:33:04Z</time>
      </trkpt>
      <trkpt lat="46.61788" lon="-0.32278">
        <ele>167</ele>
        <time>2023-02-12T09:33:07Z</time>
      </trkpt>
      <trkpt lat="46.61767" lon="-0.32265">
        <ele>168</ele>
        <time>2023-02-12T09:33:13Z</time>
      </trkpt>
      <trkpt lat="46.61763" lon="-0.32263">
        <ele>168.2</ele>
        <time>2023-02-12T09:33:14Z</time>
      </trkpt>
      <trkpt lat="46.61725" lon="-0.3224">
        <ele>169</ele>
        <time>2023-02-12T09:33:24Z</time>
      </trkpt>
      <trkpt lat="46.61718" lon="-0.32235">
        <ele>169.4</ele>
        <time>2023-02-12T09:33:26Z</time>
      </trkpt>
      <trkpt lat="46.61695" lon="-0.32223">
        <ele>170.2</ele>
        <time>2023-02-12T09:33:32Z</time>
      </trkpt>
      <trkpt lat="46.61692" lon="-0.32221">
        <ele>170.4</ele>
        <time>2023-02-12T09:33:33Z</time>
      </trkpt>
      <trkpt lat="46.61672" lon="-0.32209">
        <ele>171.2</ele>
        <time>2023-02-12T09:33:38Z</time>
      </trkpt>
      <trkpt lat="46.61653" lon="-0.32197">
        <ele>171.8</ele>
        <time>2023-02-12T09:33:43Z</time>
      </trkpt>
      <trkpt lat="46.61637" lon="-0.32189">
        <ele>172.2</ele>
        <time>2023-02-12T09:33:47Z</time>
      </trkpt>
      <trkpt lat="46.61622" lon="-0.32184">
        <ele>172.6</ele>
        <time>2023-02-12T09:33:51Z</time>
      </trkpt>
      <trkpt lat="46.61594" lon="-0.32188">
        <ele>173.2</ele>
        <time>2023-02-12T09:33:58Z</time>
      </trkpt>
      <trkpt lat="46.61591" lon="-0.32189">
        <ele>173.4</ele>
        <time>2023-02-12T09:33:59Z</time>
      </trkpt>
      <trkpt lat="46.61569" lon="-0.32203">
        <ele>174.4</ele>
        <time>2023-02-12T09:34:05Z</time>
      </trkpt>
      <trkpt lat="46.61565" lon="-0.32205">
        <ele>174.6</ele>
        <time>2023-02-12T09:34:06Z</time>
      </trkpt>
      <trkpt lat="46.61539" lon="-0.32215">
        <ele>175</ele>
        <time>2023-02-12T09:34:14Z</time>
      </trkpt>
      <trkpt lat="46.61536" lon="-0.32213">
        <ele>175.2</ele>
        <time>2023-02-12T09:34:15Z</time>
      </trkpt>
      <trkpt lat="46.61534" lon="-0.32209">
        <ele>175.6</ele>
        <time>2023-02-12T09:34:16Z</time>
      </trkpt>
      <trkpt lat="46.61533" lon="-0.32205">
        <ele>175.8</ele>
        <time>2023-02-12T09:34:17Z</time>
      </trkpt>
      <trkpt lat="46.61534" lon="-0.32183">
        <ele>176.6</ele>
        <time>2023-02-12T09:34:21Z</time>
      </trkpt>
      <trkpt lat="46.61536" lon="-0.32177">
        <ele>176.8</ele>
        <time>2023-02-12T09:34:22Z</time>
      </trkpt>
      <trkpt lat="46.61545" lon="-0.32131">
        <ele>176.2</ele>
        <time>2023-02-12T09:34:29Z</time>
      </trkpt>
      <trkpt lat="46.61557" lon="-0.32089">
        <ele>176</ele>
        <time>2023-02-12T09:34:35Z</time>
      </trkpt>
      <trkpt lat="46.61573" lon="-0.32048">
        <ele>175.4</ele>
        <time>2023-02-12T09:34:40Z</time>
      </trkpt>
      <trkpt lat="46.61578" lon="-0.32041">
        <ele>174.8</ele>
        <time>2023-02-12T09:34:41Z</time>
      </trkpt>
      <trkpt lat="46.61583" lon="-0.32034">
        <ele>174.2</ele>
        <time>2023-02-12T09:34:42Z</time>
      </trkpt>
      <trkpt lat="46.61595" lon="-0.32022">
        <ele>173.4</ele>
        <time>2023-02-12T09:34:44Z</time>
      </trkpt>
      <trkpt lat="46.61601" lon="-0.32018">
        <ele>173.2</ele>
        <time>2023-02-12T09:34:45Z</time>
      </trkpt>
      <trkpt lat="46.61614" lon="-0.32008">
        <ele>172.2</ele>
        <time>2023-02-12T09:34:47Z</time>
      </trkpt>
      <trkpt lat="46.61642" lon="-0.31992">
        <ele>171</ele>
        <time>2023-02-12T09:34:51Z</time>
      </trkpt>
      <trkpt lat="46.61661" lon="-0.31979">
        <ele>170.4</ele>
        <time>2023-02-12T09:34:54Z</time>
      </trkpt>
      <trkpt lat="46.61664" lon="-0.31972">
        <ele>170.4</ele>
        <time>2023-02-12T09:34:55Z</time>
      </trkpt>
      <trkpt lat="46.61664" lon="-0.31963">
        <ele>170.2</ele>
        <time>2023-02-12T09:34:56Z</time>
      </trkpt>
      <trkpt lat="46.61659" lon="-0.31945">
        <ele>169</ele>
        <time>2023-02-12T09:34:58Z</time>
      </trkpt>
      <trkpt lat="46.61652" lon="-0.31926">
        <ele>167.8</ele>
        <time>2023-02-12T09:35:00Z</time>
      </trkpt>
      <trkpt lat="46.61644" lon="-0.31905">
        <ele>166.8</ele>
        <time>2023-02-12T09:35:02Z</time>
      </trkpt>
      <trkpt lat="46.6164" lon="-0.31894">
        <ele>166.2</ele>
        <time>2023-02-12T09:35:03Z</time>
      </trkpt>
      <trkpt lat="46.61629" lon="-0.31863">
        <ele>165.8</ele>
        <time>2023-02-12T09:35:06Z</time>
      </trkpt>
      <trkpt lat="46.61611" lon="-0.31813">
        <ele>164.8</ele>
        <time>2023-02-12T09:35:11Z</time>
      </trkpt>
      <trkpt lat="46.61608" lon="-0.31804">
        <ele>164.4</ele>
        <time>2023-02-12T09:35:12Z</time>
      </trkpt>
      <trkpt lat="46.61588" lon="-0.31749">
        <ele>163.2</ele>
        <time>2023-02-12T09:35:18Z</time>
      </trkpt>
      <trkpt lat="46.61563" lon="-0.31695">
        <ele>162</ele>
        <time>2023-02-12T09:35:24Z</time>
      </trkpt>
      <trkpt lat="46.61558" lon="-0.31687">
        <ele>161.8</ele>
        <time>2023-02-12T09:35:25Z</time>
      </trkpt>
      <trkpt lat="46.61537" lon="-0.31654">
        <ele>160.8</ele>
        <time>2023-02-12T09:35:29Z</time>
      </trkpt>
      <trkpt lat="46.61517" lon="-0.31625">
        <ele>160.2</ele>
        <time>2023-02-12T09:35:33Z</time>
      </trkpt>
      <trkpt lat="46.61506" lon="-0.31612">
        <ele>160</ele>
        <time>2023-02-12T09:35:35Z</time>
      </trkpt>
      <trkpt lat="46.61499" lon="-0.31607">
        <ele>159.8</ele>
        <time>2023-02-12T09:35:36Z</time>
      </trkpt>
      <trkpt lat="46.61493" lon="-0.31602">
        <ele>159.6</ele>
        <time>2023-02-12T09:35:37Z</time>
      </trkpt>
      <trkpt lat="46.61472" lon="-0.31585">
        <ele>158.6</ele>
        <time>2023-02-12T09:35:40Z</time>
      </trkpt>
      <trkpt lat="46.6145" lon="-0.31569">
        <ele>157.2</ele>
        <time>2023-02-12T09:35:43Z</time>
      </trkpt>
      <trkpt lat="46.61426" lon="-0.31551">
        <ele>155.6</ele>
        <time>2023-02-12T09:35:46Z</time>
      </trkpt>
      <trkpt lat="46.6141" lon="-0.31538">
        <ele>154.4</ele>
        <time>2023-02-12T09:35:48Z</time>
      </trkpt>
      <trkpt lat="46.61394" lon="-0.31525">
        <ele>153.2</ele>
        <time>2023-02-12T09:35:50Z</time>
      </trkpt>
      <trkpt lat="46.6137" lon="-0.31505">
        <ele>152</ele>
        <time>2023-02-12T09:35:53Z</time>
      </trkpt>
      <trkpt lat="46.61362" lon="-0.31499">
        <ele>150.6</ele>
        <time>2023-02-12T09:35:54Z</time>
      </trkpt>
      <trkpt lat="46.61349" lon="-0.31489">
        <ele>148.8</ele>
        <time>2023-02-12T09:35:56Z</time>
      </trkpt>
      <trkpt lat="46.61344" lon="-0.31486">
        <ele>147.8</ele>
        <time>2023-02-12T09:35:57Z</time>
      </trkpt>
      <trkpt lat="46.61342" lon="-0.31482">
        <ele>147.4</ele>
        <time>2023-02-12T09:35:58Z</time>
      </trkpt>
      <trkpt lat="46.6134" lon="-0.31478">
        <ele>147</ele>
        <time>2023-02-12T09:35:59Z</time>
      </trkpt>
      <trkpt lat="46.61337" lon="-0.31469">
        <ele>146.2</ele>
        <time>2023-02-12T09:36:01Z</time>
      </trkpt>
      <trkpt lat="46.6133" lon="-0.31444">
        <ele>145.2</ele>
        <time>2023-02-12T09:36:06Z</time>
      </trkpt>
      <trkpt lat="46.61314" lon="-0.31397">
        <ele>144.4</ele>
        <time>2023-02-12T09:36:14Z</time>
      </trkpt>
      <trkpt lat="46.61307" lon="-0.31374">
        <ele>144</ele>
        <time>2023-02-12T09:36:18Z</time>
      </trkpt>
      <trkpt lat="46.61304" lon="-0.31362">
        <ele>143.8</ele>
        <time>2023-02-12T09:36:20Z</time>
      </trkpt>
      <trkpt lat="46.61301" lon="-0.31356">
        <ele>143.8</ele>
        <time>2023-02-12T09:36:21Z</time>
      </trkpt>
      <trkpt lat="46.61296" lon="-0.31343">
        <ele>143.8</ele>
        <time>2023-02-12T09:36:23Z</time>
      </trkpt>
      <trkpt lat="46.61289" lon="-0.31323">
        <ele>143.4</ele>
        <time>2023-02-12T09:36:26Z</time>
      </trkpt>
      <trkpt lat="46.61278" lon="-0.31292">
        <ele>143</ele>
        <time>2023-02-12T09:36:31Z</time>
      </trkpt>
      <trkpt lat="46.61275" lon="-0.31284">
        <ele>142.4</ele>
        <time>2023-02-12T09:36:33Z</time>
      </trkpt>
      <trkpt lat="46.61273" lon="-0.31278">
        <ele>141.8</ele>
        <time>2023-02-12T09:36:36Z</time>
      </trkpt>
      <trkpt lat="46.61272" lon="-0.31277">
        <ele>141.8</ele>
        <time>2023-02-12T09:36:37Z</time>
      </trkpt>
      <trkpt lat="46.61264" lon="-0.31273">
        <ele>141.4</ele>
        <time>2023-02-12T09:36:42Z</time>
      </trkpt>
      <trkpt lat="46.61255" lon="-0.3127">
        <ele>141.4</ele>
        <time>2023-02-12T09:36:48Z</time>
      </trkpt>
      <trkpt lat="46.61244" lon="-0.31263">
        <ele>141.8</ele>
        <time>2023-02-12T09:36:54Z</time>
      </trkpt>
      <trkpt lat="46.61232" lon="-0.31254">
        <ele>141.8</ele>
        <time>2023-02-12T09:37:00Z</time>
      </trkpt>
      <trkpt lat="46.61226" lon="-0.31242">
        <ele>142</ele>
        <time>2023-02-12T09:37:05Z</time>
      </trkpt>
      <trkpt lat="46.61224" lon="-0.31233">
        <ele>142.8</ele>
        <time>2023-02-12T09:37:09Z</time>
      </trkpt>
      <trkpt lat="46.61223" lon="-0.31226">
        <ele>143.8</ele>
        <time>2023-02-12T09:37:12Z</time>
      </trkpt>
      <trkpt lat="46.61223" lon="-0.31224">
        <ele>144</ele>
        <time>2023-02-12T09:37:13Z</time>
      </trkpt>
      <trkpt lat="46.61219" lon="-0.3121">
        <ele>145</ele>
        <time>2023-02-12T09:37:19Z</time>
      </trkpt>
      <trkpt lat="46.61218" lon="-0.31207">
        <ele>145.2</ele>
        <time>2023-02-12T09:37:20Z</time>
      </trkpt>
      <trkpt lat="46.61211" lon="-0.31192">
        <ele>146.4</ele>
        <time>2023-02-12T09:37:26Z</time>
      </trkpt>
      <trkpt lat="46.61206" lon="-0.3118">
        <ele>147.4</ele>
        <time>2023-02-12T09:37:31Z</time>
      </trkpt>
      <trkpt lat="46.61203" lon="-0.31172">
        <ele>147.8</ele>
        <time>2023-02-12T09:37:34Z</time>
      </trkpt>
      <trkpt lat="46.61195" lon="-0.31149">
        <ele>148.2</ele>
        <time>2023-02-12T09:37:42Z</time>
      </trkpt>
      <trkpt lat="46.61192" lon="-0.31138">
        <ele>148.4</ele>
        <time>2023-02-12T09:37:47Z</time>
      </trkpt>
      <trkpt lat="46.61191" lon="-0.31134">
        <ele>148.4</ele>
        <time>2023-02-12T09:37:49Z</time>
      </trkpt>
      <trkpt lat="46.61186" lon="-0.31117">
        <ele>148.8</ele>
        <time>2023-02-12T09:37:56Z</time>
      </trkpt>
      <trkpt lat="46.61178" lon="-0.31101">
        <ele>149.2</ele>
        <time>2023-02-12T09:38:02Z</time>
      </trkpt>
      <trkpt lat="46.61178" lon="-0.31099">
        <ele>149.6</ele>
        <time>2023-02-12T09:38:03Z</time>
      </trkpt>
      <trkpt lat="46.61175" lon="-0.31096">
        <ele>150.6</ele>
        <time>2023-02-12T09:38:06Z</time>
      </trkpt>
      <trkpt lat="46.61175" lon="-0.31094">
        <ele>150.8</ele>
        <time>2023-02-12T09:38:07Z</time>
      </trkpt>
      <trkpt lat="46.61174" lon="-0.31089">
        <ele>151.4</ele>
        <time>2023-02-12T09:38:09Z</time>
      </trkpt>
      <trkpt lat="46.61173" lon="-0.31086">
        <ele>151.6</ele>
        <time>2023-02-12T09:38:10Z</time>
      </trkpt>
      <trkpt lat="46.61168" lon="-0.31067">
        <ele>152.6</ele>
        <time>2023-02-12T09:38:17Z</time>
      </trkpt>
      <trkpt lat="46.61163" lon="-0.31059">
        <ele>152.6</ele>
        <time>2023-02-12T09:38:21Z</time>
      </trkpt>
      <trkpt lat="46.6116" lon="-0.31052">
        <ele>152.8</ele>
        <time>2023-02-12T09:38:24Z</time>
      </trkpt>
      <trkpt lat="46.61148" lon="-0.31035">
        <ele>153.4</ele>
        <time>2023-02-12T09:38:33Z</time>
      </trkpt>
      <trkpt lat="46.61142" lon="-0.31027">
        <ele>153.8</ele>
        <time>2023-02-12T09:38:37Z</time>
      </trkpt>
      <trkpt lat="46.61139" lon="-0.31021">
        <ele>154</ele>
        <time>2023-02-12T09:38:40Z</time>
      </trkpt>
      <trkpt lat="46.61129" lon="-0.31009">
        <ele>154.8</ele>
        <time>2023-02-12T09:38:47Z</time>
      </trkpt>
      <trkpt lat="46.61117" lon="-0.30992">
        <ele>155.6</ele>
        <time>2023-02-12T09:38:57Z</time>
      </trkpt>
      <trkpt lat="46.61115" lon="-0.30989">
        <ele>156</ele>
        <time>2023-02-12T09:38:59Z</time>
      </trkpt>
      <trkpt lat="46.61108" lon="-0.30981">
        <ele>156.4</ele>
        <time>2023-02-12T09:39:04Z</time>
      </trkpt>
      <trkpt lat="46.61103" lon="-0.30974">
        <ele>157.2</ele>
        <time>2023-02-12T09:39:08Z</time>
      </trkpt>
      <trkpt lat="46.611" lon="-0.3097">
        <ele>157.6</ele>
        <time>2023-02-12T09:39:11Z</time>
      </trkpt>
      <trkpt lat="46.61096" lon="-0.30965">
        <ele>158.4</ele>
        <time>2023-02-12T09:39:16Z</time>
      </trkpt>
      <trkpt lat="46.61092" lon="-0.30959">
        <ele>159</ele>
        <time>2023-02-12T09:39:20Z</time>
      </trkpt>
      <trkpt lat="46.6109" lon="-0.30955">
        <ele>159.6</ele>
        <time>2023-02-12T09:39:23Z</time>
      </trkpt>
      <trkpt lat="46.61086" lon="-0.30949">
        <ele>160.4</ele>
        <time>2023-02-12T09:39:30Z</time>
      </trkpt>
      <trkpt lat="46.61086" lon="-0.30949">
        <ele>160.6</ele>
        <time>2023-02-12T09:39:31Z</time>
      </trkpt>
      <trkpt lat="46.61082" lon="-0.30946">
        <ele>160.8</ele>
        <time>2023-02-12T09:39:39Z</time>
      </trkpt>
      <trkpt lat="46.61072" lon="-0.30939">
        <ele>161</ele>
        <time>2023-02-12T09:39:46Z</time>
      </trkpt>
      <trkpt lat="46.61063" lon="-0.30935">
        <ele>161.6</ele>
        <time>2023-02-12T09:39:51Z</time>
      </trkpt>
      <trkpt lat="46.61057" lon="-0.30932">
        <ele>162.2</ele>
        <time>2023-02-12T09:39:54Z</time>
      </trkpt>
      <trkpt lat="46.61035" lon="-0.30922">
        <ele>162.6</ele>
        <time>2023-02-12T09:40:04Z</time>
      </trkpt>
      <trkpt lat="46.61022" lon="-0.30911">
        <ele>163.2</ele>
        <time>2023-02-12T09:40:11Z</time>
      </trkpt>
      <trkpt lat="46.61012" lon="-0.30899">
        <ele>163.6</ele>
        <time>2023-02-12T09:40:17Z</time>
      </trkpt>
      <trkpt lat="46.61005" lon="-0.3089">
        <ele>163.8</ele>
        <time>2023-02-12T09:40:21Z</time>
      </trkpt>
      <trkpt lat="46.60999" lon="-0.30882">
        <ele>164.4</ele>
        <time>2023-02-12T09:40:25Z</time>
      </trkpt>
      <trkpt lat="46.60989" lon="-0.30871">
        <ele>164.6</ele>
        <time>2023-02-12T09:40:32Z</time>
      </trkpt>
      <trkpt lat="46.60986" lon="-0.30869">
        <ele>164.8</ele>
        <time>2023-02-12T09:40:34Z</time>
      </trkpt>
      <trkpt lat="46.6098" lon="-0.30863">
        <ele>165.4</ele>
        <time>2023-02-12T09:40:39Z</time>
      </trkpt>
      <trkpt lat="46.60975" lon="-0.30859">
        <ele>165.8</ele>
        <time>2023-02-12T09:40:43Z</time>
      </trkpt>
      <trkpt lat="46.60971" lon="-0.30857">
        <ele>166.2</ele>
        <time>2023-02-12T09:40:46Z</time>
      </trkpt>
      <trkpt lat="46.60967" lon="-0.30852">
        <ele>166.4</ele>
        <time>2023-02-12T09:40:51Z</time>
      </trkpt>
      <trkpt lat="46.60965" lon="-0.30851">
        <ele>166.6</ele>
        <time>2023-02-12T09:40:53Z</time>
      </trkpt>
      <trkpt lat="46.60962" lon="-0.30852">
        <ele>167</ele>
        <time>2023-02-12T09:40:56Z</time>
      </trkpt>
      <trkpt lat="46.60957" lon="-0.3085">
        <ele>167.8</ele>
        <time>2023-02-12T09:41:03Z</time>
      </trkpt>
      <trkpt lat="46.60952" lon="-0.30846">
        <ele>168</ele>
        <time>2023-02-12T09:41:09Z</time>
      </trkpt>
      <trkpt lat="46.60949" lon="-0.30844">
        <ele>168.2</ele>
        <time>2023-02-12T09:41:11Z</time>
      </trkpt>
      <trkpt lat="46.60942" lon="-0.3084">
        <ele>169</ele>
        <time>2023-02-12T09:41:17Z</time>
      </trkpt>
      <trkpt lat="46.60941" lon="-0.3084">
        <ele>169.2</ele>
        <time>2023-02-12T09:41:18Z</time>
      </trkpt>
      <trkpt lat="46.60929" lon="-0.30834">
        <ele>170</ele>
        <time>2023-02-12T09:41:27Z</time>
      </trkpt>
      <trkpt lat="46.60928" lon="-0.30833">
        <ele>170</ele>
        <time>2023-02-12T09:41:28Z</time>
      </trkpt>
      <trkpt lat="46.60919" lon="-0.30828">
        <ele>171</ele>
        <time>2023-02-12T09:41:36Z</time>
      </trkpt>
      <trkpt lat="46.60918" lon="-0.30828">
        <ele>171.2</ele>
        <time>2023-02-12T09:41:37Z</time>
      </trkpt>
      <trkpt lat="46.60911" lon="-0.30824">
        <ele>171.6</ele>
        <time>2023-02-12T09:41:43Z</time>
      </trkpt>
      <trkpt lat="46.60907" lon="-0.3082">
        <ele>172.2</ele>
        <time>2023-02-12T09:41:47Z</time>
      </trkpt>
      <trkpt lat="46.60902" lon="-0.30817">
        <ele>173</ele>
        <time>2023-02-12T09:41:51Z</time>
      </trkpt>
      <trkpt lat="46.60899" lon="-0.30815">
        <ele>173.2</ele>
        <time>2023-02-12T09:41:53Z</time>
      </trkpt>
      <trkpt lat="46.6089" lon="-0.30808">
        <ele>174</ele>
        <time>2023-02-12T09:41:59Z</time>
      </trkpt>
      <trkpt lat="46.60885" lon="-0.30805">
        <ele>174.2</ele>
        <time>2023-02-12T09:42:02Z</time>
      </trkpt>
      <trkpt lat="46.60884" lon="-0.30804">
        <ele>174.2</ele>
        <time>2023-02-12T09:42:03Z</time>
      </trkpt>
      <trkpt lat="46.60876" lon="-0.30798">
        <ele>174.8</ele>
        <time>2023-02-12T09:42:08Z</time>
      </trkpt>
      <trkpt lat="46.60864" lon="-0.30791">
        <ele>175.2</ele>
        <time>2023-02-12T09:42:15Z</time>
      </trkpt>
      <trkpt lat="46.60863" lon="-0.3079">
        <ele>175.2</ele>
        <time>2023-02-12T09:42:16Z</time>
      </trkpt>
      <trkpt lat="46.60854" lon="-0.30783">
        <ele>175.8</ele>
        <time>2023-02-12T09:42:22Z</time>
      </trkpt>
      <trkpt lat="46.60844" lon="-0.30776">
        <ele>176.2</ele>
        <time>2023-02-12T09:42:30Z</time>
      </trkpt>
      <trkpt lat="46.60843" lon="-0.30774">
        <ele>176.2</ele>
        <time>2023-02-12T09:42:31Z</time>
      </trkpt>
      <trkpt lat="46.60834" lon="-0.30761">
        <ele>176.8</ele>
        <time>2023-02-12T09:42:39Z</time>
      </trkpt>
      <trkpt lat="46.60827" lon="-0.30747">
        <ele>177.2</ele>
        <time>2023-02-12T09:42:46Z</time>
      </trkpt>
      <trkpt lat="46.60824" lon="-0.30744">
        <ele>177.6</ele>
        <time>2023-02-12T09:42:48Z</time>
      </trkpt>
      <trkpt lat="46.60817" lon="-0.30727">
        <ele>178</ele>
        <time>2023-02-12T09:42:55Z</time>
      </trkpt>
      <trkpt lat="46.60814" lon="-0.30721">
        <ele>178.4</ele>
        <time>2023-02-12T09:42:57Z</time>
      </trkpt>
      <trkpt lat="46.60799" lon="-0.30696">
        <ele>179.6</ele>
        <time>2023-02-12T09:43:06Z</time>
      </trkpt>
      <trkpt lat="46.60785" lon="-0.30673">
        <ele>180.2</ele>
        <time>2023-02-12T09:43:14Z</time>
      </trkpt>
      <trkpt lat="46.6078" lon="-0.30664">
        <ele>180.6</ele>
        <time>2023-02-12T09:43:17Z</time>
      </trkpt>
      <trkpt lat="46.60773" lon="-0.30654">
        <ele>181</ele>
        <time>2023-02-12T09:43:22Z</time>
      </trkpt>
      <trkpt lat="46.60773" lon="-0.30654">
        <ele>181</ele>
        <time>2023-02-12T09:43:23Z</time>
      </trkpt>
      <trkpt lat="46.60772" lon="-0.30654">
        <ele>180.8</ele>
        <time>2023-02-12T09:43:32Z</time>
      </trkpt>
      <trkpt lat="46.60772" lon="-0.30654">
        <ele>181</ele>
        <time>2023-02-12T09:43:34Z</time>
      </trkpt>
      <trkpt lat="46.60772" lon="-0.30655">
        <ele>180.6</ele>
        <time>2023-02-12T09:44:08Z</time>
      </trkpt>
      <trkpt lat="46.60772" lon="-0.30655">
        <ele>181</ele>
        <time>2023-02-12T09:44:37Z</time>
      </trkpt>
      <trkpt lat="46.6077" lon="-0.30654">
        <ele>181</ele>
        <time>2023-02-12T09:44:43Z</time>
      </trkpt>
      <trkpt lat="46.60758" lon="-0.30654">
        <ele>181</ele>
        <time>2023-02-12T09:44:49Z</time>
      </trkpt>
      <trkpt lat="46.6073" lon="-0.30653">
        <ele>180.4</ele>
        <time>2023-02-12T09:44:57Z</time>
      </trkpt>
      <trkpt lat="46.60702" lon="-0.30645">
        <ele>180.2</ele>
        <time>2023-02-12T09:45:04Z</time>
      </trkpt>
      <trkpt lat="46.60657" lon="-0.30627">
        <ele>180.4</ele>
        <time>2023-02-12T09:45:13Z</time>
      </trkpt>
      <trkpt lat="46.6062" lon="-0.30619">
        <ele>180.8</ele>
        <time>2023-02-12T09:45:21Z</time>
      </trkpt>
      <trkpt lat="46.60592" lon="-0.30617">
        <ele>181.8</ele>
        <time>2023-02-12T09:45:28Z</time>
      </trkpt>
      <trkpt lat="46.60584" lon="-0.30617">
        <ele>182.2</ele>
        <time>2023-02-12T09:45:30Z</time>
      </trkpt>
      <trkpt lat="46.60568" lon="-0.30614">
        <ele>182.8</ele>
        <time>2023-02-12T09:45:34Z</time>
      </trkpt>
      <trkpt lat="46.60561" lon="-0.30613">
        <ele>183.2</ele>
        <time>2023-02-12T09:45:36Z</time>
      </trkpt>
      <trkpt lat="46.60546" lon="-0.30612">
        <ele>184</ele>
        <time>2023-02-12T09:45:40Z</time>
      </trkpt>
      <trkpt lat="46.60533" lon="-0.30611">
        <ele>184.6</ele>
        <time>2023-02-12T09:45:44Z</time>
      </trkpt>
      <trkpt lat="46.60524" lon="-0.3061">
        <ele>185</ele>
        <time>2023-02-12T09:45:47Z</time>
      </trkpt>
      <trkpt lat="46.60507" lon="-0.30608">
        <ele>185.8</ele>
        <time>2023-02-12T09:45:52Z</time>
      </trkpt>
      <trkpt lat="46.605" lon="-0.30608">
        <ele>186.2</ele>
        <time>2023-02-12T09:45:54Z</time>
      </trkpt>
      <trkpt lat="46.60476" lon="-0.30607">
        <ele>186.8</ele>
        <time>2023-02-12T09:46:01Z</time>
      </trkpt>
      <trkpt lat="46.6047" lon="-0.30606">
        <ele>187.4</ele>
        <time>2023-02-12T09:46:03Z</time>
      </trkpt>
      <trkpt lat="46.60456" lon="-0.30604">
        <ele>188.6</ele>
        <time>2023-02-12T09:46:07Z</time>
      </trkpt>
      <trkpt lat="46.60446" lon="-0.30601">
        <ele>189.6</ele>
        <time>2023-02-12T09:46:10Z</time>
      </trkpt>
      <trkpt lat="46.60442" lon="-0.306">
        <ele>189.8</ele>
        <time>2023-02-12T09:46:11Z</time>
      </trkpt>
      <trkpt lat="46.60424" lon="-0.30594">
        <ele>190.6</ele>
        <time>2023-02-12T09:46:16Z</time>
      </trkpt>
      <trkpt lat="46.60414" lon="-0.30591">
        <ele>191</ele>
        <time>2023-02-12T09:46:19Z</time>
      </trkpt>
      <trkpt lat="46.60394" lon="-0.30585">
        <ele>191.6</ele>
        <time>2023-02-12T09:46:25Z</time>
      </trkpt>
      <trkpt lat="46.60385" lon="-0.3058">
        <ele>192.2</ele>
        <time>2023-02-12T09:46:28Z</time>
      </trkpt>
      <trkpt lat="46.60379" lon="-0.30576">
        <ele>192.6</ele>
        <time>2023-02-12T09:46:30Z</time>
      </trkpt>
      <trkpt lat="46.60365" lon="-0.3056">
        <ele>193.6</ele>
        <time>2023-02-12T09:46:35Z</time>
      </trkpt>
      <trkpt lat="46.60363" lon="-0.30557">
        <ele>193.8</ele>
        <time>2023-02-12T09:46:36Z</time>
      </trkpt>
      <trkpt lat="46.60344" lon="-0.30534">
        <ele>194.4</ele>
        <time>2023-02-12T09:46:43Z</time>
      </trkpt>
      <trkpt lat="46.60339" lon="-0.30527">
        <ele>194.8</ele>
        <time>2023-02-12T09:46:45Z</time>
      </trkpt>
      <trkpt lat="46.60314" lon="-0.30499">
        <ele>195.6</ele>
        <time>2023-02-12T09:46:54Z</time>
      </trkpt>
      <trkpt lat="46.60309" lon="-0.30494">
        <ele>195.8</ele>
        <time>2023-02-12T09:46:56Z</time>
      </trkpt>
      <trkpt lat="46.6029" lon="-0.30476">
        <ele>196.4</ele>
        <time>2023-02-12T09:47:02Z</time>
      </trkpt>
      <trkpt lat="46.60263" lon="-0.3045">
        <ele>196.4</ele>
        <time>2023-02-12T09:47:10Z</time>
      </trkpt>
      <trkpt lat="46.60243" lon="-0.30429">
        <ele>196.6</ele>
        <time>2023-02-12T09:47:16Z</time>
      </trkpt>
      <trkpt lat="46.6024" lon="-0.30425">
        <ele>196.6</ele>
        <time>2023-02-12T09:47:17Z</time>
      </trkpt>
      <trkpt lat="46.60226" lon="-0.30406">
        <ele>197</ele>
        <time>2023-02-12T09:47:22Z</time>
      </trkpt>
      <trkpt lat="46.60224" lon="-0.30403">
        <ele>197</ele>
        <time>2023-02-12T09:47:23Z</time>
      </trkpt>
      <trkpt lat="46.60203" lon="-0.30378">
        <ele>197.8</ele>
        <time>2023-02-12T09:47:30Z</time>
      </trkpt>
      <trkpt lat="46.60199" lon="-0.30374">
        <ele>198</ele>
        <time>2023-02-12T09:47:31Z</time>
      </trkpt>
      <trkpt lat="46.60189" lon="-0.30362">
        <ele>198</ele>
        <time>2023-02-12T09:47:34Z</time>
      </trkpt>
      <trkpt lat="46.60182" lon="-0.30354">
        <ele>198.2</ele>
        <time>2023-02-12T09:47:36Z</time>
      </trkpt>
      <trkpt lat="46.60169" lon="-0.3034">
        <ele>198.6</ele>
        <time>2023-02-12T09:47:40Z</time>
      </trkpt>
      <trkpt lat="46.60158" lon="-0.30331">
        <ele>198.2</ele>
        <time>2023-02-12T09:47:43Z</time>
      </trkpt>
      <trkpt lat="46.60146" lon="-0.30322">
        <ele>198.4</ele>
        <time>2023-02-12T09:47:46Z</time>
      </trkpt>
      <trkpt lat="46.60137" lon="-0.30312">
        <ele>198.8</ele>
        <time>2023-02-12T09:47:49Z</time>
      </trkpt>
      <trkpt lat="46.60134" lon="-0.30309">
        <ele>199</ele>
        <time>2023-02-12T09:47:50Z</time>
      </trkpt>
      <trkpt lat="46.6013" lon="-0.30307">
        <ele>199</ele>
        <time>2023-02-12T09:47:51Z</time>
      </trkpt>
      <trkpt lat="46.60114" lon="-0.30297">
        <ele>199</ele>
        <time>2023-02-12T09:47:55Z</time>
      </trkpt>
      <trkpt lat="46.60099" lon="-0.30285">
        <ele>199</ele>
        <time>2023-02-12T09:47:59Z</time>
      </trkpt>
      <trkpt lat="46.60089" lon="-0.30278">
        <ele>199.2</ele>
        <time>2023-02-12T09:48:02Z</time>
      </trkpt>
      <trkpt lat="46.60075" lon="-0.30268">
        <ele>200</ele>
        <time>2023-02-12T09:48:06Z</time>
      </trkpt>
      <trkpt lat="46.60063" lon="-0.30259">
        <ele>200.2</ele>
        <time>2023-02-12T09:48:09Z</time>
      </trkpt>
      <trkpt lat="46.60032" lon="-0.30235">
        <ele>199.4</ele>
        <time>2023-02-12T09:48:16Z</time>
      </trkpt>
      <trkpt lat="46.60022" lon="-0.30228">
        <ele>199</ele>
        <time>2023-02-12T09:48:18Z</time>
      </trkpt>
      <trkpt lat="46.60002" lon="-0.30212">
        <ele>198.4</ele>
        <time>2023-02-12T09:48:22Z</time>
      </trkpt>
      <trkpt lat="46.59979" lon="-0.30197">
        <ele>198</ele>
        <time>2023-02-12T09:48:26Z</time>
      </trkpt>
      <trkpt lat="46.59973" lon="-0.30194">
        <ele>197.8</ele>
        <time>2023-02-12T09:48:27Z</time>
      </trkpt>
      <trkpt lat="46.59967" lon="-0.3019">
        <ele>197.8</ele>
        <time>2023-02-12T09:48:28Z</time>
      </trkpt>
      <trkpt lat="46.59942" lon="-0.30171">
        <ele>197.2</ele>
        <time>2023-02-12T09:48:32Z</time>
      </trkpt>
      <trkpt lat="46.59931" lon="-0.30162">
        <ele>196.8</ele>
        <time>2023-02-12T09:48:34Z</time>
      </trkpt>
      <trkpt lat="46.5992" lon="-0.30153">
        <ele>196.2</ele>
        <time>2023-02-12T09:48:37Z</time>
      </trkpt>
      <trkpt lat="46.59918" lon="-0.30152">
        <ele>196</ele>
        <time>2023-02-12T09:48:38Z</time>
      </trkpt>
      <trkpt lat="46.59916" lon="-0.30152">
        <ele>195.8</ele>
        <time>2023-02-12T09:48:39Z</time>
      </trkpt>
      <trkpt lat="46.59913" lon="-0.30152">
        <ele>195.8</ele>
        <time>2023-02-12T09:48:40Z</time>
      </trkpt>
      <trkpt lat="46.59911" lon="-0.30152">
        <ele>195.6</ele>
        <time>2023-02-12T09:48:41Z</time>
      </trkpt>
      <trkpt lat="46.5991" lon="-0.30151">
        <ele>195.6</ele>
        <time>2023-02-12T09:48:42Z</time>
      </trkpt>
      <trkpt lat="46.59904" lon="-0.30144">
        <ele>195.4</ele>
        <time>2023-02-12T09:48:45Z</time>
      </trkpt>
      <trkpt lat="46.59886" lon="-0.30131">
        <ele>195.8</ele>
        <time>2023-02-12T09:48:50Z</time>
      </trkpt>
      <trkpt lat="46.59863" lon="-0.30114">
        <ele>196.6</ele>
        <time>2023-02-12T09:48:56Z</time>
      </trkpt>
      <trkpt lat="46.59838" lon="-0.30092">
        <ele>196.4</ele>
        <time>2023-02-12T09:49:02Z</time>
      </trkpt>
      <trkpt lat="46.59826" lon="-0.30082">
        <ele>196.8</ele>
        <time>2023-02-12T09:49:05Z</time>
      </trkpt>
      <trkpt lat="46.59815" lon="-0.30071">
        <ele>196.8</ele>
        <time>2023-02-12T09:49:08Z</time>
      </trkpt>
      <trkpt lat="46.59783" lon="-0.30043">
        <ele>196.8</ele>
        <time>2023-02-12T09:49:16Z</time>
      </trkpt>
      <trkpt lat="46.59768" lon="-0.30031">
        <ele>197.2</ele>
        <time>2023-02-12T09:49:20Z</time>
      </trkpt>
      <trkpt lat="46.59761" lon="-0.30026">
        <ele>197.6</ele>
        <time>2023-02-12T09:49:22Z</time>
      </trkpt>
      <trkpt lat="46.59757" lon="-0.30023">
        <ele>198</ele>
        <time>2023-02-12T09:49:23Z</time>
      </trkpt>
      <trkpt lat="46.59737" lon="-0.30005">
        <ele>198.2</ele>
        <time>2023-02-12T09:49:29Z</time>
      </trkpt>
      <trkpt lat="46.59735" lon="-0.30002">
        <ele>198.2</ele>
        <time>2023-02-12T09:49:30Z</time>
      </trkpt>
      <trkpt lat="46.59735" lon="-0.29996">
        <ele>198.4</ele>
        <time>2023-02-12T09:49:32Z</time>
      </trkpt>
      <trkpt lat="46.59742" lon="-0.2998">
        <ele>198.4</ele>
        <time>2023-02-12T09:49:37Z</time>
      </trkpt>
      <trkpt lat="46.59752" lon="-0.29961">
        <ele>198.6</ele>
        <time>2023-02-12T09:49:44Z</time>
      </trkpt>
      <trkpt lat="46.59754" lon="-0.29958">
        <ele>198.6</ele>
        <time>2023-02-12T09:49:45Z</time>
      </trkpt>
      <trkpt lat="46.59756" lon="-0.29949">
        <ele>198.6</ele>
        <time>2023-02-12T09:49:47Z</time>
      </trkpt>
      <trkpt lat="46.59756" lon="-0.29942">
        <ele>198.6</ele>
        <time>2023-02-12T09:49:48Z</time>
      </trkpt>
      <trkpt lat="46.59745" lon="-0.29919">
        <ele>198.4</ele>
        <time>2023-02-12T09:49:52Z</time>
      </trkpt>
      <trkpt lat="46.59742" lon="-0.29913">
        <ele>197.8</ele>
        <time>2023-02-12T09:49:53Z</time>
      </trkpt>
      <trkpt lat="46.59715" lon="-0.29874">
        <ele>197</ele>
        <time>2023-02-12T09:50:00Z</time>
      </trkpt>
      <trkpt lat="46.59711" lon="-0.29867">
        <ele>196.8</ele>
        <time>2023-02-12T09:50:01Z</time>
      </trkpt>
      <trkpt lat="46.59695" lon="-0.29842">
        <ele>195.6</ele>
        <time>2023-02-12T09:50:05Z</time>
      </trkpt>
      <trkpt lat="46.59679" lon="-0.29818">
        <ele>195.6</ele>
        <time>2023-02-12T09:50:09Z</time>
      </trkpt>
      <trkpt lat="46.59655" lon="-0.29783">
        <ele>196.2</ele>
        <time>2023-02-12T09:50:16Z</time>
      </trkpt>
      <trkpt lat="46.59645" lon="-0.2977">
        <ele>196</ele>
        <time>2023-02-12T09:50:19Z</time>
      </trkpt>
      <trkpt lat="46.59638" lon="-0.2977">
        <ele>196</ele>
        <time>2023-02-12T09:50:21Z</time>
      </trkpt>
      <trkpt lat="46.59627" lon="-0.29778">
        <ele>195.6</ele>
        <time>2023-02-12T09:50:24Z</time>
      </trkpt>
      <trkpt lat="46.59623" lon="-0.29778">
        <ele>195.6</ele>
        <time>2023-02-12T09:50:25Z</time>
      </trkpt>
      <trkpt lat="46.5962" lon="-0.29777">
        <ele>195.6</ele>
        <time>2023-02-12T09:50:26Z</time>
      </trkpt>
      <trkpt lat="46.59613" lon="-0.2977">
        <ele>195.6</ele>
        <time>2023-02-12T09:50:28Z</time>
      </trkpt>
      <trkpt lat="46.5961" lon="-0.29765">
        <ele>195.6</ele>
        <time>2023-02-12T09:50:29Z</time>
      </trkpt>
      <trkpt lat="46.59595" lon="-0.29741">
        <ele>194.8</ele>
        <time>2023-02-12T09:50:34Z</time>
      </trkpt>
      <trkpt lat="46.59588" lon="-0.29733">
        <ele>194.6</ele>
        <time>2023-02-12T09:50:36Z</time>
      </trkpt>
      <trkpt lat="46.59572" lon="-0.29713">
        <ele>194.2</ele>
        <time>2023-02-12T09:50:40Z</time>
      </trkpt>
      <trkpt lat="46.59557" lon="-0.29695">
        <ele>193.6</ele>
        <time>2023-02-12T09:50:44Z</time>
      </trkpt>
      <trkpt lat="46.59554" lon="-0.29691">
        <ele>193.4</ele>
        <time>2023-02-12T09:50:45Z</time>
      </trkpt>
      <trkpt lat="46.59538" lon="-0.29672">
        <ele>193.4</ele>
        <time>2023-02-12T09:50:50Z</time>
      </trkpt>
      <trkpt lat="46.59534" lon="-0.29669">
        <ele>193.2</ele>
        <time>2023-02-12T09:50:51Z</time>
      </trkpt>
      <trkpt lat="46.59531" lon="-0.29667">
        <ele>192.4</ele>
        <time>2023-02-12T09:50:52Z</time>
      </trkpt>
      <trkpt lat="46.59526" lon="-0.29664">
        <ele>191.8</ele>
        <time>2023-02-12T09:50:54Z</time>
      </trkpt>
      <trkpt lat="46.59521" lon="-0.29661">
        <ele>191.4</ele>
        <time>2023-02-12T09:50:56Z</time>
      </trkpt>
      <trkpt lat="46.59519" lon="-0.2966">
        <ele>191.2</ele>
        <time>2023-02-12T09:50:57Z</time>
      </trkpt>
      <trkpt lat="46.59517" lon="-0.29659">
        <ele>191</ele>
        <time>2023-02-12T09:50:58Z</time>
      </trkpt>
      <trkpt lat="46.59502" lon="-0.29649">
        <ele>190.4</ele>
        <time>2023-02-12T09:51:03Z</time>
      </trkpt>
      <trkpt lat="46.59499" lon="-0.29645">
        <ele>190.2</ele>
        <time>2023-02-12T09:51:04Z</time>
      </trkpt>
      <trkpt lat="46.59489" lon="-0.29633">
        <ele>189.8</ele>
        <time>2023-02-12T09:51:08Z</time>
      </trkpt>
      <trkpt lat="46.59488" lon="-0.29616">
        <ele>191</ele>
        <time>2023-02-12T09:51:13Z</time>
      </trkpt>
      <trkpt lat="46.59488" lon="-0.29609">
        <ele>191.4</ele>
        <time>2023-02-12T09:51:15Z</time>
      </trkpt>
      <trkpt lat="46.59488" lon="-0.29583">
        <ele>192.4</ele>
        <time>2023-02-12T09:51:21Z</time>
      </trkpt>
      <trkpt lat="46.59487" lon="-0.29579">
        <ele>192.4</ele>
        <time>2023-02-12T09:51:22Z</time>
      </trkpt>
      <trkpt lat="46.5948" lon="-0.29562">
        <ele>193</ele>
        <time>2023-02-12T09:51:26Z</time>
      </trkpt>
      <trkpt lat="46.59474" lon="-0.29549">
        <ele>193.4</ele>
        <time>2023-02-12T09:51:29Z</time>
      </trkpt>
      <trkpt lat="46.59463" lon="-0.2952">
        <ele>194.2</ele>
        <time>2023-02-12T09:51:35Z</time>
      </trkpt>
      <trkpt lat="46.59459" lon="-0.29509">
        <ele>194.6</ele>
        <time>2023-02-12T09:51:37Z</time>
      </trkpt>
      <trkpt lat="46.5945" lon="-0.29484">
        <ele>194.6</ele>
        <time>2023-02-12T09:51:41Z</time>
      </trkpt>
      <trkpt lat="46.5943" lon="-0.29431">
        <ele>193.6</ele>
        <time>2023-02-12T09:51:48Z</time>
      </trkpt>
      <trkpt lat="46.59424" lon="-0.29413">
        <ele>193.4</ele>
        <time>2023-02-12T09:51:50Z</time>
      </trkpt>
      <trkpt lat="46.59407" lon="-0.29367">
        <ele>192.4</ele>
        <time>2023-02-12T09:51:55Z</time>
      </trkpt>
      <trkpt lat="46.59391" lon="-0.29331">
        <ele>191.2</ele>
        <time>2023-02-12T09:51:59Z</time>
      </trkpt>
      <trkpt lat="46.59383" lon="-0.29315">
        <ele>190.8</ele>
        <time>2023-02-12T09:52:01Z</time>
      </trkpt>
      <trkpt lat="46.59361" lon="-0.29275">
        <ele>190.2</ele>
        <time>2023-02-12T09:52:06Z</time>
      </trkpt>
      <trkpt lat="46.59352" lon="-0.29259">
        <ele>190</ele>
        <time>2023-02-12T09:52:08Z</time>
      </trkpt>
      <trkpt lat="46.59328" lon="-0.29204">
        <ele>189.4</ele>
        <time>2023-02-12T09:52:14Z</time>
      </trkpt>
      <trkpt lat="46.59324" lon="-0.29195">
        <ele>189</ele>
        <time>2023-02-12T09:52:15Z</time>
      </trkpt>
      <trkpt lat="46.59313" lon="-0.29168">
        <ele>188</ele>
        <time>2023-02-12T09:52:18Z</time>
      </trkpt>
      <trkpt lat="46.59307" lon="-0.29152">
        <ele>187.4</ele>
        <time>2023-02-12T09:52:20Z</time>
      </trkpt>
      <trkpt lat="46.59306" lon="-0.29145">
        <ele>187</ele>
        <time>2023-02-12T09:52:21Z</time>
      </trkpt>
      <trkpt lat="46.59306" lon="-0.29137">
        <ele>185.8</ele>
        <time>2023-02-12T09:52:23Z</time>
      </trkpt>
      <trkpt lat="46.59311" lon="-0.29129">
        <ele>185.2</ele>
        <time>2023-02-12T09:52:26Z</time>
      </trkpt>
      <trkpt lat="46.59314" lon="-0.29128">
        <ele>185.2</ele>
        <time>2023-02-12T09:52:27Z</time>
      </trkpt>
      <trkpt lat="46.59336" lon="-0.29124">
        <ele>186.4</ele>
        <time>2023-02-12T09:52:33Z</time>
      </trkpt>
      <trkpt lat="46.59344" lon="-0.29121">
        <ele>186.8</ele>
        <time>2023-02-12T09:52:35Z</time>
      </trkpt>
      <trkpt lat="46.59359" lon="-0.29115">
        <ele>188</ele>
        <time>2023-02-12T09:52:39Z</time>
      </trkpt>
      <trkpt lat="46.59371" lon="-0.29111">
        <ele>188.4</ele>
        <time>2023-02-12T09:52:42Z</time>
      </trkpt>
      <trkpt lat="46.59383" lon="-0.29106">
        <ele>189</ele>
        <time>2023-02-12T09:52:45Z</time>
      </trkpt>
      <trkpt lat="46.59399" lon="-0.29101">
        <ele>190</ele>
        <time>2023-02-12T09:52:49Z</time>
      </trkpt>
      <trkpt lat="46.59407" lon="-0.29098">
        <ele>190.8</ele>
        <time>2023-02-12T09:52:51Z</time>
      </trkpt>
      <trkpt lat="46.59416" lon="-0.29095">
        <ele>191.2</ele>
        <time>2023-02-12T09:52:53Z</time>
      </trkpt>
      <trkpt lat="46.59421" lon="-0.29094">
        <ele>191.4</ele>
        <time>2023-02-12T09:52:54Z</time>
      </trkpt>
      <trkpt lat="46.59434" lon="-0.29089">
        <ele>191.8</ele>
        <time>2023-02-12T09:52:57Z</time>
      </trkpt>
      <trkpt lat="46.59439" lon="-0.29088">
        <ele>192.2</ele>
        <time>2023-02-12T09:52:58Z</time>
      </trkpt>
      <trkpt lat="46.5946" lon="-0.29081">
        <ele>193.4</ele>
        <time>2023-02-12T09:53:03Z</time>
      </trkpt>
      <trkpt lat="46.59471" lon="-0.29077">
        <ele>193.8</ele>
        <time>2023-02-12T09:53:06Z</time>
      </trkpt>
      <trkpt lat="46.5949" lon="-0.2907">
        <ele>194.4</ele>
        <time>2023-02-12T09:53:11Z</time>
      </trkpt>
      <trkpt lat="46.59501" lon="-0.29066">
        <ele>195</ele>
        <time>2023-02-12T09:53:14Z</time>
      </trkpt>
      <trkpt lat="46.59517" lon="-0.2906">
        <ele>195.6</ele>
        <time>2023-02-12T09:53:18Z</time>
      </trkpt>
      <trkpt lat="46.59529" lon="-0.29056">
        <ele>196</ele>
        <time>2023-02-12T09:53:21Z</time>
      </trkpt>
      <trkpt lat="46.59554" lon="-0.29048">
        <ele>196.6</ele>
        <time>2023-02-12T09:53:27Z</time>
      </trkpt>
      <trkpt lat="46.59562" lon="-0.29045">
        <ele>196.8</ele>
        <time>2023-02-12T09:53:29Z</time>
      </trkpt>
      <trkpt lat="46.59596" lon="-0.29032">
        <ele>196.6</ele>
        <time>2023-02-12T09:53:36Z</time>
      </trkpt>
      <trkpt lat="46.59632" lon="-0.29013">
        <ele>196.4</ele>
        <time>2023-02-12T09:53:43Z</time>
      </trkpt>
      <trkpt lat="46.59681" lon="-0.2898">
        <ele>195.4</ele>
        <time>2023-02-12T09:53:52Z</time>
      </trkpt>
      <trkpt lat="46.59687" lon="-0.28976">
        <ele>195.2</ele>
        <time>2023-02-12T09:53:53Z</time>
      </trkpt>
      <trkpt lat="46.59722" lon="-0.28953">
        <ele>194.4</ele>
        <time>2023-02-12T09:53:59Z</time>
      </trkpt>
      <trkpt lat="46.59739" lon="-0.28942">
        <ele>194.2</ele>
        <time>2023-02-12T09:54:02Z</time>
      </trkpt>
      <trkpt lat="46.59778" lon="-0.28925">
        <ele>194.2</ele>
        <time>2023-02-12T09:54:09Z</time>
      </trkpt>
      <trkpt lat="46.59824" lon="-0.2891">
        <ele>194.8</ele>
        <time>2023-02-12T09:54:18Z</time>
      </trkpt>
      <trkpt lat="46.59863" lon="-0.28901">
        <ele>195</ele>
        <time>2023-02-12T09:54:25Z</time>
      </trkpt>
      <trkpt lat="46.59875" lon="-0.28901">
        <ele>194.6</ele>
        <time>2023-02-12T09:54:27Z</time>
      </trkpt>
      <trkpt lat="46.59899" lon="-0.28905">
        <ele>194.4</ele>
        <time>2023-02-12T09:54:31Z</time>
      </trkpt>
      <trkpt lat="46.59904" lon="-0.28905">
        <ele>194.2</ele>
        <time>2023-02-12T09:54:32Z</time>
      </trkpt>
      <trkpt lat="46.59915" lon="-0.28901">
        <ele>194.2</ele>
        <time>2023-02-12T09:54:34Z</time>
      </trkpt>
      <trkpt lat="46.59919" lon="-0.28896">
        <ele>194.2</ele>
        <time>2023-02-12T09:54:35Z</time>
      </trkpt>
      <trkpt lat="46.59922" lon="-0.2889">
        <ele>194.2</ele>
        <time>2023-02-12T09:54:36Z</time>
      </trkpt>
      <trkpt lat="46.59922" lon="-0.28877">
        <ele>193.4</ele>
        <time>2023-02-12T09:54:38Z</time>
      </trkpt>
      <trkpt lat="46.5992" lon="-0.28868">
        <ele>192.2</ele>
        <time>2023-02-12T09:54:41Z</time>
      </trkpt>
      <trkpt lat="46.59919" lon="-0.28867">
        <ele>192</ele>
        <time>2023-02-12T09:54:42Z</time>
      </trkpt>
      <trkpt lat="46.59914" lon="-0.28861">
        <ele>191.8</ele>
        <time>2023-02-12T09:54:46Z</time>
      </trkpt>
      <trkpt lat="46.59913" lon="-0.28857">
        <ele>191.8</ele>
        <time>2023-02-12T09:54:47Z</time>
      </trkpt>
      <trkpt lat="46.59918" lon="-0.28836">
        <ele>191.8</ele>
        <time>2023-02-12T09:54:51Z</time>
      </trkpt>
      <trkpt lat="46.59921" lon="-0.28823">
        <ele>192</ele>
        <time>2023-02-12T09:54:53Z</time>
      </trkpt>
      <trkpt lat="46.59929" lon="-0.28814">
        <ele>191.8</ele>
        <time>2023-02-12T09:54:55Z</time>
      </trkpt>
      <trkpt lat="46.5995" lon="-0.28812">
        <ele>191.8</ele>
        <time>2023-02-12T09:54:59Z</time>
      </trkpt>
      <trkpt lat="46.59983" lon="-0.28817">
        <ele>191.2</ele>
        <time>2023-02-12T09:55:05Z</time>
      </trkpt>
      <trkpt lat="46.59995" lon="-0.28816">
        <ele>191</ele>
        <time>2023-02-12T09:55:07Z</time>
      </trkpt>
      <trkpt lat="46.60014" lon="-0.2881">
        <ele>190.6</ele>
        <time>2023-02-12T09:55:10Z</time>
      </trkpt>
      <trkpt lat="46.60053" lon="-0.28794">
        <ele>190</ele>
        <time>2023-02-12T09:55:16Z</time>
      </trkpt>
      <trkpt lat="46.60067" lon="-0.28789">
        <ele>189.6</ele>
        <time>2023-02-12T09:55:18Z</time>
      </trkpt>
      <trkpt lat="46.60089" lon="-0.28779">
        <ele>188.6</ele>
        <time>2023-02-12T09:55:21Z</time>
      </trkpt>
      <trkpt lat="46.6012" lon="-0.28765">
        <ele>188</ele>
        <time>2023-02-12T09:55:25Z</time>
      </trkpt>
      <trkpt lat="46.60144" lon="-0.28753">
        <ele>187.4</ele>
        <time>2023-02-12T09:55:28Z</time>
      </trkpt>
      <trkpt lat="46.6016" lon="-0.28745">
        <ele>186.4</ele>
        <time>2023-02-12T09:55:30Z</time>
      </trkpt>
      <trkpt lat="46.60175" lon="-0.28736">
        <ele>185.4</ele>
        <time>2023-02-12T09:55:32Z</time>
      </trkpt>
      <trkpt lat="46.60183" lon="-0.28732">
        <ele>185</ele>
        <time>2023-02-12T09:55:33Z</time>
      </trkpt>
      <trkpt lat="46.60211" lon="-0.28715">
        <ele>184.2</ele>
        <time>2023-02-12T09:55:37Z</time>
      </trkpt>
      <trkpt lat="46.60237" lon="-0.287">
        <ele>184</ele>
        <time>2023-02-12T09:55:41Z</time>
      </trkpt>
      <trkpt lat="46.60287" lon="-0.28675">
        <ele>184.2</ele>
        <time>2023-02-12T09:55:49Z</time>
      </trkpt>
      <trkpt lat="46.60319" lon="-0.2866">
        <ele>185.2</ele>
        <time>2023-02-12T09:55:55Z</time>
      </trkpt>
      <trkpt lat="46.60322" lon="-0.28654">
        <ele>185.4</ele>
        <time>2023-02-12T09:55:56Z</time>
      </trkpt>
      <trkpt lat="46.60323" lon="-0.28647">
        <ele>185.6</ele>
        <time>2023-02-12T09:55:57Z</time>
      </trkpt>
      <trkpt lat="46.60319" lon="-0.28591">
        <ele>185.8</ele>
        <time>2023-02-12T09:56:04Z</time>
      </trkpt>
      <trkpt lat="46.60315" lon="-0.28555">
        <ele>186.2</ele>
        <time>2023-02-12T09:56:09Z</time>
      </trkpt>
      <trkpt lat="46.60311" lon="-0.28543">
        <ele>186.4</ele>
        <time>2023-02-12T09:56:11Z</time>
      </trkpt>
      <trkpt lat="46.60303" lon="-0.28534">
        <ele>186</ele>
        <time>2023-02-12T09:56:13Z</time>
      </trkpt>
      <trkpt lat="46.60297" lon="-0.2853">
        <ele>185.8</ele>
        <time>2023-02-12T09:56:14Z</time>
      </trkpt>
      <trkpt lat="46.60264" lon="-0.285">
        <ele>184.2</ele>
        <time>2023-02-12T09:56:20Z</time>
      </trkpt>
      <trkpt lat="46.60257" lon="-0.28485">
        <ele>183.8</ele>
        <time>2023-02-12T09:56:22Z</time>
      </trkpt>
      <trkpt lat="46.60255" lon="-0.28476">
        <ele>183.6</ele>
        <time>2023-02-12T09:56:23Z</time>
      </trkpt>
      <trkpt lat="46.60255" lon="-0.28466">
        <ele>183.4</ele>
        <time>2023-02-12T09:56:24Z</time>
      </trkpt>
      <trkpt lat="46.60258" lon="-0.28439">
        <ele>183.4</ele>
        <time>2023-02-12T09:56:27Z</time>
      </trkpt>
      <trkpt lat="46.60262" lon="-0.28422">
        <ele>183</ele>
        <time>2023-02-12T09:56:29Z</time>
      </trkpt>
      <trkpt lat="46.60269" lon="-0.28409">
        <ele>182.8</ele>
        <time>2023-02-12T09:56:31Z</time>
      </trkpt>
      <trkpt lat="46.60278" lon="-0.28397">
        <ele>182.8</ele>
        <time>2023-02-12T09:56:33Z</time>
      </trkpt>
      <trkpt lat="46.60291" lon="-0.28381">
        <ele>182.6</ele>
        <time>2023-02-12T09:56:36Z</time>
      </trkpt>
      <trkpt lat="46.60317" lon="-0.28348">
        <ele>182</ele>
        <time>2023-02-12T09:56:42Z</time>
      </trkpt>
      <trkpt lat="46.6035" lon="-0.28305">
        <ele>181</ele>
        <time>2023-02-12T09:56:49Z</time>
      </trkpt>
      <trkpt lat="46.60355" lon="-0.28298">
        <ele>180.8</ele>
        <time>2023-02-12T09:56:50Z</time>
      </trkpt>
      <trkpt lat="46.60402" lon="-0.2824">
        <ele>179.8</ele>
        <time>2023-02-12T09:56:59Z</time>
      </trkpt>
      <trkpt lat="46.60407" lon="-0.28233">
        <ele>179.6</ele>
        <time>2023-02-12T09:57:00Z</time>
      </trkpt>
      <trkpt lat="46.60421" lon="-0.28215">
        <ele>179.4</ele>
        <time>2023-02-12T09:57:03Z</time>
      </trkpt>
      <trkpt lat="46.60427" lon="-0.28203">
        <ele>179.2</ele>
        <time>2023-02-12T09:57:05Z</time>
      </trkpt>
      <trkpt lat="46.60433" lon="-0.28195">
        <ele>178.8</ele>
        <time>2023-02-12T09:57:07Z</time>
      </trkpt>
      <trkpt lat="46.6044" lon="-0.28185">
        <ele>178.4</ele>
        <time>2023-02-12T09:57:09Z</time>
      </trkpt>
      <trkpt lat="46.60443" lon="-0.2818">
        <ele>178.2</ele>
        <time>2023-02-12T09:57:10Z</time>
      </trkpt>
      <trkpt lat="46.60457" lon="-0.28161">
        <ele>177</ele>
        <time>2023-02-12T09:57:13Z</time>
      </trkpt>
      <trkpt lat="46.60463" lon="-0.28154">
        <ele>176.8</ele>
        <time>2023-02-12T09:57:14Z</time>
      </trkpt>
      <trkpt lat="46.60473" lon="-0.28137">
        <ele>176</ele>
        <time>2023-02-12T09:57:16Z</time>
      </trkpt>
      <trkpt lat="46.60485" lon="-0.28118">
        <ele>174.8</ele>
        <time>2023-02-12T09:57:18Z</time>
      </trkpt>
      <trkpt lat="46.60491" lon="-0.28108">
        <ele>174.2</ele>
        <time>2023-02-12T09:57:19Z</time>
      </trkpt>
      <trkpt lat="46.60497" lon="-0.28099">
        <ele>173.6</ele>
        <time>2023-02-12T09:57:20Z</time>
      </trkpt>
      <trkpt lat="46.6051" lon="-0.2808">
        <ele>172.6</ele>
        <time>2023-02-12T09:57:22Z</time>
      </trkpt>
      <trkpt lat="46.60524" lon="-0.28064">
        <ele>171.2</ele>
        <time>2023-02-12T09:57:24Z</time>
      </trkpt>
      <trkpt lat="46.60531" lon="-0.28056">
        <ele>170.6</ele>
        <time>2023-02-12T09:57:25Z</time>
      </trkpt>
      <trkpt lat="46.60538" lon="-0.28048">
        <ele>170</ele>
        <time>2023-02-12T09:57:26Z</time>
      </trkpt>
      <trkpt lat="46.60561" lon="-0.28024">
        <ele>169</ele>
        <time>2023-02-12T09:57:29Z</time>
      </trkpt>
      <trkpt lat="46.60568" lon="-0.28015">
        <ele>168.4</ele>
        <time>2023-02-12T09:57:30Z</time>
      </trkpt>
      <trkpt lat="46.60575" lon="-0.28005">
        <ele>167.8</ele>
        <time>2023-02-12T09:57:31Z</time>
      </trkpt>
      <trkpt lat="46.60594" lon="-0.27974">
        <ele>166.6</ele>
        <time>2023-02-12T09:57:34Z</time>
      </trkpt>
      <trkpt lat="46.60601" lon="-0.27965">
        <ele>166.2</ele>
        <time>2023-02-12T09:57:35Z</time>
      </trkpt>
      <trkpt lat="46.60617" lon="-0.27936">
        <ele>165</ele>
        <time>2023-02-12T09:57:38Z</time>
      </trkpt>
      <trkpt lat="46.60625" lon="-0.27917">
        <ele>164.2</ele>
        <time>2023-02-12T09:57:40Z</time>
      </trkpt>
      <trkpt lat="46.60635" lon="-0.27888">
        <ele>163.8</ele>
        <time>2023-02-12T09:57:43Z</time>
      </trkpt>
      <trkpt lat="46.60641" lon="-0.2787">
        <ele>163.2</ele>
        <time>2023-02-12T09:57:45Z</time>
      </trkpt>
      <trkpt lat="46.60647" lon="-0.27853">
        <ele>162.6</ele>
        <time>2023-02-12T09:57:47Z</time>
      </trkpt>
      <trkpt lat="46.60661" lon="-0.27808">
        <ele>161.8</ele>
        <time>2023-02-12T09:57:52Z</time>
      </trkpt>
      <trkpt lat="46.60661" lon="-0.27808">
        <ele>161.6</ele>
        <time>2023-02-12T09:57:53Z</time>
      </trkpt>
      <trkpt lat="46.60678" lon="-0.27746">
        <ele>161.6</ele>
        <time>2023-02-12T09:57:59Z</time>
      </trkpt>
      <trkpt lat="46.60695" lon="-0.27667">
        <ele>160.6</ele>
        <time>2023-02-12T09:58:07Z</time>
      </trkpt>
      <trkpt lat="46.60706" lon="-0.27597">
        <ele>159.6</ele>
        <time>2023-02-12T09:58:14Z</time>
      </trkpt>
      <trkpt lat="46.60719" lon="-0.2755">
        <ele>158.8</ele>
        <time>2023-02-12T09:58:19Z</time>
      </trkpt>
      <trkpt lat="46.60722" lon="-0.27541">
        <ele>158.4</ele>
        <time>2023-02-12T09:58:20Z</time>
      </trkpt>
      <trkpt lat="46.60739" lon="-0.27511">
        <ele>157.6</ele>
        <time>2023-02-12T09:58:24Z</time>
      </trkpt>
      <trkpt lat="46.60745" lon="-0.27504">
        <ele>157.2</ele>
        <time>2023-02-12T09:58:25Z</time>
      </trkpt>
      <trkpt lat="46.60762" lon="-0.27482">
        <ele>156.2</ele>
        <time>2023-02-12T09:58:28Z</time>
      </trkpt>
      <trkpt lat="46.60767" lon="-0.27475">
        <ele>155.8</ele>
        <time>2023-02-12T09:58:29Z</time>
      </trkpt>
      <trkpt lat="46.60777" lon="-0.27461">
        <ele>155</ele>
        <time>2023-02-12T09:58:31Z</time>
      </trkpt>
      <trkpt lat="46.60799" lon="-0.27432">
        <ele>154</ele>
        <time>2023-02-12T09:58:35Z</time>
      </trkpt>
      <trkpt lat="46.60804" lon="-0.27424">
        <ele>154</ele>
        <time>2023-02-12T09:58:36Z</time>
      </trkpt>
      <trkpt lat="46.6082" lon="-0.27401">
        <ele>152.8</ele>
        <time>2023-02-12T09:58:39Z</time>
      </trkpt>
      <trkpt lat="46.60832" lon="-0.27386">
        <ele>152</ele>
        <time>2023-02-12T09:58:41Z</time>
      </trkpt>
      <trkpt lat="46.60838" lon="-0.27379">
        <ele>151.8</ele>
        <time>2023-02-12T09:58:42Z</time>
      </trkpt>
      <trkpt lat="46.60864" lon="-0.27342">
        <ele>151.2</ele>
        <time>2023-02-12T09:58:47Z</time>
      </trkpt>
      <trkpt lat="46.6088" lon="-0.2732">
        <ele>150.6</ele>
        <time>2023-02-12T09:58:50Z</time>
      </trkpt>
      <trkpt lat="46.60892" lon="-0.27297">
        <ele>150.6</ele>
        <time>2023-02-12T09:58:53Z</time>
      </trkpt>
      <trkpt lat="46.60907" lon="-0.27268">
        <ele>150</ele>
        <time>2023-02-12T09:58:57Z</time>
      </trkpt>
      <trkpt lat="46.60915" lon="-0.27255">
        <ele>149.8</ele>
        <time>2023-02-12T09:58:59Z</time>
      </trkpt>
      <trkpt lat="46.60941" lon="-0.27211">
        <ele>150</ele>
        <time>2023-02-12T09:59:06Z</time>
      </trkpt>
      <trkpt lat="46.60963" lon="-0.27182">
        <ele>150.2</ele>
        <time>2023-02-12T09:59:12Z</time>
      </trkpt>
      <trkpt lat="46.60987" lon="-0.27157">
        <ele>151.4</ele>
        <time>2023-02-12T09:59:19Z</time>
      </trkpt>
      <trkpt lat="46.60991" lon="-0.27154">
        <ele>151.8</ele>
        <time>2023-02-12T09:59:20Z</time>
      </trkpt>
      <trkpt lat="46.61007" lon="-0.2714">
        <ele>152.4</ele>
        <time>2023-02-12T09:59:25Z</time>
      </trkpt>
      <trkpt lat="46.6101" lon="-0.27138">
        <ele>152.4</ele>
        <time>2023-02-12T09:59:26Z</time>
      </trkpt>
      <trkpt lat="46.61024" lon="-0.27127">
        <ele>152.8</ele>
        <time>2023-02-12T09:59:30Z</time>
      </trkpt>
      <trkpt lat="46.6103" lon="-0.27122">
        <ele>153</ele>
        <time>2023-02-12T09:59:32Z</time>
      </trkpt>
      <trkpt lat="46.6104" lon="-0.27114">
        <ele>153.8</ele>
        <time>2023-02-12T09:59:35Z</time>
      </trkpt>
      <trkpt lat="46.6105" lon="-0.27106">
        <ele>154.2</ele>
        <time>2023-02-12T09:59:38Z</time>
      </trkpt>
      <trkpt lat="46.61069" lon="-0.27092">
        <ele>154.6</ele>
        <time>2023-02-12T09:59:43Z</time>
      </trkpt>
      <trkpt lat="46.61077" lon="-0.27085">
        <ele>154.8</ele>
        <time>2023-02-12T09:59:45Z</time>
      </trkpt>
      <trkpt lat="46.61081" lon="-0.27082">
        <ele>155.2</ele>
        <time>2023-02-12T09:59:46Z</time>
      </trkpt>
      <trkpt lat="46.61098" lon="-0.27069">
        <ele>155.6</ele>
        <time>2023-02-12T09:59:51Z</time>
      </trkpt>
      <trkpt lat="46.61119" lon="-0.27055">
        <ele>156.2</ele>
        <time>2023-02-12T09:59:57Z</time>
      </trkpt>
      <trkpt lat="46.61123" lon="-0.27053">
        <ele>156.4</ele>
        <time>2023-02-12T09:59:58Z</time>
      </trkpt>
      <trkpt lat="46.61149" lon="-0.27038">
        <ele>156.8</ele>
        <time>2023-02-12T10:00:05Z</time>
      </trkpt>
      <trkpt lat="46.61152" lon="-0.27036">
        <ele>156.8</ele>
        <time>2023-02-12T10:00:06Z</time>
      </trkpt>
      <trkpt lat="46.61174" lon="-0.27023">
        <ele>156.6</ele>
        <time>2023-02-12T10:00:11Z</time>
      </trkpt>
      <trkpt lat="46.61203" lon="-0.27004">
        <ele>156.4</ele>
        <time>2023-02-12T10:00:16Z</time>
      </trkpt>
      <trkpt lat="46.6124" lon="-0.2697">
        <ele>156</ele>
        <time>2023-02-12T10:00:23Z</time>
      </trkpt>
      <trkpt lat="46.61261" lon="-0.26947">
        <ele>155</ele>
        <time>2023-02-12T10:00:27Z</time>
      </trkpt>
      <trkpt lat="46.61267" lon="-0.26942">
        <ele>154.8</ele>
        <time>2023-02-12T10:00:28Z</time>
      </trkpt>
      <trkpt lat="46.61291" lon="-0.2692">
        <ele>154</ele>
        <time>2023-02-12T10:00:32Z</time>
      </trkpt>
      <trkpt lat="46.6131" lon="-0.26902">
        <ele>153.2</ele>
        <time>2023-02-12T10:00:35Z</time>
      </trkpt>
      <trkpt lat="46.61336" lon="-0.26878">
        <ele>152.8</ele>
        <time>2023-02-12T10:00:39Z</time>
      </trkpt>
      <trkpt lat="46.61362" lon="-0.26854">
        <ele>152</ele>
        <time>2023-02-12T10:00:43Z</time>
      </trkpt>
      <trkpt lat="46.61385" lon="-0.26833">
        <ele>151.8</ele>
        <time>2023-02-12T10:00:47Z</time>
      </trkpt>
      <trkpt lat="46.61397" lon="-0.26826">
        <ele>151.4</ele>
        <time>2023-02-12T10:00:49Z</time>
      </trkpt>
      <trkpt lat="46.6141" lon="-0.2682">
        <ele>151</ele>
        <time>2023-02-12T10:00:51Z</time>
      </trkpt>
      <trkpt lat="46.61429" lon="-0.26815">
        <ele>150.8</ele>
        <time>2023-02-12T10:00:54Z</time>
      </trkpt>
      <trkpt lat="46.61471" lon="-0.26803">
        <ele>150.6</ele>
        <time>2023-02-12T10:01:01Z</time>
      </trkpt>
      <trkpt lat="46.61496" lon="-0.26784">
        <ele>150.6</ele>
        <time>2023-02-12T10:01:06Z</time>
      </trkpt>
      <trkpt lat="46.61532" lon="-0.2675">
        <ele>150.4</ele>
        <time>2023-02-12T10:01:13Z</time>
      </trkpt>
      <trkpt lat="46.61559" lon="-0.26719">
        <ele>151</ele>
        <time>2023-02-12T10:01:19Z</time>
      </trkpt>
      <trkpt lat="46.61586" lon="-0.26696">
        <ele>151.4</ele>
        <time>2023-02-12T10:01:25Z</time>
      </trkpt>
      <trkpt lat="46.61623" lon="-0.26675">
        <ele>151.8</ele>
        <time>2023-02-12T10:01:33Z</time>
      </trkpt>
      <trkpt lat="46.61651" lon="-0.2666">
        <ele>152.2</ele>
        <time>2023-02-12T10:01:40Z</time>
      </trkpt>
      <trkpt lat="46.6168" lon="-0.26654">
        <ele>152.8</ele>
        <time>2023-02-12T10:01:47Z</time>
      </trkpt>
      <trkpt lat="46.61697" lon="-0.26651">
        <ele>153.4</ele>
        <time>2023-02-12T10:01:51Z</time>
      </trkpt>
      <trkpt lat="46.61707" lon="-0.26649">
        <ele>153.6</ele>
        <time>2023-02-12T10:01:53Z</time>
      </trkpt>
      <trkpt lat="46.6175" lon="-0.26642">
        <ele>153</ele>
        <time>2023-02-12T10:02:01Z</time>
      </trkpt>
      <trkpt lat="46.61791" lon="-0.26632">
        <ele>152</ele>
        <time>2023-02-12T10:02:07Z</time>
      </trkpt>
      <trkpt lat="46.6182" lon="-0.2662">
        <ele>151.4</ele>
        <time>2023-02-12T10:02:11Z</time>
      </trkpt>
      <trkpt lat="46.61834" lon="-0.26612">
        <ele>151</ele>
        <time>2023-02-12T10:02:13Z</time>
      </trkpt>
      <trkpt lat="46.61847" lon="-0.26603">
        <ele>150.6</ele>
        <time>2023-02-12T10:02:15Z</time>
      </trkpt>
      <trkpt lat="46.61858" lon="-0.26593">
        <ele>150.4</ele>
        <time>2023-02-12T10:02:17Z</time>
      </trkpt>
      <trkpt lat="46.6187" lon="-0.26584">
        <ele>150.2</ele>
        <time>2023-02-12T10:02:19Z</time>
      </trkpt>
      <trkpt lat="46.61888" lon="-0.26572">
        <ele>150</ele>
        <time>2023-02-12T10:02:22Z</time>
      </trkpt>
      <trkpt lat="46.6192" lon="-0.26549">
        <ele>149</ele>
        <time>2023-02-12T10:02:27Z</time>
      </trkpt>
      <trkpt lat="46.61926" lon="-0.26544">
        <ele>148.6</ele>
        <time>2023-02-12T10:02:28Z</time>
      </trkpt>
      <trkpt lat="46.61942" lon="-0.26532">
        <ele>147.8</ele>
        <time>2023-02-12T10:02:31Z</time>
      </trkpt>
      <trkpt lat="46.6195" lon="-0.26525">
        <ele>147.4</ele>
        <time>2023-02-12T10:02:33Z</time>
      </trkpt>
      <trkpt lat="46.61964" lon="-0.26514">
        <ele>146.8</ele>
        <time>2023-02-12T10:02:36Z</time>
      </trkpt>
      <trkpt lat="46.61976" lon="-0.26507">
        <ele>146.6</ele>
        <time>2023-02-12T10:02:38Z</time>
      </trkpt>
      <trkpt lat="46.62015" lon="-0.26494">
        <ele>146.8</ele>
        <time>2023-02-12T10:02:44Z</time>
      </trkpt>
      <trkpt lat="46.62054" lon="-0.26497">
        <ele>146.6</ele>
        <time>2023-02-12T10:02:50Z</time>
      </trkpt>
      <trkpt lat="46.62084" lon="-0.26505">
        <ele>146.2</ele>
        <time>2023-02-12T10:02:55Z</time>
      </trkpt>
      <trkpt lat="46.62096" lon="-0.26505">
        <ele>146.2</ele>
        <time>2023-02-12T10:02:57Z</time>
      </trkpt>
      <trkpt lat="46.62109" lon="-0.26502">
        <ele>145.8</ele>
        <time>2023-02-12T10:02:59Z</time>
      </trkpt>
      <trkpt lat="46.62115" lon="-0.26499">
        <ele>145.8</ele>
        <time>2023-02-12T10:03:00Z</time>
      </trkpt>
      <trkpt lat="46.62139" lon="-0.26484">
        <ele>145</ele>
        <time>2023-02-12T10:03:04Z</time>
      </trkpt>
      <trkpt lat="46.62146" lon="-0.26479">
        <ele>144.6</ele>
        <time>2023-02-12T10:03:05Z</time>
      </trkpt>
      <trkpt lat="46.62159" lon="-0.26468">
        <ele>143.2</ele>
        <time>2023-02-12T10:03:07Z</time>
      </trkpt>
      <trkpt lat="46.62174" lon="-0.26455">
        <ele>140.6</ele>
        <time>2023-02-12T10:03:09Z</time>
      </trkpt>
      <trkpt lat="46.6218" lon="-0.26447">
        <ele>139.6</ele>
        <time>2023-02-12T10:03:10Z</time>
      </trkpt>
      <trkpt lat="46.62195" lon="-0.2643">
        <ele>137.6</ele>
        <time>2023-02-12T10:03:12Z</time>
      </trkpt>
      <trkpt lat="46.62209" lon="-0.26415">
        <ele>136.4</ele>
        <time>2023-02-12T10:03:14Z</time>
      </trkpt>
      <trkpt lat="46.62224" lon="-0.26401">
        <ele>135</ele>
        <time>2023-02-12T10:03:16Z</time>
      </trkpt>
      <trkpt lat="46.62236" lon="-0.26392">
        <ele>132.8</ele>
        <time>2023-02-12T10:03:18Z</time>
      </trkpt>
      <trkpt lat="46.62249" lon="-0.26387">
        <ele>131.4</ele>
        <time>2023-02-12T10:03:20Z</time>
      </trkpt>
      <trkpt lat="46.62255" lon="-0.26385">
        <ele>130.2</ele>
        <time>2023-02-12T10:03:21Z</time>
      </trkpt>
      <trkpt lat="46.62266" lon="-0.26381">
        <ele>128.8</ele>
        <time>2023-02-12T10:03:23Z</time>
      </trkpt>
      <trkpt lat="46.62281" lon="-0.26374">
        <ele>127.6</ele>
        <time>2023-02-12T10:03:26Z</time>
      </trkpt>
      <trkpt lat="46.62294" lon="-0.26367">
        <ele>127</ele>
        <time>2023-02-12T10:03:29Z</time>
      </trkpt>
      <trkpt lat="46.623" lon="-0.26361">
        <ele>126.6</ele>
        <time>2023-02-12T10:03:31Z</time>
      </trkpt>
      <trkpt lat="46.62306" lon="-0.26353">
        <ele>126.2</ele>
        <time>2023-02-12T10:03:33Z</time>
      </trkpt>
      <trkpt lat="46.62311" lon="-0.26347">
        <ele>126</ele>
        <time>2023-02-12T10:03:35Z</time>
      </trkpt>
      <trkpt lat="46.62313" lon="-0.26343">
        <ele>126</ele>
        <time>2023-02-12T10:03:36Z</time>
      </trkpt>
      <trkpt lat="46.62312" lon="-0.26325">
        <ele>125.8</ele>
        <time>2023-02-12T10:03:40Z</time>
      </trkpt>
      <trkpt lat="46.62308" lon="-0.26306">
        <ele>126</ele>
        <time>2023-02-12T10:03:44Z</time>
      </trkpt>
      <trkpt lat="46.62306" lon="-0.26298">
        <ele>126.2</ele>
        <time>2023-02-12T10:03:46Z</time>
      </trkpt>
      <trkpt lat="46.62303" lon="-0.26289">
        <ele>126.8</ele>
        <time>2023-02-12T10:03:48Z</time>
      </trkpt>
      <trkpt lat="46.62297" lon="-0.26279">
        <ele>127.2</ele>
        <time>2023-02-12T10:03:51Z</time>
      </trkpt>
      <trkpt lat="46.62293" lon="-0.26272">
        <ele>127.6</ele>
        <time>2023-02-12T10:03:53Z</time>
      </trkpt>
      <trkpt lat="46.62287" lon="-0.26258">
        <ele>128.8</ele>
        <time>2023-02-12T10:03:57Z</time>
      </trkpt>
      <trkpt lat="46.62285" lon="-0.26254">
        <ele>128.8</ele>
        <time>2023-02-12T10:03:58Z</time>
      </trkpt>
      <trkpt lat="46.62279" lon="-0.26234">
        <ele>129.8</ele>
        <time>2023-02-12T10:04:03Z</time>
      </trkpt>
      <trkpt lat="46.62279" lon="-0.26227">
        <ele>130.4</ele>
        <time>2023-02-12T10:04:05Z</time>
      </trkpt>
      <trkpt lat="46.62278" lon="-0.26214">
        <ele>131</ele>
        <time>2023-02-12T10:04:08Z</time>
      </trkpt>
      <trkpt lat="46.6228" lon="-0.26197">
        <ele>131.4</ele>
        <time>2023-02-12T10:04:12Z</time>
      </trkpt>
      <trkpt lat="46.62281" lon="-0.26189">
        <ele>132</ele>
        <time>2023-02-12T10:04:14Z</time>
      </trkpt>
      <trkpt lat="46.62282" lon="-0.26186">
        <ele>132.2</ele>
        <time>2023-02-12T10:04:15Z</time>
      </trkpt>
      <trkpt lat="46.62286" lon="-0.26181">
        <ele>132.8</ele>
        <time>2023-02-12T10:04:17Z</time>
      </trkpt>
      <trkpt lat="46.62288" lon="-0.26178">
        <ele>133</ele>
        <time>2023-02-12T10:04:18Z</time>
      </trkpt>
      <trkpt lat="46.62299" lon="-0.26174">
        <ele>134</ele>
        <time>2023-02-12T10:04:23Z</time>
      </trkpt>
      <trkpt lat="46.62301" lon="-0.26174">
        <ele>134.2</ele>
        <time>2023-02-12T10:04:24Z</time>
      </trkpt>
      <trkpt lat="46.62311" lon="-0.26176">
        <ele>135</ele>
        <time>2023-02-12T10:04:29Z</time>
      </trkpt>
      <trkpt lat="46.62316" lon="-0.26176">
        <ele>135.4</ele>
        <time>2023-02-12T10:04:31Z</time>
      </trkpt>
      <trkpt lat="46.62328" lon="-0.26178">
        <ele>136.4</ele>
        <time>2023-02-12T10:04:36Z</time>
      </trkpt>
      <trkpt lat="46.6233" lon="-0.26178">
        <ele>136.6</ele>
        <time>2023-02-12T10:04:37Z</time>
      </trkpt>
      <trkpt lat="46.62343" lon="-0.26177">
        <ele>137.6</ele>
        <time>2023-02-12T10:04:42Z</time>
      </trkpt>
      <trkpt lat="46.62358" lon="-0.26176">
        <ele>138.6</ele>
        <time>2023-02-12T10:04:47Z</time>
      </trkpt>
      <trkpt lat="46.62363" lon="-0.26176">
        <ele>138.8</ele>
        <time>2023-02-12T10:04:49Z</time>
      </trkpt>
      <trkpt lat="46.62379" lon="-0.26174">
        <ele>139.8</ele>
        <time>2023-02-12T10:04:55Z</time>
      </trkpt>
      <trkpt lat="46.62392" lon="-0.26172">
        <ele>140.8</ele>
        <time>2023-02-12T10:05:00Z</time>
      </trkpt>
      <trkpt lat="46.62405" lon="-0.26172">
        <ele>141.8</ele>
        <time>2023-02-12T10:05:05Z</time>
      </trkpt>
      <trkpt lat="46.62411" lon="-0.26171">
        <ele>142</ele>
        <time>2023-02-12T10:05:07Z</time>
      </trkpt>
      <trkpt lat="46.62422" lon="-0.26169">
        <ele>142.6</ele>
        <time>2023-02-12T10:05:11Z</time>
      </trkpt>
      <trkpt lat="46.62427" lon="-0.26169">
        <ele>143.2</ele>
        <time>2023-02-12T10:05:13Z</time>
      </trkpt>
      <trkpt lat="46.62442" lon="-0.26166">
        <ele>144.2</ele>
        <time>2023-02-12T10:05:18Z</time>
      </trkpt>
      <trkpt lat="46.62448" lon="-0.26165">
        <ele>144.6</ele>
        <time>2023-02-12T10:05:20Z</time>
      </trkpt>
      <trkpt lat="46.62463" lon="-0.26161">
        <ele>145.4</ele>
        <time>2023-02-12T10:05:25Z</time>
      </trkpt>
      <trkpt lat="46.62478" lon="-0.26156">
        <ele>146.6</ele>
        <time>2023-02-12T10:05:30Z</time>
      </trkpt>
      <trkpt lat="46.62496" lon="-0.26151">
        <ele>147.6</ele>
        <time>2023-02-12T10:05:36Z</time>
      </trkpt>
      <trkpt lat="46.62502" lon="-0.2615">
        <ele>148.4</ele>
        <time>2023-02-12T10:05:38Z</time>
      </trkpt>
      <trkpt lat="46.62508" lon="-0.26148">
        <ele>148.8</ele>
        <time>2023-02-12T10:05:40Z</time>
      </trkpt>
      <trkpt lat="46.62531" lon="-0.26143">
        <ele>149.8</ele>
        <time>2023-02-12T10:05:47Z</time>
      </trkpt>
      <trkpt lat="46.62535" lon="-0.26142">
        <ele>150.2</ele>
        <time>2023-02-12T10:05:48Z</time>
      </trkpt>
      <trkpt lat="46.62552" lon="-0.26136">
        <ele>151.4</ele>
        <time>2023-02-12T10:05:53Z</time>
      </trkpt>
      <trkpt lat="46.6256" lon="-0.26134">
        <ele>151.8</ele>
        <time>2023-02-12T10:05:55Z</time>
      </trkpt>
      <trkpt lat="46.62583" lon="-0.26129">
        <ele>152.6</ele>
        <time>2023-02-12T10:06:01Z</time>
      </trkpt>
      <trkpt lat="46.62595" lon="-0.26127">
        <ele>152.8</ele>
        <time>2023-02-12T10:06:04Z</time>
      </trkpt>
      <trkpt lat="46.62614" lon="-0.26125">
        <ele>153.6</ele>
        <time>2023-02-12T10:06:09Z</time>
      </trkpt>
      <trkpt lat="46.62626" lon="-0.26124">
        <ele>153.8</ele>
        <time>2023-02-12T10:06:12Z</time>
      </trkpt>
      <trkpt lat="46.62654" lon="-0.26121">
        <ele>154.6</ele>
        <time>2023-02-12T10:06:19Z</time>
      </trkpt>
      <trkpt lat="46.62658" lon="-0.26121">
        <ele>154.8</ele>
        <time>2023-02-12T10:06:20Z</time>
      </trkpt>
      <trkpt lat="46.62666" lon="-0.2612">
        <ele>155</ele>
        <time>2023-02-12T10:06:22Z</time>
      </trkpt>
      <trkpt lat="46.62681" lon="-0.26118">
        <ele>155.6</ele>
        <time>2023-02-12T10:06:26Z</time>
      </trkpt>
      <trkpt lat="46.62693" lon="-0.26117">
        <ele>155.8</ele>
        <time>2023-02-12T10:06:29Z</time>
      </trkpt>
      <trkpt lat="46.62709" lon="-0.26115">
        <ele>156.4</ele>
        <time>2023-02-12T10:06:33Z</time>
      </trkpt>
      <trkpt lat="46.62728" lon="-0.26112">
        <ele>156.8</ele>
        <time>2023-02-12T10:06:38Z</time>
      </trkpt>
      <trkpt lat="46.62742" lon="-0.2611">
        <ele>157</ele>
        <time>2023-02-12T10:06:41Z</time>
      </trkpt>
      <trkpt lat="46.6277" lon="-0.26097">
        <ele>157.6</ele>
        <time>2023-02-12T10:06:47Z</time>
      </trkpt>
      <trkpt lat="46.62774" lon="-0.26093">
        <ele>157.6</ele>
        <time>2023-02-12T10:06:48Z</time>
      </trkpt>
      <trkpt lat="46.62791" lon="-0.26075">
        <ele>157.8</ele>
        <time>2023-02-12T10:06:52Z</time>
      </trkpt>
      <trkpt lat="46.62808" lon="-0.26055">
        <ele>158</ele>
        <time>2023-02-12T10:06:56Z</time>
      </trkpt>
      <trkpt lat="46.62827" lon="-0.26033">
        <ele>158.2</ele>
        <time>2023-02-12T10:07:00Z</time>
      </trkpt>
      <trkpt lat="46.62865" lon="-0.25993">
        <ele>157.4</ele>
        <time>2023-02-12T10:07:07Z</time>
      </trkpt>
      <trkpt lat="46.62895" lon="-0.25964">
        <ele>156.8</ele>
        <time>2023-02-12T10:07:12Z</time>
      </trkpt>
      <trkpt lat="46.62907" lon="-0.25952">
        <ele>156.4</ele>
        <time>2023-02-12T10:07:14Z</time>
      </trkpt>
      <trkpt lat="46.62952" lon="-0.25907">
        <ele>156.2</ele>
        <time>2023-02-12T10:07:22Z</time>
      </trkpt>
      <trkpt lat="46.62989" lon="-0.25882">
        <ele>156</ele>
        <time>2023-02-12T10:07:28Z</time>
      </trkpt>
      <trkpt lat="46.63031" lon="-0.25866">
        <ele>156.2</ele>
        <time>2023-02-12T10:07:34Z</time>
      </trkpt>
      <trkpt lat="46.63072" lon="-0.25866">
        <ele>156.8</ele>
        <time>2023-02-12T10:07:40Z</time>
      </trkpt>
      <trkpt lat="46.63094" lon="-0.25863">
        <ele>156.4</ele>
        <time>2023-02-12T10:07:44Z</time>
      </trkpt>
      <trkpt lat="46.63106" lon="-0.25853">
        <ele>156.4</ele>
        <time>2023-02-12T10:07:48Z</time>
      </trkpt>
      <trkpt lat="46.63128" lon="-0.25841">
        <ele>156.6</ele>
        <time>2023-02-12T10:07:53Z</time>
      </trkpt>
      <trkpt lat="46.63141" lon="-0.25834">
        <ele>157</ele>
        <time>2023-02-12T10:07:56Z</time>
      </trkpt>
      <trkpt lat="46.63153" lon="-0.25828">
        <ele>157.8</ele>
        <time>2023-02-12T10:07:59Z</time>
      </trkpt>
      <trkpt lat="46.63169" lon="-0.25819">
        <ele>158.8</ele>
        <time>2023-02-12T10:08:03Z</time>
      </trkpt>
      <trkpt lat="46.63177" lon="-0.25814">
        <ele>159</ele>
        <time>2023-02-12T10:08:05Z</time>
      </trkpt>
      <trkpt lat="46.63209" lon="-0.25796">
        <ele>159.4</ele>
        <time>2023-02-12T10:08:13Z</time>
      </trkpt>
      <trkpt lat="46.63218" lon="-0.25792">
        <ele>159.6</ele>
        <time>2023-02-12T10:08:15Z</time>
      </trkpt>
      <trkpt lat="46.63232" lon="-0.2579">
        <ele>159.6</ele>
        <time>2023-02-12T10:08:18Z</time>
      </trkpt>
      <trkpt lat="46.63254" lon="-0.25785">
        <ele>160</ele>
        <time>2023-02-12T10:08:23Z</time>
      </trkpt>
      <trkpt lat="46.63267" lon="-0.25783">
        <ele>160.2</ele>
        <time>2023-02-12T10:08:26Z</time>
      </trkpt>
      <trkpt lat="46.63302" lon="-0.25776">
        <ele>160.8</ele>
        <time>2023-02-12T10:08:33Z</time>
      </trkpt>
      <trkpt lat="46.63313" lon="-0.25775">
        <ele>160.6</ele>
        <time>2023-02-12T10:08:35Z</time>
      </trkpt>
      <trkpt lat="46.63324" lon="-0.25776">
        <ele>160.6</ele>
        <time>2023-02-12T10:08:37Z</time>
      </trkpt>
      <trkpt lat="46.6333" lon="-0.25776">
        <ele>160.6</ele>
        <time>2023-02-12T10:08:38Z</time>
      </trkpt>
      <trkpt lat="46.63373" lon="-0.25772">
        <ele>159.8</ele>
        <time>2023-02-12T10:08:45Z</time>
      </trkpt>
      <trkpt lat="46.63418" lon="-0.25761">
        <ele>159.2</ele>
        <time>2023-02-12T10:08:52Z</time>
      </trkpt>
      <trkpt lat="46.63425" lon="-0.25759">
        <ele>159</ele>
        <time>2023-02-12T10:08:53Z</time>
      </trkpt>
      <trkpt lat="46.63446" lon="-0.25753">
        <ele>158.2</ele>
        <time>2023-02-12T10:08:56Z</time>
      </trkpt>
      <trkpt lat="46.63453" lon="-0.2575">
        <ele>158</ele>
        <time>2023-02-12T10:08:57Z</time>
      </trkpt>
      <trkpt lat="46.63459" lon="-0.25747">
        <ele>157.6</ele>
        <time>2023-02-12T10:08:58Z</time>
      </trkpt>
      <trkpt lat="46.63477" lon="-0.25738">
        <ele>156.8</ele>
        <time>2023-02-12T10:09:01Z</time>
      </trkpt>
      <trkpt lat="46.63486" lon="-0.2573">
        <ele>156.8</ele>
        <time>2023-02-12T10:09:03Z</time>
      </trkpt>
      <trkpt lat="46.63502" lon="-0.25721">
        <ele>156.6</ele>
        <time>2023-02-12T10:09:06Z</time>
      </trkpt>
      <trkpt lat="46.63507" lon="-0.25717">
        <ele>156.2</ele>
        <time>2023-02-12T10:09:07Z</time>
      </trkpt>
      <trkpt lat="46.63513" lon="-0.2571">
        <ele>156</ele>
        <time>2023-02-12T10:09:08Z</time>
      </trkpt>
      <trkpt lat="46.63518" lon="-0.25703">
        <ele>155.4</ele>
        <time>2023-02-12T10:09:09Z</time>
      </trkpt>
      <trkpt lat="46.63527" lon="-0.25691">
        <ele>154.8</ele>
        <time>2023-02-12T10:09:11Z</time>
      </trkpt>
      <trkpt lat="46.63531" lon="-0.25689">
        <ele>154.2</ele>
        <time>2023-02-12T10:09:12Z</time>
      </trkpt>
      <trkpt lat="46.63534" lon="-0.25689">
        <ele>153.4</ele>
        <time>2023-02-12T10:09:13Z</time>
      </trkpt>
      <trkpt lat="46.63536" lon="-0.25692">
        <ele>152.8</ele>
        <time>2023-02-12T10:09:14Z</time>
      </trkpt>
      <trkpt lat="46.63541" lon="-0.257">
        <ele>151.6</ele>
        <time>2023-02-12T10:09:17Z</time>
      </trkpt>
      <trkpt lat="46.63543" lon="-0.25703">
        <ele>151.2</ele>
        <time>2023-02-12T10:09:18Z</time>
      </trkpt>
      <trkpt lat="46.63559" lon="-0.25717">
        <ele>150.8</ele>
        <time>2023-02-12T10:09:22Z</time>
      </trkpt>
      <trkpt lat="46.63568" lon="-0.25725">
        <ele>150.6</ele>
        <time>2023-02-12T10:09:24Z</time>
      </trkpt>
      <trkpt lat="46.63574" lon="-0.25729">
        <ele>150.2</ele>
        <time>2023-02-12T10:09:25Z</time>
      </trkpt>
      <trkpt lat="46.63591" lon="-0.25741">
        <ele>149.6</ele>
        <time>2023-02-12T10:09:28Z</time>
      </trkpt>
      <trkpt lat="46.63597" lon="-0.25745">
        <ele>149.6</ele>
        <time>2023-02-12T10:09:29Z</time>
      </trkpt>
      <trkpt lat="46.6362" lon="-0.25761">
        <ele>149.2</ele>
        <time>2023-02-12T10:09:33Z</time>
      </trkpt>
      <trkpt lat="46.63637" lon="-0.25773">
        <ele>148.2</ele>
        <time>2023-02-12T10:09:36Z</time>
      </trkpt>
      <trkpt lat="46.63643" lon="-0.25777">
        <ele>148</ele>
        <time>2023-02-12T10:09:37Z</time>
      </trkpt>
      <trkpt lat="46.63661" lon="-0.25787">
        <ele>147.2</ele>
        <time>2023-02-12T10:09:40Z</time>
      </trkpt>
      <trkpt lat="46.63668" lon="-0.2579">
        <ele>147</ele>
        <time>2023-02-12T10:09:41Z</time>
      </trkpt>
      <trkpt lat="46.63674" lon="-0.25792">
        <ele>146.6</ele>
        <time>2023-02-12T10:09:42Z</time>
      </trkpt>
      <trkpt lat="46.63696" lon="-0.25799">
        <ele>146</ele>
        <time>2023-02-12T10:09:45Z</time>
      </trkpt>
      <trkpt lat="46.63732" lon="-0.25812">
        <ele>144.8</ele>
        <time>2023-02-12T10:09:50Z</time>
      </trkpt>
      <trkpt lat="46.63745" lon="-0.25817">
        <ele>144.4</ele>
        <time>2023-02-12T10:09:52Z</time>
      </trkpt>
      <trkpt lat="46.63758" lon="-0.25819">
        <ele>143.4</ele>
        <time>2023-02-12T10:09:54Z</time>
      </trkpt>
      <trkpt lat="46.6378" lon="-0.25825">
        <ele>142.8</ele>
        <time>2023-02-12T10:09:57Z</time>
      </trkpt>
      <trkpt lat="46.63787" lon="-0.25828">
        <ele>142.4</ele>
        <time>2023-02-12T10:09:58Z</time>
      </trkpt>
      <trkpt lat="46.63808" lon="-0.25836">
        <ele>141.4</ele>
        <time>2023-02-12T10:10:01Z</time>
      </trkpt>
      <trkpt lat="46.63808" lon="-0.25836">
        <ele>141.2</ele>
        <time>2023-02-12T10:10:02Z</time>
      </trkpt>
      <trkpt lat="46.63846" lon="-0.25857">
        <ele>140.2</ele>
        <time>2023-02-12T10:10:07Z</time>
      </trkpt>
      <trkpt lat="46.63852" lon="-0.25862">
        <ele>139.8</ele>
        <time>2023-02-12T10:10:08Z</time>
      </trkpt>
      <trkpt lat="46.63867" lon="-0.25884">
        <ele>139.4</ele>
        <time>2023-02-12T10:10:11Z</time>
      </trkpt>
      <trkpt lat="46.63871" lon="-0.25892">
        <ele>139.4</ele>
        <time>2023-02-12T10:10:12Z</time>
      </trkpt>
      <trkpt lat="46.63882" lon="-0.2592">
        <ele>139.2</ele>
        <time>2023-02-12T10:10:15Z</time>
      </trkpt>
      <trkpt lat="46.63887" lon="-0.25941">
        <ele>139</ele>
        <time>2023-02-12T10:10:17Z</time>
      </trkpt>
      <trkpt lat="46.63904" lon="-0.26008">
        <ele>138</ele>
        <time>2023-02-12T10:10:23Z</time>
      </trkpt>
      <trkpt lat="46.63908" lon="-0.26018">
        <ele>137.8</ele>
        <time>2023-02-12T10:10:24Z</time>
      </trkpt>
      <trkpt lat="46.63924" lon="-0.26048">
        <ele>137</ele>
        <time>2023-02-12T10:10:27Z</time>
      </trkpt>
      <trkpt lat="46.6393" lon="-0.26058">
        <ele>136.6</ele>
        <time>2023-02-12T10:10:28Z</time>
      </trkpt>
      <trkpt lat="46.63944" lon="-0.26078">
        <ele>136</ele>
        <time>2023-02-12T10:10:30Z</time>
      </trkpt>
      <trkpt lat="46.63959" lon="-0.26105">
        <ele>135.2</ele>
        <time>2023-02-12T10:10:33Z</time>
      </trkpt>
      <trkpt lat="46.63968" lon="-0.26133">
        <ele>134.8</ele>
        <time>2023-02-12T10:10:36Z</time>
      </trkpt>
      <trkpt lat="46.63973" lon="-0.26153">
        <ele>134.2</ele>
        <time>2023-02-12T10:10:38Z</time>
      </trkpt>
      <trkpt lat="46.63974" lon="-0.26175">
        <ele>133.6</ele>
        <time>2023-02-12T10:10:40Z</time>
      </trkpt>
      <trkpt lat="46.63972" lon="-0.26196">
        <ele>132.8</ele>
        <time>2023-02-12T10:10:42Z</time>
      </trkpt>
      <trkpt lat="46.63971" lon="-0.26205">
        <ele>132.4</ele>
        <time>2023-02-12T10:10:43Z</time>
      </trkpt>
      <trkpt lat="46.63972" lon="-0.26217">
        <ele>130.8</ele>
        <time>2023-02-12T10:10:45Z</time>
      </trkpt>
      <trkpt lat="46.63977" lon="-0.26221">
        <ele>129.6</ele>
        <time>2023-02-12T10:10:47Z</time>
      </trkpt>
      <trkpt lat="46.6398" lon="-0.26219">
        <ele>129.2</ele>
        <time>2023-02-12T10:10:48Z</time>
      </trkpt>
      <trkpt lat="46.63988" lon="-0.26213">
        <ele>128.6</ele>
        <time>2023-02-12T10:10:50Z</time>
      </trkpt>
      <trkpt lat="46.63997" lon="-0.26203">
        <ele>128.4</ele>
        <time>2023-02-12T10:10:52Z</time>
      </trkpt>
      <trkpt lat="46.64009" lon="-0.26191">
        <ele>128.6</ele>
        <time>2023-02-12T10:10:55Z</time>
      </trkpt>
      <trkpt lat="46.64014" lon="-0.26186">
        <ele>128.8</ele>
        <time>2023-02-12T10:10:57Z</time>
      </trkpt>
      <trkpt lat="46.64028" lon="-0.26178">
        <ele>128.6</ele>
        <time>2023-02-12T10:11:03Z</time>
      </trkpt>
      <trkpt lat="46.6404" lon="-0.2618">
        <ele>128.4</ele>
        <time>2023-02-12T10:11:07Z</time>
      </trkpt>
      <trkpt lat="46.64042" lon="-0.26184">
        <ele>128.4</ele>
        <time>2023-02-12T10:11:08Z</time>
      </trkpt>
      <trkpt lat="46.64042" lon="-0.26209">
        <ele>128.2</ele>
        <time>2023-02-12T10:11:12Z</time>
      </trkpt>
      <trkpt lat="46.64042" lon="-0.26226">
        <ele>127.8</ele>
        <time>2023-02-12T10:11:14Z</time>
      </trkpt>
      <trkpt lat="46.64043" lon="-0.26234">
        <ele>127.4</ele>
        <time>2023-02-12T10:11:15Z</time>
      </trkpt>
      <trkpt lat="46.64044" lon="-0.26242">
        <ele>127.2</ele>
        <time>2023-02-12T10:11:16Z</time>
      </trkpt>
      <trkpt lat="46.6405" lon="-0.26256">
        <ele>126.8</ele>
        <time>2023-02-12T10:11:18Z</time>
      </trkpt>
      <trkpt lat="46.64058" lon="-0.26272">
        <ele>126.2</ele>
        <time>2023-02-12T10:11:20Z</time>
      </trkpt>
      <trkpt lat="46.64078" lon="-0.26308">
        <ele>125.4</ele>
        <time>2023-02-12T10:11:25Z</time>
      </trkpt>
      <trkpt lat="46.6408" lon="-0.26311">
        <ele>125.2</ele>
        <time>2023-02-12T10:11:26Z</time>
      </trkpt>
      <trkpt lat="46.64081" lon="-0.26314">
        <ele>124.6</ele>
        <time>2023-02-12T10:11:27Z</time>
      </trkpt>
      <trkpt lat="46.64081" lon="-0.26316">
        <ele>124.4</ele>
        <time>2023-02-12T10:11:28Z</time>
      </trkpt>
      <trkpt lat="46.64081" lon="-0.26317">
        <ele>124.2</ele>
        <time>2023-02-12T10:11:29Z</time>
      </trkpt>
      <trkpt lat="46.64084" lon="-0.2632">
        <ele>124</ele>
        <time>2023-02-12T10:11:32Z</time>
      </trkpt>
      <trkpt lat="46.64086" lon="-0.2632">
        <ele>124</ele>
        <time>2023-02-12T10:11:34Z</time>
      </trkpt>
      <trkpt lat="46.64101" lon="-0.26324">
        <ele>124</ele>
        <time>2023-02-12T10:11:40Z</time>
      </trkpt>
      <trkpt lat="46.6413" lon="-0.26328">
        <ele>124.6</ele>
        <time>2023-02-12T10:11:46Z</time>
      </trkpt>
      <trkpt lat="46.64168" lon="-0.26329">
        <ele>123.6</ele>
        <time>2023-02-12T10:11:53Z</time>
      </trkpt>
      <trkpt lat="46.6421" lon="-0.2633">
        <ele>124.4</ele>
        <time>2023-02-12T10:12:02Z</time>
      </trkpt>
      <trkpt lat="46.64247" lon="-0.26329">
        <ele>124.2</ele>
        <time>2023-02-12T10:12:10Z</time>
      </trkpt>
      <trkpt lat="46.64255" lon="-0.26328">
        <ele>124</ele>
        <time>2023-02-12T10:12:12Z</time>
      </trkpt>
      <trkpt lat="46.64267" lon="-0.26327">
        <ele>124</ele>
        <time>2023-02-12T10:12:15Z</time>
      </trkpt>
      <trkpt lat="46.6428" lon="-0.26331">
        <ele>124.2</ele>
        <time>2023-02-12T10:12:18Z</time>
      </trkpt>
      <trkpt lat="46.6429" lon="-0.26332">
        <ele>124.2</ele>
        <time>2023-02-12T10:12:20Z</time>
      </trkpt>
      <trkpt lat="46.64306" lon="-0.2633">
        <ele>124</ele>
        <time>2023-02-12T10:12:24Z</time>
      </trkpt>
      <trkpt lat="46.64316" lon="-0.26328">
        <ele>123.8</ele>
        <time>2023-02-12T10:12:26Z</time>
      </trkpt>
      <trkpt lat="46.64343" lon="-0.26322">
        <ele>123.4</ele>
        <time>2023-02-12T10:12:31Z</time>
      </trkpt>
      <trkpt lat="46.64358" lon="-0.2632">
        <ele>123.6</ele>
        <time>2023-02-12T10:12:34Z</time>
      </trkpt>
      <trkpt lat="46.64389" lon="-0.2632">
        <ele>123.4</ele>
        <time>2023-02-12T10:12:41Z</time>
      </trkpt>
      <trkpt lat="46.644" lon="-0.2632">
        <ele>123</ele>
        <time>2023-02-12T10:12:44Z</time>
      </trkpt>
      <trkpt lat="46.64408" lon="-0.26317">
        <ele>123</ele>
        <time>2023-02-12T10:12:47Z</time>
      </trkpt>
      <trkpt lat="46.64413" lon="-0.26309">
        <ele>123.2</ele>
        <time>2023-02-12T10:12:50Z</time>
      </trkpt>
      <trkpt lat="46.64413" lon="-0.26302">
        <ele>123.4</ele>
        <time>2023-02-12T10:12:52Z</time>
      </trkpt>
      <trkpt lat="46.64413" lon="-0.26292">
        <ele>124.2</ele>
        <time>2023-02-12T10:12:55Z</time>
      </trkpt>
      <trkpt lat="46.64414" lon="-0.26277">
        <ele>125.4</ele>
        <time>2023-02-12T10:12:59Z</time>
      </trkpt>
      <trkpt lat="46.64417" lon="-0.26264">
        <ele>126.8</ele>
        <time>2023-02-12T10:13:02Z</time>
      </trkpt>
      <trkpt lat="46.64419" lon="-0.26261">
        <ele>127.2</ele>
        <time>2023-02-12T10:13:03Z</time>
      </trkpt>
      <trkpt lat="46.64421" lon="-0.2626">
        <ele>127.4</ele>
        <time>2023-02-12T10:13:04Z</time>
      </trkpt>
      <trkpt lat="46.64424" lon="-0.26259">
        <ele>127.8</ele>
        <time>2023-02-12T10:13:05Z</time>
      </trkpt>
      <trkpt lat="46.64427" lon="-0.2626">
        <ele>128.2</ele>
        <time>2023-02-12T10:13:06Z</time>
      </trkpt>
      <trkpt lat="46.6444" lon="-0.26261">
        <ele>128.6</ele>
        <time>2023-02-12T10:13:10Z</time>
      </trkpt>
      <trkpt lat="46.64447" lon="-0.26262">
        <ele>129</ele>
        <time>2023-02-12T10:13:12Z</time>
      </trkpt>
      <trkpt lat="46.64469" lon="-0.26264">
        <ele>129.4</ele>
        <time>2023-02-12T10:13:18Z</time>
      </trkpt>
      <trkpt lat="46.64492" lon="-0.26262">
        <ele>129.8</ele>
        <time>2023-02-12T10:13:24Z</time>
      </trkpt>
      <trkpt lat="46.64495" lon="-0.2626">
        <ele>130</ele>
        <time>2023-02-12T10:13:25Z</time>
      </trkpt>
      <trkpt lat="46.64507" lon="-0.26248">
        <ele>130.8</ele>
        <time>2023-02-12T10:13:30Z</time>
      </trkpt>
      <trkpt lat="46.64511" lon="-0.26242">
        <ele>131.2</ele>
        <time>2023-02-12T10:13:32Z</time>
      </trkpt>
      <trkpt lat="46.64516" lon="-0.26228">
        <ele>132.2</ele>
        <time>2023-02-12T10:13:36Z</time>
      </trkpt>
      <trkpt lat="46.64516" lon="-0.26224">
        <ele>132.6</ele>
        <time>2023-02-12T10:13:37Z</time>
      </trkpt>
      <trkpt lat="46.64518" lon="-0.26206">
        <ele>134.2</ele>
        <time>2023-02-12T10:13:41Z</time>
      </trkpt>
      <trkpt lat="46.64517" lon="-0.26202">
        <ele>134.6</ele>
        <time>2023-02-12T10:13:42Z</time>
      </trkpt>
      <trkpt lat="46.64515" lon="-0.26199">
        <ele>135</ele>
        <time>2023-02-12T10:13:43Z</time>
      </trkpt>
      <trkpt lat="46.64513" lon="-0.26197">
        <ele>135.2</ele>
        <time>2023-02-12T10:13:44Z</time>
      </trkpt>
      <trkpt lat="46.64507" lon="-0.26195">
        <ele>135.8</ele>
        <time>2023-02-12T10:13:46Z</time>
      </trkpt>
      <trkpt lat="46.64494" lon="-0.26189">
        <ele>136.4</ele>
        <time>2023-02-12T10:13:50Z</time>
      </trkpt>
      <trkpt lat="46.64487" lon="-0.26184">
        <ele>136.4</ele>
        <time>2023-02-12T10:13:52Z</time>
      </trkpt>
      <trkpt lat="46.64476" lon="-0.26172">
        <ele>136.2</ele>
        <time>2023-02-12T10:13:55Z</time>
      </trkpt>
      <trkpt lat="46.64473" lon="-0.26167">
        <ele>136</ele>
        <time>2023-02-12T10:13:56Z</time>
      </trkpt>
      <trkpt lat="46.64463" lon="-0.26145">
        <ele>136</ele>
        <time>2023-02-12T10:14:00Z</time>
      </trkpt>
      <trkpt lat="46.6446" lon="-0.26134">
        <ele>135.8</ele>
        <time>2023-02-12T10:14:02Z</time>
      </trkpt>
      <trkpt lat="46.64461" lon="-0.26122">
        <ele>135.8</ele>
        <time>2023-02-12T10:14:04Z</time>
      </trkpt>
      <trkpt lat="46.64464" lon="-0.26117">
        <ele>135.8</ele>
        <time>2023-02-12T10:14:05Z</time>
      </trkpt>
      <trkpt lat="46.64467" lon="-0.26112">
        <ele>135.8</ele>
        <time>2023-02-12T10:14:06Z</time>
      </trkpt>
      <trkpt lat="46.64479" lon="-0.26098">
        <ele>136.6</ele>
        <time>2023-02-12T10:14:10Z</time>
      </trkpt>
      <trkpt lat="46.64504" lon="-0.26072">
        <ele>137.2</ele>
        <time>2023-02-12T10:14:18Z</time>
      </trkpt>
      <trkpt lat="46.6451" lon="-0.26063">
        <ele>137.4</ele>
        <time>2023-02-12T10:14:20Z</time>
      </trkpt>
      <trkpt lat="46.64522" lon="-0.26043">
        <ele>137.8</ele>
        <time>2023-02-12T10:14:24Z</time>
      </trkpt>
      <trkpt lat="46.64532" lon="-0.26006">
        <ele>137.8</ele>
        <time>2023-02-12T10:14:31Z</time>
      </trkpt>
      <trkpt lat="46.64538" lon="-0.25976">
        <ele>137.6</ele>
        <time>2023-02-12T10:14:37Z</time>
      </trkpt>
      <trkpt lat="46.64538" lon="-0.25949">
        <ele>137.2</ele>
        <time>2023-02-12T10:14:42Z</time>
      </trkpt>
      <trkpt lat="46.64524" lon="-0.2593">
        <ele>136.6</ele>
        <time>2023-02-12T10:14:47Z</time>
      </trkpt>
      <trkpt lat="46.64512" lon="-0.25908">
        <ele>138.4</ele>
        <time>2023-02-12T10:14:52Z</time>
      </trkpt>
      <trkpt lat="46.64504" lon="-0.25883">
        <ele>139.6</ele>
        <time>2023-02-12T10:14:57Z</time>
      </trkpt>
      <trkpt lat="46.64502" lon="-0.25872">
        <ele>139.8</ele>
        <time>2023-02-12T10:14:59Z</time>
      </trkpt>
      <trkpt lat="46.64497" lon="-0.25859">
        <ele>140</ele>
        <time>2023-02-12T10:15:02Z</time>
      </trkpt>
      <trkpt lat="46.64491" lon="-0.25852">
        <ele>140.6</ele>
        <time>2023-02-12T10:15:04Z</time>
      </trkpt>
      <trkpt lat="46.64477" lon="-0.25833">
        <ele>141.6</ele>
        <time>2023-02-12T10:15:09Z</time>
      </trkpt>
      <trkpt lat="46.64458" lon="-0.25809">
        <ele>142.6</ele>
        <time>2023-02-12T10:15:16Z</time>
      </trkpt>
      <trkpt lat="46.64439" lon="-0.25786">
        <ele>142.2</ele>
        <time>2023-02-12T10:15:23Z</time>
      </trkpt>
      <trkpt lat="46.64436" lon="-0.2578">
        <ele>141.6</ele>
        <time>2023-02-12T10:15:25Z</time>
      </trkpt>
      <trkpt lat="46.64437" lon="-0.25776">
        <ele>141.4</ele>
        <time>2023-02-12T10:15:26Z</time>
      </trkpt>
      <trkpt lat="46.64438" lon="-0.25773">
        <ele>141.4</ele>
        <time>2023-02-12T10:15:27Z</time>
      </trkpt>
      <trkpt lat="46.64446" lon="-0.25749">
        <ele>141.6</ele>
        <time>2023-02-12T10:15:32Z</time>
      </trkpt>
      <trkpt lat="46.64457" lon="-0.25719">
        <ele>142.6</ele>
        <time>2023-02-12T10:15:38Z</time>
      </trkpt>
      <trkpt lat="46.64461" lon="-0.25709">
        <ele>142.8</ele>
        <time>2023-02-12T10:15:40Z</time>
      </trkpt>
      <trkpt lat="46.64463" lon="-0.25703">
        <ele>143</ele>
        <time>2023-02-12T10:15:41Z</time>
      </trkpt>
      <trkpt lat="46.64465" lon="-0.25697">
        <ele>143</ele>
        <time>2023-02-12T10:15:42Z</time>
      </trkpt>
      <trkpt lat="46.64476" lon="-0.2566">
        <ele>143.2</ele>
        <time>2023-02-12T10:15:47Z</time>
      </trkpt>
      <trkpt lat="46.64484" lon="-0.2564">
        <ele>143.2</ele>
        <time>2023-02-12T10:15:50Z</time>
      </trkpt>
      <trkpt lat="46.64492" lon="-0.25634">
        <ele>143.2</ele>
        <time>2023-02-12T10:15:52Z</time>
      </trkpt>
      <trkpt lat="46.64506" lon="-0.25637">
        <ele>143</ele>
        <time>2023-02-12T10:15:55Z</time>
      </trkpt>
      <trkpt lat="46.64524" lon="-0.25638">
        <ele>142.6</ele>
        <time>2023-02-12T10:15:58Z</time>
      </trkpt>
      <trkpt lat="46.64538" lon="-0.25635">
        <ele>142</ele>
        <time>2023-02-12T10:16:00Z</time>
      </trkpt>
      <trkpt lat="46.64552" lon="-0.25628">
        <ele>141.2</ele>
        <time>2023-02-12T10:16:02Z</time>
      </trkpt>
      <trkpt lat="46.64566" lon="-0.25617">
        <ele>140.8</ele>
        <time>2023-02-12T10:16:04Z</time>
      </trkpt>
      <trkpt lat="46.64587" lon="-0.25595">
        <ele>140</ele>
        <time>2023-02-12T10:16:07Z</time>
      </trkpt>
      <trkpt lat="46.64601" lon="-0.25579">
        <ele>139.2</ele>
        <time>2023-02-12T10:16:09Z</time>
      </trkpt>
      <trkpt lat="46.64607" lon="-0.25571">
        <ele>138.6</ele>
        <time>2023-02-12T10:16:10Z</time>
      </trkpt>
      <trkpt lat="46.6462" lon="-0.25555">
        <ele>137.2</ele>
        <time>2023-02-12T10:16:12Z</time>
      </trkpt>
      <trkpt lat="46.64627" lon="-0.25535">
        <ele>136</ele>
        <time>2023-02-12T10:16:14Z</time>
      </trkpt>
      <trkpt lat="46.64628" lon="-0.25515">
        <ele>134.8</ele>
        <time>2023-02-12T10:16:16Z</time>
      </trkpt>
      <trkpt lat="46.6463" lon="-0.25506">
        <ele>134.4</ele>
        <time>2023-02-12T10:16:17Z</time>
      </trkpt>
      <trkpt lat="46.64636" lon="-0.25491">
        <ele>134.2</ele>
        <time>2023-02-12T10:16:19Z</time>
      </trkpt>
      <trkpt lat="46.64639" lon="-0.25485">
        <ele>134.6</ele>
        <time>2023-02-12T10:16:20Z</time>
      </trkpt>
      <trkpt lat="46.64653" lon="-0.25463">
        <ele>135</ele>
        <time>2023-02-12T10:16:24Z</time>
      </trkpt>
      <trkpt lat="46.64655" lon="-0.25457">
        <ele>135.2</ele>
        <time>2023-02-12T10:16:25Z</time>
      </trkpt>
      <trkpt lat="46.64664" lon="-0.25437">
        <ele>135.8</ele>
        <time>2023-02-12T10:16:29Z</time>
      </trkpt>
      <trkpt lat="46.64667" lon="-0.25429">
        <ele>136.4</ele>
        <time>2023-02-12T10:16:31Z</time>
      </trkpt>
      <trkpt lat="46.6467" lon="-0.25421">
        <ele>137</ele>
        <time>2023-02-12T10:16:33Z</time>
      </trkpt>
      <trkpt lat="46.64675" lon="-0.25401">
        <ele>137.8</ele>
        <time>2023-02-12T10:16:38Z</time>
      </trkpt>
      <trkpt lat="46.64676" lon="-0.25393">
        <ele>138</ele>
        <time>2023-02-12T10:16:40Z</time>
      </trkpt>
      <trkpt lat="46.64682" lon="-0.25371">
        <ele>139.2</ele>
        <time>2023-02-12T10:16:46Z</time>
      </trkpt>
      <trkpt lat="46.64683" lon="-0.25367">
        <ele>139.4</ele>
        <time>2023-02-12T10:16:47Z</time>
      </trkpt>
      <trkpt lat="46.64687" lon="-0.25344">
        <ele>140.2</ele>
        <time>2023-02-12T10:16:53Z</time>
      </trkpt>
      <trkpt lat="46.64686" lon="-0.2534">
        <ele>140.8</ele>
        <time>2023-02-12T10:16:54Z</time>
      </trkpt>
      <trkpt lat="46.64681" lon="-0.25331">
        <ele>141.4</ele>
        <time>2023-02-12T10:16:57Z</time>
      </trkpt>
      <trkpt lat="46.64679" lon="-0.25323">
        <ele>141.6</ele>
        <time>2023-02-12T10:17:00Z</time>
      </trkpt>
      <trkpt lat="46.64682" lon="-0.25303">
        <ele>142.2</ele>
        <time>2023-02-12T10:17:05Z</time>
      </trkpt>
      <trkpt lat="46.64684" lon="-0.25299">
        <ele>142.4</ele>
        <time>2023-02-12T10:17:06Z</time>
      </trkpt>
      <trkpt lat="46.64692" lon="-0.25286">
        <ele>143.2</ele>
        <time>2023-02-12T10:17:11Z</time>
      </trkpt>
      <trkpt lat="46.64695" lon="-0.25285">
        <ele>143.4</ele>
        <time>2023-02-12T10:17:12Z</time>
      </trkpt>
      <trkpt lat="46.64702" lon="-0.25282">
        <ele>144</ele>
        <time>2023-02-12T10:17:15Z</time>
      </trkpt>
      <trkpt lat="46.64703" lon="-0.25277">
        <ele>144.6</ele>
        <time>2023-02-12T10:17:17Z</time>
      </trkpt>
      <trkpt lat="46.647" lon="-0.25264">
        <ele>145.6</ele>
        <time>2023-02-12T10:17:23Z</time>
      </trkpt>
      <trkpt lat="46.647" lon="-0.25252">
        <ele>146.8</ele>
        <time>2023-02-12T10:17:28Z</time>
      </trkpt>
      <trkpt lat="46.64701" lon="-0.25249">
        <ele>147</ele>
        <time>2023-02-12T10:17:29Z</time>
      </trkpt>
      <trkpt lat="46.64708" lon="-0.25233">
        <ele>147.8</ele>
        <time>2023-02-12T10:17:34Z</time>
      </trkpt>
      <trkpt lat="46.64708" lon="-0.2523">
        <ele>147.8</ele>
        <time>2023-02-12T10:17:35Z</time>
      </trkpt>
      <trkpt lat="46.64707" lon="-0.25227">
        <ele>148</ele>
        <time>2023-02-12T10:17:36Z</time>
      </trkpt>
      <trkpt lat="46.64706" lon="-0.25221">
        <ele>148.2</ele>
        <time>2023-02-12T10:17:38Z</time>
      </trkpt>
      <trkpt lat="46.64702" lon="-0.25207">
        <ele>149</ele>
        <time>2023-02-12T10:17:43Z</time>
      </trkpt>
      <trkpt lat="46.64701" lon="-0.25206">
        <ele>149.2</ele>
        <time>2023-02-12T10:17:44Z</time>
      </trkpt>
      <trkpt lat="46.64697" lon="-0.25198">
        <ele>150.2</ele>
        <time>2023-02-12T10:17:49Z</time>
      </trkpt>
      <trkpt lat="46.64697" lon="-0.25192">
        <ele>150.6</ele>
        <time>2023-02-12T10:17:51Z</time>
      </trkpt>
      <trkpt lat="46.64692" lon="-0.25186">
        <ele>151.4</ele>
        <time>2023-02-12T10:17:54Z</time>
      </trkpt>
      <trkpt lat="46.64688" lon="-0.25186">
        <ele>151.6</ele>
        <time>2023-02-12T10:17:56Z</time>
      </trkpt>
      <trkpt lat="46.64672" lon="-0.25196">
        <ele>152.2</ele>
        <time>2023-02-12T10:18:01Z</time>
      </trkpt>
      <trkpt lat="46.64656" lon="-0.25207">
        <ele>151.4</ele>
        <time>2023-02-12T10:18:06Z</time>
      </trkpt>
      <trkpt lat="46.64648" lon="-0.2521">
        <ele>150.8</ele>
        <time>2023-02-12T10:18:08Z</time>
      </trkpt>
      <trkpt lat="46.64639" lon="-0.2522">
        <ele>150.4</ele>
        <time>2023-02-12T10:18:11Z</time>
      </trkpt>
      <trkpt lat="46.64631" lon="-0.25228">
        <ele>149.8</ele>
        <time>2023-02-12T10:18:13Z</time>
      </trkpt>
      <trkpt lat="46.64628" lon="-0.25237">
        <ele>149.2</ele>
        <time>2023-02-12T10:18:15Z</time>
      </trkpt>
      <trkpt lat="46.64632" lon="-0.25243">
        <ele>149</ele>
        <time>2023-02-12T10:18:18Z</time>
      </trkpt>
      <trkpt lat="46.64642" lon="-0.25253">
        <ele>148.4</ele>
        <time>2023-02-12T10:18:21Z</time>
      </trkpt>
      <trkpt lat="46.64646" lon="-0.25257">
        <ele>147.2</ele>
        <time>2023-02-12T10:18:22Z</time>
      </trkpt>
      <trkpt lat="46.64659" lon="-0.25269">
        <ele>145.8</ele>
        <time>2023-02-12T10:18:24Z</time>
      </trkpt>
      <trkpt lat="46.64674" lon="-0.25281">
        <ele>144.2</ele>
        <time>2023-02-12T10:18:26Z</time>
      </trkpt>
      <trkpt lat="46.64682" lon="-0.25285">
        <ele>142.6</ele>
        <time>2023-02-12T10:18:27Z</time>
      </trkpt>
      <trkpt lat="46.64691" lon="-0.25291">
        <ele>140.6</ele>
        <time>2023-02-12T10:18:28Z</time>
      </trkpt>
      <trkpt lat="46.64699" lon="-0.25297">
        <ele>139.2</ele>
        <time>2023-02-12T10:18:29Z</time>
      </trkpt>
      <trkpt lat="46.64706" lon="-0.25303">
        <ele>137.8</ele>
        <time>2023-02-12T10:18:30Z</time>
      </trkpt>
      <trkpt lat="46.64713" lon="-0.25309">
        <ele>136.2</ele>
        <time>2023-02-12T10:18:31Z</time>
      </trkpt>
      <trkpt lat="46.64719" lon="-0.25319">
        <ele>134.8</ele>
        <time>2023-02-12T10:18:32Z</time>
      </trkpt>
      <trkpt lat="46.64724" lon="-0.25325">
        <ele>133.6</ele>
        <time>2023-02-12T10:18:33Z</time>
      </trkpt>
      <trkpt lat="46.6473" lon="-0.2533">
        <ele>131.8</ele>
        <time>2023-02-12T10:18:34Z</time>
      </trkpt>
      <trkpt lat="46.64735" lon="-0.25335">
        <ele>130</ele>
        <time>2023-02-12T10:18:35Z</time>
      </trkpt>
      <trkpt lat="46.64739" lon="-0.2534">
        <ele>128.8</ele>
        <time>2023-02-12T10:18:36Z</time>
      </trkpt>
      <trkpt lat="46.64743" lon="-0.25344">
        <ele>127.8</ele>
        <time>2023-02-12T10:18:37Z</time>
      </trkpt>
      <trkpt lat="46.64746" lon="-0.25348">
        <ele>127</ele>
        <time>2023-02-12T10:18:38Z</time>
      </trkpt>
      <trkpt lat="46.64749" lon="-0.25351">
        <ele>126.6</ele>
        <time>2023-02-12T10:18:39Z</time>
      </trkpt>
      <trkpt lat="46.6476" lon="-0.25355">
        <ele>125.2</ele>
        <time>2023-02-12T10:18:42Z</time>
      </trkpt>
      <trkpt lat="46.64763" lon="-0.25353">
        <ele>124.8</ele>
        <time>2023-02-12T10:18:43Z</time>
      </trkpt>
      <trkpt lat="46.64767" lon="-0.25349">
        <ele>124.6</ele>
        <time>2023-02-12T10:18:44Z</time>
      </trkpt>
      <trkpt lat="46.6477" lon="-0.25344">
        <ele>124.2</ele>
        <time>2023-02-12T10:18:45Z</time>
      </trkpt>
      <trkpt lat="46.64778" lon="-0.25328">
        <ele>124</ele>
        <time>2023-02-12T10:18:48Z</time>
      </trkpt>
      <trkpt lat="46.64785" lon="-0.25312">
        <ele>124</ele>
        <time>2023-02-12T10:18:51Z</time>
      </trkpt>
      <trkpt lat="46.64789" lon="-0.25306">
        <ele>124.4</ele>
        <time>2023-02-12T10:18:53Z</time>
      </trkpt>
      <trkpt lat="46.64798" lon="-0.25299">
        <ele>125.4</ele>
        <time>2023-02-12T10:18:57Z</time>
      </trkpt>
      <trkpt lat="46.64801" lon="-0.25298">
        <ele>125.6</ele>
        <time>2023-02-12T10:18:58Z</time>
      </trkpt>
      <trkpt lat="46.64819" lon="-0.25289">
        <ele>126</ele>
        <time>2023-02-12T10:19:03Z</time>
      </trkpt>
      <trkpt lat="46.64842" lon="-0.25275">
        <ele>124.6</ele>
        <time>2023-02-12T10:19:08Z</time>
      </trkpt>
      <trkpt lat="46.64848" lon="-0.25273">
        <ele>124.4</ele>
        <time>2023-02-12T10:19:09Z</time>
      </trkpt>
      <trkpt lat="46.6487" lon="-0.25271">
        <ele>123.2</ele>
        <time>2023-02-12T10:19:12Z</time>
      </trkpt>
      <trkpt lat="46.64892" lon="-0.25276">
        <ele>122</ele>
        <time>2023-02-12T10:19:15Z</time>
      </trkpt>
      <trkpt lat="46.64919" lon="-0.25279">
        <ele>121.4</ele>
        <time>2023-02-12T10:19:19Z</time>
      </trkpt>
      <trkpt lat="46.64925" lon="-0.25281">
        <ele>121.2</ele>
        <time>2023-02-12T10:19:20Z</time>
      </trkpt>
      <trkpt lat="46.64961" lon="-0.25297">
        <ele>121.2</ele>
        <time>2023-02-12T10:19:26Z</time>
      </trkpt>
      <trkpt lat="46.64973" lon="-0.25301">
        <ele>121.4</ele>
        <time>2023-02-12T10:19:28Z</time>
      </trkpt>
      <trkpt lat="46.64989" lon="-0.25305">
        <ele>122</ele>
        <time>2023-02-12T10:19:31Z</time>
      </trkpt>
      <trkpt lat="46.65021" lon="-0.2532">
        <ele>122.2</ele>
        <time>2023-02-12T10:19:37Z</time>
      </trkpt>
      <trkpt lat="46.65058" lon="-0.25334">
        <ele>121.4</ele>
        <time>2023-02-12T10:19:43Z</time>
      </trkpt>
      <trkpt lat="46.6508" lon="-0.25343">
        <ele>121.4</ele>
        <time>2023-02-12T10:19:46Z</time>
      </trkpt>
      <trkpt lat="46.65113" lon="-0.25355">
        <ele>121.6</ele>
        <time>2023-02-12T10:19:51Z</time>
      </trkpt>
      <trkpt lat="46.65145" lon="-0.25365">
        <ele>121.2</ele>
        <time>2023-02-12T10:19:56Z</time>
      </trkpt>
      <trkpt lat="46.65158" lon="-0.2537">
        <ele>121.2</ele>
        <time>2023-02-12T10:19:58Z</time>
      </trkpt>
      <trkpt lat="46.6517" lon="-0.25375">
        <ele>121.4</ele>
        <time>2023-02-12T10:20:00Z</time>
      </trkpt>
      <trkpt lat="46.65182" lon="-0.25378">
        <ele>121.4</ele>
        <time>2023-02-12T10:20:02Z</time>
      </trkpt>
      <trkpt lat="46.65199" lon="-0.25381">
        <ele>121.4</ele>
        <time>2023-02-12T10:20:05Z</time>
      </trkpt>
      <trkpt lat="46.65215" lon="-0.25381">
        <ele>121.2</ele>
        <time>2023-02-12T10:20:08Z</time>
      </trkpt>
      <trkpt lat="46.65237" lon="-0.25377">
        <ele>121.4</ele>
        <time>2023-02-12T10:20:12Z</time>
      </trkpt>
      <trkpt lat="46.65247" lon="-0.25371">
        <ele>121.4</ele>
        <time>2023-02-12T10:20:14Z</time>
      </trkpt>
      <trkpt lat="46.65252" lon="-0.25367">
        <ele>121.2</ele>
        <time>2023-02-12T10:20:15Z</time>
      </trkpt>
      <trkpt lat="46.6527" lon="-0.25349">
        <ele>120.8</ele>
        <time>2023-02-12T10:20:19Z</time>
      </trkpt>
      <trkpt lat="46.65275" lon="-0.25344">
        <ele>120.8</ele>
        <time>2023-02-12T10:20:20Z</time>
      </trkpt>
      <trkpt lat="46.65295" lon="-0.25318">
        <ele>120.6</ele>
        <time>2023-02-12T10:20:25Z</time>
      </trkpt>
      <trkpt lat="46.65301" lon="-0.25304">
        <ele>120.8</ele>
        <time>2023-02-12T10:20:27Z</time>
      </trkpt>
      <trkpt lat="46.65325" lon="-0.25249">
        <ele>120.2</ele>
        <time>2023-02-12T10:20:35Z</time>
      </trkpt>
      <trkpt lat="46.6534" lon="-0.25225">
        <ele>119.8</ele>
        <time>2023-02-12T10:20:39Z</time>
      </trkpt>
      <trkpt lat="46.65346" lon="-0.25214">
        <ele>119.6</ele>
        <time>2023-02-12T10:20:41Z</time>
      </trkpt>
      <trkpt lat="46.65347" lon="-0.25209">
        <ele>119.4</ele>
        <time>2023-02-12T10:20:42Z</time>
      </trkpt>
      <trkpt lat="46.65347" lon="-0.25199">
        <ele>119</ele>
        <time>2023-02-12T10:20:44Z</time>
      </trkpt>
      <trkpt lat="46.65339" lon="-0.25171">
        <ele>119.2</ele>
        <time>2023-02-12T10:20:49Z</time>
      </trkpt>
      <trkpt lat="46.65337" lon="-0.25166">
        <ele>119.2</ele>
        <time>2023-02-12T10:20:50Z</time>
      </trkpt>
      <trkpt lat="46.65328" lon="-0.25151">
        <ele>119.2</ele>
        <time>2023-02-12T10:20:53Z</time>
      </trkpt>
      <trkpt lat="46.65321" lon="-0.25143">
        <ele>119.2</ele>
        <time>2023-02-12T10:20:55Z</time>
      </trkpt>
      <trkpt lat="46.65318" lon="-0.25138">
        <ele>119.2</ele>
        <time>2023-02-12T10:20:56Z</time>
      </trkpt>
      <trkpt lat="46.65313" lon="-0.25128">
        <ele>119.4</ele>
        <time>2023-02-12T10:20:58Z</time>
      </trkpt>
      <trkpt lat="46.65308" lon="-0.2512">
        <ele>119.4</ele>
        <time>2023-02-12T10:21:00Z</time>
      </trkpt>
      <trkpt lat="46.65302" lon="-0.25116">
        <ele>119.4</ele>
        <time>2023-02-12T10:21:02Z</time>
      </trkpt>
      <trkpt lat="46.65299" lon="-0.25116">
        <ele>119.4</ele>
        <time>2023-02-12T10:21:03Z</time>
      </trkpt>
      <trkpt lat="46.6529" lon="-0.25118">
        <ele>119.4</ele>
        <time>2023-02-12T10:21:06Z</time>
      </trkpt>
      <trkpt lat="46.65275" lon="-0.25116">
        <ele>119.8</ele>
        <time>2023-02-12T10:21:11Z</time>
      </trkpt>
      <trkpt lat="46.65264" lon="-0.25098">
        <ele>120.2</ele>
        <time>2023-02-12T10:21:15Z</time>
      </trkpt>
      <trkpt lat="46.65247" lon="-0.25063">
        <ele>119.8</ele>
        <time>2023-02-12T10:21:21Z</time>
      </trkpt>
      <trkpt lat="46.6524" lon="-0.2505">
        <ele>119.6</ele>
        <time>2023-02-12T10:21:23Z</time>
      </trkpt>
      <trkpt lat="46.65229" lon="-0.25031">
        <ele>119.6</ele>
        <time>2023-02-12T10:21:26Z</time>
      </trkpt>
      <trkpt lat="46.65207" lon="-0.24989">
        <ele>119.4</ele>
        <time>2023-02-12T10:21:33Z</time>
      </trkpt>
      <trkpt lat="46.65199" lon="-0.24971">
        <ele>119.4</ele>
        <time>2023-02-12T10:21:36Z</time>
      </trkpt>
      <trkpt lat="46.65197" lon="-0.24959">
        <ele>119.6</ele>
        <time>2023-02-12T10:21:38Z</time>
      </trkpt>
      <trkpt lat="46.65196" lon="-0.24954">
        <ele>119.6</ele>
        <time>2023-02-12T10:21:39Z</time>
      </trkpt>
      <trkpt lat="46.65194" lon="-0.2495">
        <ele>119.4</ele>
        <time>2023-02-12T10:21:40Z</time>
      </trkpt>
      <trkpt lat="46.65191" lon="-0.24935">
        <ele>119.8</ele>
        <time>2023-02-12T10:21:43Z</time>
      </trkpt>
      <trkpt lat="46.65188" lon="-0.24896">
        <ele>120</ele>
        <time>2023-02-12T10:21:49Z</time>
      </trkpt>
      <trkpt lat="46.65188" lon="-0.24873">
        <ele>119.8</ele>
        <time>2023-02-12T10:21:53Z</time>
      </trkpt>
      <trkpt lat="46.65189" lon="-0.24863">
        <ele>119.8</ele>
        <time>2023-02-12T10:21:55Z</time>
      </trkpt>
      <trkpt lat="46.65193" lon="-0.24833">
        <ele>120.4</ele>
        <time>2023-02-12T10:22:01Z</time>
      </trkpt>
      <trkpt lat="46.65195" lon="-0.24823">
        <ele>121</ele>
        <time>2023-02-12T10:22:03Z</time>
      </trkpt>
      <trkpt lat="46.65199" lon="-0.24802">
        <ele>122</ele>
        <time>2023-02-12T10:22:07Z</time>
      </trkpt>
      <trkpt lat="46.652" lon="-0.24799">
        <ele>122.4</ele>
        <time>2023-02-12T10:22:08Z</time>
      </trkpt>
      <trkpt lat="46.65202" lon="-0.2479">
        <ele>123.2</ele>
        <time>2023-02-12T10:22:11Z</time>
      </trkpt>
      <trkpt lat="46.65203" lon="-0.24789">
        <ele>123.6</ele>
        <time>2023-02-12T10:22:12Z</time>
      </trkpt>
      <trkpt lat="46.6521" lon="-0.24776">
        <ele>123.6</ele>
        <time>2023-02-12T10:22:17Z</time>
      </trkpt>
      <trkpt lat="46.65213" lon="-0.24763">
        <ele>122</ele>
        <time>2023-02-12T10:22:20Z</time>
      </trkpt>
      <trkpt lat="46.65219" lon="-0.24755">
        <ele>121</ele>
        <time>2023-02-12T10:22:22Z</time>
      </trkpt>
      <trkpt lat="46.65222" lon="-0.24751">
        <ele>120.6</ele>
        <time>2023-02-12T10:22:23Z</time>
      </trkpt>
      <trkpt lat="46.65225" lon="-0.24746">
        <ele>120.2</ele>
        <time>2023-02-12T10:22:24Z</time>
      </trkpt>
      <trkpt lat="46.65228" lon="-0.2474">
        <ele>120</ele>
        <time>2023-02-12T10:22:25Z</time>
      </trkpt>
      <trkpt lat="46.65241" lon="-0.24715">
        <ele>119</ele>
        <time>2023-02-12T10:22:29Z</time>
      </trkpt>
      <trkpt lat="46.65246" lon="-0.24709">
        <ele>118.8</ele>
        <time>2023-02-12T10:22:30Z</time>
      </trkpt>
      <trkpt lat="46.6525" lon="-0.24705">
        <ele>118.6</ele>
        <time>2023-02-12T10:22:31Z</time>
      </trkpt>
      <trkpt lat="46.65261" lon="-0.24698">
        <ele>118.4</ele>
        <time>2023-02-12T10:22:33Z</time>
      </trkpt>
      <trkpt lat="46.65265" lon="-0.24694">
        <ele>118.4</ele>
        <time>2023-02-12T10:22:34Z</time>
      </trkpt>
      <trkpt lat="46.65286" lon="-0.24678">
        <ele>118.2</ele>
        <time>2023-02-12T10:22:38Z</time>
      </trkpt>
      <trkpt lat="46.65291" lon="-0.24676">
        <ele>118.4</ele>
        <time>2023-02-12T10:22:39Z</time>
      </trkpt>
      <trkpt lat="46.65327" lon="-0.24666">
        <ele>118.2</ele>
        <time>2023-02-12T10:22:45Z</time>
      </trkpt>
      <trkpt lat="46.65361" lon="-0.2465">
        <ele>118.4</ele>
        <time>2023-02-12T10:22:51Z</time>
      </trkpt>
      <trkpt lat="46.65397" lon="-0.24644">
        <ele>118.2</ele>
        <time>2023-02-12T10:22:57Z</time>
      </trkpt>
      <trkpt lat="46.65409" lon="-0.24643">
        <ele>117.8</ele>
        <time>2023-02-12T10:22:59Z</time>
      </trkpt>
      <trkpt lat="46.65421" lon="-0.24641">
        <ele>117.6</ele>
        <time>2023-02-12T10:23:02Z</time>
      </trkpt>
      <trkpt lat="46.65429" lon="-0.24644">
        <ele>117.4</ele>
        <time>2023-02-12T10:23:04Z</time>
      </trkpt>
      <trkpt lat="46.65438" lon="-0.24641">
        <ele>117.2</ele>
        <time>2023-02-12T10:23:06Z</time>
      </trkpt>
      <trkpt lat="46.65452" lon="-0.24635">
        <ele>117.2</ele>
        <time>2023-02-12T10:23:09Z</time>
      </trkpt>
      <trkpt lat="46.6546" lon="-0.24629">
        <ele>117.4</ele>
        <time>2023-02-12T10:23:11Z</time>
      </trkpt>
      <trkpt lat="46.65484" lon="-0.24607">
        <ele>118.4</ele>
        <time>2023-02-12T10:23:18Z</time>
      </trkpt>
      <trkpt lat="46.6549" lon="-0.24592">
        <ele>119</ele>
        <time>2023-02-12T10:23:22Z</time>
      </trkpt>
      <trkpt lat="46.65494" lon="-0.24577">
        <ele>120.2</ele>
        <time>2023-02-12T10:23:27Z</time>
      </trkpt>
      <trkpt lat="46.65495" lon="-0.24571">
        <ele>121.2</ele>
        <time>2023-02-12T10:23:29Z</time>
      </trkpt>
      <trkpt lat="46.65496" lon="-0.24568">
        <ele>121.8</ele>
        <time>2023-02-12T10:23:30Z</time>
      </trkpt>
      <trkpt lat="46.65497" lon="-0.2456">
        <ele>122.6</ele>
        <time>2023-02-12T10:23:33Z</time>
      </trkpt>
      <trkpt lat="46.65499" lon="-0.24553">
        <ele>123.6</ele>
        <time>2023-02-12T10:23:36Z</time>
      </trkpt>
      <trkpt lat="46.65499" lon="-0.2455">
        <ele>124</ele>
        <time>2023-02-12T10:23:37Z</time>
      </trkpt>
      <trkpt lat="46.65502" lon="-0.24539">
        <ele>125.2</ele>
        <time>2023-02-12T10:23:41Z</time>
      </trkpt>
      <trkpt lat="46.65504" lon="-0.24532">
        <ele>126</ele>
        <time>2023-02-12T10:23:44Z</time>
      </trkpt>
      <trkpt lat="46.65505" lon="-0.24529">
        <ele>126.4</ele>
        <time>2023-02-12T10:23:45Z</time>
      </trkpt>
      <trkpt lat="46.65509" lon="-0.24516">
        <ele>127.6</ele>
        <time>2023-02-12T10:23:50Z</time>
      </trkpt>
      <trkpt lat="46.6551" lon="-0.24511">
        <ele>128</ele>
        <time>2023-02-12T10:23:52Z</time>
      </trkpt>
      <trkpt lat="46.65511" lon="-0.24507">
        <ele>128.6</ele>
        <time>2023-02-12T10:23:54Z</time>
      </trkpt>
      <trkpt lat="46.65514" lon="-0.24496">
        <ele>129.8</ele>
        <time>2023-02-12T10:23:58Z</time>
      </trkpt>
      <trkpt lat="46.65517" lon="-0.24482">
        <ele>131</ele>
        <time>2023-02-12T10:24:04Z</time>
      </trkpt>
      <trkpt lat="46.65517" lon="-0.24473">
        <ele>132.4</ele>
        <time>2023-02-12T10:24:09Z</time>
      </trkpt>
      <trkpt lat="46.65514" lon="-0.24465">
        <ele>133.4</ele>
        <time>2023-02-12T10:24:13Z</time>
      </trkpt>
      <trkpt lat="46.65514" lon="-0.24464">
        <ele>133.6</ele>
        <time>2023-02-12T10:24:14Z</time>
      </trkpt>
      <trkpt lat="46.65511" lon="-0.24456">
        <ele>134.8</ele>
        <time>2023-02-12T10:24:18Z</time>
      </trkpt>
      <trkpt lat="46.65509" lon="-0.24448">
        <ele>135.6</ele>
        <time>2023-02-12T10:24:21Z</time>
      </trkpt>
      <trkpt lat="46.65508" lon="-0.24446">
        <ele>135.8</ele>
        <time>2023-02-12T10:24:22Z</time>
      </trkpt>
      <trkpt lat="46.65501" lon="-0.24434">
        <ele>136.8</ele>
        <time>2023-02-12T10:24:28Z</time>
      </trkpt>
      <trkpt lat="46.65499" lon="-0.24431">
        <ele>137</ele>
        <time>2023-02-12T10:24:29Z</time>
      </trkpt>
      <trkpt lat="46.6549" lon="-0.2442">
        <ele>138</ele>
        <time>2023-02-12T10:24:36Z</time>
      </trkpt>
      <trkpt lat="46.65482" lon="-0.24408">
        <ele>139</ele>
        <time>2023-02-12T10:24:41Z</time>
      </trkpt>
      <trkpt lat="46.65475" lon="-0.24397">
        <ele>139.6</ele>
        <time>2023-02-12T10:24:45Z</time>
      </trkpt>
      <trkpt lat="46.65469" lon="-0.24386">
        <ele>140.2</ele>
        <time>2023-02-12T10:24:49Z</time>
      </trkpt>
      <trkpt lat="46.65458" lon="-0.24372">
        <ele>141</ele>
        <time>2023-02-12T10:24:54Z</time>
      </trkpt>
      <trkpt lat="46.65456" lon="-0.24369">
        <ele>141.4</ele>
        <time>2023-02-12T10:24:55Z</time>
      </trkpt>
      <trkpt lat="46.65443" lon="-0.24354">
        <ele>142</ele>
        <time>2023-02-12T10:25:01Z</time>
      </trkpt>
      <trkpt lat="46.65435" lon="-0.24348">
        <ele>142.4</ele>
        <time>2023-02-12T10:25:04Z</time>
      </trkpt>
      <trkpt lat="46.6543" lon="-0.24348">
        <ele>142.8</ele>
        <time>2023-02-12T10:25:06Z</time>
      </trkpt>
      <trkpt lat="46.65415" lon="-0.24361">
        <ele>143.4</ele>
        <time>2023-02-12T10:25:12Z</time>
      </trkpt>
      <trkpt lat="46.6541" lon="-0.24366">
        <ele>143.6</ele>
        <time>2023-02-12T10:25:14Z</time>
      </trkpt>
      <trkpt lat="46.65392" lon="-0.24382">
        <ele>144.6</ele>
        <time>2023-02-12T10:25:21Z</time>
      </trkpt>
      <trkpt lat="46.65371" lon="-0.244">
        <ele>145.4</ele>
        <time>2023-02-12T10:25:28Z</time>
      </trkpt>
      <trkpt lat="46.65364" lon="-0.24402">
        <ele>145.6</ele>
        <time>2023-02-12T10:25:30Z</time>
      </trkpt>
      <trkpt lat="46.65353" lon="-0.24397">
        <ele>145.8</ele>
        <time>2023-02-12T10:25:33Z</time>
      </trkpt>
      <trkpt lat="46.65329" lon="-0.2438">
        <ele>146.8</ele>
        <time>2023-02-12T10:25:39Z</time>
      </trkpt>
      <trkpt lat="46.65312" lon="-0.24369">
        <ele>147.4</ele>
        <time>2023-02-12T10:25:43Z</time>
      </trkpt>
      <trkpt lat="46.65304" lon="-0.24364">
        <ele>147.6</ele>
        <time>2023-02-12T10:25:45Z</time>
      </trkpt>
      <trkpt lat="46.653" lon="-0.2436">
        <ele>147.6</ele>
        <time>2023-02-12T10:25:46Z</time>
      </trkpt>
      <trkpt lat="46.65268" lon="-0.24334">
        <ele>147.8</ele>
        <time>2023-02-12T10:25:53Z</time>
      </trkpt>
      <trkpt lat="46.65263" lon="-0.2433">
        <ele>147.8</ele>
        <time>2023-02-12T10:25:54Z</time>
      </trkpt>
      <trkpt lat="46.65231" lon="-0.24303">
        <ele>147.2</ele>
        <time>2023-02-12T10:26:00Z</time>
      </trkpt>
      <trkpt lat="46.65214" lon="-0.24288">
        <ele>146.8</ele>
        <time>2023-02-12T10:26:03Z</time>
      </trkpt>
      <trkpt lat="46.65197" lon="-0.24273">
        <ele>146</ele>
        <time>2023-02-12T10:26:06Z</time>
      </trkpt>
      <trkpt lat="46.65192" lon="-0.24268">
        <ele>145.4</ele>
        <time>2023-02-12T10:26:07Z</time>
      </trkpt>
      <trkpt lat="46.65175" lon="-0.24252">
        <ele>144.2</ele>
        <time>2023-02-12T10:26:11Z</time>
      </trkpt>
      <trkpt lat="46.65152" lon="-0.24234">
        <ele>143.6</ele>
        <time>2023-02-12T10:26:17Z</time>
      </trkpt>
      <trkpt lat="46.65148" lon="-0.24231">
        <ele>143.6</ele>
        <time>2023-02-12T10:26:18Z</time>
      </trkpt>
      <trkpt lat="46.65104" lon="-0.24195">
        <ele>143.8</ele>
        <time>2023-02-12T10:26:27Z</time>
      </trkpt>
      <trkpt lat="46.651" lon="-0.24191">
        <ele>143.8</ele>
        <time>2023-02-12T10:26:28Z</time>
      </trkpt>
      <trkpt lat="46.6508" lon="-0.24175">
        <ele>144.4</ele>
        <time>2023-02-12T10:26:32Z</time>
      </trkpt>
      <trkpt lat="46.65075" lon="-0.24171">
        <ele>144.4</ele>
        <time>2023-02-12T10:26:33Z</time>
      </trkpt>
      <trkpt lat="46.65071" lon="-0.24166">
        <ele>144.2</ele>
        <time>2023-02-12T10:26:34Z</time>
      </trkpt>
      <trkpt lat="46.65056" lon="-0.24142">
        <ele>144.2</ele>
        <time>2023-02-12T10:26:38Z</time>
      </trkpt>
      <trkpt lat="46.65048" lon="-0.2413">
        <ele>144.4</ele>
        <time>2023-02-12T10:26:40Z</time>
      </trkpt>
      <trkpt lat="46.65035" lon="-0.2411">
        <ele>144.4</ele>
        <time>2023-02-12T10:26:43Z</time>
      </trkpt>
      <trkpt lat="46.6501" lon="-0.2407">
        <ele>143.2</ele>
        <time>2023-02-12T10:26:49Z</time>
      </trkpt>
      <trkpt lat="46.65006" lon="-0.24064">
        <ele>143.2</ele>
        <time>2023-02-12T10:26:50Z</time>
      </trkpt>
      <trkpt lat="46.64984" lon="-0.24036">
        <ele>143.4</ele>
        <time>2023-02-12T10:26:56Z</time>
      </trkpt>
      <trkpt lat="46.64967" lon="-0.24012">
        <ele>144.2</ele>
        <time>2023-02-12T10:27:02Z</time>
      </trkpt>
      <trkpt lat="46.64963" lon="-0.24007">
        <ele>144.4</ele>
        <time>2023-02-12T10:27:03Z</time>
      </trkpt>
      <trkpt lat="46.64949" lon="-0.23985">
        <ele>145.8</ele>
        <time>2023-02-12T10:27:08Z</time>
      </trkpt>
      <trkpt lat="46.64946" lon="-0.23981">
        <ele>146.2</ele>
        <time>2023-02-12T10:27:09Z</time>
      </trkpt>
      <trkpt lat="46.64937" lon="-0.23969">
        <ele>147</ele>
        <time>2023-02-12T10:27:13Z</time>
      </trkpt>
      <trkpt lat="46.64928" lon="-0.23959">
        <ele>147.4</ele>
        <time>2023-02-12T10:27:17Z</time>
      </trkpt>
      <trkpt lat="46.6492" lon="-0.23948">
        <ele>148</ele>
        <time>2023-02-12T10:27:21Z</time>
      </trkpt>
      <trkpt lat="46.64921" lon="-0.23941">
        <ele>148</ele>
        <time>2023-02-12T10:27:23Z</time>
      </trkpt>
      <trkpt lat="46.64933" lon="-0.2392">
        <ele>148.6</ele>
        <time>2023-02-12T10:27:29Z</time>
      </trkpt>
      <trkpt lat="46.64952" lon="-0.23894">
        <ele>149</ele>
        <time>2023-02-12T10:27:36Z</time>
      </trkpt>
      <trkpt lat="46.64978" lon="-0.23863">
        <ele>149.8</ele>
        <time>2023-02-12T10:27:44Z</time>
      </trkpt>
      <trkpt lat="46.65004" lon="-0.23829">
        <ele>150</ele>
        <time>2023-02-12T10:27:52Z</time>
      </trkpt>
      <trkpt lat="46.65012" lon="-0.2382">
        <ele>150.2</ele>
        <time>2023-02-12T10:27:54Z</time>
      </trkpt>
      <trkpt lat="46.65025" lon="-0.23802">
        <ele>150.6</ele>
        <time>2023-02-12T10:27:58Z</time>
      </trkpt>
      <trkpt lat="46.65027" lon="-0.23797">
        <ele>150.6</ele>
        <time>2023-02-12T10:27:59Z</time>
      </trkpt>
      <trkpt lat="46.6504" lon="-0.23777">
        <ele>150.8</ele>
        <time>2023-02-12T10:28:04Z</time>
      </trkpt>
      <trkpt lat="46.65047" lon="-0.23761">
        <ele>151</ele>
        <time>2023-02-12T10:28:09Z</time>
      </trkpt>
      <trkpt lat="46.65055" lon="-0.23741">
        <ele>150.8</ele>
        <time>2023-02-12T10:28:15Z</time>
      </trkpt>
      <trkpt lat="46.65061" lon="-0.23713">
        <ele>151.4</ele>
        <time>2023-02-12T10:28:20Z</time>
      </trkpt>
      <trkpt lat="46.65063" lon="-0.23707">
        <ele>151.6</ele>
        <time>2023-02-12T10:28:21Z</time>
      </trkpt>
      <trkpt lat="46.65071" lon="-0.23662">
        <ele>151.8</ele>
        <time>2023-02-12T10:28:28Z</time>
      </trkpt>
      <trkpt lat="46.65075" lon="-0.23618">
        <ele>151.4</ele>
        <time>2023-02-12T10:28:34Z</time>
      </trkpt>
      <trkpt lat="46.65076" lon="-0.23603">
        <ele>151.2</ele>
        <time>2023-02-12T10:28:36Z</time>
      </trkpt>
      <trkpt lat="46.65075" lon="-0.23592">
        <ele>151</ele>
        <time>2023-02-12T10:28:38Z</time>
      </trkpt>
      <trkpt lat="46.65072" lon="-0.23589">
        <ele>150.8</ele>
        <time>2023-02-12T10:28:39Z</time>
      </trkpt>
      <trkpt lat="46.65061" lon="-0.23579">
        <ele>150.4</ele>
        <time>2023-02-12T10:28:43Z</time>
      </trkpt>
      <trkpt lat="46.65054" lon="-0.23573">
        <ele>150.2</ele>
        <time>2023-02-12T10:28:46Z</time>
      </trkpt>
      <trkpt lat="46.65044" lon="-0.23573">
        <ele>150.2</ele>
        <time>2023-02-12T10:28:50Z</time>
      </trkpt>
      <trkpt lat="46.6503" lon="-0.23578">
        <ele>150.8</ele>
        <time>2023-02-12T10:28:56Z</time>
      </trkpt>
      <trkpt lat="46.65028" lon="-0.23577">
        <ele>151</ele>
        <time>2023-02-12T10:28:57Z</time>
      </trkpt>
      <trkpt lat="46.65027" lon="-0.23575">
        <ele>151</ele>
        <time>2023-02-12T10:28:58Z</time>
      </trkpt>
      <trkpt lat="46.65024" lon="-0.2357">
        <ele>151.4</ele>
        <time>2023-02-12T10:29:00Z</time>
      </trkpt>
      <trkpt lat="46.6502" lon="-0.23562">
        <ele>151.6</ele>
        <time>2023-02-12T10:29:03Z</time>
      </trkpt>
      <trkpt lat="46.65011" lon="-0.23551">
        <ele>152</ele>
        <time>2023-02-12T10:29:09Z</time>
      </trkpt>
      <trkpt lat="46.65011" lon="-0.23551">
        <ele>152</ele>
        <time>2023-02-12T10:29:20Z</time>
      </trkpt>
      <trkpt lat="46.65011" lon="-0.23551">
        <ele>152</ele>
        <time>2023-02-12T10:29:40Z</time>
      </trkpt>
      <trkpt lat="46.65011" lon="-0.23551">
        <ele>151.8</ele>
        <time>2023-02-12T10:29:54Z</time>
      </trkpt>
    </trkseg>
  </trk>
</gpx>